<?xml version="1.0" encoding="UTF-8" standalone="no" ?>
<gpx xmlns="http://www.topografix.com/GPX/1/1" xmlns:xsi="http://www.w3.org/2001/XMLSchema-instance" xsi:schemaLocation="http://www.topografix.com/GPX/1/1 http://www.topografix.com/GPX/1/1/gpx.xsd" version="1.1" creator="VisuGPX - https://www.visugpx.com">
  <metadata>
    <name>Jour 1 préstage</name>
    <desc><![CDATA[Chateau de la Rochepot]]></desc>
  </metadata>
  <trk>
    <name><![CDATA[Jour 1 préstage]]></name>
    <trkseg>
      <trkpt lat="46.87217" lon="4.65503">
        <ele>223.48867797852</ele>
        <time>2021-05-22T08:21:46Z</time>
      </trkpt>
      <trkpt lat="46.87221" lon="4.65509">
        <ele>225.48883056641</ele>
        <time>2021-05-22T08:26:30Z</time>
      </trkpt>
      <trkpt lat="46.87243" lon="4.6553">
        <ele>228.48973083496</ele>
        <time>2021-05-22T08:26:35Z</time>
      </trkpt>
      <trkpt lat="46.8726" lon="4.65553">
        <ele>225.49041748047</ele>
        <time>2021-05-22T08:26:40Z</time>
      </trkpt>
      <trkpt lat="46.87274" lon="4.65581">
        <ele>227.49096679688</ele>
        <time>2021-05-22T08:26:45Z</time>
      </trkpt>
      <trkpt lat="46.87285" lon="4.65604">
        <ele>226.49140930176</ele>
        <time>2021-05-22T08:26:49Z</time>
      </trkpt>
      <trkpt lat="46.873" lon="4.65637">
        <ele>227.49198913574</ele>
        <time>2021-05-22T08:26:54Z</time>
      </trkpt>
      <trkpt lat="46.87313" lon="4.65658">
        <ele>225.49253845215</ele>
        <time>2021-05-22T08:26:58Z</time>
      </trkpt>
      <trkpt lat="46.87331" lon="4.65682">
        <ele>227.49325561523</ele>
        <time>2021-05-22T08:27:03Z</time>
      </trkpt>
      <trkpt lat="46.87351" lon="4.65706">
        <ele>228.49403381348</ele>
        <time>2021-05-22T08:27:08Z</time>
      </trkpt>
      <trkpt lat="46.87371" lon="4.65728">
        <ele>228.4948425293</ele>
        <time>2021-05-22T08:27:13Z</time>
      </trkpt>
      <trkpt lat="46.87388" lon="4.65744">
        <ele>228.49552917481</ele>
        <time>2021-05-22T08:27:17Z</time>
      </trkpt>
      <trkpt lat="46.8741" lon="4.65765">
        <ele>228.49641418457</ele>
        <time>2021-05-22T08:27:22Z</time>
      </trkpt>
      <trkpt lat="46.87424" lon="4.6578">
        <ele>228.49697875977</ele>
        <time>2021-05-22T08:27:26Z</time>
      </trkpt>
      <trkpt lat="46.87441" lon="4.65794">
        <ele>229.49765014648</ele>
        <time>2021-05-22T08:27:30Z</time>
      </trkpt>
      <trkpt lat="46.87462" lon="4.65814">
        <ele>227.49847412109</ele>
        <time>2021-05-22T08:27:35Z</time>
      </trkpt>
      <trkpt lat="46.87477" lon="4.65828">
        <ele>226.49906921387</ele>
        <time>2021-05-22T08:27:39Z</time>
      </trkpt>
      <trkpt lat="46.87492" lon="4.65845">
        <ele>226.49966430664</ele>
        <time>2021-05-22T08:27:43Z</time>
      </trkpt>
      <trkpt lat="46.87507" lon="4.65863">
        <ele>224.50030517578</ele>
        <time>2021-05-22T08:27:48Z</time>
      </trkpt>
      <trkpt lat="46.87528" lon="4.65881">
        <ele>226.50112915039</ele>
        <time>2021-05-22T08:27:53Z</time>
      </trkpt>
      <trkpt lat="46.87549" lon="4.659">
        <ele>226.50196838379</ele>
        <time>2021-05-22T08:27:58Z</time>
      </trkpt>
      <trkpt lat="46.87566" lon="4.65915">
        <ele>226.50263977051</ele>
        <time>2021-05-22T08:28:02Z</time>
      </trkpt>
      <trkpt lat="46.87588" lon="4.65934">
        <ele>226.50350952148</ele>
        <time>2021-05-22T08:28:06Z</time>
      </trkpt>
      <trkpt lat="46.87608" lon="4.65948">
        <ele>225.50430297852</ele>
        <time>2021-05-22T08:28:10Z</time>
      </trkpt>
      <trkpt lat="46.87628" lon="4.65962">
        <ele>225.50512695312</ele>
        <time>2021-05-22T08:28:14Z</time>
      </trkpt>
      <trkpt lat="46.87649" lon="4.65974">
        <ele>225.50596618652</ele>
        <time>2021-05-22T08:28:18Z</time>
      </trkpt>
      <trkpt lat="46.87671" lon="4.65988">
        <ele>226.5068359375</ele>
        <time>2021-05-22T08:28:22Z</time>
      </trkpt>
      <trkpt lat="46.87696" lon="4.66004">
        <ele>223.50784301758</ele>
        <time>2021-05-22T08:28:27Z</time>
      </trkpt>
      <trkpt lat="46.87715" lon="4.66017">
        <ele>223.50859069824</ele>
        <time>2021-05-22T08:28:31Z</time>
      </trkpt>
      <trkpt lat="46.8774" lon="4.66031">
        <ele>222.50958251953</ele>
        <time>2021-05-22T08:28:36Z</time>
      </trkpt>
      <trkpt lat="46.87756" lon="4.66042">
        <ele>223.51022338867</ele>
        <time>2021-05-22T08:28:40Z</time>
      </trkpt>
      <trkpt lat="46.87775" lon="4.66054">
        <ele>223.5110168457</ele>
        <time>2021-05-22T08:28:44Z</time>
      </trkpt>
      <trkpt lat="46.87795" lon="4.66064">
        <ele>224.51181030273</ele>
        <time>2021-05-22T08:28:48Z</time>
      </trkpt>
      <trkpt lat="46.87812" lon="4.66077">
        <ele>226.51248168945</ele>
        <time>2021-05-22T08:28:52Z</time>
      </trkpt>
      <trkpt lat="46.87831" lon="4.66092">
        <ele>225.51325988769</ele>
        <time>2021-05-22T08:28:56Z</time>
      </trkpt>
      <trkpt lat="46.87851" lon="4.66113">
        <ele>225.51403808594</ele>
        <time>2021-05-22T08:29:01Z</time>
      </trkpt>
      <trkpt lat="46.87866" lon="4.66129">
        <ele>224.5146484375</ele>
        <time>2021-05-22T08:29:05Z</time>
      </trkpt>
      <trkpt lat="46.87881" lon="4.66149">
        <ele>224.51525878906</ele>
        <time>2021-05-22T08:29:09Z</time>
      </trkpt>
      <trkpt lat="46.87898" lon="4.66172">
        <ele>224.51591491699</ele>
        <time>2021-05-22T08:29:14Z</time>
      </trkpt>
      <trkpt lat="46.8791" lon="4.66193">
        <ele>224.51638793945</ele>
        <time>2021-05-22T08:29:18Z</time>
      </trkpt>
      <trkpt lat="46.87918" lon="4.66221">
        <ele>224.5167388916</ele>
        <time>2021-05-22T08:29:23Z</time>
      </trkpt>
      <trkpt lat="46.87929" lon="4.6625">
        <ele>224.51716613769</ele>
        <time>2021-05-22T08:29:28Z</time>
      </trkpt>
      <trkpt lat="46.87937" lon="4.66273">
        <ele>224.51748657227</ele>
        <time>2021-05-22T08:29:32Z</time>
      </trkpt>
      <trkpt lat="46.87953" lon="4.66296">
        <ele>224.51811218262</ele>
        <time>2021-05-22T08:29:37Z</time>
      </trkpt>
      <trkpt lat="46.87968" lon="4.66315">
        <ele>224.51870727539</ele>
        <time>2021-05-22T08:29:41Z</time>
      </trkpt>
      <trkpt lat="46.87979" lon="4.66339">
        <ele>224.51918029785</ele>
        <time>2021-05-22T08:29:45Z</time>
      </trkpt>
      <trkpt lat="46.87991" lon="4.66364">
        <ele>223.51963806152</ele>
        <time>2021-05-22T08:29:49Z</time>
      </trkpt>
      <trkpt lat="46.88004" lon="4.66395">
        <ele>224.52015686035</ele>
        <time>2021-05-22T08:29:54Z</time>
      </trkpt>
      <trkpt lat="46.88015" lon="4.66419">
        <ele>224.52058410644</ele>
        <time>2021-05-22T08:29:58Z</time>
      </trkpt>
      <trkpt lat="46.88027" lon="4.6644">
        <ele>224.52108764648</ele>
        <time>2021-05-22T08:30:02Z</time>
      </trkpt>
      <trkpt lat="46.88041" lon="4.66461">
        <ele>224.52165222168</ele>
        <time>2021-05-22T08:30:06Z</time>
      </trkpt>
      <trkpt lat="46.88063" lon="4.6648">
        <ele>225.52252197266</ele>
        <time>2021-05-22T08:30:11Z</time>
      </trkpt>
      <trkpt lat="46.88086" lon="4.66499">
        <ele>225.52345275879</ele>
        <time>2021-05-22T08:30:16Z</time>
      </trkpt>
      <trkpt lat="46.88105" lon="4.66512">
        <ele>226.52420043945</ele>
        <time>2021-05-22T08:30:20Z</time>
      </trkpt>
      <trkpt lat="46.88123" lon="4.66526">
        <ele>225.52493286133</ele>
        <time>2021-05-22T08:30:24Z</time>
      </trkpt>
      <trkpt lat="46.88146" lon="4.66543">
        <ele>225.52583312988</ele>
        <time>2021-05-22T08:30:29Z</time>
      </trkpt>
      <trkpt lat="46.88168" lon="4.66559">
        <ele>225.52671813965</ele>
        <time>2021-05-22T08:30:34Z</time>
      </trkpt>
      <trkpt lat="46.88186" lon="4.66572">
        <ele>225.52745056152</ele>
        <time>2021-05-22T08:30:38Z</time>
      </trkpt>
      <trkpt lat="46.88208" lon="4.66587">
        <ele>225.52833557129</ele>
        <time>2021-05-22T08:30:43Z</time>
      </trkpt>
      <trkpt lat="46.88225" lon="4.66599">
        <ele>226.52900695801</ele>
        <time>2021-05-22T08:30:47Z</time>
      </trkpt>
      <trkpt lat="46.88247" lon="4.66615">
        <ele>225.52987670898</ele>
        <time>2021-05-22T08:30:52Z</time>
      </trkpt>
      <trkpt lat="46.88269" lon="4.66631">
        <ele>227.53077697754</ele>
        <time>2021-05-22T08:30:57Z</time>
      </trkpt>
      <trkpt lat="46.88286" lon="4.66643">
        <ele>226.53143310547</ele>
        <time>2021-05-22T08:31:01Z</time>
      </trkpt>
      <trkpt lat="46.88303" lon="4.66655">
        <ele>225.53210449219</ele>
        <time>2021-05-22T08:31:05Z</time>
      </trkpt>
      <trkpt lat="46.88318" lon="4.66666">
        <ele>227.53269958496</ele>
        <time>2021-05-22T08:31:09Z</time>
      </trkpt>
      <trkpt lat="46.88333" lon="4.66677">
        <ele>228.53332519531</ele>
        <time>2021-05-22T08:31:13Z</time>
      </trkpt>
      <trkpt lat="46.88348" lon="4.66688">
        <ele>228.53393554688</ele>
        <time>2021-05-22T08:31:17Z</time>
      </trkpt>
      <trkpt lat="46.88365" lon="4.667">
        <ele>227.53460693359</ele>
        <time>2021-05-22T08:31:21Z</time>
      </trkpt>
      <trkpt lat="46.88387" lon="4.66717">
        <ele>226.53546142578</ele>
        <time>2021-05-22T08:31:26Z</time>
      </trkpt>
      <trkpt lat="46.88405" lon="4.66728">
        <ele>226.53619384766</ele>
        <time>2021-05-22T08:31:30Z</time>
      </trkpt>
      <trkpt lat="46.88423" lon="4.6674">
        <ele>225.53692626953</ele>
        <time>2021-05-22T08:31:34Z</time>
      </trkpt>
      <trkpt lat="46.88448" lon="4.66752">
        <ele>225.53791809082</ele>
        <time>2021-05-22T08:31:39Z</time>
      </trkpt>
      <trkpt lat="46.88467" lon="4.6676">
        <ele>226.53868103027</ele>
        <time>2021-05-22T08:31:43Z</time>
      </trkpt>
      <trkpt lat="46.8849" lon="4.66768">
        <ele>226.53959655762</ele>
        <time>2021-05-22T08:31:48Z</time>
      </trkpt>
      <trkpt lat="46.88514" lon="4.66776">
        <ele>225.54057312012</ele>
        <time>2021-05-22T08:31:53Z</time>
      </trkpt>
      <trkpt lat="46.88524" lon="4.66782">
        <ele>226.54096984863</ele>
        <time>2021-05-22T08:31:56Z</time>
      </trkpt>
      <trkpt lat="46.88549" lon="4.66805">
        <ele>228.54196166992</ele>
        <time>2021-05-22T08:32:01Z</time>
      </trkpt>
      <trkpt lat="46.88563" lon="4.66823">
        <ele>228.54252624512</ele>
        <time>2021-05-22T08:32:05Z</time>
      </trkpt>
      <trkpt lat="46.88575" lon="4.66847">
        <ele>226.54299926758</ele>
        <time>2021-05-22T08:32:09Z</time>
      </trkpt>
      <trkpt lat="46.88588" lon="4.66878">
        <ele>225.54351806641</ele>
        <time>2021-05-22T08:32:14Z</time>
      </trkpt>
      <trkpt lat="46.88599" lon="4.66903">
        <ele>224.54396057129</ele>
        <time>2021-05-22T08:32:18Z</time>
      </trkpt>
      <trkpt lat="46.88613" lon="4.66925">
        <ele>223.54450988769</ele>
        <time>2021-05-22T08:32:22Z</time>
      </trkpt>
      <trkpt lat="46.88625" lon="4.66946">
        <ele>223.54499816894</ele>
        <time>2021-05-22T08:32:26Z</time>
      </trkpt>
      <trkpt lat="46.88639" lon="4.66976">
        <ele>224.54554748535</ele>
        <time>2021-05-22T08:32:31Z</time>
      </trkpt>
      <trkpt lat="46.88649" lon="4.66999">
        <ele>222.54595947266</ele>
        <time>2021-05-22T08:32:35Z</time>
      </trkpt>
      <trkpt lat="46.88661" lon="4.67022">
        <ele>222.54644775391</ele>
        <time>2021-05-22T08:32:39Z</time>
      </trkpt>
      <trkpt lat="46.88673" lon="4.67058">
        <ele>224.54692077637</ele>
        <time>2021-05-22T08:32:44Z</time>
      </trkpt>
      <trkpt lat="46.88685" lon="4.6708">
        <ele>223.54740905762</ele>
        <time>2021-05-22T08:32:48Z</time>
      </trkpt>
      <trkpt lat="46.88696" lon="4.67109">
        <ele>224.54783630371</ele>
        <time>2021-05-22T08:32:52Z</time>
      </trkpt>
      <trkpt lat="46.88706" lon="4.67138">
        <ele>224.54824829102</ele>
        <time>2021-05-22T08:32:57Z</time>
      </trkpt>
      <trkpt lat="46.88713" lon="4.6716">
        <ele>225.54852294922</ele>
        <time>2021-05-22T08:33:01Z</time>
      </trkpt>
      <trkpt lat="46.88721" lon="4.67194">
        <ele>224.54885864258</ele>
        <time>2021-05-22T08:33:06Z</time>
      </trkpt>
      <trkpt lat="46.8875" lon="4.67207">
        <ele>226.55001831055</ele>
        <time>2021-05-22T08:33:11Z</time>
      </trkpt>
      <trkpt lat="46.88765" lon="4.67229">
        <ele>220.55058288574</ele>
        <time>2021-05-22T08:33:16Z</time>
      </trkpt>
      <trkpt lat="46.88773" lon="4.67271">
        <ele>223.5509185791</ele>
        <time>2021-05-22T08:33:20Z</time>
      </trkpt>
      <trkpt lat="46.88788" lon="4.67292">
        <ele>220.55154418945</ele>
        <time>2021-05-22T08:33:24Z</time>
      </trkpt>
      <trkpt lat="46.88803" lon="4.67328">
        <ele>226.55210876465</ele>
        <time>2021-05-22T08:33:29Z</time>
      </trkpt>
      <trkpt lat="46.88816" lon="4.67346">
        <ele>227.55262756348</ele>
        <time>2021-05-22T08:33:33Z</time>
      </trkpt>
      <trkpt lat="46.88832" lon="4.6736">
        <ele>227.55326843262</ele>
        <time>2021-05-22T08:33:37Z</time>
      </trkpt>
      <trkpt lat="46.88845" lon="4.67384">
        <ele>227.55381774902</ele>
        <time>2021-05-22T08:33:41Z</time>
      </trkpt>
      <trkpt lat="46.8886" lon="4.67402">
        <ele>226.55439758301</ele>
        <time>2021-05-22T08:33:45Z</time>
      </trkpt>
      <trkpt lat="46.8887" lon="4.67413">
        <ele>227.55480957031</ele>
        <time>2021-05-22T08:33:48Z</time>
      </trkpt>
      <trkpt lat="46.88883" lon="4.67444">
        <ele>227.55531311035</ele>
        <time>2021-05-22T08:33:53Z</time>
      </trkpt>
      <trkpt lat="46.88889" lon="4.67457">
        <ele>227.55554199219</ele>
        <time>2021-05-22T08:33:57Z</time>
      </trkpt>
      <trkpt lat="46.88893" lon="4.67466">
        <ele>227.55570983887</ele>
        <time>2021-05-22T08:34:00Z</time>
      </trkpt>
      <trkpt lat="46.88919" lon="4.67538">
        <ele>228.55674743652</ele>
        <time>2021-05-22T08:34:07Z</time>
      </trkpt>
      <trkpt lat="46.88921" lon="4.6757">
        <ele>228.55682373047</ele>
        <time>2021-05-22T08:34:11Z</time>
      </trkpt>
      <trkpt lat="46.88932" lon="4.67595">
        <ele>224.55728149414</ele>
        <time>2021-05-22T08:34:15Z</time>
      </trkpt>
      <trkpt lat="46.88945" lon="4.67639">
        <ele>224.55778503418</ele>
        <time>2021-05-22T08:34:20Z</time>
      </trkpt>
      <trkpt lat="46.88946" lon="4.67647">
        <ele>225.55784606934</ele>
        <time>2021-05-22T08:34:21Z</time>
      </trkpt>
      <trkpt lat="46.8897" lon="4.67683">
        <ele>227.55879211426</ele>
        <time>2021-05-22T08:34:28Z</time>
      </trkpt>
      <trkpt lat="46.88969" lon="4.67698">
        <ele>218.55876159668</ele>
        <time>2021-05-22T08:34:32Z</time>
      </trkpt>
      <trkpt lat="46.88973" lon="4.67734">
        <ele>222.55892944336</ele>
        <time>2021-05-22T08:34:37Z</time>
      </trkpt>
      <trkpt lat="46.88973" lon="4.67767">
        <ele>223.55892944336</ele>
        <time>2021-05-22T08:34:41Z</time>
      </trkpt>
      <trkpt lat="46.88973" lon="4.67796">
        <ele>225.55892944336</ele>
        <time>2021-05-22T08:34:45Z</time>
      </trkpt>
      <trkpt lat="46.88979" lon="4.67826">
        <ele>223.55914306641</ele>
        <time>2021-05-22T08:34:49Z</time>
      </trkpt>
      <trkpt lat="46.88985" lon="4.67851">
        <ele>227.55940246582</ele>
        <time>2021-05-22T08:34:53Z</time>
      </trkpt>
      <trkpt lat="46.88996" lon="4.67886">
        <ele>227.5598449707</ele>
        <time>2021-05-22T08:34:58Z</time>
      </trkpt>
      <trkpt lat="46.89009" lon="4.6791">
        <ele>225.56037902832</ele>
        <time>2021-05-22T08:35:02Z</time>
      </trkpt>
      <trkpt lat="46.89027" lon="4.67939">
        <ele>224.56106567383</ele>
        <time>2021-05-22T08:35:07Z</time>
      </trkpt>
      <trkpt lat="46.8904" lon="4.67965">
        <ele>224.56159973144</ele>
        <time>2021-05-22T08:35:11Z</time>
      </trkpt>
      <trkpt lat="46.89055" lon="4.67994">
        <ele>224.56221008301</ele>
        <time>2021-05-22T08:35:16Z</time>
      </trkpt>
      <trkpt lat="46.89071" lon="4.68018">
        <ele>224.56285095215</ele>
        <time>2021-05-22T08:35:21Z</time>
      </trkpt>
      <trkpt lat="46.89082" lon="4.68033">
        <ele>224.56327819824</ele>
        <time>2021-05-22T08:35:25Z</time>
      </trkpt>
      <trkpt lat="46.89095" lon="4.68053">
        <ele>225.56378173828</ele>
        <time>2021-05-22T08:35:30Z</time>
      </trkpt>
      <trkpt lat="46.89105" lon="4.68068">
        <ele>224.56420898438</ele>
        <time>2021-05-22T08:35:34Z</time>
      </trkpt>
      <trkpt lat="46.89122" lon="4.68084">
        <ele>225.56486511231</ele>
        <time>2021-05-22T08:35:39Z</time>
      </trkpt>
      <trkpt lat="46.89133" lon="4.68102">
        <ele>227.56530761719</ele>
        <time>2021-05-22T08:35:44Z</time>
      </trkpt>
      <trkpt lat="46.8914" lon="4.68116">
        <ele>228.56562805176</ele>
        <time>2021-05-22T08:35:48Z</time>
      </trkpt>
      <trkpt lat="46.89148" lon="4.68128">
        <ele>229.56591796875</ele>
        <time>2021-05-22T08:35:53Z</time>
      </trkpt>
      <trkpt lat="46.89156" lon="4.68144">
        <ele>229.56623840332</ele>
        <time>2021-05-22T08:35:57Z</time>
      </trkpt>
      <trkpt lat="46.89167" lon="4.6817">
        <ele>228.5666809082</ele>
        <time>2021-05-22T08:36:01Z</time>
      </trkpt>
      <trkpt lat="46.8918" lon="4.68196">
        <ele>228.56719970703</ele>
        <time>2021-05-22T08:36:05Z</time>
      </trkpt>
      <trkpt lat="46.89192" lon="4.68222">
        <ele>225.56767272949</ele>
        <time>2021-05-22T08:36:09Z</time>
      </trkpt>
      <trkpt lat="46.89203" lon="4.68247">
        <ele>225.56811523438</ele>
        <time>2021-05-22T08:36:13Z</time>
      </trkpt>
      <trkpt lat="46.89216" lon="4.68277">
        <ele>224.56864929199</ele>
        <time>2021-05-22T08:36:18Z</time>
      </trkpt>
      <trkpt lat="46.89231" lon="4.68305">
        <ele>225.56924438477</ele>
        <time>2021-05-22T08:36:23Z</time>
      </trkpt>
      <trkpt lat="46.89245" lon="4.68329">
        <ele>225.56980895996</ele>
        <time>2021-05-22T08:36:27Z</time>
      </trkpt>
      <trkpt lat="46.89265" lon="4.68359">
        <ele>225.57060241699</ele>
        <time>2021-05-22T08:36:32Z</time>
      </trkpt>
      <trkpt lat="46.89286" lon="4.68384">
        <ele>227.57145690918</ele>
        <time>2021-05-22T08:36:37Z</time>
      </trkpt>
      <trkpt lat="46.89306" lon="4.684">
        <ele>228.57225036621</ele>
        <time>2021-05-22T08:36:41Z</time>
      </trkpt>
      <trkpt lat="46.8933" lon="4.68421">
        <ele>228.57318115234</ele>
        <time>2021-05-22T08:36:46Z</time>
      </trkpt>
      <trkpt lat="46.89348" lon="4.68436">
        <ele>228.57391357422</ele>
        <time>2021-05-22T08:36:50Z</time>
      </trkpt>
      <trkpt lat="46.89367" lon="4.68451">
        <ele>228.57467651367</ele>
        <time>2021-05-22T08:36:54Z</time>
      </trkpt>
      <trkpt lat="46.89384" lon="4.68467">
        <ele>228.57537841797</ele>
        <time>2021-05-22T08:36:58Z</time>
      </trkpt>
      <trkpt lat="46.89407" lon="4.68489">
        <ele>228.57629394531</ele>
        <time>2021-05-22T08:37:03Z</time>
      </trkpt>
      <trkpt lat="46.89426" lon="4.68507">
        <ele>230.57704162598</ele>
        <time>2021-05-22T08:37:07Z</time>
      </trkpt>
      <trkpt lat="46.89444" lon="4.68539">
        <ele>228.57774353027</ele>
        <time>2021-05-22T08:37:12Z</time>
      </trkpt>
      <trkpt lat="46.89454" lon="4.68564">
        <ele>228.57814025879</ele>
        <time>2021-05-22T08:37:16Z</time>
      </trkpt>
      <trkpt lat="46.89463" lon="4.68599">
        <ele>226.57852172852</ele>
        <time>2021-05-22T08:37:21Z</time>
      </trkpt>
      <trkpt lat="46.89477" lon="4.6863">
        <ele>226.57907104492</ele>
        <time>2021-05-22T08:37:26Z</time>
      </trkpt>
      <trkpt lat="46.89491" lon="4.68653">
        <ele>224.57962036133</ele>
        <time>2021-05-22T08:37:30Z</time>
      </trkpt>
      <trkpt lat="46.89511" lon="4.68679">
        <ele>225.58045959473</ele>
        <time>2021-05-22T08:37:35Z</time>
      </trkpt>
      <trkpt lat="46.89536" lon="4.68696">
        <ele>226.58142089844</ele>
        <time>2021-05-22T08:37:40Z</time>
      </trkpt>
      <trkpt lat="46.89554" lon="4.68711">
        <ele>225.58215332031</ele>
        <time>2021-05-22T08:37:44Z</time>
      </trkpt>
      <trkpt lat="46.89577" lon="4.6873">
        <ele>225.58308410644</ele>
        <time>2021-05-22T08:37:49Z</time>
      </trkpt>
      <trkpt lat="46.89598" lon="4.68746">
        <ele>225.58393859863</ele>
        <time>2021-05-22T08:37:54Z</time>
      </trkpt>
      <trkpt lat="46.89615" lon="4.68763">
        <ele>225.58460998535</ele>
        <time>2021-05-22T08:37:58Z</time>
      </trkpt>
      <trkpt lat="46.89636" lon="4.68782">
        <ele>226.58544921875</ele>
        <time>2021-05-22T08:38:03Z</time>
      </trkpt>
      <trkpt lat="46.89659" lon="4.68798">
        <ele>226.58636474609</ele>
        <time>2021-05-22T08:38:08Z</time>
      </trkpt>
      <trkpt lat="46.89678" lon="4.6881">
        <ele>226.58712768555</ele>
        <time>2021-05-22T08:38:12Z</time>
      </trkpt>
      <trkpt lat="46.89702" lon="4.68825">
        <ele>226.58807373047</ele>
        <time>2021-05-22T08:38:17Z</time>
      </trkpt>
      <trkpt lat="46.89721" lon="4.68836">
        <ele>226.58883666992</ele>
        <time>2021-05-22T08:38:21Z</time>
      </trkpt>
      <trkpt lat="46.89745" lon="4.6885">
        <ele>226.58981323242</ele>
        <time>2021-05-22T08:38:26Z</time>
      </trkpt>
      <trkpt lat="46.89769" lon="4.68864">
        <ele>226.59075927734</ele>
        <time>2021-05-22T08:38:31Z</time>
      </trkpt>
      <trkpt lat="46.89788" lon="4.68876">
        <ele>226.5915222168</ele>
        <time>2021-05-22T08:38:35Z</time>
      </trkpt>
      <trkpt lat="46.89807" lon="4.68887">
        <ele>225.59228515625</ele>
        <time>2021-05-22T08:38:39Z</time>
      </trkpt>
      <trkpt lat="46.89829" lon="4.68897">
        <ele>225.59313964844</ele>
        <time>2021-05-22T08:38:43Z</time>
      </trkpt>
      <trkpt lat="46.89846" lon="4.68909">
        <ele>225.59385681152</ele>
        <time>2021-05-22T08:38:47Z</time>
      </trkpt>
      <trkpt lat="46.89872" lon="4.68915">
        <ele>225.59489440918</ele>
        <time>2021-05-22T08:38:52Z</time>
      </trkpt>
      <trkpt lat="46.89894" lon="4.68917">
        <ele>225.59574890137</ele>
        <time>2021-05-22T08:38:56Z</time>
      </trkpt>
      <trkpt lat="46.89912" lon="4.68923">
        <ele>225.59648132324</ele>
        <time>2021-05-22T08:39:00Z</time>
      </trkpt>
      <trkpt lat="46.89937" lon="4.68936">
        <ele>225.59748840332</ele>
        <time>2021-05-22T08:39:05Z</time>
      </trkpt>
      <trkpt lat="46.89954" lon="4.68953">
        <ele>225.59815979004</ele>
        <time>2021-05-22T08:39:09Z</time>
      </trkpt>
      <trkpt lat="46.89972" lon="4.68976">
        <ele>225.59887695312</ele>
        <time>2021-05-22T08:39:14Z</time>
      </trkpt>
      <trkpt lat="46.89986" lon="4.68999">
        <ele>225.59944152832</ele>
        <time>2021-05-22T08:39:18Z</time>
      </trkpt>
      <trkpt lat="46.90005" lon="4.69022">
        <ele>226.60020446777</ele>
        <time>2021-05-22T08:39:23Z</time>
      </trkpt>
      <trkpt lat="46.90021" lon="4.69043">
        <ele>226.60083007812</ele>
        <time>2021-05-22T08:39:27Z</time>
      </trkpt>
      <trkpt lat="46.90038" lon="4.69063">
        <ele>226.60150146484</ele>
        <time>2021-05-22T08:39:31Z</time>
      </trkpt>
      <trkpt lat="46.90054" lon="4.69083">
        <ele>225.60217285156</ele>
        <time>2021-05-22T08:39:35Z</time>
      </trkpt>
      <trkpt lat="46.90072" lon="4.69103">
        <ele>224.60289001465</ele>
        <time>2021-05-22T08:39:39Z</time>
      </trkpt>
      <trkpt lat="46.90091" lon="4.6912">
        <ele>225.60363769531</ele>
        <time>2021-05-22T08:39:43Z</time>
      </trkpt>
      <trkpt lat="46.90113" lon="4.69143">
        <ele>225.60450744629</ele>
        <time>2021-05-22T08:39:48Z</time>
      </trkpt>
      <trkpt lat="46.90128" lon="4.6916">
        <ele>224.60510253906</ele>
        <time>2021-05-22T08:39:52Z</time>
      </trkpt>
      <trkpt lat="46.90141" lon="4.6918">
        <ele>222.60563659668</ele>
        <time>2021-05-22T08:39:56Z</time>
      </trkpt>
      <trkpt lat="46.90154" lon="4.69203">
        <ele>225.6061706543</ele>
        <time>2021-05-22T08:40:00Z</time>
      </trkpt>
      <trkpt lat="46.90169" lon="4.69229">
        <ele>228.60676574707</ele>
        <time>2021-05-22T08:40:05Z</time>
      </trkpt>
      <trkpt lat="46.90184" lon="4.6925">
        <ele>227.60734558106</ele>
        <time>2021-05-22T08:40:09Z</time>
      </trkpt>
      <trkpt lat="46.90199" lon="4.69277">
        <ele>224.60794067383</ele>
        <time>2021-05-22T08:40:13Z</time>
      </trkpt>
      <trkpt lat="46.90215" lon="4.69307">
        <ele>225.60861206055</ele>
        <time>2021-05-22T08:40:18Z</time>
      </trkpt>
      <trkpt lat="46.90234" lon="4.69338">
        <ele>224.60935974121</ele>
        <time>2021-05-22T08:40:23Z</time>
      </trkpt>
      <trkpt lat="46.90249" lon="4.69361">
        <ele>225.60995483398</ele>
        <time>2021-05-22T08:40:27Z</time>
      </trkpt>
      <trkpt lat="46.90263" lon="4.69381">
        <ele>226.61053466797</ele>
        <time>2021-05-22T08:40:31Z</time>
      </trkpt>
      <trkpt lat="46.90284" lon="4.69408">
        <ele>225.61138916016</ele>
        <time>2021-05-22T08:40:36Z</time>
      </trkpt>
      <trkpt lat="46.90306" lon="4.69432">
        <ele>227.61222839356</ele>
        <time>2021-05-22T08:40:41Z</time>
      </trkpt>
      <trkpt lat="46.90322" lon="4.69448">
        <ele>229.61289978027</ele>
        <time>2021-05-22T08:40:45Z</time>
      </trkpt>
      <trkpt lat="46.90339" lon="4.69465">
        <ele>229.6135559082</ele>
        <time>2021-05-22T08:40:49Z</time>
      </trkpt>
      <trkpt lat="46.90356" lon="4.69483">
        <ele>233.6142578125</ele>
        <time>2021-05-22T08:40:54Z</time>
      </trkpt>
      <trkpt lat="46.90374" lon="4.69502">
        <ele>230.61497497559</ele>
        <time>2021-05-22T08:40:58Z</time>
      </trkpt>
      <trkpt lat="46.90394" lon="4.69523">
        <ele>233.61576843262</ele>
        <time>2021-05-22T08:41:03Z</time>
      </trkpt>
      <trkpt lat="46.90411" lon="4.69548">
        <ele>232.61642456055</ele>
        <time>2021-05-22T08:41:08Z</time>
      </trkpt>
      <trkpt lat="46.90427" lon="4.69577">
        <ele>238.61709594727</ele>
        <time>2021-05-22T08:41:13Z</time>
      </trkpt>
      <trkpt lat="46.90437" lon="4.69602">
        <ele>242.6174621582</ele>
        <time>2021-05-22T08:41:17Z</time>
      </trkpt>
      <trkpt lat="46.9045" lon="4.69643">
        <ele>235.61801147461</ele>
        <time>2021-05-22T08:41:22Z</time>
      </trkpt>
      <trkpt lat="46.90461" lon="4.69669">
        <ele>238.61845397949</ele>
        <time>2021-05-22T08:41:26Z</time>
      </trkpt>
      <trkpt lat="46.90472" lon="4.69698">
        <ele>235.6188659668</ele>
        <time>2021-05-22T08:41:30Z</time>
      </trkpt>
      <trkpt lat="46.9048" lon="4.69728">
        <ele>234.61921691894</ele>
        <time>2021-05-22T08:41:34Z</time>
      </trkpt>
      <trkpt lat="46.90488" lon="4.69758">
        <ele>233.61952209473</ele>
        <time>2021-05-22T08:41:38Z</time>
      </trkpt>
      <trkpt lat="46.90498" lon="4.69797">
        <ele>231.61993408203</ele>
        <time>2021-05-22T08:41:43Z</time>
      </trkpt>
      <trkpt lat="46.90505" lon="4.69826">
        <ele>231.62022399902</ele>
        <time>2021-05-22T08:41:47Z</time>
      </trkpt>
      <trkpt lat="46.9051" lon="4.69865">
        <ele>229.62040710449</ele>
        <time>2021-05-22T08:41:52Z</time>
      </trkpt>
      <trkpt lat="46.90514" lon="4.69899">
        <ele>234.62054443359</ele>
        <time>2021-05-22T08:41:57Z</time>
      </trkpt>
      <trkpt lat="46.90516" lon="4.69933">
        <ele>233.62065124512</ele>
        <time>2021-05-22T08:42:01Z</time>
      </trkpt>
      <trkpt lat="46.90519" lon="4.69971">
        <ele>232.62075805664</ele>
        <time>2021-05-22T08:42:06Z</time>
      </trkpt>
      <trkpt lat="46.9052" lon="4.70004">
        <ele>229.6208190918</ele>
        <time>2021-05-22T08:42:10Z</time>
      </trkpt>
      <trkpt lat="46.90522" lon="4.70039">
        <ele>233.62089538574</ele>
        <time>2021-05-22T08:42:15Z</time>
      </trkpt>
      <trkpt lat="46.90522" lon="4.70079">
        <ele>230.62088012695</ele>
        <time>2021-05-22T08:42:20Z</time>
      </trkpt>
      <trkpt lat="46.9052" lon="4.70118">
        <ele>228.62078857422</ele>
        <time>2021-05-22T08:42:25Z</time>
      </trkpt>
      <trkpt lat="46.90515" lon="4.70149">
        <ele>228.62059020996</ele>
        <time>2021-05-22T08:42:29Z</time>
      </trkpt>
      <trkpt lat="46.90511" lon="4.70189">
        <ele>225.62043762207</ele>
        <time>2021-05-22T08:42:34Z</time>
      </trkpt>
      <trkpt lat="46.90508" lon="4.7022">
        <ele>226.62030029297</ele>
        <time>2021-05-22T08:42:38Z</time>
      </trkpt>
      <trkpt lat="46.90503" lon="4.70261">
        <ele>226.62010192871</ele>
        <time>2021-05-22T08:42:43Z</time>
      </trkpt>
      <trkpt lat="46.90498" lon="4.70292">
        <ele>226.61993408203</ele>
        <time>2021-05-22T08:42:47Z</time>
      </trkpt>
      <trkpt lat="46.90495" lon="4.70322">
        <ele>225.61979675293</ele>
        <time>2021-05-22T08:42:51Z</time>
      </trkpt>
      <trkpt lat="46.90491" lon="4.70353">
        <ele>225.61962890625</ele>
        <time>2021-05-22T08:42:55Z</time>
      </trkpt>
      <trkpt lat="46.90487" lon="4.70391">
        <ele>225.61946105957</ele>
        <time>2021-05-22T08:43:00Z</time>
      </trkpt>
      <trkpt lat="46.9048" lon="4.70422">
        <ele>225.61918640137</ele>
        <time>2021-05-22T08:43:04Z</time>
      </trkpt>
      <trkpt lat="46.90472" lon="4.70459">
        <ele>225.61888122559</ele>
        <time>2021-05-22T08:43:09Z</time>
      </trkpt>
      <trkpt lat="46.90465" lon="4.70494">
        <ele>228.61859130859</ele>
        <time>2021-05-22T08:43:14Z</time>
      </trkpt>
      <trkpt lat="46.9046" lon="4.7052">
        <ele>231.61839294434</ele>
        <time>2021-05-22T08:43:18Z</time>
      </trkpt>
      <trkpt lat="46.90454" lon="4.7056">
        <ele>230.61814880371</ele>
        <time>2021-05-22T08:43:23Z</time>
      </trkpt>
      <trkpt lat="46.90454" lon="4.70587">
        <ele>232.61814880371</ele>
        <time>2021-05-22T08:43:27Z</time>
      </trkpt>
      <trkpt lat="46.90455" lon="4.70614">
        <ele>238.61820983887</ele>
        <time>2021-05-22T08:43:31Z</time>
      </trkpt>
      <trkpt lat="46.90461" lon="4.70646">
        <ele>236.61845397949</ele>
        <time>2021-05-22T08:43:35Z</time>
      </trkpt>
      <trkpt lat="46.90472" lon="4.70675">
        <ele>235.61888122559</ele>
        <time>2021-05-22T08:43:39Z</time>
      </trkpt>
      <trkpt lat="46.9049" lon="4.70706">
        <ele>234.61956787109</ele>
        <time>2021-05-22T08:43:44Z</time>
      </trkpt>
      <trkpt lat="46.90497" lon="4.70743">
        <ele>229.61987304688</ele>
        <time>2021-05-22T08:43:49Z</time>
      </trkpt>
      <trkpt lat="46.90496" lon="4.70776">
        <ele>230.61985778809</ele>
        <time>2021-05-22T08:43:53Z</time>
      </trkpt>
      <trkpt lat="46.90496" lon="4.70813">
        <ele>229.61982727051</ele>
        <time>2021-05-22T08:43:57Z</time>
      </trkpt>
      <trkpt lat="46.90494" lon="4.70848">
        <ele>228.61976623535</ele>
        <time>2021-05-22T08:44:01Z</time>
      </trkpt>
      <trkpt lat="46.90495" lon="4.70892">
        <ele>229.61979675293</ele>
        <time>2021-05-22T08:44:06Z</time>
      </trkpt>
      <trkpt lat="46.90496" lon="4.70927">
        <ele>228.61985778809</ele>
        <time>2021-05-22T08:44:10Z</time>
      </trkpt>
      <trkpt lat="46.90497" lon="4.70958">
        <ele>228.61987304688</ele>
        <time>2021-05-22T08:44:14Z</time>
      </trkpt>
      <trkpt lat="46.90489" lon="4.70984">
        <ele>226.61956787109</ele>
        <time>2021-05-22T08:44:18Z</time>
      </trkpt>
      <trkpt lat="46.90482" lon="4.71012">
        <ele>226.61926269531</ele>
        <time>2021-05-22T08:44:22Z</time>
      </trkpt>
      <trkpt lat="46.90477" lon="4.71047">
        <ele>227.61906433106</ele>
        <time>2021-05-22T08:44:27Z</time>
      </trkpt>
      <trkpt lat="46.90477" lon="4.71075">
        <ele>227.61906433106</ele>
        <time>2021-05-22T08:44:31Z</time>
      </trkpt>
      <trkpt lat="46.90482" lon="4.7111">
        <ele>226.6192779541</ele>
        <time>2021-05-22T08:44:36Z</time>
      </trkpt>
      <trkpt lat="46.90494" lon="4.71144">
        <ele>225.61975097656</ele>
        <time>2021-05-22T08:44:41Z</time>
      </trkpt>
      <trkpt lat="46.90503" lon="4.71171">
        <ele>224.62013244629</ele>
        <time>2021-05-22T08:44:45Z</time>
      </trkpt>
      <trkpt lat="46.90513" lon="4.71202">
        <ele>224.62051391602</ele>
        <time>2021-05-22T08:44:49Z</time>
      </trkpt>
      <trkpt lat="46.90527" lon="4.71238">
        <ele>224.62106323242</ele>
        <time>2021-05-22T08:44:54Z</time>
      </trkpt>
      <trkpt lat="46.90537" lon="4.71266">
        <ele>223.62147521973</ele>
        <time>2021-05-22T08:44:58Z</time>
      </trkpt>
      <trkpt lat="46.90549" lon="4.71301">
        <ele>222.62197875977</ele>
        <time>2021-05-22T08:45:03Z</time>
      </trkpt>
      <trkpt lat="46.9056" lon="4.7133">
        <ele>223.62239074707</ele>
        <time>2021-05-22T08:45:07Z</time>
      </trkpt>
      <trkpt lat="46.90572" lon="4.71364">
        <ele>223.62289428711</ele>
        <time>2021-05-22T08:45:12Z</time>
      </trkpt>
      <trkpt lat="46.90582" lon="4.71391">
        <ele>224.62327575684</ele>
        <time>2021-05-22T08:45:16Z</time>
      </trkpt>
      <trkpt lat="46.90594" lon="4.71428">
        <ele>224.62376403809</ele>
        <time>2021-05-22T08:45:21Z</time>
      </trkpt>
      <trkpt lat="46.90604" lon="4.71456">
        <ele>224.62414550781</ele>
        <time>2021-05-22T08:45:25Z</time>
      </trkpt>
      <trkpt lat="46.90615" lon="4.71492">
        <ele>224.62461853027</ele>
        <time>2021-05-22T08:45:30Z</time>
      </trkpt>
      <trkpt lat="46.90627" lon="4.71521">
        <ele>222.62507629394</ele>
        <time>2021-05-22T08:45:34Z</time>
      </trkpt>
      <trkpt lat="46.90642" lon="4.71557">
        <ele>223.62568664551</ele>
        <time>2021-05-22T08:45:39Z</time>
      </trkpt>
      <trkpt lat="46.90657" lon="4.71592">
        <ele>223.62631225586</ele>
        <time>2021-05-22T08:45:44Z</time>
      </trkpt>
      <trkpt lat="46.90675" lon="4.71628">
        <ele>222.62698364258</ele>
        <time>2021-05-22T08:45:49Z</time>
      </trkpt>
      <trkpt lat="46.90687" lon="4.71655">
        <ele>223.62748718262</ele>
        <time>2021-05-22T08:45:53Z</time>
      </trkpt>
      <trkpt lat="46.90699" lon="4.71681">
        <ele>223.62797546387</ele>
        <time>2021-05-22T08:45:57Z</time>
      </trkpt>
      <trkpt lat="46.9071" lon="4.7171">
        <ele>223.62841796875</ele>
        <time>2021-05-22T08:46:01Z</time>
      </trkpt>
      <trkpt lat="46.90721" lon="4.71748">
        <ele>223.62884521484</ele>
        <time>2021-05-22T08:46:06Z</time>
      </trkpt>
      <trkpt lat="46.90726" lon="4.71778">
        <ele>223.62905883789</ele>
        <time>2021-05-22T08:46:10Z</time>
      </trkpt>
      <trkpt lat="46.90733" lon="4.71819">
        <ele>223.62930297852</ele>
        <time>2021-05-22T08:46:15Z</time>
      </trkpt>
      <trkpt lat="46.90737" lon="4.71855">
        <ele>222.62948608398</ele>
        <time>2021-05-22T08:46:19Z</time>
      </trkpt>
      <trkpt lat="46.90743" lon="4.71892">
        <ele>223.62971496582</ele>
        <time>2021-05-22T08:46:24Z</time>
      </trkpt>
      <trkpt lat="46.90741" lon="4.71922">
        <ele>224.62962341309</ele>
        <time>2021-05-22T08:46:28Z</time>
      </trkpt>
      <trkpt lat="46.90725" lon="4.71957">
        <ele>223.62899780273</ele>
        <time>2021-05-22T08:46:33Z</time>
      </trkpt>
      <trkpt lat="46.90707" lon="4.71973">
        <ele>224.62828063965</ele>
        <time>2021-05-22T08:46:37Z</time>
      </trkpt>
      <trkpt lat="46.90683" lon="4.7199">
        <ele>223.62731933594</ele>
        <time>2021-05-22T08:46:42Z</time>
      </trkpt>
      <trkpt lat="46.90663" lon="4.72012">
        <ele>223.62651062012</ele>
        <time>2021-05-22T08:46:47Z</time>
      </trkpt>
      <trkpt lat="46.90649" lon="4.72035">
        <ele>223.6259765625</ele>
        <time>2021-05-22T08:46:51Z</time>
      </trkpt>
      <trkpt lat="46.90639" lon="4.72059">
        <ele>223.62557983398</ele>
        <time>2021-05-22T08:46:55Z</time>
      </trkpt>
      <trkpt lat="46.90633" lon="4.7208">
        <ele>223.62532043457</ele>
        <time>2021-05-22T08:46:59Z</time>
      </trkpt>
      <trkpt lat="46.90634" lon="4.72109">
        <ele>222.62535095215</ele>
        <time>2021-05-22T08:47:03Z</time>
      </trkpt>
      <trkpt lat="46.90634" lon="4.72146">
        <ele>224.62535095215</ele>
        <time>2021-05-22T08:47:08Z</time>
      </trkpt>
      <trkpt lat="46.90631" lon="4.72178">
        <ele>223.62524414062</ele>
        <time>2021-05-22T08:47:12Z</time>
      </trkpt>
      <trkpt lat="46.90627" lon="4.7221">
        <ele>224.62507629394</ele>
        <time>2021-05-22T08:47:16Z</time>
      </trkpt>
      <trkpt lat="46.90625" lon="4.72248">
        <ele>228.625</ele>
        <time>2021-05-22T08:47:21Z</time>
      </trkpt>
      <trkpt lat="46.90629" lon="4.72285">
        <ele>225.62515258789</ele>
        <time>2021-05-22T08:47:25Z</time>
      </trkpt>
      <trkpt lat="46.90635" lon="4.72321">
        <ele>225.62538146973</ele>
        <time>2021-05-22T08:47:29Z</time>
      </trkpt>
      <trkpt lat="46.90644" lon="4.72353">
        <ele>225.62576293945</ele>
        <time>2021-05-22T08:47:33Z</time>
      </trkpt>
      <trkpt lat="46.90655" lon="4.72384">
        <ele>224.62620544434</ele>
        <time>2021-05-22T08:47:37Z</time>
      </trkpt>
      <trkpt lat="46.90665" lon="4.72415">
        <ele>225.62661743164</ele>
        <time>2021-05-22T08:47:41Z</time>
      </trkpt>
      <trkpt lat="46.90672" lon="4.72448">
        <ele>227.62687683106</ele>
        <time>2021-05-22T08:47:45Z</time>
      </trkpt>
      <trkpt lat="46.90674" lon="4.72494">
        <ele>226.62696838379</ele>
        <time>2021-05-22T08:47:50Z</time>
      </trkpt>
      <trkpt lat="46.90676" lon="4.72538">
        <ele>225.62702941894</ele>
        <time>2021-05-22T08:47:55Z</time>
      </trkpt>
      <trkpt lat="46.9068" lon="4.72573">
        <ele>225.62721252441</ele>
        <time>2021-05-22T08:47:59Z</time>
      </trkpt>
      <trkpt lat="46.9069" lon="4.72616">
        <ele>224.62760925293</ele>
        <time>2021-05-22T08:48:04Z</time>
      </trkpt>
      <trkpt lat="46.907" lon="4.72649">
        <ele>223.62800598144</ele>
        <time>2021-05-22T08:48:08Z</time>
      </trkpt>
      <trkpt lat="46.90715" lon="4.72685">
        <ele>224.62860107422</ele>
        <time>2021-05-22T08:48:13Z</time>
      </trkpt>
      <trkpt lat="46.90726" lon="4.72716">
        <ele>224.62905883789</ele>
        <time>2021-05-22T08:48:17Z</time>
      </trkpt>
      <trkpt lat="46.90732" lon="4.72749">
        <ele>224.62927246094</ele>
        <time>2021-05-22T08:48:21Z</time>
      </trkpt>
      <trkpt lat="46.90731" lon="4.72781">
        <ele>224.62924194336</ele>
        <time>2021-05-22T08:48:25Z</time>
      </trkpt>
      <trkpt lat="46.9073" lon="4.72814">
        <ele>226.62919616699</ele>
        <time>2021-05-22T08:48:29Z</time>
      </trkpt>
      <trkpt lat="46.90733" lon="4.72856">
        <ele>228.62930297852</ele>
        <time>2021-05-22T08:48:34Z</time>
      </trkpt>
      <trkpt lat="46.90742" lon="4.72887">
        <ele>229.62969970703</ele>
        <time>2021-05-22T08:48:38Z</time>
      </trkpt>
      <trkpt lat="46.90755" lon="4.72916">
        <ele>229.63021850586</ele>
        <time>2021-05-22T08:48:42Z</time>
      </trkpt>
      <trkpt lat="46.90771" lon="4.72942">
        <ele>228.630859375</ele>
        <time>2021-05-22T08:48:46Z</time>
      </trkpt>
      <trkpt lat="46.90793" lon="4.72975">
        <ele>230.63171386719</ele>
        <time>2021-05-22T08:48:51Z</time>
      </trkpt>
      <trkpt lat="46.90809" lon="4.73002">
        <ele>228.63235473633</ele>
        <time>2021-05-22T08:48:55Z</time>
      </trkpt>
      <trkpt lat="46.90829" lon="4.73035">
        <ele>228.63317871094</ele>
        <time>2021-05-22T08:49:00Z</time>
      </trkpt>
      <trkpt lat="46.90845" lon="4.73062">
        <ele>227.6337890625</ele>
        <time>2021-05-22T08:49:04Z</time>
      </trkpt>
      <trkpt lat="46.90857" lon="4.73093">
        <ele>227.63429260254</ele>
        <time>2021-05-22T08:49:08Z</time>
      </trkpt>
      <trkpt lat="46.90867" lon="4.73128">
        <ele>225.63468933106</ele>
        <time>2021-05-22T08:49:12Z</time>
      </trkpt>
      <trkpt lat="46.9087" lon="4.73161">
        <ele>225.63478088379</ele>
        <time>2021-05-22T08:49:16Z</time>
      </trkpt>
      <trkpt lat="46.90868" lon="4.73203">
        <ele>225.63473510742</ele>
        <time>2021-05-22T08:49:21Z</time>
      </trkpt>
      <trkpt lat="46.90867" lon="4.73238">
        <ele>223.63467407227</ele>
        <time>2021-05-22T08:49:25Z</time>
      </trkpt>
      <trkpt lat="46.90871" lon="4.73272">
        <ele>223.63485717773</ele>
        <time>2021-05-22T08:49:29Z</time>
      </trkpt>
      <trkpt lat="46.90892" lon="4.73303">
        <ele>222.63568115234</ele>
        <time>2021-05-22T08:49:34Z</time>
      </trkpt>
      <trkpt lat="46.90914" lon="4.73318">
        <ele>222.63653564453</ele>
        <time>2021-05-22T08:49:38Z</time>
      </trkpt>
      <trkpt lat="46.90935" lon="4.73333">
        <ele>221.63740539551</ele>
        <time>2021-05-22T08:49:42Z</time>
      </trkpt>
      <trkpt lat="46.90956" lon="4.73362">
        <ele>220.63824462891</ele>
        <time>2021-05-22T08:49:47Z</time>
      </trkpt>
      <trkpt lat="46.90968" lon="4.73393">
        <ele>221.63873291016</ele>
        <time>2021-05-22T08:49:51Z</time>
      </trkpt>
      <trkpt lat="46.90976" lon="4.73427">
        <ele>221.63905334473</ele>
        <time>2021-05-22T08:49:55Z</time>
      </trkpt>
      <trkpt lat="46.90985" lon="4.7347">
        <ele>222.63941955566</ele>
        <time>2021-05-22T08:50:00Z</time>
      </trkpt>
      <trkpt lat="46.90992" lon="4.73502">
        <ele>224.63969421387</ele>
        <time>2021-05-22T08:50:04Z</time>
      </trkpt>
      <trkpt lat="46.91001" lon="4.73547">
        <ele>225.64002990723</ele>
        <time>2021-05-22T08:50:09Z</time>
      </trkpt>
      <trkpt lat="46.9101" lon="4.73591">
        <ele>226.64039611816</ele>
        <time>2021-05-22T08:50:14Z</time>
      </trkpt>
      <trkpt lat="46.91017" lon="4.73625">
        <ele>226.64068603516</ele>
        <time>2021-05-22T08:50:18Z</time>
      </trkpt>
      <trkpt lat="46.91023" lon="4.7366">
        <ele>227.64093017578</ele>
        <time>2021-05-22T08:50:22Z</time>
      </trkpt>
      <trkpt lat="46.91026" lon="4.73696">
        <ele>228.64105224609</ele>
        <time>2021-05-22T08:50:26Z</time>
      </trkpt>
      <trkpt lat="46.91026" lon="4.73731">
        <ele>226.64105224609</ele>
        <time>2021-05-22T08:50:30Z</time>
      </trkpt>
      <trkpt lat="46.91027" lon="4.73774">
        <ele>230.64109802246</ele>
        <time>2021-05-22T08:50:35Z</time>
      </trkpt>
      <trkpt lat="46.91033" lon="4.73818">
        <ele>230.6413269043</ele>
        <time>2021-05-22T08:50:40Z</time>
      </trkpt>
      <trkpt lat="46.91041" lon="4.7385">
        <ele>231.64164733887</ele>
        <time>2021-05-22T08:50:44Z</time>
      </trkpt>
      <trkpt lat="46.91052" lon="4.73891">
        <ele>230.64208984375</ele>
        <time>2021-05-22T08:50:49Z</time>
      </trkpt>
      <trkpt lat="46.91062" lon="4.73922">
        <ele>230.64248657227</ele>
        <time>2021-05-22T08:50:53Z</time>
      </trkpt>
      <trkpt lat="46.91072" lon="4.7395">
        <ele>230.64286804199</ele>
        <time>2021-05-22T08:50:57Z</time>
      </trkpt>
      <trkpt lat="46.91078" lon="4.73973">
        <ele>231.64311218262</ele>
        <time>2021-05-22T08:51:01Z</time>
      </trkpt>
      <trkpt lat="46.91087" lon="4.74012">
        <ele>232.64349365234</ele>
        <time>2021-05-22T08:51:06Z</time>
      </trkpt>
      <trkpt lat="46.91092" lon="4.74041">
        <ele>228.6436920166</ele>
        <time>2021-05-22T08:51:10Z</time>
      </trkpt>
      <trkpt lat="46.91097" lon="4.74072">
        <ele>225.64387512207</ele>
        <time>2021-05-22T08:51:14Z</time>
      </trkpt>
      <trkpt lat="46.91106" lon="4.74111">
        <ele>227.64422607422</ele>
        <time>2021-05-22T08:51:19Z</time>
      </trkpt>
      <trkpt lat="46.91106" lon="4.74144">
        <ele>228.6442565918</ele>
        <time>2021-05-22T08:51:23Z</time>
      </trkpt>
      <trkpt lat="46.911" lon="4.74181">
        <ele>226.64398193359</ele>
        <time>2021-05-22T08:51:28Z</time>
      </trkpt>
      <trkpt lat="46.9109" lon="4.74208">
        <ele>226.64361572266</ele>
        <time>2021-05-22T08:51:32Z</time>
      </trkpt>
      <trkpt lat="46.9108" lon="4.74232">
        <ele>225.64320373535</ele>
        <time>2021-05-22T08:51:36Z</time>
      </trkpt>
      <trkpt lat="46.91065" lon="4.74261">
        <ele>226.64260864258</ele>
        <time>2021-05-22T08:51:41Z</time>
      </trkpt>
      <trkpt lat="46.91045" lon="4.74285">
        <ele>228.64178466797</ele>
        <time>2021-05-22T08:51:46Z</time>
      </trkpt>
      <trkpt lat="46.91027" lon="4.74304">
        <ele>228.64109802246</ele>
        <time>2021-05-22T08:51:50Z</time>
      </trkpt>
      <trkpt lat="46.91015" lon="4.74322">
        <ele>228.64060974121</ele>
        <time>2021-05-22T08:51:54Z</time>
      </trkpt>
      <trkpt lat="46.90996" lon="4.74336">
        <ele>227.63984680176</ele>
        <time>2021-05-22T08:51:58Z</time>
      </trkpt>
      <trkpt lat="46.90981" lon="4.74345">
        <ele>227.63925170898</ele>
        <time>2021-05-22T08:52:02Z</time>
      </trkpt>
      <trkpt lat="46.90956" lon="4.74349">
        <ele>223.63825988769</ele>
        <time>2021-05-22T08:52:06Z</time>
      </trkpt>
      <trkpt lat="46.90936" lon="4.74359">
        <ele>221.63745117188</ele>
        <time>2021-05-22T08:52:10Z</time>
      </trkpt>
      <trkpt lat="46.90915" lon="4.74365">
        <ele>224.63659667969</ele>
        <time>2021-05-22T08:52:15Z</time>
      </trkpt>
      <trkpt lat="46.90894" lon="4.7438">
        <ele>223.6357421875</ele>
        <time>2021-05-22T08:52:20Z</time>
      </trkpt>
      <trkpt lat="46.90874" lon="4.74396">
        <ele>224.63497924805</ele>
        <time>2021-05-22T08:52:24Z</time>
      </trkpt>
      <trkpt lat="46.90858" lon="4.74415">
        <ele>224.63432312012</ele>
        <time>2021-05-22T08:52:28Z</time>
      </trkpt>
      <trkpt lat="46.90842" lon="4.74442">
        <ele>225.63366699219</ele>
        <time>2021-05-22T08:52:33Z</time>
      </trkpt>
      <trkpt lat="46.90829" lon="4.74466">
        <ele>226.63317871094</ele>
        <time>2021-05-22T08:52:37Z</time>
      </trkpt>
      <trkpt lat="46.90818" lon="4.74489">
        <ele>224.63272094727</ele>
        <time>2021-05-22T08:52:41Z</time>
      </trkpt>
      <trkpt lat="46.908" lon="4.74517">
        <ele>225.63201904297</ele>
        <time>2021-05-22T08:52:46Z</time>
      </trkpt>
      <trkpt lat="46.90786" lon="4.74534">
        <ele>226.63142395019</ele>
        <time>2021-05-22T08:52:50Z</time>
      </trkpt>
      <trkpt lat="46.90769" lon="4.74552">
        <ele>225.63075256348</ele>
        <time>2021-05-22T08:52:55Z</time>
      </trkpt>
      <trkpt lat="46.90751" lon="4.74568">
        <ele>226.6300201416</ele>
        <time>2021-05-22T08:52:59Z</time>
      </trkpt>
      <trkpt lat="46.90733" lon="4.74586">
        <ele>223.62933349609</ele>
        <time>2021-05-22T08:53:04Z</time>
      </trkpt>
      <trkpt lat="46.90718" lon="4.74603">
        <ele>224.62872314453</ele>
        <time>2021-05-22T08:53:08Z</time>
      </trkpt>
      <trkpt lat="46.90702" lon="4.74621">
        <ele>225.6280670166</ele>
        <time>2021-05-22T08:53:12Z</time>
      </trkpt>
      <trkpt lat="46.90685" lon="4.74641">
        <ele>228.62738037109</ele>
        <time>2021-05-22T08:53:17Z</time>
      </trkpt>
      <trkpt lat="46.90676" lon="4.74637">
        <ele>228.62702941894</ele>
        <time>2021-05-22T08:53:21Z</time>
      </trkpt>
      <trkpt lat="46.90667" lon="4.74621">
        <ele>229.62666320801</ele>
        <time>2021-05-22T08:53:26Z</time>
      </trkpt>
      <trkpt lat="46.90658" lon="4.74605">
        <ele>228.62632751465</ele>
        <time>2021-05-22T08:53:30Z</time>
      </trkpt>
      <trkpt lat="46.90641" lon="4.74589">
        <ele>226.62562561035</ele>
        <time>2021-05-22T08:53:34Z</time>
      </trkpt>
      <trkpt lat="46.90621" lon="4.74572">
        <ele>225.62484741211</ele>
        <time>2021-05-22T08:53:39Z</time>
      </trkpt>
      <trkpt lat="46.90623" lon="4.74586">
        <ele>224.62492370606</ele>
        <time>2021-05-22T08:53:43Z</time>
      </trkpt>
      <trkpt lat="46.90635" lon="4.746">
        <ele>224.62539672852</ele>
        <time>2021-05-22T08:53:47Z</time>
      </trkpt>
      <trkpt lat="46.90648" lon="4.74618">
        <ele>224.62590026856</ele>
        <time>2021-05-22T08:53:52Z</time>
      </trkpt>
      <trkpt lat="46.90646" lon="4.7463">
        <ele>229.6258392334</ele>
        <time>2021-05-22T08:55:36Z</time>
      </trkpt>
      <trkpt lat="46.90648" lon="4.74619">
        <ele>229.62590026856</ele>
        <time>2021-05-22T08:55:48Z</time>
      </trkpt>
      <trkpt lat="46.90647" lon="4.74632">
        <ele>227.62586975098</ele>
        <time>2021-05-22T08:56:04Z</time>
      </trkpt>
      <trkpt lat="46.90643" lon="4.74643">
        <ele>227.62571716309</ele>
        <time>2021-05-22T08:56:10Z</time>
      </trkpt>
      <trkpt lat="46.90641" lon="4.74655">
        <ele>225.62562561035</ele>
        <time>2021-05-22T08:56:36Z</time>
      </trkpt>
      <trkpt lat="46.90639" lon="4.74643">
        <ele>228.62554931641</ele>
        <time>2021-05-22T08:56:44Z</time>
      </trkpt>
      <trkpt lat="46.90639" lon="4.74655">
        <ele>228.62556457519</ele>
        <time>2021-05-22T08:56:54Z</time>
      </trkpt>
      <trkpt lat="46.9063" lon="4.74669">
        <ele>227.62521362305</ele>
        <time>2021-05-22T08:56:59Z</time>
      </trkpt>
      <trkpt lat="46.9062" lon="4.74684">
        <ele>226.62478637695</ele>
        <time>2021-05-22T08:57:04Z</time>
      </trkpt>
      <trkpt lat="46.9061" lon="4.74697">
        <ele>225.62438964844</ele>
        <time>2021-05-22T08:57:08Z</time>
      </trkpt>
      <trkpt lat="46.90595" lon="4.74716">
        <ele>224.62379455566</ele>
        <time>2021-05-22T08:57:13Z</time>
      </trkpt>
      <trkpt lat="46.9058" lon="4.74738">
        <ele>225.6231842041</ele>
        <time>2021-05-22T08:57:18Z</time>
      </trkpt>
      <trkpt lat="46.90567" lon="4.74757">
        <ele>225.62268066406</ele>
        <time>2021-05-22T08:57:22Z</time>
      </trkpt>
      <trkpt lat="46.90549" lon="4.74783">
        <ele>227.62197875977</ele>
        <time>2021-05-22T08:57:27Z</time>
      </trkpt>
      <trkpt lat="46.90535" lon="4.74801">
        <ele>228.62141418457</ele>
        <time>2021-05-22T08:57:31Z</time>
      </trkpt>
      <trkpt lat="46.9052" lon="4.74819">
        <ele>226.6208190918</ele>
        <time>2021-05-22T08:57:35Z</time>
      </trkpt>
      <trkpt lat="46.90503" lon="4.74841">
        <ele>224.62013244629</ele>
        <time>2021-05-22T08:57:40Z</time>
      </trkpt>
      <trkpt lat="46.90488" lon="4.74866">
        <ele>225.61950683594</ele>
        <time>2021-05-22T08:57:45Z</time>
      </trkpt>
      <trkpt lat="46.90472" lon="4.74891">
        <ele>226.6188659668</ele>
        <time>2021-05-22T08:57:50Z</time>
      </trkpt>
      <trkpt lat="46.90458" lon="4.7491">
        <ele>229.61833190918</ele>
        <time>2021-05-22T08:57:54Z</time>
      </trkpt>
      <trkpt lat="46.90437" lon="4.74929">
        <ele>229.61747741699</ele>
        <time>2021-05-22T08:57:59Z</time>
      </trkpt>
      <trkpt lat="46.90417" lon="4.7494">
        <ele>230.61669921875</ele>
        <time>2021-05-22T08:58:03Z</time>
      </trkpt>
      <trkpt lat="46.90394" lon="4.74953">
        <ele>229.61576843262</ele>
        <time>2021-05-22T08:58:08Z</time>
      </trkpt>
      <trkpt lat="46.90374" lon="4.7496">
        <ele>228.61497497559</ele>
        <time>2021-05-22T08:58:12Z</time>
      </trkpt>
      <trkpt lat="46.9035" lon="4.74971">
        <ele>227.61399841309</ele>
        <time>2021-05-22T08:58:17Z</time>
      </trkpt>
      <trkpt lat="46.90333" lon="4.74987">
        <ele>227.61332702637</ele>
        <time>2021-05-22T08:58:21Z</time>
      </trkpt>
      <trkpt lat="46.90319" lon="4.75009">
        <ele>226.61277770996</ele>
        <time>2021-05-22T08:58:25Z</time>
      </trkpt>
      <trkpt lat="46.90308" lon="4.7504">
        <ele>226.61231994629</ele>
        <time>2021-05-22T08:58:30Z</time>
      </trkpt>
      <trkpt lat="46.90303" lon="4.75077">
        <ele>224.61210632324</ele>
        <time>2021-05-22T08:58:35Z</time>
      </trkpt>
      <trkpt lat="46.90298" lon="4.75114">
        <ele>225.61193847656</ele>
        <time>2021-05-22T08:58:40Z</time>
      </trkpt>
      <trkpt lat="46.90293" lon="4.75149">
        <ele>226.61170959473</ele>
        <time>2021-05-22T08:58:45Z</time>
      </trkpt>
      <trkpt lat="46.90289" lon="4.75179">
        <ele>226.61154174805</ele>
        <time>2021-05-22T08:58:49Z</time>
      </trkpt>
      <trkpt lat="46.90285" lon="4.75205">
        <ele>227.61138916016</ele>
        <time>2021-05-22T08:58:53Z</time>
      </trkpt>
      <trkpt lat="46.90281" lon="4.75228">
        <ele>226.61123657227</ele>
        <time>2021-05-22T08:58:57Z</time>
      </trkpt>
      <trkpt lat="46.90267" lon="4.75235">
        <ele>226.61068725586</ele>
        <time>2021-05-22T08:59:01Z</time>
      </trkpt>
      <trkpt lat="46.90253" lon="4.75235">
        <ele>228.61012268066</ele>
        <time>2021-05-22T08:59:06Z</time>
      </trkpt>
      <trkpt lat="46.9024" lon="4.75233">
        <ele>228.60960388184</ele>
        <time>2021-05-22T08:59:11Z</time>
      </trkpt>
      <trkpt lat="46.90231" lon="4.75232">
        <ele>229.60926818848</ele>
        <time>2021-05-22T08:59:15Z</time>
      </trkpt>
      <trkpt lat="46.90234" lon="4.7522">
        <ele>227.609375</ele>
        <time>2021-05-22T08:59:42Z</time>
      </trkpt>
      <trkpt lat="46.90244" lon="4.7522">
        <ele>228.60977172852</ele>
        <time>2021-05-22T08:59:47Z</time>
      </trkpt>
      <trkpt lat="46.90257" lon="4.75222">
        <ele>229.61027526856</ele>
        <time>2021-05-22T08:59:51Z</time>
      </trkpt>
      <trkpt lat="46.90274" lon="4.75221">
        <ele>229.61097717285</ele>
        <time>2021-05-22T08:59:56Z</time>
      </trkpt>
      <trkpt lat="46.9029" lon="4.75222">
        <ele>227.61158752441</ele>
        <time>2021-05-22T09:00:00Z</time>
      </trkpt>
      <trkpt lat="46.90308" lon="4.75221">
        <ele>228.61233520508</ele>
        <time>2021-05-22T09:00:04Z</time>
      </trkpt>
      <trkpt lat="46.90334" lon="4.75219">
        <ele>227.61337280273</ele>
        <time>2021-05-22T09:00:09Z</time>
      </trkpt>
      <trkpt lat="46.90357" lon="4.75216">
        <ele>226.61427307129</ele>
        <time>2021-05-22T09:00:13Z</time>
      </trkpt>
      <trkpt lat="46.90388" lon="4.75218">
        <ele>226.61552429199</ele>
        <time>2021-05-22T09:00:18Z</time>
      </trkpt>
      <trkpt lat="46.9042" lon="4.75216">
        <ele>226.61680603027</ele>
        <time>2021-05-22T09:00:23Z</time>
      </trkpt>
      <trkpt lat="46.90446" lon="4.75217">
        <ele>228.61782836914</ele>
        <time>2021-05-22T09:00:27Z</time>
      </trkpt>
      <trkpt lat="46.90479" lon="4.75217">
        <ele>230.61917114258</ele>
        <time>2021-05-22T09:00:32Z</time>
      </trkpt>
      <trkpt lat="46.90508" lon="4.75218">
        <ele>229.62033081055</ele>
        <time>2021-05-22T09:00:37Z</time>
      </trkpt>
      <trkpt lat="46.9052" lon="4.75223">
        <ele>228.6208190918</ele>
        <time>2021-05-22T09:00:41Z</time>
      </trkpt>
      <trkpt lat="46.90528" lon="4.75234">
        <ele>225.62110900879</ele>
        <time>2021-05-22T09:00:45Z</time>
      </trkpt>
      <trkpt lat="46.9054" lon="4.75238">
        <ele>227.62161254883</ele>
        <time>2021-05-22T09:00:49Z</time>
      </trkpt>
      <trkpt lat="46.90556" lon="4.75225">
        <ele>225.62223815918</ele>
        <time>2021-05-22T09:00:54Z</time>
      </trkpt>
      <trkpt lat="46.90567" lon="4.75215">
        <ele>226.62268066406</ele>
        <time>2021-05-22T09:00:58Z</time>
      </trkpt>
      <trkpt lat="46.90569" lon="4.75196">
        <ele>227.62275695801</ele>
        <time>2021-05-22T09:01:03Z</time>
      </trkpt>
      <trkpt lat="46.90568" lon="4.75184">
        <ele>225.62272644043</ele>
        <time>2021-05-22T09:01:07Z</time>
      </trkpt>
      <trkpt lat="46.90569" lon="4.75169">
        <ele>225.6227722168</ele>
        <time>2021-05-22T09:01:11Z</time>
      </trkpt>
      <trkpt lat="46.90572" lon="4.7515">
        <ele>223.62286376953</ele>
        <time>2021-05-22T09:01:16Z</time>
      </trkpt>
      <trkpt lat="46.90575" lon="4.75133">
        <ele>222.62301635742</ele>
        <time>2021-05-22T09:01:20Z</time>
      </trkpt>
      <trkpt lat="46.90599" lon="4.75119">
        <ele>222.62396240234</ele>
        <time>2021-05-22T09:01:25Z</time>
      </trkpt>
      <trkpt lat="46.90621" lon="4.75119">
        <ele>220.62483215332</ele>
        <time>2021-05-22T09:01:29Z</time>
      </trkpt>
      <trkpt lat="46.90655" lon="4.75121">
        <ele>218.62620544434</ele>
        <time>2021-05-22T09:01:34Z</time>
      </trkpt>
      <trkpt lat="46.90688" lon="4.75119">
        <ele>216.62751770019</ele>
        <time>2021-05-22T09:01:39Z</time>
      </trkpt>
      <trkpt lat="46.90695" lon="4.75098">
        <ele>216.6277923584</ele>
        <time>2021-05-22T09:01:43Z</time>
      </trkpt>
      <trkpt lat="46.90683" lon="4.75084">
        <ele>215.62730407715</ele>
        <time>2021-05-22T09:01:47Z</time>
      </trkpt>
      <trkpt lat="46.90667" lon="4.75076">
        <ele>214.62666320801</ele>
        <time>2021-05-22T09:01:51Z</time>
      </trkpt>
      <trkpt lat="46.90649" lon="4.75059">
        <ele>211.62596130371</ele>
        <time>2021-05-22T09:01:56Z</time>
      </trkpt>
      <trkpt lat="46.90656" lon="4.75043">
        <ele>213.62622070312</ele>
        <time>2021-05-22T09:02:00Z</time>
      </trkpt>
      <trkpt lat="46.90675" lon="4.75038">
        <ele>213.62701416016</ele>
        <time>2021-05-22T09:02:04Z</time>
      </trkpt>
      <trkpt lat="46.90694" lon="4.75031">
        <ele>213.6277923584</ele>
        <time>2021-05-22T09:02:08Z</time>
      </trkpt>
      <trkpt lat="46.90715" lon="4.75025">
        <ele>214.62858581543</ele>
        <time>2021-05-22T09:02:12Z</time>
      </trkpt>
      <trkpt lat="46.90733" lon="4.75013">
        <ele>214.62931823731</ele>
        <time>2021-05-22T09:02:17Z</time>
      </trkpt>
      <trkpt lat="46.90753" lon="4.75005">
        <ele>216.63011169434</ele>
        <time>2021-05-22T09:02:22Z</time>
      </trkpt>
      <trkpt lat="46.90773" lon="4.74995">
        <ele>219.63090515137</ele>
        <time>2021-05-22T09:02:26Z</time>
      </trkpt>
      <trkpt lat="46.90797" lon="4.74979">
        <ele>219.63188171387</ele>
        <time>2021-05-22T09:02:31Z</time>
      </trkpt>
      <trkpt lat="46.9082" lon="4.74965">
        <ele>216.63278198242</ele>
        <time>2021-05-22T09:02:35Z</time>
      </trkpt>
      <trkpt lat="46.90846" lon="4.74939">
        <ele>213.63385009766</ele>
        <time>2021-05-22T09:02:40Z</time>
      </trkpt>
      <trkpt lat="46.90866" lon="4.74921">
        <ele>212.6346282959</ele>
        <time>2021-05-22T09:02:45Z</time>
      </trkpt>
      <trkpt lat="46.90873" lon="4.74929">
        <ele>210.6349029541</ele>
        <time>2021-05-22T09:02:54Z</time>
      </trkpt>
      <trkpt lat="46.90878" lon="4.74951">
        <ele>209.63513183594</ele>
        <time>2021-05-22T09:02:59Z</time>
      </trkpt>
      <trkpt lat="46.90886" lon="4.74967">
        <ele>209.63543701172</ele>
        <time>2021-05-22T09:03:03Z</time>
      </trkpt>
      <trkpt lat="46.909" lon="4.74953">
        <ele>210.63600158691</ele>
        <time>2021-05-22T09:03:07Z</time>
      </trkpt>
      <trkpt lat="46.90911" lon="4.7493">
        <ele>213.63645935059</ele>
        <time>2021-05-22T09:03:11Z</time>
      </trkpt>
      <trkpt lat="46.90919" lon="4.74905">
        <ele>211.63676452637</ele>
        <time>2021-05-22T09:03:16Z</time>
      </trkpt>
      <trkpt lat="46.90935" lon="4.74894">
        <ele>214.63740539551</ele>
        <time>2021-05-22T09:03:21Z</time>
      </trkpt>
      <trkpt lat="46.90952" lon="4.74894">
        <ele>213.63807678223</ele>
        <time>2021-05-22T09:03:25Z</time>
      </trkpt>
      <trkpt lat="46.90968" lon="4.74889">
        <ele>214.63873291016</ele>
        <time>2021-05-22T09:03:29Z</time>
      </trkpt>
      <trkpt lat="46.90991" lon="4.74882">
        <ele>217.63963317871</ele>
        <time>2021-05-22T09:03:34Z</time>
      </trkpt>
      <trkpt lat="46.91013" lon="4.74883">
        <ele>215.64053344727</ele>
        <time>2021-05-22T09:03:38Z</time>
      </trkpt>
      <trkpt lat="46.91035" lon="4.74876">
        <ele>215.64140319824</ele>
        <time>2021-05-22T09:03:43Z</time>
      </trkpt>
      <trkpt lat="46.91056" lon="4.74872">
        <ele>215.64222717285</ele>
        <time>2021-05-22T09:03:47Z</time>
      </trkpt>
      <trkpt lat="46.91077" lon="4.74876">
        <ele>212.64306640625</ele>
        <time>2021-05-22T09:03:52Z</time>
      </trkpt>
      <trkpt lat="46.91097" lon="4.74896">
        <ele>212.64387512207</ele>
        <time>2021-05-22T09:03:57Z</time>
      </trkpt>
      <trkpt lat="46.91114" lon="4.74906">
        <ele>211.64454650879</ele>
        <time>2021-05-22T09:04:01Z</time>
      </trkpt>
      <trkpt lat="46.91128" lon="4.74919">
        <ele>210.64512634277</ele>
        <time>2021-05-22T09:04:05Z</time>
      </trkpt>
      <trkpt lat="46.9114" lon="4.74923">
        <ele>210.64558410644</ele>
        <time>2021-05-22T09:04:09Z</time>
      </trkpt>
      <trkpt lat="46.91143" lon="4.74901">
        <ele>208.64573669434</ele>
        <time>2021-05-22T09:04:13Z</time>
      </trkpt>
      <trkpt lat="46.91151" lon="4.74874">
        <ele>209.64605712891</ele>
        <time>2021-05-22T09:04:18Z</time>
      </trkpt>
      <trkpt lat="46.91168" lon="4.74871">
        <ele>210.64671325684</ele>
        <time>2021-05-22T09:04:22Z</time>
      </trkpt>
      <trkpt lat="46.91184" lon="4.74875">
        <ele>209.64735412598</ele>
        <time>2021-05-22T09:04:26Z</time>
      </trkpt>
      <trkpt lat="46.91192" lon="4.74898">
        <ele>208.64768981934</ele>
        <time>2021-05-22T09:04:30Z</time>
      </trkpt>
      <trkpt lat="46.91199" lon="4.74921">
        <ele>209.64796447754</ele>
        <time>2021-05-22T09:04:34Z</time>
      </trkpt>
      <trkpt lat="46.9121" lon="4.74936">
        <ele>208.64839172363</ele>
        <time>2021-05-22T09:04:38Z</time>
      </trkpt>
      <trkpt lat="46.91225" lon="4.74937">
        <ele>206.64901733398</ele>
        <time>2021-05-22T09:04:42Z</time>
      </trkpt>
      <trkpt lat="46.91248" lon="4.74932">
        <ele>204.64991760254</ele>
        <time>2021-05-22T09:04:47Z</time>
      </trkpt>
      <trkpt lat="46.91264" lon="4.74929">
        <ele>205.65055847168</ele>
        <time>2021-05-22T09:04:51Z</time>
      </trkpt>
      <trkpt lat="46.91289" lon="4.74922">
        <ele>210.65155029297</ele>
        <time>2021-05-22T09:04:56Z</time>
      </trkpt>
      <trkpt lat="46.91301" lon="4.74904">
        <ele>208.65203857422</ele>
        <time>2021-05-22T09:05:00Z</time>
      </trkpt>
      <trkpt lat="46.91301" lon="4.74867">
        <ele>208.65205383301</ele>
        <time>2021-05-22T09:05:05Z</time>
      </trkpt>
      <trkpt lat="46.91304" lon="4.74826">
        <ele>208.65216064453</ele>
        <time>2021-05-22T09:05:10Z</time>
      </trkpt>
      <trkpt lat="46.91302" lon="4.74797">
        <ele>208.65209960938</ele>
        <time>2021-05-22T09:05:15Z</time>
      </trkpt>
      <trkpt lat="46.91299" lon="4.74779">
        <ele>210.65194702148</ele>
        <time>2021-05-22T09:05:19Z</time>
      </trkpt>
      <trkpt lat="46.91295" lon="4.74754">
        <ele>208.65180969238</ele>
        <time>2021-05-22T09:05:23Z</time>
      </trkpt>
      <trkpt lat="46.91296" lon="4.74724">
        <ele>206.65184020996</ele>
        <time>2021-05-22T09:05:28Z</time>
      </trkpt>
      <trkpt lat="46.91293" lon="4.74677">
        <ele>208.65173339844</ele>
        <time>2021-05-22T09:05:32Z</time>
      </trkpt>
      <trkpt lat="46.91289" lon="4.74643">
        <ele>210.65156555176</ele>
        <time>2021-05-22T09:05:37Z</time>
      </trkpt>
      <trkpt lat="46.91288" lon="4.7462">
        <ele>210.6515045166</ele>
        <time>2021-05-22T09:05:41Z</time>
      </trkpt>
      <trkpt lat="46.91285" lon="4.74591">
        <ele>209.65142822266</ele>
        <time>2021-05-22T09:05:46Z</time>
      </trkpt>
      <trkpt lat="46.91283" lon="4.74556">
        <ele>205.65133666992</ele>
        <time>2021-05-22T09:05:51Z</time>
      </trkpt>
      <trkpt lat="46.9128" lon="4.74504">
        <ele>211.65121459961</ele>
        <time>2021-05-22T09:05:56Z</time>
      </trkpt>
      <trkpt lat="46.91278" lon="4.74477">
        <ele>209.65110778809</ele>
        <time>2021-05-22T09:06:00Z</time>
      </trkpt>
      <trkpt lat="46.91278" lon="4.74443">
        <ele>207.65112304688</ele>
        <time>2021-05-22T09:06:05Z</time>
      </trkpt>
      <trkpt lat="46.91277" lon="4.74429">
        <ele>206.65106201172</ele>
        <time>2021-05-22T09:06:07Z</time>
      </trkpt>
      <trkpt lat="46.91273" lon="4.7438">
        <ele>208.65090942383</ele>
        <time>2021-05-22T09:06:14Z</time>
      </trkpt>
      <trkpt lat="46.91275" lon="4.74345">
        <ele>210.65100097656</ele>
        <time>2021-05-22T09:06:18Z</time>
      </trkpt>
      <trkpt lat="46.9128" lon="4.74316">
        <ele>209.65121459961</ele>
        <time>2021-05-22T09:06:22Z</time>
      </trkpt>
      <trkpt lat="46.9129" lon="4.74282">
        <ele>208.65159606934</ele>
        <time>2021-05-22T09:06:27Z</time>
      </trkpt>
      <trkpt lat="46.91299" lon="4.74256">
        <ele>208.65197753906</ele>
        <time>2021-05-22T09:06:31Z</time>
      </trkpt>
      <trkpt lat="46.91307" lon="4.7423">
        <ele>209.65229797363</ele>
        <time>2021-05-22T09:06:35Z</time>
      </trkpt>
      <trkpt lat="46.91312" lon="4.74201">
        <ele>209.6524810791</ele>
        <time>2021-05-22T09:06:39Z</time>
      </trkpt>
      <trkpt lat="46.91316" lon="4.74164">
        <ele>209.65263366699</ele>
        <time>2021-05-22T09:06:44Z</time>
      </trkpt>
      <trkpt lat="46.91317" lon="4.74137">
        <ele>207.65267944336</ele>
        <time>2021-05-22T09:06:48Z</time>
      </trkpt>
      <trkpt lat="46.9132" lon="4.74104">
        <ele>207.65278625488</ele>
        <time>2021-05-22T09:06:53Z</time>
      </trkpt>
      <trkpt lat="46.91321" lon="4.74076">
        <ele>208.65283203125</ele>
        <time>2021-05-22T09:06:57Z</time>
      </trkpt>
      <trkpt lat="46.91323" lon="4.74042">
        <ele>207.65290832519</ele>
        <time>2021-05-22T09:07:02Z</time>
      </trkpt>
      <trkpt lat="46.91325" lon="4.74006">
        <ele>209.65301513672</ele>
        <time>2021-05-22T09:07:07Z</time>
      </trkpt>
      <trkpt lat="46.91331" lon="4.73979">
        <ele>211.65325927734</ele>
        <time>2021-05-22T09:07:11Z</time>
      </trkpt>
      <trkpt lat="46.91338" lon="4.73953">
        <ele>213.65351867676</ele>
        <time>2021-05-22T09:07:16Z</time>
      </trkpt>
      <trkpt lat="46.91342" lon="4.73934">
        <ele>213.65365600586</ele>
        <time>2021-05-22T09:07:20Z</time>
      </trkpt>
      <trkpt lat="46.91343" lon="4.73921">
        <ele>214.65371704102</ele>
        <time>2021-05-22T09:07:31Z</time>
      </trkpt>
      <trkpt lat="46.91343" lon="4.73909">
        <ele>209.65370178223</ele>
        <time>2021-05-22T09:07:40Z</time>
      </trkpt>
      <trkpt lat="46.91341" lon="4.73899">
        <ele>210.65362548828</ele>
        <time>2021-05-22T09:07:44Z</time>
      </trkpt>
      <trkpt lat="46.9134" lon="4.73883">
        <ele>210.6535949707</ele>
        <time>2021-05-22T09:07:49Z</time>
      </trkpt>
      <trkpt lat="46.91343" lon="4.73864">
        <ele>212.65373229981</ele>
        <time>2021-05-22T09:07:54Z</time>
      </trkpt>
      <trkpt lat="46.91346" lon="4.73838">
        <ele>213.65382385254</ele>
        <time>2021-05-22T09:07:59Z</time>
      </trkpt>
      <trkpt lat="46.91358" lon="4.73834">
        <ele>210.65431213379</ele>
        <time>2021-05-22T09:08:03Z</time>
      </trkpt>
      <trkpt lat="46.91374" lon="4.7383">
        <ele>211.65496826172</ele>
        <time>2021-05-22T09:08:07Z</time>
      </trkpt>
      <trkpt lat="46.9138" lon="4.73808">
        <ele>212.65521240234</ele>
        <time>2021-05-22T09:08:12Z</time>
      </trkpt>
      <trkpt lat="46.91385" lon="4.73792">
        <ele>217.6554107666</ele>
        <time>2021-05-22T09:08:16Z</time>
      </trkpt>
      <trkpt lat="46.9139" lon="4.73776">
        <ele>217.65559387207</ele>
        <time>2021-05-22T09:08:20Z</time>
      </trkpt>
      <trkpt lat="46.91396" lon="4.73756">
        <ele>215.65583801269</ele>
        <time>2021-05-22T09:08:25Z</time>
      </trkpt>
      <trkpt lat="46.91404" lon="4.73734">
        <ele>218.65614318848</ele>
        <time>2021-05-22T09:08:29Z</time>
      </trkpt>
      <trkpt lat="46.91419" lon="4.73716">
        <ele>215.65676879883</ele>
        <time>2021-05-22T09:08:34Z</time>
      </trkpt>
      <trkpt lat="46.91432" lon="4.73691">
        <ele>214.65728759766</ele>
        <time>2021-05-22T09:08:39Z</time>
      </trkpt>
      <trkpt lat="46.91437" lon="4.73674">
        <ele>210.65747070312</ele>
        <time>2021-05-22T09:08:43Z</time>
      </trkpt>
      <trkpt lat="46.91443" lon="4.73651">
        <ele>205.65771484375</ele>
        <time>2021-05-22T09:08:48Z</time>
      </trkpt>
      <trkpt lat="46.91451" lon="4.73626">
        <ele>202.65803527832</ele>
        <time>2021-05-22T09:08:53Z</time>
      </trkpt>
      <trkpt lat="46.91458" lon="4.73603">
        <ele>198.65829467773</ele>
        <time>2021-05-22T09:08:57Z</time>
      </trkpt>
      <trkpt lat="46.91463" lon="4.73579">
        <ele>205.65852355957</ele>
        <time>2021-05-22T09:09:01Z</time>
      </trkpt>
      <trkpt lat="46.91469" lon="4.73558">
        <ele>207.65876770019</ele>
        <time>2021-05-22T09:09:05Z</time>
      </trkpt>
      <trkpt lat="46.91472" lon="4.73536">
        <ele>203.65887451172</ele>
        <time>2021-05-22T09:09:09Z</time>
      </trkpt>
      <trkpt lat="46.91476" lon="4.73511">
        <ele>205.65902709961</ele>
        <time>2021-05-22T09:09:13Z</time>
      </trkpt>
      <trkpt lat="46.91483" lon="4.73477">
        <ele>206.6593170166</ele>
        <time>2021-05-22T09:09:18Z</time>
      </trkpt>
      <trkpt lat="46.91488" lon="4.73452">
        <ele>207.65951538086</ele>
        <time>2021-05-22T09:09:22Z</time>
      </trkpt>
      <trkpt lat="46.91494" lon="4.73435">
        <ele>210.65977478027</ele>
        <time>2021-05-22T09:09:27Z</time>
      </trkpt>
      <trkpt lat="46.915" lon="4.73428">
        <ele>211.66000366211</ele>
        <time>2021-05-22T09:09:41Z</time>
      </trkpt>
      <trkpt lat="46.91506" lon="4.73418">
        <ele>211.66023254394</ele>
        <time>2021-05-22T09:09:46Z</time>
      </trkpt>
      <trkpt lat="46.91512" lon="4.7341">
        <ele>211.66049194336</ele>
        <time>2021-05-22T09:09:57Z</time>
      </trkpt>
      <trkpt lat="46.91514" lon="4.734">
        <ele>211.66055297852</ele>
        <time>2021-05-22T09:10:01Z</time>
      </trkpt>
      <trkpt lat="46.91516" lon="4.73387">
        <ele>210.66062927246</ele>
        <time>2021-05-22T09:10:06Z</time>
      </trkpt>
      <trkpt lat="46.91514" lon="4.73373">
        <ele>210.66056823731</ele>
        <time>2021-05-22T09:10:11Z</time>
      </trkpt>
      <trkpt lat="46.91513" lon="4.73362">
        <ele>209.66052246094</ele>
        <time>2021-05-22T09:10:15Z</time>
      </trkpt>
      <trkpt lat="46.91512" lon="4.73348">
        <ele>210.66046142578</ele>
        <time>2021-05-22T09:10:20Z</time>
      </trkpt>
      <trkpt lat="46.9151" lon="4.73331">
        <ele>210.66041564941</ele>
        <time>2021-05-22T09:10:24Z</time>
      </trkpt>
      <trkpt lat="46.91509" lon="4.73315">
        <ele>211.66036987305</ele>
        <time>2021-05-22T09:10:28Z</time>
      </trkpt>
      <trkpt lat="46.91509" lon="4.73299">
        <ele>211.66035461426</ele>
        <time>2021-05-22T09:10:32Z</time>
      </trkpt>
      <trkpt lat="46.91509" lon="4.7328">
        <ele>210.66036987305</ele>
        <time>2021-05-22T09:10:36Z</time>
      </trkpt>
      <trkpt lat="46.9151" lon="4.73258">
        <ele>210.66040039062</ele>
        <time>2021-05-22T09:10:41Z</time>
      </trkpt>
      <trkpt lat="46.91511" lon="4.73238">
        <ele>211.6604309082</ele>
        <time>2021-05-22T09:10:46Z</time>
      </trkpt>
      <trkpt lat="46.91512" lon="4.73219">
        <ele>212.66047668457</ele>
        <time>2021-05-22T09:10:50Z</time>
      </trkpt>
      <trkpt lat="46.91518" lon="4.732">
        <ele>212.66070556641</ele>
        <time>2021-05-22T09:10:55Z</time>
      </trkpt>
      <trkpt lat="46.9153" lon="4.7319">
        <ele>208.66119384766</ele>
        <time>2021-05-22T09:10:59Z</time>
      </trkpt>
      <trkpt lat="46.91546" lon="4.73184">
        <ele>208.66184997559</ele>
        <time>2021-05-22T09:11:04Z</time>
      </trkpt>
      <trkpt lat="46.91568" lon="4.73175">
        <ele>208.66273498535</ele>
        <time>2021-05-22T09:11:09Z</time>
      </trkpt>
      <trkpt lat="46.91583" lon="4.73163">
        <ele>208.66333007812</ele>
        <time>2021-05-22T09:11:13Z</time>
      </trkpt>
      <trkpt lat="46.91597" lon="4.7315">
        <ele>208.66387939453</ele>
        <time>2021-05-22T09:11:17Z</time>
      </trkpt>
      <trkpt lat="46.91615" lon="4.73135">
        <ele>208.66458129883</ele>
        <time>2021-05-22T09:11:22Z</time>
      </trkpt>
      <trkpt lat="46.91629" lon="4.73125">
        <ele>209.66514587402</ele>
        <time>2021-05-22T09:11:26Z</time>
      </trkpt>
      <trkpt lat="46.91642" lon="4.73114">
        <ele>211.66566467285</ele>
        <time>2021-05-22T09:11:30Z</time>
      </trkpt>
      <trkpt lat="46.91654" lon="4.73103">
        <ele>211.6661529541</ele>
        <time>2021-05-22T09:11:34Z</time>
      </trkpt>
      <trkpt lat="46.91666" lon="4.73092">
        <ele>213.66662597656</ele>
        <time>2021-05-22T09:11:38Z</time>
      </trkpt>
      <trkpt lat="46.91681" lon="4.73078">
        <ele>212.66722106934</ele>
        <time>2021-05-22T09:11:43Z</time>
      </trkpt>
      <trkpt lat="46.91696" lon="4.73065">
        <ele>211.6678314209</ele>
        <time>2021-05-22T09:11:48Z</time>
      </trkpt>
      <trkpt lat="46.91708" lon="4.73053">
        <ele>210.66830444336</ele>
        <time>2021-05-22T09:11:52Z</time>
      </trkpt>
      <trkpt lat="46.91719" lon="4.73042">
        <ele>211.66877746582</ele>
        <time>2021-05-22T09:11:56Z</time>
      </trkpt>
      <trkpt lat="46.91735" lon="4.73027">
        <ele>210.66938781738</ele>
        <time>2021-05-22T09:12:01Z</time>
      </trkpt>
      <trkpt lat="46.91747" lon="4.73016">
        <ele>210.66987609863</ele>
        <time>2021-05-22T09:12:05Z</time>
      </trkpt>
      <trkpt lat="46.91759" lon="4.73005">
        <ele>210.67036437988</ele>
        <time>2021-05-22T09:12:09Z</time>
      </trkpt>
      <trkpt lat="46.91774" lon="4.72989">
        <ele>209.67094421387</ele>
        <time>2021-05-22T09:12:14Z</time>
      </trkpt>
      <trkpt lat="46.91787" lon="4.72973">
        <ele>208.67146301269</ele>
        <time>2021-05-22T09:12:19Z</time>
      </trkpt>
      <trkpt lat="46.91796" lon="4.72964">
        <ele>212.67182922363</ele>
        <time>2021-05-22T09:12:23Z</time>
      </trkpt>
      <trkpt lat="46.91809" lon="4.72953">
        <ele>215.67236328125</ele>
        <time>2021-05-22T09:12:28Z</time>
      </trkpt>
      <trkpt lat="46.9182" lon="4.7294">
        <ele>215.67279052734</ele>
        <time>2021-05-22T09:12:32Z</time>
      </trkpt>
      <trkpt lat="46.91834" lon="4.72926">
        <ele>216.67337036133</ele>
        <time>2021-05-22T09:12:37Z</time>
      </trkpt>
      <trkpt lat="46.91847" lon="4.72915">
        <ele>218.67387390137</ele>
        <time>2021-05-22T09:12:41Z</time>
      </trkpt>
      <trkpt lat="46.91855" lon="4.72904">
        <ele>217.67420959473</ele>
        <time>2021-05-22T09:12:45Z</time>
      </trkpt>
      <trkpt lat="46.91862" lon="4.729">
        <ele>216.67446899414</ele>
        <time>2021-05-22T09:12:57Z</time>
      </trkpt>
      <trkpt lat="46.91871" lon="4.72891">
        <ele>216.67485046387</ele>
        <time>2021-05-22T09:13:01Z</time>
      </trkpt>
      <trkpt lat="46.91883" lon="4.72879">
        <ele>215.67530822754</ele>
        <time>2021-05-22T09:13:05Z</time>
      </trkpt>
      <trkpt lat="46.91893" lon="4.72864">
        <ele>215.67573547363</ele>
        <time>2021-05-22T09:13:09Z</time>
      </trkpt>
      <trkpt lat="46.91904" lon="4.72851">
        <ele>215.67616271973</ele>
        <time>2021-05-22T09:13:13Z</time>
      </trkpt>
      <trkpt lat="46.91915" lon="4.72841">
        <ele>217.67660522461</ele>
        <time>2021-05-22T09:13:17Z</time>
      </trkpt>
      <trkpt lat="46.91925" lon="4.72828">
        <ele>217.67701721191</ele>
        <time>2021-05-22T09:13:21Z</time>
      </trkpt>
      <trkpt lat="46.91936" lon="4.72818">
        <ele>218.67744445801</ele>
        <time>2021-05-22T09:13:25Z</time>
      </trkpt>
      <trkpt lat="46.91946" lon="4.72808">
        <ele>217.67784118652</ele>
        <time>2021-05-22T09:13:29Z</time>
      </trkpt>
      <trkpt lat="46.91957" lon="4.72795">
        <ele>218.67829895019</ele>
        <time>2021-05-22T09:13:34Z</time>
      </trkpt>
      <trkpt lat="46.91966" lon="4.72784">
        <ele>218.67864990234</ele>
        <time>2021-05-22T09:13:38Z</time>
      </trkpt>
      <trkpt lat="46.91975" lon="4.72772">
        <ele>218.67900085449</ele>
        <time>2021-05-22T09:13:42Z</time>
      </trkpt>
      <trkpt lat="46.91984" lon="4.7276">
        <ele>218.67935180664</ele>
        <time>2021-05-22T09:13:46Z</time>
      </trkpt>
      <trkpt lat="46.91993" lon="4.72747">
        <ele>217.67970275879</ele>
        <time>2021-05-22T09:13:50Z</time>
      </trkpt>
      <trkpt lat="46.92003" lon="4.72731">
        <ele>217.68013000488</ele>
        <time>2021-05-22T09:13:55Z</time>
      </trkpt>
      <trkpt lat="46.92014" lon="4.72714">
        <ele>217.68055725098</ele>
        <time>2021-05-22T09:14:00Z</time>
      </trkpt>
      <trkpt lat="46.92023" lon="4.72703">
        <ele>218.6809387207</ele>
        <time>2021-05-22T09:14:04Z</time>
      </trkpt>
      <trkpt lat="46.92036" lon="4.72685">
        <ele>217.68141174316</ele>
        <time>2021-05-22T09:14:09Z</time>
      </trkpt>
      <trkpt lat="46.92046" lon="4.72673">
        <ele>218.68182373047</ele>
        <time>2021-05-22T09:14:13Z</time>
      </trkpt>
      <trkpt lat="46.92054" lon="4.7266">
        <ele>218.68214416504</ele>
        <time>2021-05-22T09:14:17Z</time>
      </trkpt>
      <trkpt lat="46.92064" lon="4.72643">
        <ele>219.68257141113</ele>
        <time>2021-05-22T09:14:22Z</time>
      </trkpt>
      <trkpt lat="46.92075" lon="4.72625">
        <ele>221.68301391602</ele>
        <time>2021-05-22T09:14:27Z</time>
      </trkpt>
      <trkpt lat="46.92086" lon="4.72607">
        <ele>222.68342590332</ele>
        <time>2021-05-22T09:14:32Z</time>
      </trkpt>
      <trkpt lat="46.92094" lon="4.72594">
        <ele>223.68374633789</ele>
        <time>2021-05-22T09:14:36Z</time>
      </trkpt>
      <trkpt lat="46.92103" lon="4.72578">
        <ele>223.68412780762</ele>
        <time>2021-05-22T09:14:41Z</time>
      </trkpt>
      <trkpt lat="46.92113" lon="4.72562">
        <ele>224.68450927734</ele>
        <time>2021-05-22T09:14:46Z</time>
      </trkpt>
      <trkpt lat="46.92121" lon="4.7255">
        <ele>223.6848449707</ele>
        <time>2021-05-22T09:14:50Z</time>
      </trkpt>
      <trkpt lat="46.92132" lon="4.72534">
        <ele>224.6852722168</ele>
        <time>2021-05-22T09:14:55Z</time>
      </trkpt>
      <trkpt lat="46.92142" lon="4.72518">
        <ele>222.68566894531</ele>
        <time>2021-05-22T09:15:00Z</time>
      </trkpt>
      <trkpt lat="46.92149" lon="4.72506">
        <ele>221.68598937988</ele>
        <time>2021-05-22T09:15:04Z</time>
      </trkpt>
      <trkpt lat="46.92157" lon="4.72493">
        <ele>222.68626403809</ele>
        <time>2021-05-22T09:15:08Z</time>
      </trkpt>
      <trkpt lat="46.92164" lon="4.72474">
        <ele>224.68656921387</ele>
        <time>2021-05-22T09:15:13Z</time>
      </trkpt>
      <trkpt lat="46.92175" lon="4.72459">
        <ele>223.68699645996</ele>
        <time>2021-05-22T09:15:18Z</time>
      </trkpt>
      <trkpt lat="46.9219" lon="4.72454">
        <ele>221.68757629394</ele>
        <time>2021-05-22T09:15:23Z</time>
      </trkpt>
      <trkpt lat="46.92203" lon="4.72464">
        <ele>221.68811035156</ele>
        <time>2021-05-22T09:15:28Z</time>
      </trkpt>
      <trkpt lat="46.92216" lon="4.72472">
        <ele>223.68862915039</ele>
        <time>2021-05-22T09:15:32Z</time>
      </trkpt>
      <trkpt lat="46.92231" lon="4.72479">
        <ele>223.68922424316</ele>
        <time>2021-05-22T09:15:36Z</time>
      </trkpt>
      <trkpt lat="46.92253" lon="4.72493">
        <ele>222.69012451172</ele>
        <time>2021-05-22T09:15:41Z</time>
      </trkpt>
      <trkpt lat="46.92276" lon="4.72509">
        <ele>222.69104003906</ele>
        <time>2021-05-22T09:15:46Z</time>
      </trkpt>
      <trkpt lat="46.92295" lon="4.72518">
        <ele>225.69181823731</ele>
        <time>2021-05-22T09:15:50Z</time>
      </trkpt>
      <trkpt lat="46.9232" lon="4.72521">
        <ele>226.69281005859</ele>
        <time>2021-05-22T09:15:55Z</time>
      </trkpt>
      <trkpt lat="46.92344" lon="4.72518">
        <ele>226.69375610352</ele>
        <time>2021-05-22T09:16:00Z</time>
      </trkpt>
      <trkpt lat="46.92365" lon="4.72505">
        <ele>227.6946105957</ele>
        <time>2021-05-22T09:16:05Z</time>
      </trkpt>
      <trkpt lat="46.92381" lon="4.72494">
        <ele>227.69523620606</ele>
        <time>2021-05-22T09:16:09Z</time>
      </trkpt>
      <trkpt lat="46.92397" lon="4.72484">
        <ele>227.69586181641</ele>
        <time>2021-05-22T09:16:13Z</time>
      </trkpt>
      <trkpt lat="46.92413" lon="4.72474">
        <ele>227.69650268555</ele>
        <time>2021-05-22T09:16:17Z</time>
      </trkpt>
      <trkpt lat="46.92429" lon="4.72464">
        <ele>227.6971282959</ele>
        <time>2021-05-22T09:16:21Z</time>
      </trkpt>
      <trkpt lat="46.92442" lon="4.7245">
        <ele>227.69767761231</ele>
        <time>2021-05-22T09:16:25Z</time>
      </trkpt>
      <trkpt lat="46.92455" lon="4.72427">
        <ele>228.69821166992</ele>
        <time>2021-05-22T09:16:30Z</time>
      </trkpt>
      <trkpt lat="46.92465" lon="4.72411">
        <ele>228.69860839844</ele>
        <time>2021-05-22T09:16:34Z</time>
      </trkpt>
      <trkpt lat="46.92475" lon="4.72395">
        <ele>229.69898986816</ele>
        <time>2021-05-22T09:16:38Z</time>
      </trkpt>
      <trkpt lat="46.92486" lon="4.72376">
        <ele>230.69943237305</ele>
        <time>2021-05-22T09:16:43Z</time>
      </trkpt>
      <trkpt lat="46.92494" lon="4.72362">
        <ele>230.69976806641</ele>
        <time>2021-05-22T09:16:47Z</time>
      </trkpt>
      <trkpt lat="46.92503" lon="4.72345">
        <ele>232.70011901856</ele>
        <time>2021-05-22T09:16:52Z</time>
      </trkpt>
      <trkpt lat="46.92511" lon="4.72332">
        <ele>232.70043945312</ele>
        <time>2021-05-22T09:16:56Z</time>
      </trkpt>
      <trkpt lat="46.92519" lon="4.72319">
        <ele>233.70077514648</ele>
        <time>2021-05-22T09:17:00Z</time>
      </trkpt>
      <trkpt lat="46.9253" lon="4.72307">
        <ele>237.70121765137</ele>
        <time>2021-05-22T09:17:05Z</time>
      </trkpt>
      <trkpt lat="46.92543" lon="4.72308">
        <ele>239.70173645019</ele>
        <time>2021-05-22T09:17:10Z</time>
      </trkpt>
      <trkpt lat="46.92554" lon="4.72312">
        <ele>237.7021484375</ele>
        <time>2021-05-22T09:17:14Z</time>
      </trkpt>
      <trkpt lat="46.92567" lon="4.72322">
        <ele>236.70269775391</ele>
        <time>2021-05-22T09:17:19Z</time>
      </trkpt>
      <trkpt lat="46.92579" lon="4.72332">
        <ele>237.70317077637</ele>
        <time>2021-05-22T09:17:23Z</time>
      </trkpt>
      <trkpt lat="46.92591" lon="4.72342">
        <ele>236.70365905762</ele>
        <time>2021-05-22T09:17:27Z</time>
      </trkpt>
      <trkpt lat="46.92605" lon="4.72351">
        <ele>237.70420837402</ele>
        <time>2021-05-22T09:17:31Z</time>
      </trkpt>
      <trkpt lat="46.92622" lon="4.72361">
        <ele>237.70487976074</ele>
        <time>2021-05-22T09:17:36Z</time>
      </trkpt>
      <trkpt lat="46.92637" lon="4.72367">
        <ele>237.70547485352</ele>
        <time>2021-05-22T09:17:40Z</time>
      </trkpt>
      <trkpt lat="46.92657" lon="4.72371">
        <ele>238.70629882812</ele>
        <time>2021-05-22T09:17:45Z</time>
      </trkpt>
      <trkpt lat="46.92674" lon="4.72372">
        <ele>239.70697021484</ele>
        <time>2021-05-22T09:17:49Z</time>
      </trkpt>
      <trkpt lat="46.92694" lon="4.72374">
        <ele>240.70774841309</ele>
        <time>2021-05-22T09:17:54Z</time>
      </trkpt>
      <trkpt lat="46.92713" lon="4.72376">
        <ele>241.70851135254</ele>
        <time>2021-05-22T09:17:59Z</time>
      </trkpt>
      <trkpt lat="46.92727" lon="4.72378">
        <ele>241.70909118652</ele>
        <time>2021-05-22T09:18:03Z</time>
      </trkpt>
      <trkpt lat="46.92741" lon="4.72382">
        <ele>242.70965576172</ele>
        <time>2021-05-22T09:18:07Z</time>
      </trkpt>
      <trkpt lat="46.92758" lon="4.7239">
        <ele>243.71032714844</ele>
        <time>2021-05-22T09:18:12Z</time>
      </trkpt>
      <trkpt lat="46.92772" lon="4.72398">
        <ele>244.71087646484</ele>
        <time>2021-05-22T09:18:16Z</time>
      </trkpt>
      <trkpt lat="46.92784" lon="4.72406">
        <ele>244.71136474609</ele>
        <time>2021-05-22T09:18:20Z</time>
      </trkpt>
      <trkpt lat="46.92797" lon="4.72414">
        <ele>243.71188354492</ele>
        <time>2021-05-22T09:18:24Z</time>
      </trkpt>
      <trkpt lat="46.9281" lon="4.72423">
        <ele>243.71237182617</ele>
        <time>2021-05-22T09:18:28Z</time>
      </trkpt>
      <trkpt lat="46.92823" lon="4.72431">
        <ele>244.71290588379</ele>
        <time>2021-05-22T09:18:32Z</time>
      </trkpt>
      <trkpt lat="46.92841" lon="4.72438">
        <ele>244.71362304688</ele>
        <time>2021-05-22T09:18:37Z</time>
      </trkpt>
      <trkpt lat="46.92855" lon="4.72444">
        <ele>244.71420288086</ele>
        <time>2021-05-22T09:18:41Z</time>
      </trkpt>
      <trkpt lat="46.92874" lon="4.72457">
        <ele>246.71496582031</ele>
        <time>2021-05-22T09:18:46Z</time>
      </trkpt>
      <trkpt lat="46.92894" lon="4.72468">
        <ele>245.71574401856</ele>
        <time>2021-05-22T09:18:51Z</time>
      </trkpt>
      <trkpt lat="46.92912" lon="4.72476">
        <ele>245.71649169922</ele>
        <time>2021-05-22T09:18:55Z</time>
      </trkpt>
      <trkpt lat="46.92931" lon="4.72483">
        <ele>245.71725463867</ele>
        <time>2021-05-22T09:18:59Z</time>
      </trkpt>
      <trkpt lat="46.92949" lon="4.72491">
        <ele>244.71795654297</ele>
        <time>2021-05-22T09:19:03Z</time>
      </trkpt>
      <trkpt lat="46.92968" lon="4.72499">
        <ele>244.71871948242</ele>
        <time>2021-05-22T09:19:07Z</time>
      </trkpt>
      <trkpt lat="46.92993" lon="4.72508">
        <ele>245.71971130371</ele>
        <time>2021-05-22T09:19:12Z</time>
      </trkpt>
      <trkpt lat="46.93015" lon="4.72515">
        <ele>245.72061157227</ele>
        <time>2021-05-22T09:19:17Z</time>
      </trkpt>
      <trkpt lat="46.93033" lon="4.72522">
        <ele>247.72132873535</ele>
        <time>2021-05-22T09:19:21Z</time>
      </trkpt>
      <trkpt lat="46.93048" lon="4.72532">
        <ele>246.72192382812</ele>
        <time>2021-05-22T09:19:25Z</time>
      </trkpt>
      <trkpt lat="46.93067" lon="4.72551">
        <ele>245.72268676758</ele>
        <time>2021-05-22T09:19:30Z</time>
      </trkpt>
      <trkpt lat="46.93095" lon="4.72559">
        <ele>245.72378540039</ele>
        <time>2021-05-22T09:19:35Z</time>
      </trkpt>
      <trkpt lat="46.93122" lon="4.72567">
        <ele>246.7248840332</ele>
        <time>2021-05-22T09:19:40Z</time>
      </trkpt>
      <trkpt lat="46.93147" lon="4.72579">
        <ele>246.72589111328</ele>
        <time>2021-05-22T09:19:45Z</time>
      </trkpt>
      <trkpt lat="46.93166" lon="4.72592">
        <ele>245.72663879394</ele>
        <time>2021-05-22T09:19:49Z</time>
      </trkpt>
      <trkpt lat="46.93189" lon="4.72602">
        <ele>244.72756958008</ele>
        <time>2021-05-22T09:19:54Z</time>
      </trkpt>
      <trkpt lat="46.93208" lon="4.72619">
        <ele>247.72830200195</ele>
        <time>2021-05-22T09:19:58Z</time>
      </trkpt>
      <trkpt lat="46.93224" lon="4.72635">
        <ele>246.72897338867</ele>
        <time>2021-05-22T09:20:02Z</time>
      </trkpt>
      <trkpt lat="46.93247" lon="4.72662">
        <ele>242.72988891602</ele>
        <time>2021-05-22T09:20:07Z</time>
      </trkpt>
      <trkpt lat="46.93273" lon="4.72698">
        <ele>241.73091125488</ele>
        <time>2021-05-22T09:20:12Z</time>
      </trkpt>
      <trkpt lat="46.93292" lon="4.72727">
        <ele>241.73168945312</ele>
        <time>2021-05-22T09:20:16Z</time>
      </trkpt>
      <trkpt lat="46.93311" lon="4.72752">
        <ele>242.73245239258</ele>
        <time>2021-05-22T09:20:20Z</time>
      </trkpt>
      <trkpt lat="46.93328" lon="4.72772">
        <ele>242.7331237793</ele>
        <time>2021-05-22T09:20:24Z</time>
      </trkpt>
      <trkpt lat="46.93346" lon="4.72766">
        <ele>242.73385620117</ele>
        <time>2021-05-22T09:20:28Z</time>
      </trkpt>
      <trkpt lat="46.93357" lon="4.72739">
        <ele>243.73429870606</ele>
        <time>2021-05-22T09:20:33Z</time>
      </trkpt>
      <trkpt lat="46.93366" lon="4.7272">
        <ele>243.7346496582</ele>
        <time>2021-05-22T09:20:37Z</time>
      </trkpt>
      <trkpt lat="46.93374" lon="4.72703">
        <ele>244.73493957519</ele>
        <time>2021-05-22T09:20:42Z</time>
      </trkpt>
      <trkpt lat="46.93382" lon="4.72689">
        <ele>247.73526000977</ele>
        <time>2021-05-22T09:20:46Z</time>
      </trkpt>
      <trkpt lat="46.93389" lon="4.7267">
        <ele>247.73554992676</ele>
        <time>2021-05-22T09:20:51Z</time>
      </trkpt>
      <trkpt lat="46.93394" lon="4.72647">
        <ele>245.73574829102</ele>
        <time>2021-05-22T09:20:56Z</time>
      </trkpt>
      <trkpt lat="46.93398" lon="4.72633">
        <ele>247.73590087891</ele>
        <time>2021-05-22T09:21:00Z</time>
      </trkpt>
      <trkpt lat="46.93404" lon="4.72615">
        <ele>250.73617553711</ele>
        <time>2021-05-22T09:21:05Z</time>
      </trkpt>
      <trkpt lat="46.93409" lon="4.726">
        <ele>251.73637390137</ele>
        <time>2021-05-22T09:21:09Z</time>
      </trkpt>
      <trkpt lat="46.93415" lon="4.72581">
        <ele>254.73657226562</ele>
        <time>2021-05-22T09:21:14Z</time>
      </trkpt>
      <trkpt lat="46.93418" lon="4.72567">
        <ele>254.73670959473</ele>
        <time>2021-05-22T09:21:18Z</time>
      </trkpt>
      <trkpt lat="46.93422" lon="4.72554">
        <ele>255.73689270019</ele>
        <time>2021-05-22T09:21:22Z</time>
      </trkpt>
      <trkpt lat="46.93429" lon="4.72545">
        <ele>254.7371673584</ele>
        <time>2021-05-22T09:21:26Z</time>
      </trkpt>
      <trkpt lat="46.93427" lon="4.72531">
        <ele>253.73709106445</ele>
        <time>2021-05-22T09:21:30Z</time>
      </trkpt>
      <trkpt lat="46.93426" lon="4.72514">
        <ele>255.7370300293</ele>
        <time>2021-05-22T09:21:35Z</time>
      </trkpt>
      <trkpt lat="46.93427" lon="4.72493">
        <ele>257.73709106445</ele>
        <time>2021-05-22T09:21:40Z</time>
      </trkpt>
      <trkpt lat="46.93431" lon="4.72479">
        <ele>259.73721313477</ele>
        <time>2021-05-22T09:21:44Z</time>
      </trkpt>
      <trkpt lat="46.93436" lon="4.72468">
        <ele>260.73742675781</ele>
        <time>2021-05-22T09:21:49Z</time>
      </trkpt>
      <trkpt lat="46.93442" lon="4.72477">
        <ele>267.73767089844</ele>
        <time>2021-05-22T09:25:11Z</time>
      </trkpt>
      <trkpt lat="46.9345" lon="4.72479">
        <ele>271.7380065918</ele>
        <time>2021-05-22T09:25:17Z</time>
      </trkpt>
      <trkpt lat="46.93457" lon="4.7248">
        <ele>272.73831176758</ele>
        <time>2021-05-22T09:25:26Z</time>
      </trkpt>
      <trkpt lat="46.93468" lon="4.72467">
        <ele>270.73873901367</ele>
        <time>2021-05-22T09:25:31Z</time>
      </trkpt>
      <trkpt lat="46.93474" lon="4.72456">
        <ele>270.73895263672</ele>
        <time>2021-05-22T09:25:35Z</time>
      </trkpt>
      <trkpt lat="46.93475" lon="4.72444">
        <ele>270.7389831543</ele>
        <time>2021-05-22T09:25:39Z</time>
      </trkpt>
      <trkpt lat="46.93485" lon="4.72433">
        <ele>269.73941040039</ele>
        <time>2021-05-22T09:25:44Z</time>
      </trkpt>
      <trkpt lat="46.93492" lon="4.72425">
        <ele>266.73968505859</ele>
        <time>2021-05-22T09:25:49Z</time>
      </trkpt>
      <trkpt lat="46.93499" lon="4.72428">
        <ele>265.7399597168</ele>
        <time>2021-05-22T09:25:53Z</time>
      </trkpt>
      <trkpt lat="46.93507" lon="4.72447">
        <ele>268.74026489258</ele>
        <time>2021-05-22T09:25:58Z</time>
      </trkpt>
      <trkpt lat="46.93518" lon="4.72469">
        <ele>268.74072265625</ele>
        <time>2021-05-22T09:26:03Z</time>
      </trkpt>
      <trkpt lat="46.93528" lon="4.72484">
        <ele>267.74108886719</ele>
        <time>2021-05-22T09:26:07Z</time>
      </trkpt>
      <trkpt lat="46.93543" lon="4.72498">
        <ele>267.74172973633</ele>
        <time>2021-05-22T09:26:12Z</time>
      </trkpt>
      <trkpt lat="46.93553" lon="4.72511">
        <ele>263.74209594727</ele>
        <time>2021-05-22T09:26:16Z</time>
      </trkpt>
      <trkpt lat="46.93554" lon="4.72531">
        <ele>264.7421875</ele>
        <time>2021-05-22T09:26:20Z</time>
      </trkpt>
      <trkpt lat="46.93548" lon="4.72558">
        <ele>264.74194335938</ele>
        <time>2021-05-22T09:26:24Z</time>
      </trkpt>
      <trkpt lat="46.93547" lon="4.72585">
        <ele>265.74185180664</ele>
        <time>2021-05-22T09:26:28Z</time>
      </trkpt>
      <trkpt lat="46.93549" lon="4.72615">
        <ele>266.74197387695</ele>
        <time>2021-05-22T09:26:32Z</time>
      </trkpt>
      <trkpt lat="46.93567" lon="4.72641">
        <ele>265.74267578125</ele>
        <time>2021-05-22T09:26:37Z</time>
      </trkpt>
      <trkpt lat="46.93577" lon="4.72654">
        <ele>265.74307250977</ele>
        <time>2021-05-22T09:26:41Z</time>
      </trkpt>
      <trkpt lat="46.93586" lon="4.72664">
        <ele>263.7434387207</ele>
        <time>2021-05-22T09:26:45Z</time>
      </trkpt>
      <trkpt lat="46.93591" lon="4.72672">
        <ele>260.74365234375</ele>
        <time>2021-05-22T09:26:52Z</time>
      </trkpt>
      <trkpt lat="46.93596" lon="4.7268">
        <ele>258.7438659668</ele>
        <time>2021-05-22T09:26:58Z</time>
      </trkpt>
      <trkpt lat="46.93601" lon="4.72689">
        <ele>257.74404907227</ele>
        <time>2021-05-22T09:27:03Z</time>
      </trkpt>
      <trkpt lat="46.93608" lon="4.72705">
        <ele>256.74432373047</ele>
        <time>2021-05-22T09:27:08Z</time>
      </trkpt>
      <trkpt lat="46.9362" lon="4.72728">
        <ele>254.74479675293</ele>
        <time>2021-05-22T09:27:13Z</time>
      </trkpt>
      <trkpt lat="46.93629" lon="4.72749">
        <ele>256.74517822266</ele>
        <time>2021-05-22T09:27:17Z</time>
      </trkpt>
      <trkpt lat="46.93642" lon="4.72774">
        <ele>256.74566650391</ele>
        <time>2021-05-22T09:27:21Z</time>
      </trkpt>
      <trkpt lat="46.93654" lon="4.72799">
        <ele>258.74615478516</ele>
        <time>2021-05-22T09:27:25Z</time>
      </trkpt>
      <trkpt lat="46.93674" lon="4.7283">
        <ele>259.74694824219</ele>
        <time>2021-05-22T09:27:30Z</time>
      </trkpt>
      <trkpt lat="46.93684" lon="4.72866">
        <ele>260.7473449707</ele>
        <time>2021-05-22T09:27:34Z</time>
      </trkpt>
      <trkpt lat="46.93705" lon="4.72901">
        <ele>260.74819946289</ele>
        <time>2021-05-22T09:27:39Z</time>
      </trkpt>
      <trkpt lat="46.93726" lon="4.72914">
        <ele>260.7490234375</ele>
        <time>2021-05-22T09:27:43Z</time>
      </trkpt>
      <trkpt lat="46.93747" lon="4.72927">
        <ele>261.74984741211</ele>
        <time>2021-05-22T09:27:47Z</time>
      </trkpt>
      <trkpt lat="46.9376" lon="4.72943">
        <ele>260.75036621094</ele>
        <time>2021-05-22T09:27:52Z</time>
      </trkpt>
      <trkpt lat="46.93774" lon="4.72952">
        <ele>254.75094604492</ele>
        <time>2021-05-22T09:27:56Z</time>
      </trkpt>
      <trkpt lat="46.93795" lon="4.72962">
        <ele>254.7518157959</ele>
        <time>2021-05-22T09:28:01Z</time>
      </trkpt>
      <trkpt lat="46.93807" lon="4.72977">
        <ele>249.75228881836</ele>
        <time>2021-05-22T09:28:05Z</time>
      </trkpt>
      <trkpt lat="46.93815" lon="4.72981">
        <ele>248.75259399414</ele>
        <time>2021-05-22T09:28:10Z</time>
      </trkpt>
      <trkpt lat="46.93824" lon="4.7301">
        <ele>249.75294494629</ele>
        <time>2021-05-22T09:28:15Z</time>
      </trkpt>
      <trkpt lat="46.93824" lon="4.73046">
        <ele>249.75297546387</ele>
        <time>2021-05-22T09:28:19Z</time>
      </trkpt>
      <trkpt lat="46.93825" lon="4.73082">
        <ele>244.75300598144</ele>
        <time>2021-05-22T09:28:24Z</time>
      </trkpt>
      <trkpt lat="46.93825" lon="4.73121">
        <ele>245.75299072266</ele>
        <time>2021-05-22T09:28:28Z</time>
      </trkpt>
      <trkpt lat="46.93821" lon="4.73165">
        <ele>247.75283813477</ele>
        <time>2021-05-22T09:28:32Z</time>
      </trkpt>
      <trkpt lat="46.93793" lon="4.73198">
        <ele>241.75172424316</ele>
        <time>2021-05-22T09:28:37Z</time>
      </trkpt>
      <trkpt lat="46.9378" lon="4.73244">
        <ele>238.75120544434</ele>
        <time>2021-05-22T09:28:42Z</time>
      </trkpt>
      <trkpt lat="46.9379" lon="4.73281">
        <ele>237.75160217285</ele>
        <time>2021-05-22T09:28:47Z</time>
      </trkpt>
      <trkpt lat="46.93808" lon="4.73312">
        <ele>241.75231933594</ele>
        <time>2021-05-22T09:28:51Z</time>
      </trkpt>
      <trkpt lat="46.93822" lon="4.73327">
        <ele>242.75289916992</ele>
        <time>2021-05-22T09:28:56Z</time>
      </trkpt>
      <trkpt lat="46.9384" lon="4.73345">
        <ele>241.75361633301</ele>
        <time>2021-05-22T09:29:00Z</time>
      </trkpt>
      <trkpt lat="46.93852" lon="4.73354">
        <ele>241.75408935547</ele>
        <time>2021-05-22T09:29:04Z</time>
      </trkpt>
      <trkpt lat="46.93866" lon="4.73365">
        <ele>242.75463867188</ele>
        <time>2021-05-22T09:29:09Z</time>
      </trkpt>
      <trkpt lat="46.93859" lon="4.7336">
        <ele>242.75436401367</ele>
        <time>2021-05-22T09:29:27Z</time>
      </trkpt>
      <trkpt lat="46.93851" lon="4.73357">
        <ele>241.75402832031</ele>
        <time>2021-05-22T09:29:32Z</time>
      </trkpt>
      <trkpt lat="46.93846" lon="4.73348">
        <ele>241.75382995606</ele>
        <time>2021-05-22T09:31:23Z</time>
      </trkpt>
      <trkpt lat="46.93838" lon="4.7334">
        <ele>241.75352478027</ele>
        <time>2021-05-22T09:31:27Z</time>
      </trkpt>
      <trkpt lat="46.93826" lon="4.73329">
        <ele>240.75305175781</ele>
        <time>2021-05-22T09:31:31Z</time>
      </trkpt>
      <trkpt lat="46.93812" lon="4.73325">
        <ele>242.75248718262</ele>
        <time>2021-05-22T09:31:34Z</time>
      </trkpt>
      <trkpt lat="46.93805" lon="4.73355">
        <ele>242.75216674805</ele>
        <time>2021-05-22T09:31:39Z</time>
      </trkpt>
      <trkpt lat="46.93809" lon="4.73392">
        <ele>242.75236511231</ele>
        <time>2021-05-22T09:31:44Z</time>
      </trkpt>
      <trkpt lat="46.93805" lon="4.73419">
        <ele>240.75218200684</ele>
        <time>2021-05-22T09:31:48Z</time>
      </trkpt>
      <trkpt lat="46.93805" lon="4.73451">
        <ele>240.75221252441</ele>
        <time>2021-05-22T09:31:52Z</time>
      </trkpt>
      <trkpt lat="46.93807" lon="4.7348">
        <ele>240.75227355957</ele>
        <time>2021-05-22T09:31:57Z</time>
      </trkpt>
      <trkpt lat="46.93808" lon="4.73508">
        <ele>240.75231933594</ele>
        <time>2021-05-22T09:32:00Z</time>
      </trkpt>
      <trkpt lat="46.9381" lon="4.7354">
        <ele>243.75238037109</ele>
        <time>2021-05-22T09:32:04Z</time>
      </trkpt>
      <trkpt lat="46.93816" lon="4.73572">
        <ele>241.75262451172</ele>
        <time>2021-05-22T09:32:09Z</time>
      </trkpt>
      <trkpt lat="46.93826" lon="4.73597">
        <ele>238.75305175781</ele>
        <time>2021-05-22T09:32:12Z</time>
      </trkpt>
      <trkpt lat="46.93842" lon="4.73622">
        <ele>237.75366210938</ele>
        <time>2021-05-22T09:32:17Z</time>
      </trkpt>
      <trkpt lat="46.93856" lon="4.73646">
        <ele>236.75424194336</ele>
        <time>2021-05-22T09:32:21Z</time>
      </trkpt>
      <trkpt lat="46.93871" lon="4.73678">
        <ele>235.75485229492</ele>
        <time>2021-05-22T09:32:26Z</time>
      </trkpt>
      <trkpt lat="46.93878" lon="4.73716">
        <ele>238.75512695312</ele>
        <time>2021-05-22T09:32:31Z</time>
      </trkpt>
      <trkpt lat="46.93877" lon="4.73749">
        <ele>239.75509643555</ele>
        <time>2021-05-22T09:32:35Z</time>
      </trkpt>
      <trkpt lat="46.93865" lon="4.73787">
        <ele>235.75459289551</ele>
        <time>2021-05-22T09:32:40Z</time>
      </trkpt>
      <trkpt lat="46.93859" lon="4.73811">
        <ele>231.75436401367</ele>
        <time>2021-05-22T09:32:44Z</time>
      </trkpt>
      <trkpt lat="46.93853" lon="4.73838">
        <ele>231.75411987305</ele>
        <time>2021-05-22T09:32:49Z</time>
      </trkpt>
      <trkpt lat="46.93848" lon="4.73869">
        <ele>233.75392150879</ele>
        <time>2021-05-22T09:32:53Z</time>
      </trkpt>
      <trkpt lat="46.93847" lon="4.7389">
        <ele>234.75387573242</ele>
        <time>2021-05-22T09:32:58Z</time>
      </trkpt>
      <trkpt lat="46.93832" lon="4.73921">
        <ele>234.75329589844</ele>
        <time>2021-05-22T09:33:02Z</time>
      </trkpt>
      <trkpt lat="46.93828" lon="4.73932">
        <ele>234.75312805176</ele>
        <time>2021-05-22T09:33:06Z</time>
      </trkpt>
      <trkpt lat="46.93814" lon="4.73969">
        <ele>236.75257873535</ele>
        <time>2021-05-22T09:33:10Z</time>
      </trkpt>
      <trkpt lat="46.93806" lon="4.73994">
        <ele>236.75224304199</ele>
        <time>2021-05-22T09:33:14Z</time>
      </trkpt>
      <trkpt lat="46.93797" lon="4.74019">
        <ele>235.75187683106</ele>
        <time>2021-05-22T09:33:18Z</time>
      </trkpt>
      <trkpt lat="46.9379" lon="4.74044">
        <ele>235.75158691406</ele>
        <time>2021-05-22T09:33:23Z</time>
      </trkpt>
      <trkpt lat="46.93782" lon="4.74075">
        <ele>234.75126647949</ele>
        <time>2021-05-22T09:33:27Z</time>
      </trkpt>
      <trkpt lat="46.93775" lon="4.74101">
        <ele>234.75100708008</ele>
        <time>2021-05-22T09:33:31Z</time>
      </trkpt>
      <trkpt lat="46.93769" lon="4.74128">
        <ele>234.75077819824</ele>
        <time>2021-05-22T09:33:35Z</time>
      </trkpt>
      <trkpt lat="46.93764" lon="4.74156">
        <ele>233.75054931641</ele>
        <time>2021-05-22T09:33:40Z</time>
      </trkpt>
      <trkpt lat="46.9376" lon="4.74186">
        <ele>234.75039672852</ele>
        <time>2021-05-22T09:33:44Z</time>
      </trkpt>
      <trkpt lat="46.93756" lon="4.74231">
        <ele>233.75022888184</ele>
        <time>2021-05-22T09:33:49Z</time>
      </trkpt>
      <trkpt lat="46.93755" lon="4.74262">
        <ele>232.75019836426</ele>
        <time>2021-05-22T09:33:53Z</time>
      </trkpt>
      <trkpt lat="46.93745" lon="4.74299">
        <ele>232.74981689453</ele>
        <time>2021-05-22T09:33:57Z</time>
      </trkpt>
      <trkpt lat="46.93737" lon="4.74329">
        <ele>231.74946594238</ele>
        <time>2021-05-22T09:34:01Z</time>
      </trkpt>
      <trkpt lat="46.93729" lon="4.74358">
        <ele>229.74914550781</ele>
        <time>2021-05-22T09:34:06Z</time>
      </trkpt>
      <trkpt lat="46.93723" lon="4.74392">
        <ele>229.74893188477</ele>
        <time>2021-05-22T09:34:10Z</time>
      </trkpt>
      <trkpt lat="46.9374" lon="4.74412">
        <ele>230.74960327148</ele>
        <time>2021-05-22T09:34:14Z</time>
      </trkpt>
      <trkpt lat="46.93761" lon="4.74424">
        <ele>232.75042724609</ele>
        <time>2021-05-22T09:34:18Z</time>
      </trkpt>
      <trkpt lat="46.93787" lon="4.74447">
        <ele>232.75148010254</ele>
        <time>2021-05-22T09:34:23Z</time>
      </trkpt>
      <trkpt lat="46.938" lon="4.74468">
        <ele>230.75201416016</ele>
        <time>2021-05-22T09:34:27Z</time>
      </trkpt>
      <trkpt lat="46.93822" lon="4.74494">
        <ele>230.75289916992</ele>
        <time>2021-05-22T09:34:32Z</time>
      </trkpt>
      <trkpt lat="46.93839" lon="4.74514">
        <ele>230.75355529785</ele>
        <time>2021-05-22T09:34:35Z</time>
      </trkpt>
      <trkpt lat="46.93853" lon="4.74536">
        <ele>230.75413513184</ele>
        <time>2021-05-22T09:34:40Z</time>
      </trkpt>
      <trkpt lat="46.93869" lon="4.74548">
        <ele>230.7547454834</ele>
        <time>2021-05-22T09:34:44Z</time>
      </trkpt>
      <trkpt lat="46.93887" lon="4.74556">
        <ele>233.75546264648</ele>
        <time>2021-05-22T09:34:48Z</time>
      </trkpt>
      <trkpt lat="46.93896" lon="4.7454">
        <ele>235.75582885742</ele>
        <time>2021-05-22T09:34:53Z</time>
      </trkpt>
      <trkpt lat="46.93907" lon="4.74517">
        <ele>234.75628662109</ele>
        <time>2021-05-22T09:34:57Z</time>
      </trkpt>
      <trkpt lat="46.93913" lon="4.74497">
        <ele>231.75653076172</ele>
        <time>2021-05-22T09:35:02Z</time>
      </trkpt>
      <trkpt lat="46.93922" lon="4.74475">
        <ele>231.75686645508</ele>
        <time>2021-05-22T09:35:05Z</time>
      </trkpt>
      <trkpt lat="46.93928" lon="4.7445">
        <ele>232.75712585449</ele>
        <time>2021-05-22T09:35:09Z</time>
      </trkpt>
      <trkpt lat="46.93939" lon="4.74421">
        <ele>232.75755310059</ele>
        <time>2021-05-22T09:35:14Z</time>
      </trkpt>
      <trkpt lat="46.93948" lon="4.74399">
        <ele>233.75791931152</ele>
        <time>2021-05-22T09:35:18Z</time>
      </trkpt>
      <trkpt lat="46.93954" lon="4.74378">
        <ele>234.75817871094</ele>
        <time>2021-05-22T09:35:23Z</time>
      </trkpt>
      <trkpt lat="46.93963" lon="4.7435">
        <ele>235.75852966309</ele>
        <time>2021-05-22T09:35:28Z</time>
      </trkpt>
      <trkpt lat="46.93972" lon="4.74322">
        <ele>236.75889587402</ele>
        <time>2021-05-22T09:35:33Z</time>
      </trkpt>
      <trkpt lat="46.93982" lon="4.74294">
        <ele>236.75929260254</ele>
        <time>2021-05-22T09:35:37Z</time>
      </trkpt>
      <trkpt lat="46.93991" lon="4.74273">
        <ele>237.7596282959</ele>
        <time>2021-05-22T09:35:41Z</time>
      </trkpt>
      <trkpt lat="46.94001" lon="4.74252">
        <ele>237.76002502441</ele>
        <time>2021-05-22T09:35:46Z</time>
      </trkpt>
      <trkpt lat="46.94011" lon="4.74232">
        <ele>238.76043701172</ele>
        <time>2021-05-22T09:35:50Z</time>
      </trkpt>
      <trkpt lat="46.94024" lon="4.74207">
        <ele>238.76095581055</ele>
        <time>2021-05-22T09:35:54Z</time>
      </trkpt>
      <trkpt lat="46.94035" lon="4.74186">
        <ele>238.76136779785</ele>
        <time>2021-05-22T09:35:58Z</time>
      </trkpt>
      <trkpt lat="46.94047" lon="4.7416">
        <ele>239.76187133789</ele>
        <time>2021-05-22T09:36:03Z</time>
      </trkpt>
      <trkpt lat="46.94055" lon="4.74137">
        <ele>239.76219177246</ele>
        <time>2021-05-22T09:36:08Z</time>
      </trkpt>
      <trkpt lat="46.94067" lon="4.74115">
        <ele>238.7626953125</ele>
        <time>2021-05-22T09:36:13Z</time>
      </trkpt>
      <trkpt lat="46.94078" lon="4.74092">
        <ele>241.76313781738</ele>
        <time>2021-05-22T09:36:17Z</time>
      </trkpt>
      <trkpt lat="46.94085" lon="4.74074">
        <ele>241.7633972168</ele>
        <time>2021-05-22T09:36:21Z</time>
      </trkpt>
      <trkpt lat="46.94091" lon="4.74056">
        <ele>242.76364135742</ele>
        <time>2021-05-22T09:36:26Z</time>
      </trkpt>
      <trkpt lat="46.94097" lon="4.74039">
        <ele>243.76388549805</ele>
        <time>2021-05-22T09:36:29Z</time>
      </trkpt>
      <trkpt lat="46.94109" lon="4.74023">
        <ele>242.76434326172</ele>
        <time>2021-05-22T09:36:34Z</time>
      </trkpt>
      <trkpt lat="46.94118" lon="4.74037">
        <ele>242.76473999023</ele>
        <time>2021-05-22T09:36:38Z</time>
      </trkpt>
      <trkpt lat="46.94126" lon="4.74066">
        <ele>241.76506042481</ele>
        <time>2021-05-22T09:36:43Z</time>
      </trkpt>
      <trkpt lat="46.94137" lon="4.74091">
        <ele>241.76547241211</ele>
        <time>2021-05-22T09:36:48Z</time>
      </trkpt>
      <trkpt lat="46.9415" lon="4.74119">
        <ele>242.76599121094</ele>
        <time>2021-05-22T09:36:52Z</time>
      </trkpt>
      <trkpt lat="46.9416" lon="4.74148">
        <ele>243.76640319824</ele>
        <time>2021-05-22T09:36:57Z</time>
      </trkpt>
      <trkpt lat="46.94167" lon="4.74171">
        <ele>243.76666259766</ele>
        <time>2021-05-22T09:37:01Z</time>
      </trkpt>
      <trkpt lat="46.94172" lon="4.74201">
        <ele>244.7668762207</ele>
        <time>2021-05-22T09:37:06Z</time>
      </trkpt>
      <trkpt lat="46.94175" lon="4.74227">
        <ele>244.76699829102</ele>
        <time>2021-05-22T09:37:10Z</time>
      </trkpt>
      <trkpt lat="46.9418" lon="4.74257">
        <ele>244.76719665527</ele>
        <time>2021-05-22T09:37:15Z</time>
      </trkpt>
      <trkpt lat="46.94186" lon="4.74286">
        <ele>248.7674407959</ele>
        <time>2021-05-22T09:37:19Z</time>
      </trkpt>
      <trkpt lat="46.94195" lon="4.74312">
        <ele>248.76779174805</ele>
        <time>2021-05-22T09:37:23Z</time>
      </trkpt>
      <trkpt lat="46.94206" lon="4.74345">
        <ele>244.76823425293</ele>
        <time>2021-05-22T09:37:28Z</time>
      </trkpt>
      <trkpt lat="46.94213" lon="4.74373">
        <ele>244.76852416992</ele>
        <time>2021-05-22T09:37:32Z</time>
      </trkpt>
      <trkpt lat="46.94221" lon="4.74401">
        <ele>244.76885986328</ele>
        <time>2021-05-22T09:37:37Z</time>
      </trkpt>
      <trkpt lat="46.94234" lon="4.74436">
        <ele>244.76937866211</ele>
        <time>2021-05-22T09:37:41Z</time>
      </trkpt>
      <trkpt lat="46.94244" lon="4.74473">
        <ele>244.76974487305</ele>
        <time>2021-05-22T09:37:46Z</time>
      </trkpt>
      <trkpt lat="46.94247" lon="4.74506">
        <ele>244.76988220215</ele>
        <time>2021-05-22T09:37:50Z</time>
      </trkpt>
      <trkpt lat="46.94249" lon="4.74546">
        <ele>242.76997375488</ele>
        <time>2021-05-22T09:37:55Z</time>
      </trkpt>
      <trkpt lat="46.94252" lon="4.74573">
        <ele>241.77006530762</ele>
        <time>2021-05-22T09:37:59Z</time>
      </trkpt>
      <trkpt lat="46.94258" lon="4.74614">
        <ele>240.77032470703</ele>
        <time>2021-05-22T09:38:04Z</time>
      </trkpt>
      <trkpt lat="46.94265" lon="4.74647">
        <ele>240.77058410644</ele>
        <time>2021-05-22T09:38:08Z</time>
      </trkpt>
      <trkpt lat="46.94273" lon="4.7469">
        <ele>239.77090454102</ele>
        <time>2021-05-22T09:38:12Z</time>
      </trkpt>
      <trkpt lat="46.94279" lon="4.74734">
        <ele>240.77117919922</ele>
        <time>2021-05-22T09:38:17Z</time>
      </trkpt>
      <trkpt lat="46.94283" lon="4.74772">
        <ele>239.77133178711</ele>
        <time>2021-05-22T09:38:21Z</time>
      </trkpt>
      <trkpt lat="46.94287" lon="4.7481">
        <ele>238.77146911621</ele>
        <time>2021-05-22T09:38:26Z</time>
      </trkpt>
      <trkpt lat="46.94297" lon="4.74855">
        <ele>236.77188110352</ele>
        <time>2021-05-22T09:38:30Z</time>
      </trkpt>
      <trkpt lat="46.94317" lon="4.74882">
        <ele>235.77268981934</ele>
        <time>2021-05-22T09:38:35Z</time>
      </trkpt>
      <trkpt lat="46.94349" lon="4.74905">
        <ele>234.77397155762</ele>
        <time>2021-05-22T09:38:39Z</time>
      </trkpt>
      <trkpt lat="46.94375" lon="4.74925">
        <ele>234.77500915527</ele>
        <time>2021-05-22T09:38:43Z</time>
      </trkpt>
      <trkpt lat="46.94401" lon="4.74942">
        <ele>234.77603149414</ele>
        <time>2021-05-22T09:38:47Z</time>
      </trkpt>
      <trkpt lat="46.94424" lon="4.74961">
        <ele>233.77696228027</ele>
        <time>2021-05-22T09:38:52Z</time>
      </trkpt>
      <trkpt lat="46.9445" lon="4.74982">
        <ele>234.77801513672</ele>
        <time>2021-05-22T09:38:56Z</time>
      </trkpt>
      <trkpt lat="46.94461" lon="4.75007">
        <ele>235.77847290039</ele>
        <time>2021-05-22T09:39:00Z</time>
      </trkpt>
      <trkpt lat="46.94459" lon="4.75035">
        <ele>234.77836608887</ele>
        <time>2021-05-22T09:39:04Z</time>
      </trkpt>
      <trkpt lat="46.94452" lon="4.7506">
        <ele>235.77807617188</ele>
        <time>2021-05-22T09:39:08Z</time>
      </trkpt>
      <trkpt lat="46.94447" lon="4.75083">
        <ele>234.77786254883</ele>
        <time>2021-05-22T09:39:12Z</time>
      </trkpt>
      <trkpt lat="46.94441" lon="4.75106">
        <ele>232.77763366699</ele>
        <time>2021-05-22T09:39:17Z</time>
      </trkpt>
      <trkpt lat="46.94434" lon="4.75123">
        <ele>232.77734375</ele>
        <time>2021-05-22T09:39:22Z</time>
      </trkpt>
      <trkpt lat="46.94427" lon="4.75151">
        <ele>232.77709960938</ele>
        <time>2021-05-22T09:39:26Z</time>
      </trkpt>
      <trkpt lat="46.94427" lon="4.75174">
        <ele>232.7770690918</ele>
        <time>2021-05-22T09:39:30Z</time>
      </trkpt>
      <trkpt lat="46.94427" lon="4.75198">
        <ele>233.7770690918</ele>
        <time>2021-05-22T09:39:34Z</time>
      </trkpt>
      <trkpt lat="46.94431" lon="4.75219">
        <ele>233.77722167969</ele>
        <time>2021-05-22T09:39:38Z</time>
      </trkpt>
      <trkpt lat="46.94438" lon="4.75244">
        <ele>233.77752685547</ele>
        <time>2021-05-22T09:39:43Z</time>
      </trkpt>
      <trkpt lat="46.94446" lon="4.75264">
        <ele>232.77783203125</ele>
        <time>2021-05-22T09:39:47Z</time>
      </trkpt>
      <trkpt lat="46.9446" lon="4.75271">
        <ele>231.77839660644</ele>
        <time>2021-05-22T09:39:51Z</time>
      </trkpt>
      <trkpt lat="46.94477" lon="4.75276">
        <ele>229.77909851074</ele>
        <time>2021-05-22T09:39:56Z</time>
      </trkpt>
      <trkpt lat="46.9449" lon="4.75279">
        <ele>227.77960205078</ele>
        <time>2021-05-22T09:40:01Z</time>
      </trkpt>
      <trkpt lat="46.94496" lon="4.75288">
        <ele>226.77984619141</ele>
        <time>2021-05-22T09:40:27Z</time>
      </trkpt>
      <trkpt lat="46.94493" lon="4.75297">
        <ele>229.77972412109</ele>
        <time>2021-05-22T09:40:32Z</time>
      </trkpt>
      <trkpt lat="46.9449" lon="4.75312">
        <ele>229.77960205078</ele>
        <time>2021-05-22T09:40:36Z</time>
      </trkpt>
      <trkpt lat="46.9449" lon="4.75336">
        <ele>227.77958679199</ele>
        <time>2021-05-22T09:40:40Z</time>
      </trkpt>
      <trkpt lat="46.94489" lon="4.7535">
        <ele>228.7795715332</ele>
        <time>2021-05-22T09:40:45Z</time>
      </trkpt>
      <trkpt lat="46.94485" lon="4.75341">
        <ele>227.77940368652</ele>
        <time>2021-05-22T09:40:52Z</time>
      </trkpt>
      <trkpt lat="46.94488" lon="4.75324">
        <ele>228.77951049805</ele>
        <time>2021-05-22T09:40:56Z</time>
      </trkpt>
      <trkpt lat="46.94492" lon="4.75313">
        <ele>230.77970886231</ele>
        <time>2021-05-22T09:42:27Z</time>
      </trkpt>
      <trkpt lat="46.94493" lon="4.75325">
        <ele>233.77970886231</ele>
        <time>2021-05-22T09:47:35Z</time>
      </trkpt>
      <trkpt lat="46.94491" lon="4.75313">
        <ele>235.77964782715</ele>
        <time>2021-05-22T09:48:13Z</time>
      </trkpt>
      <trkpt lat="46.94492" lon="4.753">
        <ele>232.77967834473</ele>
        <time>2021-05-22T10:01:41Z</time>
      </trkpt>
      <trkpt lat="46.94496" lon="4.75288">
        <ele>230.77983093262</ele>
        <time>2021-05-22T10:01:46Z</time>
      </trkpt>
      <trkpt lat="46.94504" lon="4.75283">
        <ele>228.78015136719</ele>
        <time>2021-05-22T10:01:50Z</time>
      </trkpt>
      <trkpt lat="46.94514" lon="4.75271">
        <ele>229.78056335449</ele>
        <time>2021-05-22T10:01:55Z</time>
      </trkpt>
      <trkpt lat="46.94523" lon="4.75262">
        <ele>231.78091430664</ele>
        <time>2021-05-22T10:01:59Z</time>
      </trkpt>
      <trkpt lat="46.94534" lon="4.75251">
        <ele>232.78134155273</ele>
        <time>2021-05-22T10:02:04Z</time>
      </trkpt>
      <trkpt lat="46.94543" lon="4.75252">
        <ele>232.78170776367</ele>
        <time>2021-05-22T10:02:08Z</time>
      </trkpt>
      <trkpt lat="46.94554" lon="4.75244">
        <ele>233.78215026856</ele>
        <time>2021-05-22T10:02:13Z</time>
      </trkpt>
      <trkpt lat="46.94565" lon="4.75247">
        <ele>235.78259277344</ele>
        <time>2021-05-22T10:02:18Z</time>
      </trkpt>
      <trkpt lat="46.94572" lon="4.7525">
        <ele>235.78291320801</ele>
        <time>2021-05-22T10:02:23Z</time>
      </trkpt>
      <trkpt lat="46.94587" lon="4.75258">
        <ele>233.7834777832</ele>
        <time>2021-05-22T10:02:27Z</time>
      </trkpt>
      <trkpt lat="46.946" lon="4.75263">
        <ele>233.78399658203</ele>
        <time>2021-05-22T10:02:31Z</time>
      </trkpt>
      <trkpt lat="46.94611" lon="4.75267">
        <ele>234.78443908691</ele>
        <time>2021-05-22T10:02:36Z</time>
      </trkpt>
      <trkpt lat="46.94627" lon="4.75268">
        <ele>233.78509521484</ele>
        <time>2021-05-22T10:02:40Z</time>
      </trkpt>
      <trkpt lat="46.94645" lon="4.75271">
        <ele>230.78579711914</ele>
        <time>2021-05-22T10:02:45Z</time>
      </trkpt>
      <trkpt lat="46.94654" lon="4.75273">
        <ele>232.78617858887</ele>
        <time>2021-05-22T10:02:49Z</time>
      </trkpt>
      <trkpt lat="46.94667" lon="4.75277">
        <ele>231.78666687012</ele>
        <time>2021-05-22T10:02:54Z</time>
      </trkpt>
      <trkpt lat="46.94681" lon="4.75282">
        <ele>231.7872467041</ele>
        <time>2021-05-22T10:02:58Z</time>
      </trkpt>
      <trkpt lat="46.94696" lon="4.75286">
        <ele>234.78784179688</ele>
        <time>2021-05-22T10:03:02Z</time>
      </trkpt>
      <trkpt lat="46.9471" lon="4.75291">
        <ele>237.78840637207</ele>
        <time>2021-05-22T10:03:06Z</time>
      </trkpt>
      <trkpt lat="46.94723" lon="4.75296">
        <ele>237.7889251709</ele>
        <time>2021-05-22T10:03:10Z</time>
      </trkpt>
      <trkpt lat="46.94738" lon="4.75301">
        <ele>238.78952026367</ele>
        <time>2021-05-22T10:03:15Z</time>
      </trkpt>
      <trkpt lat="46.94751" lon="4.75309">
        <ele>238.79002380371</ele>
        <time>2021-05-22T10:03:18Z</time>
      </trkpt>
      <trkpt lat="46.94768" lon="4.75321">
        <ele>234.79072570801</ele>
        <time>2021-05-22T10:03:23Z</time>
      </trkpt>
      <trkpt lat="46.94783" lon="4.75328">
        <ele>232.79132080078</ele>
        <time>2021-05-22T10:03:27Z</time>
      </trkpt>
      <trkpt lat="46.94797" lon="4.75336">
        <ele>231.79188537598</ele>
        <time>2021-05-22T10:03:31Z</time>
      </trkpt>
      <trkpt lat="46.94812" lon="4.75348">
        <ele>227.79246520996</ele>
        <time>2021-05-22T10:03:36Z</time>
      </trkpt>
      <trkpt lat="46.94825" lon="4.75356">
        <ele>229.79301452637</ele>
        <time>2021-05-22T10:03:40Z</time>
      </trkpt>
      <trkpt lat="46.94841" lon="4.75353">
        <ele>229.79365539551</ele>
        <time>2021-05-22T10:03:44Z</time>
      </trkpt>
      <trkpt lat="46.94855" lon="4.75327">
        <ele>229.79418945312</ele>
        <time>2021-05-22T10:03:49Z</time>
      </trkpt>
      <trkpt lat="46.94865" lon="4.75298">
        <ele>230.79460144043</ele>
        <time>2021-05-22T10:03:54Z</time>
      </trkpt>
      <trkpt lat="46.94873" lon="4.75277">
        <ele>229.79490661621</ele>
        <time>2021-05-22T10:03:58Z</time>
      </trkpt>
      <trkpt lat="46.94879" lon="4.75256">
        <ele>227.79516601562</ele>
        <time>2021-05-22T10:04:02Z</time>
      </trkpt>
      <trkpt lat="46.94895" lon="4.75236">
        <ele>228.79580688477</ele>
        <time>2021-05-22T10:04:06Z</time>
      </trkpt>
      <trkpt lat="46.9491" lon="4.75215">
        <ele>230.79641723633</ele>
        <time>2021-05-22T10:04:10Z</time>
      </trkpt>
      <trkpt lat="46.94923" lon="4.75187">
        <ele>229.79692077637</ele>
        <time>2021-05-22T10:04:15Z</time>
      </trkpt>
      <trkpt lat="46.94935" lon="4.75165">
        <ele>226.79740905762</ele>
        <time>2021-05-22T10:04:20Z</time>
      </trkpt>
      <trkpt lat="46.94945" lon="4.75142">
        <ele>226.79779052734</ele>
        <time>2021-05-22T10:04:24Z</time>
      </trkpt>
      <trkpt lat="46.94963" lon="4.75123">
        <ele>224.79852294922</ele>
        <time>2021-05-22T10:04:29Z</time>
      </trkpt>
      <trkpt lat="46.94981" lon="4.75125">
        <ele>224.79924011231</ele>
        <time>2021-05-22T10:04:33Z</time>
      </trkpt>
      <trkpt lat="46.95006" lon="4.75137">
        <ele>228.80023193359</ele>
        <time>2021-05-22T10:04:38Z</time>
      </trkpt>
      <trkpt lat="46.95023" lon="4.75141">
        <ele>229.80090332031</ele>
        <time>2021-05-22T10:04:42Z</time>
      </trkpt>
      <trkpt lat="46.95039" lon="4.75136">
        <ele>230.80155944824</ele>
        <time>2021-05-22T10:04:46Z</time>
      </trkpt>
      <trkpt lat="46.95048" lon="4.75115">
        <ele>230.8018951416</ele>
        <time>2021-05-22T10:04:50Z</time>
      </trkpt>
      <trkpt lat="46.95057" lon="4.75089">
        <ele>230.80226135254</ele>
        <time>2021-05-22T10:04:55Z</time>
      </trkpt>
      <trkpt lat="46.95062" lon="4.75069">
        <ele>230.80249023438</ele>
        <time>2021-05-22T10:04:59Z</time>
      </trkpt>
      <trkpt lat="46.9507" lon="4.75048">
        <ele>228.80278015137</ele>
        <time>2021-05-22T10:05:03Z</time>
      </trkpt>
      <trkpt lat="46.95077" lon="4.75029">
        <ele>230.80307006836</ele>
        <time>2021-05-22T10:05:07Z</time>
      </trkpt>
      <trkpt lat="46.95086" lon="4.75003">
        <ele>229.80345153809</ele>
        <time>2021-05-22T10:05:12Z</time>
      </trkpt>
      <trkpt lat="46.95098" lon="4.74978">
        <ele>230.80392456055</ele>
        <time>2021-05-22T10:05:17Z</time>
      </trkpt>
      <trkpt lat="46.95107" lon="4.74958">
        <ele>231.80429077148</ele>
        <time>2021-05-22T10:05:21Z</time>
      </trkpt>
      <trkpt lat="46.95118" lon="4.74937">
        <ele>232.80470275879</ele>
        <time>2021-05-22T10:05:25Z</time>
      </trkpt>
      <trkpt lat="46.95126" lon="4.74917">
        <ele>231.80505371094</ele>
        <time>2021-05-22T10:05:29Z</time>
      </trkpt>
      <trkpt lat="46.95135" lon="4.74896">
        <ele>232.8053894043</ele>
        <time>2021-05-22T10:05:33Z</time>
      </trkpt>
      <trkpt lat="46.95143" lon="4.74875">
        <ele>233.80570983887</ele>
        <time>2021-05-22T10:05:37Z</time>
      </trkpt>
      <trkpt lat="46.95151" lon="4.74855">
        <ele>233.80604553223</ele>
        <time>2021-05-22T10:05:41Z</time>
      </trkpt>
      <trkpt lat="46.95161" lon="4.74828">
        <ele>234.80644226074</ele>
        <time>2021-05-22T10:05:46Z</time>
      </trkpt>
      <trkpt lat="46.95171" lon="4.74802">
        <ele>234.80683898926</ele>
        <time>2021-05-22T10:05:51Z</time>
      </trkpt>
      <trkpt lat="46.95179" lon="4.74783">
        <ele>234.80715942383</ele>
        <time>2021-05-22T10:05:55Z</time>
      </trkpt>
      <trkpt lat="46.95189" lon="4.74758">
        <ele>236.80754089356</ele>
        <time>2021-05-22T10:06:00Z</time>
      </trkpt>
      <trkpt lat="46.95196" lon="4.74736">
        <ele>237.80783081055</ele>
        <time>2021-05-22T10:06:04Z</time>
      </trkpt>
      <trkpt lat="46.95202" lon="4.74715">
        <ele>237.80809020996</ele>
        <time>2021-05-22T10:06:08Z</time>
      </trkpt>
      <trkpt lat="46.9521" lon="4.74695">
        <ele>237.80839538574</ele>
        <time>2021-05-22T10:06:12Z</time>
      </trkpt>
      <trkpt lat="46.95219" lon="4.74676">
        <ele>239.80874633789</ele>
        <time>2021-05-22T10:06:16Z</time>
      </trkpt>
      <trkpt lat="46.95229" lon="4.74658">
        <ele>239.80915832519</ele>
        <time>2021-05-22T10:06:20Z</time>
      </trkpt>
      <trkpt lat="46.9524" lon="4.7464">
        <ele>241.80960083008</ele>
        <time>2021-05-22T10:06:24Z</time>
      </trkpt>
      <trkpt lat="46.95254" lon="4.74616">
        <ele>243.81015014648</ele>
        <time>2021-05-22T10:06:29Z</time>
      </trkpt>
      <trkpt lat="46.95263" lon="4.74601">
        <ele>243.81050109863</ele>
        <time>2021-05-22T10:06:33Z</time>
      </trkpt>
      <trkpt lat="46.95272" lon="4.74583">
        <ele>243.81091308594</ele>
        <time>2021-05-22T10:06:38Z</time>
      </trkpt>
      <trkpt lat="46.95279" lon="4.7457">
        <ele>246.81117248535</ele>
        <time>2021-05-22T10:06:42Z</time>
      </trkpt>
      <trkpt lat="46.95287" lon="4.74557">
        <ele>247.81146240234</ele>
        <time>2021-05-22T10:06:46Z</time>
      </trkpt>
      <trkpt lat="46.95295" lon="4.74544">
        <ele>248.81178283691</ele>
        <time>2021-05-22T10:06:50Z</time>
      </trkpt>
      <trkpt lat="46.95306" lon="4.74536">
        <ele>249.8122253418</ele>
        <time>2021-05-22T10:06:55Z</time>
      </trkpt>
      <trkpt lat="46.95314" lon="4.7454">
        <ele>250.81256103516</ele>
        <time>2021-05-22T10:06:59Z</time>
      </trkpt>
      <trkpt lat="46.95326" lon="4.7455">
        <ele>250.81304931641</ele>
        <time>2021-05-22T10:07:04Z</time>
      </trkpt>
      <trkpt lat="46.95338" lon="4.74557">
        <ele>250.81350708008</ele>
        <time>2021-05-22T10:07:08Z</time>
      </trkpt>
      <trkpt lat="46.95352" lon="4.74567">
        <ele>250.81408691406</ele>
        <time>2021-05-22T10:07:13Z</time>
      </trkpt>
      <trkpt lat="46.95364" lon="4.74574">
        <ele>251.81455993652</ele>
        <time>2021-05-22T10:07:17Z</time>
      </trkpt>
      <trkpt lat="46.95378" lon="4.74585">
        <ele>252.81513977051</ele>
        <time>2021-05-22T10:07:22Z</time>
      </trkpt>
      <trkpt lat="46.95393" lon="4.74595">
        <ele>252.81571960449</ele>
        <time>2021-05-22T10:07:27Z</time>
      </trkpt>
      <trkpt lat="46.95407" lon="4.74606">
        <ele>253.8162689209</ele>
        <time>2021-05-22T10:07:32Z</time>
      </trkpt>
      <trkpt lat="46.95421" lon="4.74617">
        <ele>254.81683349609</ele>
        <time>2021-05-22T10:07:37Z</time>
      </trkpt>
      <trkpt lat="46.95431" lon="4.74627">
        <ele>255.8172454834</ele>
        <time>2021-05-22T10:07:41Z</time>
      </trkpt>
      <trkpt lat="46.95444" lon="4.74641">
        <ele>256.81774902344</ele>
        <time>2021-05-22T10:07:46Z</time>
      </trkpt>
      <trkpt lat="46.95455" lon="4.74659">
        <ele>258.81820678711</ele>
        <time>2021-05-22T10:07:51Z</time>
      </trkpt>
      <trkpt lat="46.95464" lon="4.74672">
        <ele>258.81854248047</ele>
        <time>2021-05-22T10:07:55Z</time>
      </trkpt>
      <trkpt lat="46.95477" lon="4.74688">
        <ele>259.8190612793</ele>
        <time>2021-05-22T10:08:00Z</time>
      </trkpt>
      <trkpt lat="46.95486" lon="4.74696">
        <ele>261.81942749023</ele>
        <time>2021-05-22T10:08:03Z</time>
      </trkpt>
      <trkpt lat="46.95499" lon="4.74707">
        <ele>261.81997680664</ele>
        <time>2021-05-22T10:08:08Z</time>
      </trkpt>
      <trkpt lat="46.95515" lon="4.74711">
        <ele>261.8205871582</ele>
        <time>2021-05-22T10:08:13Z</time>
      </trkpt>
      <trkpt lat="46.9553" lon="4.74717">
        <ele>262.82119750977</ele>
        <time>2021-05-22T10:08:18Z</time>
      </trkpt>
      <trkpt lat="46.95541" lon="4.74723">
        <ele>263.82162475586</ele>
        <time>2021-05-22T10:08:22Z</time>
      </trkpt>
      <trkpt lat="46.95549" lon="4.74727">
        <ele>261.82196044922</ele>
        <time>2021-05-22T10:08:27Z</time>
      </trkpt>
      <trkpt lat="46.95557" lon="4.74732">
        <ele>263.822265625</ele>
        <time>2021-05-22T10:16:41Z</time>
      </trkpt>
      <trkpt lat="46.95562" lon="4.74743">
        <ele>262.82247924805</ele>
        <time>2021-05-22T10:16:46Z</time>
      </trkpt>
      <trkpt lat="46.95567" lon="4.74749">
        <ele>261.82269287109</ele>
        <time>2021-05-22T10:16:50Z</time>
      </trkpt>
      <trkpt lat="46.95576" lon="4.7476">
        <ele>264.82305908203</ele>
        <time>2021-05-22T10:16:54Z</time>
      </trkpt>
      <trkpt lat="46.95588" lon="4.74776">
        <ele>264.8235168457</ele>
        <time>2021-05-22T10:16:58Z</time>
      </trkpt>
      <trkpt lat="46.95596" lon="4.74788">
        <ele>264.82385253906</ele>
        <time>2021-05-22T10:17:01Z</time>
      </trkpt>
      <trkpt lat="46.95612" lon="4.74812">
        <ele>263.8244934082</ele>
        <time>2021-05-22T10:17:06Z</time>
      </trkpt>
      <trkpt lat="46.95631" lon="4.74839">
        <ele>264.82522583008</ele>
        <time>2021-05-22T10:17:11Z</time>
      </trkpt>
      <trkpt lat="46.95649" lon="4.74864">
        <ele>263.82595825195</ele>
        <time>2021-05-22T10:17:16Z</time>
      </trkpt>
      <trkpt lat="46.95665" lon="4.74888">
        <ele>261.82659912109</ele>
        <time>2021-05-22T10:17:20Z</time>
      </trkpt>
      <trkpt lat="46.95689" lon="4.74922">
        <ele>259.82754516602</ele>
        <time>2021-05-22T10:17:25Z</time>
      </trkpt>
      <trkpt lat="46.95712" lon="4.74951">
        <ele>258.82846069336</ele>
        <time>2021-05-22T10:17:29Z</time>
      </trkpt>
      <trkpt lat="46.95736" lon="4.74974">
        <ele>258.82946777344</ele>
        <time>2021-05-22T10:17:33Z</time>
      </trkpt>
      <trkpt lat="46.9576" lon="4.74999">
        <ele>257.83041381836</ele>
        <time>2021-05-22T10:17:37Z</time>
      </trkpt>
      <trkpt lat="46.9578" lon="4.75033">
        <ele>256.83120727539</ele>
        <time>2021-05-22T10:17:41Z</time>
      </trkpt>
      <trkpt lat="46.95808" lon="4.75071">
        <ele>256.83233642578</ele>
        <time>2021-05-22T10:17:46Z</time>
      </trkpt>
      <trkpt lat="46.95832" lon="4.75092">
        <ele>257.83331298828</ele>
        <time>2021-05-22T10:17:50Z</time>
      </trkpt>
      <trkpt lat="46.95856" lon="4.75112">
        <ele>257.8342590332</ele>
        <time>2021-05-22T10:17:54Z</time>
      </trkpt>
      <trkpt lat="46.95879" lon="4.7513">
        <ele>257.83517456055</ele>
        <time>2021-05-22T10:17:58Z</time>
      </trkpt>
      <trkpt lat="46.95901" lon="4.75145">
        <ele>257.83605957031</ele>
        <time>2021-05-22T10:18:02Z</time>
      </trkpt>
      <trkpt lat="46.95927" lon="4.75163">
        <ele>258.83706665039</ele>
        <time>2021-05-22T10:18:07Z</time>
      </trkpt>
      <trkpt lat="46.95947" lon="4.75177">
        <ele>258.837890625</ele>
        <time>2021-05-22T10:18:11Z</time>
      </trkpt>
      <trkpt lat="46.95972" lon="4.75197">
        <ele>259.83889770508</ele>
        <time>2021-05-22T10:18:16Z</time>
      </trkpt>
      <trkpt lat="46.95992" lon="4.75213">
        <ele>259.83969116211</ele>
        <time>2021-05-22T10:18:20Z</time>
      </trkpt>
      <trkpt lat="46.96016" lon="4.75235">
        <ele>259.84066772461</ele>
        <time>2021-05-22T10:18:25Z</time>
      </trkpt>
      <trkpt lat="46.96036" lon="4.75252">
        <ele>259.84143066406</ele>
        <time>2021-05-22T10:18:29Z</time>
      </trkpt>
      <trkpt lat="46.9606" lon="4.75274">
        <ele>260.84240722656</ele>
        <time>2021-05-22T10:18:34Z</time>
      </trkpt>
      <trkpt lat="46.96079" lon="4.7529">
        <ele>260.84317016602</ele>
        <time>2021-05-22T10:18:38Z</time>
      </trkpt>
      <trkpt lat="46.96103" lon="4.75312">
        <ele>260.84411621094</ele>
        <time>2021-05-22T10:18:43Z</time>
      </trkpt>
      <trkpt lat="46.96128" lon="4.75333">
        <ele>259.84512329102</ele>
        <time>2021-05-22T10:18:48Z</time>
      </trkpt>
      <trkpt lat="46.96149" lon="4.75353">
        <ele>259.8459777832</ele>
        <time>2021-05-22T10:18:52Z</time>
      </trkpt>
      <trkpt lat="46.96177" lon="4.75379">
        <ele>259.84707641602</ele>
        <time>2021-05-22T10:18:57Z</time>
      </trkpt>
      <trkpt lat="46.962" lon="4.75398">
        <ele>258.84802246094</ele>
        <time>2021-05-22T10:19:01Z</time>
      </trkpt>
      <trkpt lat="46.96231" lon="4.75421">
        <ele>258.84924316406</ele>
        <time>2021-05-22T10:19:06Z</time>
      </trkpt>
      <trkpt lat="46.96253" lon="4.75441">
        <ele>257.85012817383</ele>
        <time>2021-05-22T10:19:10Z</time>
      </trkpt>
      <trkpt lat="46.96271" lon="4.75466">
        <ele>257.85083007812</ele>
        <time>2021-05-22T10:19:14Z</time>
      </trkpt>
      <trkpt lat="46.9629" lon="4.75499">
        <ele>256.85159301758</ele>
        <time>2021-05-22T10:19:19Z</time>
      </trkpt>
      <trkpt lat="46.96309" lon="4.75523">
        <ele>256.85235595703</ele>
        <time>2021-05-22T10:19:23Z</time>
      </trkpt>
      <trkpt lat="46.96329" lon="4.75545">
        <ele>255.85314941406</ele>
        <time>2021-05-22T10:19:27Z</time>
      </trkpt>
      <trkpt lat="46.9635" lon="4.75572">
        <ele>253.85401916504</ele>
        <time>2021-05-22T10:19:31Z</time>
      </trkpt>
      <trkpt lat="46.96373" lon="4.75603">
        <ele>252.85491943359</ele>
        <time>2021-05-22T10:19:35Z</time>
      </trkpt>
      <trkpt lat="46.96403" lon="4.75651">
        <ele>250.85612487793</ele>
        <time>2021-05-22T10:19:40Z</time>
      </trkpt>
      <trkpt lat="46.9642" lon="4.75679">
        <ele>249.85678100586</ele>
        <time>2021-05-22T10:19:43Z</time>
      </trkpt>
      <trkpt lat="46.96454" lon="4.75721">
        <ele>249.85815429688</ele>
        <time>2021-05-22T10:19:48Z</time>
      </trkpt>
      <trkpt lat="46.96477" lon="4.7577">
        <ele>248.85906982422</ele>
        <time>2021-05-22T10:19:53Z</time>
      </trkpt>
      <trkpt lat="46.96493" lon="4.75813">
        <ele>248.85972595215</ele>
        <time>2021-05-22T10:19:57Z</time>
      </trkpt>
      <trkpt lat="46.96514" lon="4.75852">
        <ele>246.86054992676</ele>
        <time>2021-05-22T10:20:01Z</time>
      </trkpt>
      <trkpt lat="46.96533" lon="4.7589">
        <ele>245.86131286621</ele>
        <time>2021-05-22T10:20:05Z</time>
      </trkpt>
      <trkpt lat="46.96553" lon="4.75929">
        <ele>245.86212158203</ele>
        <time>2021-05-22T10:20:09Z</time>
      </trkpt>
      <trkpt lat="46.96576" lon="4.75978">
        <ele>243.86305236816</ele>
        <time>2021-05-22T10:20:14Z</time>
      </trkpt>
      <trkpt lat="46.96593" lon="4.7602">
        <ele>240.86372375488</ele>
        <time>2021-05-22T10:20:18Z</time>
      </trkpt>
      <trkpt lat="46.96616" lon="4.76054">
        <ele>240.86462402344</ele>
        <time>2021-05-22T10:20:22Z</time>
      </trkpt>
      <trkpt lat="46.96645" lon="4.76072">
        <ele>239.86581420898</ele>
        <time>2021-05-22T10:20:26Z</time>
      </trkpt>
      <trkpt lat="46.96682" lon="4.7607">
        <ele>240.86727905273</ele>
        <time>2021-05-22T10:20:31Z</time>
      </trkpt>
      <trkpt lat="46.96703" lon="4.76074">
        <ele>240.86813354492</ele>
        <time>2021-05-22T10:20:34Z</time>
      </trkpt>
      <trkpt lat="46.96737" lon="4.76077">
        <ele>240.86947631836</ele>
        <time>2021-05-22T10:20:39Z</time>
      </trkpt>
      <trkpt lat="46.96768" lon="4.76078">
        <ele>241.87072753906</ele>
        <time>2021-05-22T10:20:44Z</time>
      </trkpt>
      <trkpt lat="46.9679" lon="4.76079">
        <ele>239.87161254883</ele>
        <time>2021-05-22T10:20:48Z</time>
      </trkpt>
      <trkpt lat="46.96814" lon="4.76074">
        <ele>239.87257385254</ele>
        <time>2021-05-22T10:20:52Z</time>
      </trkpt>
      <trkpt lat="46.96843" lon="4.76076">
        <ele>242.87371826172</ele>
        <time>2021-05-22T10:20:57Z</time>
      </trkpt>
      <trkpt lat="46.96866" lon="4.76089">
        <ele>239.87463378906</ele>
        <time>2021-05-22T10:21:01Z</time>
      </trkpt>
      <trkpt lat="46.96899" lon="4.76126">
        <ele>239.87594604492</ele>
        <time>2021-05-22T10:21:06Z</time>
      </trkpt>
      <trkpt lat="46.9692" lon="4.76154">
        <ele>236.87678527832</ele>
        <time>2021-05-22T10:21:10Z</time>
      </trkpt>
      <trkpt lat="46.96943" lon="4.76191">
        <ele>236.87770080566</ele>
        <time>2021-05-22T10:21:15Z</time>
      </trkpt>
      <trkpt lat="46.96966" lon="4.76219">
        <ele>235.87864685059</ele>
        <time>2021-05-22T10:21:19Z</time>
      </trkpt>
      <trkpt lat="46.96985" lon="4.76246">
        <ele>235.87940979004</ele>
        <time>2021-05-22T10:21:23Z</time>
      </trkpt>
      <trkpt lat="46.97007" lon="4.76272">
        <ele>234.88029479981</ele>
        <time>2021-05-22T10:21:27Z</time>
      </trkpt>
      <trkpt lat="46.97034" lon="4.76301">
        <ele>234.88137817383</ele>
        <time>2021-05-22T10:21:32Z</time>
      </trkpt>
      <trkpt lat="46.97041" lon="4.76337">
        <ele>234.88165283203</ele>
        <time>2021-05-22T10:21:36Z</time>
      </trkpt>
      <trkpt lat="46.97053" lon="4.7635">
        <ele>234.88212585449</ele>
        <time>2021-05-22T10:21:39Z</time>
      </trkpt>
      <trkpt lat="46.97081" lon="4.76363">
        <ele>234.88322448731</ele>
        <time>2021-05-22T10:21:44Z</time>
      </trkpt>
      <trkpt lat="46.97103" lon="4.7637">
        <ele>235.88410949707</ele>
        <time>2021-05-22T10:21:48Z</time>
      </trkpt>
      <trkpt lat="46.9713" lon="4.76371">
        <ele>236.88520812988</ele>
        <time>2021-05-22T10:21:53Z</time>
      </trkpt>
      <trkpt lat="46.97158" lon="4.76373">
        <ele>235.88630676269</ele>
        <time>2021-05-22T10:21:58Z</time>
      </trkpt>
      <trkpt lat="46.9718" lon="4.76382">
        <ele>237.88719177246</ele>
        <time>2021-05-22T10:22:02Z</time>
      </trkpt>
      <trkpt lat="46.97198" lon="4.76391">
        <ele>237.88792419434</ele>
        <time>2021-05-22T10:22:06Z</time>
      </trkpt>
      <trkpt lat="46.97222" lon="4.76404">
        <ele>235.88888549805</ele>
        <time>2021-05-22T10:22:11Z</time>
      </trkpt>
      <trkpt lat="46.97244" lon="4.7642">
        <ele>236.88975524902</ele>
        <time>2021-05-22T10:22:16Z</time>
      </trkpt>
      <trkpt lat="46.97264" lon="4.76434">
        <ele>235.89054870606</ele>
        <time>2021-05-22T10:22:20Z</time>
      </trkpt>
      <trkpt lat="46.97283" lon="4.76451">
        <ele>231.89131164551</ele>
        <time>2021-05-22T10:22:25Z</time>
      </trkpt>
      <trkpt lat="46.97305" lon="4.76457">
        <ele>234.89218139648</ele>
        <time>2021-05-22T10:22:29Z</time>
      </trkpt>
      <trkpt lat="46.97329" lon="4.76466">
        <ele>236.89317321777</ele>
        <time>2021-05-22T10:22:34Z</time>
      </trkpt>
      <trkpt lat="46.97351" lon="4.76474">
        <ele>234.89402770996</ele>
        <time>2021-05-22T10:22:39Z</time>
      </trkpt>
      <trkpt lat="46.97375" lon="4.76482">
        <ele>238.89500427246</ele>
        <time>2021-05-22T10:22:44Z</time>
      </trkpt>
      <trkpt lat="46.97392" lon="4.76489">
        <ele>237.89569091797</ele>
        <time>2021-05-22T10:22:48Z</time>
      </trkpt>
      <trkpt lat="46.97409" lon="4.7649">
        <ele>240.89637756348</ele>
        <time>2021-05-22T10:22:52Z</time>
      </trkpt>
      <trkpt lat="46.97419" lon="4.765">
        <ele>242.8967590332</ele>
        <time>2021-05-22T10:22:56Z</time>
      </trkpt>
      <trkpt lat="46.97419" lon="4.76524">
        <ele>240.89677429199</ele>
        <time>2021-05-22T10:23:01Z</time>
      </trkpt>
      <trkpt lat="46.97418" lon="4.76553">
        <ele>238.89672851562</ele>
        <time>2021-05-22T10:23:06Z</time>
      </trkpt>
      <trkpt lat="46.97417" lon="4.76577">
        <ele>239.89668273926</ele>
        <time>2021-05-22T10:23:10Z</time>
      </trkpt>
      <trkpt lat="46.97414" lon="4.76607">
        <ele>239.89657592773</ele>
        <time>2021-05-22T10:23:15Z</time>
      </trkpt>
      <trkpt lat="46.97411" lon="4.7663">
        <ele>239.89643859863</ele>
        <time>2021-05-22T10:23:19Z</time>
      </trkpt>
      <trkpt lat="46.97406" lon="4.76653">
        <ele>238.89622497559</ele>
        <time>2021-05-22T10:23:23Z</time>
      </trkpt>
      <trkpt lat="46.97393" lon="4.76679">
        <ele>237.89573669434</ele>
        <time>2021-05-22T10:23:28Z</time>
      </trkpt>
      <trkpt lat="46.97383" lon="4.76702">
        <ele>237.89532470703</ele>
        <time>2021-05-22T10:23:33Z</time>
      </trkpt>
      <trkpt lat="46.97389" lon="4.76718">
        <ele>237.89555358887</ele>
        <time>2021-05-22T10:23:38Z</time>
      </trkpt>
      <trkpt lat="46.97403" lon="4.76723">
        <ele>237.89610290527</ele>
        <time>2021-05-22T10:23:42Z</time>
      </trkpt>
      <trkpt lat="46.97422" lon="4.76732">
        <ele>236.89688110352</ele>
        <time>2021-05-22T10:23:47Z</time>
      </trkpt>
      <trkpt lat="46.97436" lon="4.76741">
        <ele>239.89744567871</ele>
        <time>2021-05-22T10:23:51Z</time>
      </trkpt>
      <trkpt lat="46.97451" lon="4.7675">
        <ele>240.89805603027</ele>
        <time>2021-05-22T10:23:55Z</time>
      </trkpt>
      <trkpt lat="46.97467" lon="4.76761">
        <ele>236.89868164062</ele>
        <time>2021-05-22T10:23:59Z</time>
      </trkpt>
      <trkpt lat="46.97483" lon="4.76777">
        <ele>236.89933776856</ele>
        <time>2021-05-22T10:24:04Z</time>
      </trkpt>
      <trkpt lat="46.97474" lon="4.76798">
        <ele>235.89894104004</ele>
        <time>2021-05-22T10:24:09Z</time>
      </trkpt>
      <trkpt lat="46.97455" lon="4.76803">
        <ele>236.89820861816</ele>
        <time>2021-05-22T10:24:13Z</time>
      </trkpt>
      <trkpt lat="46.97435" lon="4.76813">
        <ele>234.89739990234</ele>
        <time>2021-05-22T10:24:18Z</time>
      </trkpt>
      <trkpt lat="46.97423" lon="4.76828">
        <ele>237.89692687988</ele>
        <time>2021-05-22T10:24:22Z</time>
      </trkpt>
      <trkpt lat="46.97419" lon="4.7685">
        <ele>237.89677429199</ele>
        <time>2021-05-22T10:24:26Z</time>
      </trkpt>
      <trkpt lat="46.97433" lon="4.76864">
        <ele>236.89730834961</ele>
        <time>2021-05-22T10:24:30Z</time>
      </trkpt>
      <trkpt lat="46.97452" lon="4.76875">
        <ele>237.89807128906</ele>
        <time>2021-05-22T10:24:34Z</time>
      </trkpt>
      <trkpt lat="46.97474" lon="4.76891">
        <ele>237.89894104004</ele>
        <time>2021-05-22T10:24:39Z</time>
      </trkpt>
      <trkpt lat="46.97488" lon="4.76904">
        <ele>236.89953613281</ele>
        <time>2021-05-22T10:24:43Z</time>
      </trkpt>
      <trkpt lat="46.97507" lon="4.76914">
        <ele>239.90028381348</ele>
        <time>2021-05-22T10:24:48Z</time>
      </trkpt>
      <trkpt lat="46.97528" lon="4.76918">
        <ele>238.90112304688</ele>
        <time>2021-05-22T10:24:53Z</time>
      </trkpt>
      <trkpt lat="46.97544" lon="4.76913">
        <ele>238.90174865723</ele>
        <time>2021-05-22T10:24:57Z</time>
      </trkpt>
      <trkpt lat="46.97562" lon="4.76923">
        <ele>237.90246582031</ele>
        <time>2021-05-22T10:25:02Z</time>
      </trkpt>
      <trkpt lat="46.97576" lon="4.76935">
        <ele>238.9030456543</ele>
        <time>2021-05-22T10:25:06Z</time>
      </trkpt>
      <trkpt lat="46.9759" lon="4.76947">
        <ele>239.9035949707</ele>
        <time>2021-05-22T10:25:10Z</time>
      </trkpt>
      <trkpt lat="46.97604" lon="4.76959">
        <ele>240.90414428711</ele>
        <time>2021-05-22T10:25:14Z</time>
      </trkpt>
      <trkpt lat="46.97617" lon="4.76969">
        <ele>240.90466308594</ele>
        <time>2021-05-22T10:25:18Z</time>
      </trkpt>
      <trkpt lat="46.97633" lon="4.76982">
        <ele>243.90531921387</ele>
        <time>2021-05-22T10:25:23Z</time>
      </trkpt>
      <trkpt lat="46.9765" lon="4.76985">
        <ele>245.90602111816</ele>
        <time>2021-05-22T10:25:28Z</time>
      </trkpt>
      <trkpt lat="46.97664" lon="4.76989">
        <ele>246.90655517578</ele>
        <time>2021-05-22T10:25:32Z</time>
      </trkpt>
      <trkpt lat="46.97677" lon="4.76994">
        <ele>246.9070892334</ele>
        <time>2021-05-22T10:25:36Z</time>
      </trkpt>
      <trkpt lat="46.97691" lon="4.77">
        <ele>246.90763854981</ele>
        <time>2021-05-22T10:25:41Z</time>
      </trkpt>
      <trkpt lat="46.97698" lon="4.77007">
        <ele>247.9079284668</ele>
        <time>2021-05-22T10:25:45Z</time>
      </trkpt>
      <trkpt lat="46.97708" lon="4.77005">
        <ele>248.90832519531</ele>
        <time>2021-05-22T10:25:50Z</time>
      </trkpt>
      <trkpt lat="46.97715" lon="4.76996">
        <ele>250.90861511231</ele>
        <time>2021-05-22T10:25:54Z</time>
      </trkpt>
      <trkpt lat="46.97724" lon="4.76987">
        <ele>248.90895080566</ele>
        <time>2021-05-22T10:25:58Z</time>
      </trkpt>
      <trkpt lat="46.97733" lon="4.76973">
        <ele>250.9093170166</ele>
        <time>2021-05-22T10:26:03Z</time>
      </trkpt>
      <trkpt lat="46.9774" lon="4.76963">
        <ele>250.90959167481</ele>
        <time>2021-05-22T10:26:07Z</time>
      </trkpt>
      <trkpt lat="46.9775" lon="4.76966">
        <ele>251.90998840332</ele>
        <time>2021-05-22T10:26:12Z</time>
      </trkpt>
      <trkpt lat="46.97762" lon="4.76973">
        <ele>253.91049194336</ele>
        <time>2021-05-22T10:26:17Z</time>
      </trkpt>
      <trkpt lat="46.97771" lon="4.76972">
        <ele>253.91084289551</ele>
        <time>2021-05-22T10:26:22Z</time>
      </trkpt>
      <trkpt lat="46.97778" lon="4.76966">
        <ele>255.91111755371</ele>
        <time>2021-05-22T10:26:27Z</time>
      </trkpt>
      <trkpt lat="46.97785" lon="4.76966">
        <ele>259.9114074707</ele>
        <time>2021-05-22T10:26:31Z</time>
      </trkpt>
      <trkpt lat="46.97793" lon="4.7697">
        <ele>261.91171264648</ele>
        <time>2021-05-22T10:26:35Z</time>
      </trkpt>
      <trkpt lat="46.97801" lon="4.76968">
        <ele>260.91204833984</ele>
        <time>2021-05-22T10:26:39Z</time>
      </trkpt>
      <trkpt lat="46.9781" lon="4.76966">
        <ele>258.91241455078</ele>
        <time>2021-05-22T10:26:44Z</time>
      </trkpt>
      <trkpt lat="46.97819" lon="4.76964">
        <ele>255.91276550293</ele>
        <time>2021-05-22T10:27:01Z</time>
      </trkpt>
      <trkpt lat="46.97826" lon="4.76954">
        <ele>254.91304016113</ele>
        <time>2021-05-22T10:27:05Z</time>
      </trkpt>
      <trkpt lat="46.97834" lon="4.76944">
        <ele>254.9133605957</ele>
        <time>2021-05-22T10:27:09Z</time>
      </trkpt>
      <trkpt lat="46.97845" lon="4.76943">
        <ele>254.91380310059</ele>
        <time>2021-05-22T10:27:13Z</time>
      </trkpt>
      <trkpt lat="46.97856" lon="4.76941">
        <ele>253.91424560547</ele>
        <time>2021-05-22T10:27:17Z</time>
      </trkpt>
      <trkpt lat="46.9787" lon="4.76936">
        <ele>254.91481018066</ele>
        <time>2021-05-22T10:27:21Z</time>
      </trkpt>
      <trkpt lat="46.97887" lon="4.76931">
        <ele>256.91546630859</ele>
        <time>2021-05-22T10:27:26Z</time>
      </trkpt>
      <trkpt lat="46.97897" lon="4.76928">
        <ele>255.91589355469</ele>
        <time>2021-05-22T10:27:30Z</time>
      </trkpt>
      <trkpt lat="46.97911" lon="4.76925">
        <ele>253.91642761231</ele>
        <time>2021-05-22T10:27:34Z</time>
      </trkpt>
      <trkpt lat="46.97924" lon="4.76921">
        <ele>251.91696166992</ele>
        <time>2021-05-22T10:27:38Z</time>
      </trkpt>
      <trkpt lat="46.97937" lon="4.76912">
        <ele>250.91749572754</ele>
        <time>2021-05-22T10:27:43Z</time>
      </trkpt>
      <trkpt lat="46.97941" lon="4.76901">
        <ele>250.91763305664</ele>
        <time>2021-05-22T10:27:47Z</time>
      </trkpt>
      <trkpt lat="46.97955" lon="4.76895">
        <ele>251.91818237305</ele>
        <time>2021-05-22T10:27:52Z</time>
      </trkpt>
      <trkpt lat="46.97966" lon="4.7689">
        <ele>252.91862487793</ele>
        <time>2021-05-22T10:27:56Z</time>
      </trkpt>
      <trkpt lat="46.97976" lon="4.76881">
        <ele>252.91903686523</ele>
        <time>2021-05-22T10:28:00Z</time>
      </trkpt>
      <trkpt lat="46.97974" lon="4.76862">
        <ele>253.91896057129</ele>
        <time>2021-05-22T10:28:04Z</time>
      </trkpt>
      <trkpt lat="46.9796" lon="4.76854">
        <ele>254.91841125488</ele>
        <time>2021-05-22T10:28:08Z</time>
      </trkpt>
      <trkpt lat="46.97948" lon="4.76848">
        <ele>253.91793823242</ele>
        <time>2021-05-22T10:28:12Z</time>
      </trkpt>
      <trkpt lat="46.97937" lon="4.76841">
        <ele>253.91749572754</ele>
        <time>2021-05-22T10:28:17Z</time>
      </trkpt>
      <trkpt lat="46.9794" lon="4.76812">
        <ele>248.91758728027</ele>
        <time>2021-05-22T10:28:22Z</time>
      </trkpt>
      <trkpt lat="46.9794" lon="4.76772">
        <ele>248.91757202148</ele>
        <time>2021-05-22T10:28:27Z</time>
      </trkpt>
      <trkpt lat="46.97934" lon="4.7674">
        <ele>250.91735839844</ele>
        <time>2021-05-22T10:28:32Z</time>
      </trkpt>
      <trkpt lat="46.97926" lon="4.76717">
        <ele>250.91705322266</ele>
        <time>2021-05-22T10:28:36Z</time>
      </trkpt>
      <trkpt lat="46.97918" lon="4.76699">
        <ele>250.91673278809</ele>
        <time>2021-05-22T10:28:40Z</time>
      </trkpt>
      <trkpt lat="46.97907" lon="4.76684">
        <ele>249.91627502441</ele>
        <time>2021-05-22T10:28:45Z</time>
      </trkpt>
      <trkpt lat="46.97893" lon="4.76668">
        <ele>244.91571044922</ele>
        <time>2021-05-22T10:28:50Z</time>
      </trkpt>
      <trkpt lat="46.97882" lon="4.76653">
        <ele>241.91529846191</ele>
        <time>2021-05-22T10:28:55Z</time>
      </trkpt>
      <trkpt lat="46.97882" lon="4.76637">
        <ele>242.91528320312</ele>
        <time>2021-05-22T10:28:59Z</time>
      </trkpt>
      <trkpt lat="46.97884" lon="4.76617">
        <ele>242.91537475586</ele>
        <time>2021-05-22T10:29:04Z</time>
      </trkpt>
      <trkpt lat="46.97887" lon="4.76599">
        <ele>240.91548156738</ele>
        <time>2021-05-22T10:29:09Z</time>
      </trkpt>
      <trkpt lat="46.97887" lon="4.76579">
        <ele>243.91549682617</ele>
        <time>2021-05-22T10:29:13Z</time>
      </trkpt>
      <trkpt lat="46.97886" lon="4.76556">
        <ele>242.91545104981</ele>
        <time>2021-05-22T10:29:18Z</time>
      </trkpt>
      <trkpt lat="46.97884" lon="4.76536">
        <ele>242.91537475586</ele>
        <time>2021-05-22T10:29:22Z</time>
      </trkpt>
      <trkpt lat="46.97883" lon="4.76517">
        <ele>243.9153137207</ele>
        <time>2021-05-22T10:29:26Z</time>
      </trkpt>
      <trkpt lat="46.9788" lon="4.76484">
        <ele>242.91520690918</ele>
        <time>2021-05-22T10:29:31Z</time>
      </trkpt>
      <trkpt lat="46.97878" lon="4.76457">
        <ele>241.91510009766</ele>
        <time>2021-05-22T10:29:35Z</time>
      </trkpt>
      <trkpt lat="46.97877" lon="4.76434">
        <ele>240.91506958008</ele>
        <time>2021-05-22T10:29:39Z</time>
      </trkpt>
      <trkpt lat="46.97887" lon="4.76426">
        <ele>241.91548156738</ele>
        <time>2021-05-22T10:29:43Z</time>
      </trkpt>
      <trkpt lat="46.97902" lon="4.76427">
        <ele>241.91607666016</ele>
        <time>2021-05-22T10:29:48Z</time>
      </trkpt>
      <trkpt lat="46.97917" lon="4.76425">
        <ele>242.91667175293</ele>
        <time>2021-05-22T10:29:52Z</time>
      </trkpt>
      <trkpt lat="46.97932" lon="4.76423">
        <ele>240.91729736328</ele>
        <time>2021-05-22T10:29:56Z</time>
      </trkpt>
      <trkpt lat="46.97954" lon="4.76421">
        <ele>241.91815185547</ele>
        <time>2021-05-22T10:30:01Z</time>
      </trkpt>
      <trkpt lat="46.97976" lon="4.76417">
        <ele>242.91905212402</ele>
        <time>2021-05-22T10:30:06Z</time>
      </trkpt>
      <trkpt lat="46.97995" lon="4.76414">
        <ele>242.91979980469</ele>
        <time>2021-05-22T10:30:10Z</time>
      </trkpt>
      <trkpt lat="46.98015" lon="4.76409">
        <ele>241.92059326172</ele>
        <time>2021-05-22T10:30:14Z</time>
      </trkpt>
      <trkpt lat="46.98037" lon="4.76403">
        <ele>244.92149353027</ele>
        <time>2021-05-22T10:30:19Z</time>
      </trkpt>
      <trkpt lat="46.98061" lon="4.76403">
        <ele>245.92242431641</ele>
        <time>2021-05-22T10:30:23Z</time>
      </trkpt>
      <trkpt lat="46.98078" lon="4.76398">
        <ele>244.92309570312</ele>
        <time>2021-05-22T10:30:28Z</time>
      </trkpt>
      <trkpt lat="46.98103" lon="4.76396">
        <ele>245.9241027832</ele>
        <time>2021-05-22T10:30:33Z</time>
      </trkpt>
      <trkpt lat="46.9812" lon="4.76398">
        <ele>245.92481994629</ele>
        <time>2021-05-22T10:30:37Z</time>
      </trkpt>
      <trkpt lat="46.98143" lon="4.76399">
        <ele>245.92570495606</ele>
        <time>2021-05-22T10:30:42Z</time>
      </trkpt>
      <trkpt lat="46.98159" lon="4.76392">
        <ele>245.92634582519</ele>
        <time>2021-05-22T10:30:46Z</time>
      </trkpt>
      <trkpt lat="46.98175" lon="4.76382">
        <ele>244.92701721191</ele>
        <time>2021-05-22T10:30:51Z</time>
      </trkpt>
      <trkpt lat="46.98188" lon="4.76387">
        <ele>244.92750549316</ele>
        <time>2021-05-22T10:30:55Z</time>
      </trkpt>
      <trkpt lat="46.98204" lon="4.76389">
        <ele>242.92819213867</ele>
        <time>2021-05-22T10:31:00Z</time>
      </trkpt>
      <trkpt lat="46.98219" lon="4.7639">
        <ele>239.92875671387</ele>
        <time>2021-05-22T10:31:04Z</time>
      </trkpt>
      <trkpt lat="46.98238" lon="4.76388">
        <ele>239.92950439453</ele>
        <time>2021-05-22T10:31:09Z</time>
      </trkpt>
      <trkpt lat="46.98253" lon="4.76391">
        <ele>243.93011474609</ele>
        <time>2021-05-22T10:31:13Z</time>
      </trkpt>
      <trkpt lat="46.98266" lon="4.76389">
        <ele>240.93064880371</ele>
        <time>2021-05-22T10:31:17Z</time>
      </trkpt>
      <trkpt lat="46.98284" lon="4.76383">
        <ele>239.93135070801</ele>
        <time>2021-05-22T10:31:22Z</time>
      </trkpt>
      <trkpt lat="46.98297" lon="4.76372">
        <ele>238.93188476562</ele>
        <time>2021-05-22T10:31:26Z</time>
      </trkpt>
      <trkpt lat="46.98314" lon="4.76358">
        <ele>239.93255615234</ele>
        <time>2021-05-22T10:31:31Z</time>
      </trkpt>
      <trkpt lat="46.98331" lon="4.76343">
        <ele>238.93325805664</ele>
        <time>2021-05-22T10:31:36Z</time>
      </trkpt>
      <trkpt lat="46.98345" lon="4.7633">
        <ele>238.93380737305</ele>
        <time>2021-05-22T10:31:40Z</time>
      </trkpt>
      <trkpt lat="46.98367" lon="4.76321">
        <ele>239.93467712402</ele>
        <time>2021-05-22T10:31:45Z</time>
      </trkpt>
      <trkpt lat="46.98384" lon="4.76313">
        <ele>242.93534851074</ele>
        <time>2021-05-22T10:31:49Z</time>
      </trkpt>
      <trkpt lat="46.98396" lon="4.76297">
        <ele>243.93583679199</ele>
        <time>2021-05-22T10:31:53Z</time>
      </trkpt>
      <trkpt lat="46.98409" lon="4.76283">
        <ele>243.93635559082</ele>
        <time>2021-05-22T10:31:57Z</time>
      </trkpt>
      <trkpt lat="46.98425" lon="4.76269">
        <ele>246.93698120117</ele>
        <time>2021-05-22T10:32:02Z</time>
      </trkpt>
      <trkpt lat="46.98437" lon="4.76259">
        <ele>247.93748474121</ele>
        <time>2021-05-22T10:32:06Z</time>
      </trkpt>
      <trkpt lat="46.98454" lon="4.76244">
        <ele>251.93817138672</ele>
        <time>2021-05-22T10:32:11Z</time>
      </trkpt>
      <trkpt lat="46.98474" lon="4.76229">
        <ele>251.93894958496</ele>
        <time>2021-05-22T10:32:16Z</time>
      </trkpt>
      <trkpt lat="46.98489" lon="4.76216">
        <ele>250.93955993652</ele>
        <time>2021-05-22T10:32:20Z</time>
      </trkpt>
      <trkpt lat="46.98504" lon="4.76201">
        <ele>252.94017028809</ele>
        <time>2021-05-22T10:32:24Z</time>
      </trkpt>
      <trkpt lat="46.98516" lon="4.7618">
        <ele>252.94065856934</ele>
        <time>2021-05-22T10:32:28Z</time>
      </trkpt>
      <trkpt lat="46.98521" lon="4.76155">
        <ele>251.94082641602</ele>
        <time>2021-05-22T10:32:32Z</time>
      </trkpt>
      <trkpt lat="46.98521" lon="4.76123">
        <ele>252.94085693359</ele>
        <time>2021-05-22T10:32:37Z</time>
      </trkpt>
      <trkpt lat="46.98523" lon="4.76092">
        <ele>252.94091796875</ele>
        <time>2021-05-22T10:32:42Z</time>
      </trkpt>
      <trkpt lat="46.98525" lon="4.76068">
        <ele>253.94099426269</ele>
        <time>2021-05-22T10:32:46Z</time>
      </trkpt>
      <trkpt lat="46.98529" lon="4.76039">
        <ele>253.94117736816</ele>
        <time>2021-05-22T10:32:51Z</time>
      </trkpt>
      <trkpt lat="46.98539" lon="4.76014">
        <ele>254.94157409668</ele>
        <time>2021-05-22T10:32:56Z</time>
      </trkpt>
      <trkpt lat="46.98548" lon="4.75993">
        <ele>255.94190979004</ele>
        <time>2021-05-22T10:33:00Z</time>
      </trkpt>
      <trkpt lat="46.98558" lon="4.75968">
        <ele>254.94232177734</ele>
        <time>2021-05-22T10:33:05Z</time>
      </trkpt>
      <trkpt lat="46.98566" lon="4.75947">
        <ele>253.9426574707</ele>
        <time>2021-05-22T10:33:09Z</time>
      </trkpt>
      <trkpt lat="46.98574" lon="4.75929">
        <ele>252.94297790527</ele>
        <time>2021-05-22T10:33:13Z</time>
      </trkpt>
      <trkpt lat="46.98583" lon="4.7591">
        <ele>251.94332885742</ele>
        <time>2021-05-22T10:33:17Z</time>
      </trkpt>
      <trkpt lat="46.98589" lon="4.75889">
        <ele>250.94355773926</ele>
        <time>2021-05-22T10:33:21Z</time>
      </trkpt>
      <trkpt lat="46.98595" lon="4.75868">
        <ele>248.94380187988</ele>
        <time>2021-05-22T10:33:25Z</time>
      </trkpt>
      <trkpt lat="46.98597" lon="4.75841">
        <ele>248.94387817383</ele>
        <time>2021-05-22T10:33:29Z</time>
      </trkpt>
      <trkpt lat="46.98597" lon="4.75803">
        <ele>248.94386291504</ele>
        <time>2021-05-22T10:33:34Z</time>
      </trkpt>
      <trkpt lat="46.986" lon="4.75778">
        <ele>247.94400024414</ele>
        <time>2021-05-22T10:33:38Z</time>
      </trkpt>
      <trkpt lat="46.98603" lon="4.75747">
        <ele>250.94410705566</ele>
        <time>2021-05-22T10:33:43Z</time>
      </trkpt>
      <trkpt lat="46.98599" lon="4.75722">
        <ele>251.94396972656</ele>
        <time>2021-05-22T10:33:47Z</time>
      </trkpt>
      <trkpt lat="46.98597" lon="4.757">
        <ele>252.94389343262</ele>
        <time>2021-05-22T10:33:51Z</time>
      </trkpt>
      <trkpt lat="46.98595" lon="4.75678">
        <ele>255.94381713867</ele>
        <time>2021-05-22T10:33:56Z</time>
      </trkpt>
      <trkpt lat="46.98593" lon="4.7566">
        <ele>254.94372558594</ele>
        <time>2021-05-22T10:34:00Z</time>
      </trkpt>
      <trkpt lat="46.9859" lon="4.75643">
        <ele>253.94358825684</ele>
        <time>2021-05-22T10:34:05Z</time>
      </trkpt>
      <trkpt lat="46.98587" lon="4.75626">
        <ele>253.94346618652</ele>
        <time>2021-05-22T10:34:10Z</time>
      </trkpt>
      <trkpt lat="46.98585" lon="4.75613">
        <ele>253.94338989258</ele>
        <time>2021-05-22T10:34:14Z</time>
      </trkpt>
      <trkpt lat="46.98583" lon="4.75599">
        <ele>254.94331359863</ele>
        <time>2021-05-22T10:34:18Z</time>
      </trkpt>
      <trkpt lat="46.98579" lon="4.7558">
        <ele>253.94316101074</ele>
        <time>2021-05-22T10:34:23Z</time>
      </trkpt>
      <trkpt lat="46.98576" lon="4.75564">
        <ele>253.94303894043</ele>
        <time>2021-05-22T10:34:27Z</time>
      </trkpt>
      <trkpt lat="46.98572" lon="4.75549">
        <ele>254.94287109375</ele>
        <time>2021-05-22T10:34:31Z</time>
      </trkpt>
      <trkpt lat="46.98568" lon="4.75535">
        <ele>255.94273376465</ele>
        <time>2021-05-22T10:34:35Z</time>
      </trkpt>
      <trkpt lat="46.98566" lon="4.7552">
        <ele>255.9426574707</ele>
        <time>2021-05-22T10:34:39Z</time>
      </trkpt>
      <trkpt lat="46.98565" lon="4.75506">
        <ele>254.94261169434</ele>
        <time>2021-05-22T10:34:43Z</time>
      </trkpt>
      <trkpt lat="46.98563" lon="4.75485">
        <ele>255.94253540039</ele>
        <time>2021-05-22T10:34:48Z</time>
      </trkpt>
      <trkpt lat="46.9856" lon="4.75462">
        <ele>256.9423828125</ele>
        <time>2021-05-22T10:34:53Z</time>
      </trkpt>
      <trkpt lat="46.98557" lon="4.75444">
        <ele>257.94226074219</ele>
        <time>2021-05-22T10:34:57Z</time>
      </trkpt>
      <trkpt lat="46.98556" lon="4.75421">
        <ele>259.94223022461</ele>
        <time>2021-05-22T10:35:02Z</time>
      </trkpt>
      <trkpt lat="46.98553" lon="4.75401">
        <ele>257.94213867188</ele>
        <time>2021-05-22T10:35:06Z</time>
      </trkpt>
      <trkpt lat="46.98551" lon="4.75379">
        <ele>258.94204711914</ele>
        <time>2021-05-22T10:35:10Z</time>
      </trkpt>
      <trkpt lat="46.98547" lon="4.75349">
        <ele>257.94186401367</ele>
        <time>2021-05-22T10:35:15Z</time>
      </trkpt>
      <trkpt lat="46.9854" lon="4.75314">
        <ele>257.94161987305</ele>
        <time>2021-05-22T10:35:20Z</time>
      </trkpt>
      <trkpt lat="46.98536" lon="4.75288">
        <ele>256.94143676758</ele>
        <time>2021-05-22T10:35:24Z</time>
      </trkpt>
      <trkpt lat="46.98533" lon="4.75266">
        <ele>258.94131469727</ele>
        <time>2021-05-22T10:35:28Z</time>
      </trkpt>
      <trkpt lat="46.98531" lon="4.75243">
        <ele>259.94122314453</ele>
        <time>2021-05-22T10:35:33Z</time>
      </trkpt>
      <trkpt lat="46.98526" lon="4.75219">
        <ele>259.94107055664</ele>
        <time>2021-05-22T10:35:37Z</time>
      </trkpt>
      <trkpt lat="46.98521" lon="4.75189">
        <ele>260.94085693359</ele>
        <time>2021-05-22T10:35:42Z</time>
      </trkpt>
      <trkpt lat="46.98517" lon="4.75166">
        <ele>260.9407043457</ele>
        <time>2021-05-22T10:35:46Z</time>
      </trkpt>
      <trkpt lat="46.98512" lon="4.75144">
        <ele>259.94049072266</ele>
        <time>2021-05-22T10:35:50Z</time>
      </trkpt>
      <trkpt lat="46.98505" lon="4.75118">
        <ele>260.94018554688</ele>
        <time>2021-05-22T10:35:55Z</time>
      </trkpt>
      <trkpt lat="46.985" lon="4.75097">
        <ele>260.94000244141</ele>
        <time>2021-05-22T10:35:59Z</time>
      </trkpt>
      <trkpt lat="46.98497" lon="4.75076">
        <ele>260.93991088867</ele>
        <time>2021-05-22T10:36:03Z</time>
      </trkpt>
      <trkpt lat="46.98497" lon="4.75051">
        <ele>261.93991088867</ele>
        <time>2021-05-22T10:36:08Z</time>
      </trkpt>
      <trkpt lat="46.98496" lon="4.75026">
        <ele>261.93984985352</ele>
        <time>2021-05-22T10:36:13Z</time>
      </trkpt>
      <trkpt lat="46.98494" lon="4.75004">
        <ele>260.9397277832</ele>
        <time>2021-05-22T10:36:17Z</time>
      </trkpt>
      <trkpt lat="46.98492" lon="4.74984">
        <ele>260.93966674805</ele>
        <time>2021-05-22T10:36:21Z</time>
      </trkpt>
      <trkpt lat="46.98492" lon="4.74955">
        <ele>258.93966674805</ele>
        <time>2021-05-22T10:36:26Z</time>
      </trkpt>
      <trkpt lat="46.98491" lon="4.74927">
        <ele>259.93963623047</ele>
        <time>2021-05-22T10:36:30Z</time>
      </trkpt>
      <trkpt lat="46.98493" lon="4.749">
        <ele>260.9397277832</ele>
        <time>2021-05-22T10:36:34Z</time>
      </trkpt>
      <trkpt lat="46.98492" lon="4.74875">
        <ele>258.93969726562</ele>
        <time>2021-05-22T10:36:38Z</time>
      </trkpt>
      <trkpt lat="46.98492" lon="4.7485">
        <ele>258.93969726562</ele>
        <time>2021-05-22T10:36:42Z</time>
      </trkpt>
      <trkpt lat="46.98494" lon="4.74818">
        <ele>259.9397277832</ele>
        <time>2021-05-22T10:36:47Z</time>
      </trkpt>
      <trkpt lat="46.98495" lon="4.74793">
        <ele>260.93978881836</ele>
        <time>2021-05-22T10:36:51Z</time>
      </trkpt>
      <trkpt lat="46.98494" lon="4.74765">
        <ele>261.93978881836</ele>
        <time>2021-05-22T10:36:56Z</time>
      </trkpt>
      <trkpt lat="46.98493" lon="4.74738">
        <ele>261.9397277832</ele>
        <time>2021-05-22T10:37:01Z</time>
      </trkpt>
      <trkpt lat="46.98494" lon="4.7471">
        <ele>260.93975830078</ele>
        <time>2021-05-22T10:37:05Z</time>
      </trkpt>
      <trkpt lat="46.98499" lon="4.7468">
        <ele>261.93994140625</ele>
        <time>2021-05-22T10:37:10Z</time>
      </trkpt>
      <trkpt lat="46.985" lon="4.74651">
        <ele>261.94000244141</ele>
        <time>2021-05-22T10:37:15Z</time>
      </trkpt>
      <trkpt lat="46.98494" lon="4.7463">
        <ele>261.93975830078</ele>
        <time>2021-05-22T10:37:19Z</time>
      </trkpt>
      <trkpt lat="46.98487" lon="4.7461">
        <ele>259.93948364258</ele>
        <time>2021-05-22T10:37:24Z</time>
      </trkpt>
      <trkpt lat="46.98484" lon="4.74594">
        <ele>257.93939208984</ele>
        <time>2021-05-22T10:37:28Z</time>
      </trkpt>
      <trkpt lat="46.9848" lon="4.74573">
        <ele>256.93920898438</ele>
        <time>2021-05-22T10:37:33Z</time>
      </trkpt>
      <trkpt lat="46.98478" lon="4.74558">
        <ele>256.93911743164</ele>
        <time>2021-05-22T10:37:37Z</time>
      </trkpt>
      <trkpt lat="46.98479" lon="4.74571">
        <ele>256.9391784668</ele>
        <time>2021-05-22T10:37:43Z</time>
      </trkpt>
      <trkpt lat="46.98483" lon="4.74583">
        <ele>255.93933105469</ele>
        <time>2021-05-22T10:37:47Z</time>
      </trkpt>
      <trkpt lat="46.98487" lon="4.74604">
        <ele>255.93946838379</ele>
        <time>2021-05-22T10:37:52Z</time>
      </trkpt>
      <trkpt lat="46.9848" lon="4.74614">
        <ele>256.93920898438</ele>
        <time>2021-05-22T10:37:56Z</time>
      </trkpt>
      <trkpt lat="46.9847" lon="4.74608">
        <ele>256.93878173828</ele>
        <time>2021-05-22T10:38:01Z</time>
      </trkpt>
      <trkpt lat="46.98462" lon="4.74604">
        <ele>257.9384765625</ele>
        <time>2021-05-22T10:38:05Z</time>
      </trkpt>
      <trkpt lat="46.98451" lon="4.74599">
        <ele>257.93801879883</ele>
        <time>2021-05-22T10:38:10Z</time>
      </trkpt>
      <trkpt lat="46.98439" lon="4.74593">
        <ele>257.93756103516</ele>
        <time>2021-05-22T10:38:15Z</time>
      </trkpt>
      <trkpt lat="46.98429" lon="4.74584">
        <ele>260.93713378906</ele>
        <time>2021-05-22T10:38:20Z</time>
      </trkpt>
      <trkpt lat="46.98423" lon="4.74573">
        <ele>261.93692016602</ele>
        <time>2021-05-22T10:38:24Z</time>
      </trkpt>
      <trkpt lat="46.98418" lon="4.74562">
        <ele>263.93670654297</ele>
        <time>2021-05-22T10:38:28Z</time>
      </trkpt>
      <trkpt lat="46.98411" lon="4.74549">
        <ele>264.93643188477</ele>
        <time>2021-05-22T10:38:33Z</time>
      </trkpt>
      <trkpt lat="46.98405" lon="4.7454">
        <ele>266.93618774414</ele>
        <time>2021-05-22T10:38:37Z</time>
      </trkpt>
      <trkpt lat="46.98399" lon="4.74531">
        <ele>267.93594360352</ele>
        <time>2021-05-22T10:38:41Z</time>
      </trkpt>
      <trkpt lat="46.98392" lon="4.74522">
        <ele>268.93569946289</ele>
        <time>2021-05-22T10:38:45Z</time>
      </trkpt>
      <trkpt lat="46.98386" lon="4.74513">
        <ele>270.93545532227</ele>
        <time>2021-05-22T10:38:49Z</time>
      </trkpt>
      <trkpt lat="46.9838" lon="4.74499">
        <ele>272.93518066406</ele>
        <time>2021-05-22T10:38:54Z</time>
      </trkpt>
      <trkpt lat="46.98372" lon="4.74487">
        <ele>274.93487548828</ele>
        <time>2021-05-22T10:38:59Z</time>
      </trkpt>
      <trkpt lat="46.98365" lon="4.74478">
        <ele>274.93460083008</ele>
        <time>2021-05-22T10:39:03Z</time>
      </trkpt>
      <trkpt lat="46.98359" lon="4.7447">
        <ele>275.93438720703</ele>
        <time>2021-05-22T10:39:08Z</time>
      </trkpt>
      <trkpt lat="46.98353" lon="4.74464">
        <ele>276.93411254883</ele>
        <time>2021-05-22T10:39:13Z</time>
      </trkpt>
      <trkpt lat="46.98346" lon="4.74456">
        <ele>277.93383789062</ele>
        <time>2021-05-22T10:39:18Z</time>
      </trkpt>
      <trkpt lat="46.98341" lon="4.74448">
        <ele>279.93362426758</ele>
        <time>2021-05-22T10:39:22Z</time>
      </trkpt>
      <trkpt lat="46.98336" lon="4.74438">
        <ele>278.93341064453</ele>
        <time>2021-05-22T10:39:26Z</time>
      </trkpt>
      <trkpt lat="46.98328" lon="4.74432">
        <ele>279.93310546875</ele>
        <time>2021-05-22T10:39:31Z</time>
      </trkpt>
      <trkpt lat="46.9832" lon="4.74425">
        <ele>281.93280029297</ele>
        <time>2021-05-22T10:39:40Z</time>
      </trkpt>
      <trkpt lat="46.98319" lon="4.74424">
        <ele>282.93273925781</ele>
        <time>2021-05-22T10:39:41Z</time>
      </trkpt>
      <trkpt lat="46.98306" lon="4.74354">
        <ele>278.93225097656</ele>
        <time>2021-05-22T10:39:52Z</time>
      </trkpt>
      <trkpt lat="46.98292" lon="4.74349">
        <ele>277.93170166016</ele>
        <time>2021-05-22T10:39:57Z</time>
      </trkpt>
      <trkpt lat="46.98284" lon="4.74337">
        <ele>276.93133544922</ele>
        <time>2021-05-22T10:40:02Z</time>
      </trkpt>
      <trkpt lat="46.98277" lon="4.74329">
        <ele>280.93106079102</ele>
        <time>2021-05-22T10:40:06Z</time>
      </trkpt>
      <trkpt lat="46.98266" lon="4.74323">
        <ele>281.93063354492</ele>
        <time>2021-05-22T10:40:11Z</time>
      </trkpt>
      <trkpt lat="46.98259" lon="4.74316">
        <ele>281.93035888672</ele>
        <time>2021-05-22T10:40:15Z</time>
      </trkpt>
      <trkpt lat="46.98254" lon="4.74303">
        <ele>287.93017578125</ele>
        <time>2021-05-22T10:40:19Z</time>
      </trkpt>
      <trkpt lat="46.98253" lon="4.74288">
        <ele>290.93011474609</ele>
        <time>2021-05-22T10:40:23Z</time>
      </trkpt>
      <trkpt lat="46.98249" lon="4.74275">
        <ele>292.9299621582</ele>
        <time>2021-05-22T10:40:27Z</time>
      </trkpt>
      <trkpt lat="46.98243" lon="4.74262">
        <ele>293.92974853516</ele>
        <time>2021-05-22T10:40:31Z</time>
      </trkpt>
      <trkpt lat="46.98231" lon="4.74251">
        <ele>295.92926025391</ele>
        <time>2021-05-22T10:40:36Z</time>
      </trkpt>
      <trkpt lat="46.98218" lon="4.74255">
        <ele>293.9287109375</ele>
        <time>2021-05-22T10:40:40Z</time>
      </trkpt>
      <trkpt lat="46.98212" lon="4.74248">
        <ele>295.92846679688</ele>
        <time>2021-05-22T10:40:43Z</time>
      </trkpt>
      <trkpt lat="46.98207" lon="4.74217">
        <ele>292.92828369141</ele>
        <time>2021-05-22T10:40:48Z</time>
      </trkpt>
      <trkpt lat="46.982" lon="4.74197">
        <ele>292.9280090332</ele>
        <time>2021-05-22T10:40:53Z</time>
      </trkpt>
      <trkpt lat="46.98193" lon="4.74187">
        <ele>294.927734375</ele>
        <time>2021-05-22T10:40:57Z</time>
      </trkpt>
      <trkpt lat="46.98187" lon="4.74177">
        <ele>295.9274597168</ele>
        <time>2021-05-22T10:41:01Z</time>
      </trkpt>
      <trkpt lat="46.9818" lon="4.74166">
        <ele>297.92721557617</ele>
        <time>2021-05-22T10:41:05Z</time>
      </trkpt>
      <trkpt lat="46.98174" lon="4.7415">
        <ele>303.92694091797</ele>
        <time>2021-05-22T10:41:10Z</time>
      </trkpt>
      <trkpt lat="46.98167" lon="4.74138">
        <ele>301.92666625977</ele>
        <time>2021-05-22T10:41:14Z</time>
      </trkpt>
      <trkpt lat="46.98157" lon="4.74128">
        <ele>299.92630004883</ele>
        <time>2021-05-22T10:41:19Z</time>
      </trkpt>
      <trkpt lat="46.98149" lon="4.74119">
        <ele>299.92596435547</ele>
        <time>2021-05-22T10:41:23Z</time>
      </trkpt>
      <trkpt lat="46.9814" lon="4.74101">
        <ele>303.92559814453</ele>
        <time>2021-05-22T10:41:28Z</time>
      </trkpt>
      <trkpt lat="46.98133" lon="4.74092">
        <ele>302.92532348633</ele>
        <time>2021-05-22T10:41:32Z</time>
      </trkpt>
      <trkpt lat="46.98124" lon="4.74073">
        <ele>305.92495727539</ele>
        <time>2021-05-22T10:41:37Z</time>
      </trkpt>
      <trkpt lat="46.98116" lon="4.74065">
        <ele>301.92462158203</ele>
        <time>2021-05-22T10:41:41Z</time>
      </trkpt>
      <trkpt lat="46.98106" lon="4.74054">
        <ele>303.92425537109</ele>
        <time>2021-05-22T10:41:46Z</time>
      </trkpt>
      <trkpt lat="46.981" lon="4.74043">
        <ele>305.92401123047</ele>
        <time>2021-05-22T10:41:50Z</time>
      </trkpt>
      <trkpt lat="46.9809" lon="4.74028">
        <ele>309.92361450195</ele>
        <time>2021-05-22T10:41:55Z</time>
      </trkpt>
      <trkpt lat="46.9808" lon="4.74012">
        <ele>312.92321777344</ele>
        <time>2021-05-22T10:42:00Z</time>
      </trkpt>
      <trkpt lat="46.98072" lon="4.74001">
        <ele>313.92288208008</ele>
        <time>2021-05-22T10:42:04Z</time>
      </trkpt>
      <trkpt lat="46.98063" lon="4.73989">
        <ele>315.92251586914</ele>
        <time>2021-05-22T10:42:08Z</time>
      </trkpt>
      <trkpt lat="46.98054" lon="4.73979">
        <ele>316.9221496582</ele>
        <time>2021-05-22T10:42:12Z</time>
      </trkpt>
      <trkpt lat="46.98044" lon="4.73974">
        <ele>317.92178344727</ele>
        <time>2021-05-22T10:42:16Z</time>
      </trkpt>
      <trkpt lat="46.98032" lon="4.73969">
        <ele>319.92129516602</ele>
        <time>2021-05-22T10:42:21Z</time>
      </trkpt>
      <trkpt lat="46.9802" lon="4.73963">
        <ele>318.92080688477</ele>
        <time>2021-05-22T10:42:26Z</time>
      </trkpt>
      <trkpt lat="46.98011" lon="4.73958">
        <ele>319.92044067383</ele>
        <time>2021-05-22T10:42:30Z</time>
      </trkpt>
      <trkpt lat="46.98001" lon="4.73953">
        <ele>320.92007446289</ele>
        <time>2021-05-22T10:42:34Z</time>
      </trkpt>
      <trkpt lat="46.9799" lon="4.73948">
        <ele>320.91958618164</ele>
        <time>2021-05-22T10:42:39Z</time>
      </trkpt>
      <trkpt lat="46.9798" lon="4.73946">
        <ele>321.9192199707</ele>
        <time>2021-05-22T10:42:43Z</time>
      </trkpt>
      <trkpt lat="46.97971" lon="4.73944">
        <ele>319.91885375977</ele>
        <time>2021-05-22T10:42:47Z</time>
      </trkpt>
      <trkpt lat="46.97962" lon="4.73941">
        <ele>320.91848754883</ele>
        <time>2021-05-22T10:42:51Z</time>
      </trkpt>
      <trkpt lat="46.97951" lon="4.73938">
        <ele>322.91802978516</ele>
        <time>2021-05-22T10:42:55Z</time>
      </trkpt>
      <trkpt lat="46.97937" lon="4.73935">
        <ele>322.91748046875</ele>
        <time>2021-05-22T10:43:00Z</time>
      </trkpt>
      <trkpt lat="46.97926" lon="4.73931">
        <ele>323.91705322266</ele>
        <time>2021-05-22T10:43:04Z</time>
      </trkpt>
      <trkpt lat="46.97912" lon="4.73925">
        <ele>326.91650390625</ele>
        <time>2021-05-22T10:43:09Z</time>
      </trkpt>
      <trkpt lat="46.97901" lon="4.73921">
        <ele>328.91604614258</ele>
        <time>2021-05-22T10:43:13Z</time>
      </trkpt>
      <trkpt lat="46.97889" lon="4.73916">
        <ele>327.91555786133</ele>
        <time>2021-05-22T10:43:17Z</time>
      </trkpt>
      <trkpt lat="46.97878" lon="4.73912">
        <ele>329.91510009766</ele>
        <time>2021-05-22T10:43:21Z</time>
      </trkpt>
      <trkpt lat="46.97866" lon="4.73907">
        <ele>329.91461181641</ele>
        <time>2021-05-22T10:43:26Z</time>
      </trkpt>
      <trkpt lat="46.97857" lon="4.73906">
        <ele>327.91427612305</ele>
        <time>2021-05-22T10:43:30Z</time>
      </trkpt>
      <trkpt lat="46.97846" lon="4.73904">
        <ele>329.91384887695</ele>
        <time>2021-05-22T10:43:35Z</time>
      </trkpt>
      <trkpt lat="46.97837" lon="4.73902">
        <ele>330.91348266602</ele>
        <time>2021-05-22T10:43:40Z</time>
      </trkpt>
      <trkpt lat="46.97829" lon="4.739">
        <ele>331.91314697266</ele>
        <time>2021-05-22T10:43:45Z</time>
      </trkpt>
      <trkpt lat="46.97826" lon="4.73888">
        <ele>332.91305541992</ele>
        <time>2021-05-22T10:45:49Z</time>
      </trkpt>
      <trkpt lat="46.97828" lon="4.73867">
        <ele>331.91314697266</ele>
        <time>2021-05-22T10:45:54Z</time>
      </trkpt>
      <trkpt lat="46.9783" lon="4.73847">
        <ele>327.91320800781</ele>
        <time>2021-05-22T10:45:58Z</time>
      </trkpt>
      <trkpt lat="46.97832" lon="4.73819">
        <ele>321.91329956055</ele>
        <time>2021-05-22T10:46:03Z</time>
      </trkpt>
      <trkpt lat="46.97843" lon="4.73805">
        <ele>316.91369628906</ele>
        <time>2021-05-22T10:46:08Z</time>
      </trkpt>
      <trkpt lat="46.97835" lon="4.73799">
        <ele>315.91339111328</ele>
        <time>2021-05-22T10:46:19Z</time>
      </trkpt>
      <trkpt lat="46.97824" lon="4.73796">
        <ele>315.91296386719</ele>
        <time>2021-05-22T10:46:24Z</time>
      </trkpt>
      <trkpt lat="46.97816" lon="4.73794">
        <ele>318.91262817383</ele>
        <time>2021-05-22T10:46:46Z</time>
      </trkpt>
      <trkpt lat="46.9781" lon="4.73787">
        <ele>318.9123840332</ele>
        <time>2021-05-22T11:14:33Z</time>
      </trkpt>
      <trkpt lat="46.97815" lon="4.73797">
        <ele>318.91259765625</ele>
        <time>2021-05-22T11:18:04Z</time>
      </trkpt>
      <trkpt lat="46.97813" lon="4.73787">
        <ele>318.91250610352</ele>
        <time>2021-05-22T11:23:38Z</time>
      </trkpt>
      <trkpt lat="46.9781" lon="4.73737">
        <ele>309.91241455078</ele>
        <time>2021-05-22T11:23:43Z</time>
      </trkpt>
      <trkpt lat="46.97809" lon="4.73687">
        <ele>303.91235351562</ele>
        <time>2021-05-22T11:23:47Z</time>
      </trkpt>
      <trkpt lat="46.97812" lon="4.7365">
        <ele>303.91247558594</ele>
        <time>2021-05-22T11:23:51Z</time>
      </trkpt>
      <trkpt lat="46.97824" lon="4.73635">
        <ele>302.91296386719</ele>
        <time>2021-05-22T11:23:56Z</time>
      </trkpt>
      <trkpt lat="46.97835" lon="4.73629">
        <ele>302.91342163086</ele>
        <time>2021-05-22T11:24:00Z</time>
      </trkpt>
      <trkpt lat="46.97844" lon="4.73628">
        <ele>302.91372680664</ele>
        <time>2021-05-22T11:24:04Z</time>
      </trkpt>
      <trkpt lat="46.97839" lon="4.73618">
        <ele>302.91354370117</ele>
        <time>2021-05-22T11:24:09Z</time>
      </trkpt>
      <trkpt lat="46.97832" lon="4.73615">
        <ele>302.91326904297</ele>
        <time>2021-05-22T11:24:13Z</time>
      </trkpt>
      <trkpt lat="46.97823" lon="4.73616">
        <ele>303.91293334961</ele>
        <time>2021-05-22T11:24:18Z</time>
      </trkpt>
      <trkpt lat="46.97815" lon="4.73618">
        <ele>311.91262817383</ele>
        <time>2021-05-22T11:24:24Z</time>
      </trkpt>
      <trkpt lat="46.97807" lon="4.73615">
        <ele>311.91226196289</ele>
        <time>2021-05-22T11:24:31Z</time>
      </trkpt>
      <trkpt lat="46.978" lon="4.7361">
        <ele>311.91198730469</ele>
        <time>2021-05-22T11:24:35Z</time>
      </trkpt>
      <trkpt lat="46.97793" lon="4.73616">
        <ele>310.91171264648</ele>
        <time>2021-05-22T11:24:41Z</time>
      </trkpt>
      <trkpt lat="46.97787" lon="4.73623">
        <ele>312.91146850586</ele>
        <time>2021-05-22T11:24:47Z</time>
      </trkpt>
      <trkpt lat="46.97779" lon="4.73629">
        <ele>312.91116333008</ele>
        <time>2021-05-22T11:24:52Z</time>
      </trkpt>
      <trkpt lat="46.97772" lon="4.73633">
        <ele>314.91088867188</ele>
        <time>2021-05-22T11:24:57Z</time>
      </trkpt>
      <trkpt lat="46.97764" lon="4.73636">
        <ele>316.91058349609</ele>
        <time>2021-05-22T11:25:18Z</time>
      </trkpt>
      <trkpt lat="46.97757" lon="4.73638">
        <ele>320.91024780273</ele>
        <time>2021-05-22T11:25:23Z</time>
      </trkpt>
      <trkpt lat="46.97748" lon="4.7364">
        <ele>318.90991210938</ele>
        <time>2021-05-22T11:25:29Z</time>
      </trkpt>
      <trkpt lat="46.97739" lon="4.73641">
        <ele>318.90954589844</ele>
        <time>2021-05-22T11:25:36Z</time>
      </trkpt>
      <trkpt lat="46.97731" lon="4.73645">
        <ele>319.90921020508</ele>
        <time>2021-05-22T11:25:42Z</time>
      </trkpt>
      <trkpt lat="46.97723" lon="4.73651">
        <ele>318.90893554688</ele>
        <time>2021-05-22T11:25:48Z</time>
      </trkpt>
      <trkpt lat="46.97715" lon="4.73654">
        <ele>321.90863037109</ele>
        <time>2021-05-22T11:25:53Z</time>
      </trkpt>
      <trkpt lat="46.97708" lon="4.73657">
        <ele>324.90829467773</ele>
        <time>2021-05-22T11:25:58Z</time>
      </trkpt>
      <trkpt lat="46.977" lon="4.73659">
        <ele>326.90798950195</ele>
        <time>2021-05-22T11:26:03Z</time>
      </trkpt>
      <trkpt lat="46.97688" lon="4.73663">
        <ele>324.9075012207</ele>
        <time>2021-05-22T11:26:08Z</time>
      </trkpt>
      <trkpt lat="46.97676" lon="4.73675">
        <ele>324.90704345703</ele>
        <time>2021-05-22T11:26:12Z</time>
      </trkpt>
      <trkpt lat="46.97651" lon="4.73692">
        <ele>327.90600585938</ele>
        <time>2021-05-22T11:26:17Z</time>
      </trkpt>
      <trkpt lat="46.97633" lon="4.73706">
        <ele>327.90530395508</ele>
        <time>2021-05-22T11:26:22Z</time>
      </trkpt>
      <trkpt lat="46.9762" lon="4.73714">
        <ele>327.90478515625</ele>
        <time>2021-05-22T11:26:26Z</time>
      </trkpt>
      <trkpt lat="46.97613" lon="4.73719">
        <ele>332.90451049805</ele>
        <time>2021-05-22T11:26:31Z</time>
      </trkpt>
      <trkpt lat="46.97605" lon="4.73721">
        <ele>333.90420532227</ele>
        <time>2021-05-22T11:26:37Z</time>
      </trkpt>
      <trkpt lat="46.976" lon="4.7372">
        <ele>331.90399169922</ele>
        <time>2021-05-22T11:26:41Z</time>
      </trkpt>
      <trkpt lat="46.97591" lon="4.73712">
        <ele>331.90362548828</ele>
        <time>2021-05-22T11:26:45Z</time>
      </trkpt>
      <trkpt lat="46.97585" lon="4.73703">
        <ele>333.90338134766</ele>
        <time>2021-05-22T11:26:51Z</time>
      </trkpt>
      <trkpt lat="46.97577" lon="4.73694">
        <ele>332.90307617188</ele>
        <time>2021-05-22T11:26:56Z</time>
      </trkpt>
      <trkpt lat="46.97569" lon="4.73691">
        <ele>331.90274047852</ele>
        <time>2021-05-22T11:27:01Z</time>
      </trkpt>
      <trkpt lat="46.97567" lon="4.73678">
        <ele>334.90270996094</ele>
        <time>2021-05-22T11:27:05Z</time>
      </trkpt>
      <trkpt lat="46.97571" lon="4.73663">
        <ele>335.90283203125</ele>
        <time>2021-05-22T11:27:10Z</time>
      </trkpt>
      <trkpt lat="46.9757" lon="4.73648">
        <ele>334.90280151367</ele>
        <time>2021-05-22T11:27:15Z</time>
      </trkpt>
      <trkpt lat="46.97569" lon="4.73628">
        <ele>333.90274047852</ele>
        <time>2021-05-22T11:27:20Z</time>
      </trkpt>
      <trkpt lat="46.9757" lon="4.73616">
        <ele>332.90280151367</ele>
        <time>2021-05-22T11:27:24Z</time>
      </trkpt>
      <trkpt lat="46.97571" lon="4.736">
        <ele>333.90283203125</ele>
        <time>2021-05-22T11:27:29Z</time>
      </trkpt>
      <trkpt lat="46.97571" lon="4.7359">
        <ele>333.90283203125</ele>
        <time>2021-05-22T11:27:33Z</time>
      </trkpt>
      <trkpt lat="46.97574" lon="4.73579">
        <ele>335.90298461914</ele>
        <time>2021-05-22T11:27:38Z</time>
      </trkpt>
      <trkpt lat="46.97578" lon="4.73569">
        <ele>335.90310668945</ele>
        <time>2021-05-22T11:27:43Z</time>
      </trkpt>
      <trkpt lat="46.97581" lon="4.73557">
        <ele>335.90322875977</ele>
        <time>2021-05-22T11:27:47Z</time>
      </trkpt>
      <trkpt lat="46.97588" lon="4.7355">
        <ele>343.90350341797</ele>
        <time>2021-05-22T11:30:06Z</time>
      </trkpt>
      <trkpt lat="46.97593" lon="4.7354">
        <ele>341.90368652344</ele>
        <time>2021-05-22T11:30:11Z</time>
      </trkpt>
      <trkpt lat="46.97601" lon="4.73525">
        <ele>338.9040222168</ele>
        <time>2021-05-22T11:30:16Z</time>
      </trkpt>
      <trkpt lat="46.97609" lon="4.73512">
        <ele>338.90435791016</ele>
        <time>2021-05-22T11:30:20Z</time>
      </trkpt>
      <trkpt lat="46.97615" lon="4.73499">
        <ele>338.90463256836</ele>
        <time>2021-05-22T11:30:24Z</time>
      </trkpt>
      <trkpt lat="46.97629" lon="4.73474">
        <ele>337.90515136719</ele>
        <time>2021-05-22T11:30:29Z</time>
      </trkpt>
      <trkpt lat="46.97638" lon="4.73448">
        <ele>332.90551757812</ele>
        <time>2021-05-22T11:30:34Z</time>
      </trkpt>
      <trkpt lat="46.97647" lon="4.73429">
        <ele>334.90588378906</ele>
        <time>2021-05-22T11:30:38Z</time>
      </trkpt>
      <trkpt lat="46.97652" lon="4.73411">
        <ele>336.90609741211</ele>
        <time>2021-05-22T11:30:42Z</time>
      </trkpt>
      <trkpt lat="46.97657" lon="4.73398">
        <ele>332.90628051758</ele>
        <time>2021-05-22T11:30:46Z</time>
      </trkpt>
      <trkpt lat="46.97666" lon="4.73396">
        <ele>333.90664672852</ele>
        <time>2021-05-22T11:30:51Z</time>
      </trkpt>
      <trkpt lat="46.97676" lon="4.73392">
        <ele>333.90704345703</ele>
        <time>2021-05-22T11:30:56Z</time>
      </trkpt>
      <trkpt lat="46.97686" lon="4.7339">
        <ele>333.90747070312</ele>
        <time>2021-05-22T11:31:00Z</time>
      </trkpt>
      <trkpt lat="46.97707" lon="4.73389">
        <ele>333.90826416016</ele>
        <time>2021-05-22T11:31:04Z</time>
      </trkpt>
      <trkpt lat="46.97723" lon="4.73404">
        <ele>331.90893554688</ele>
        <time>2021-05-22T11:31:08Z</time>
      </trkpt>
      <trkpt lat="46.97742" lon="4.73417">
        <ele>331.90966796875</ele>
        <time>2021-05-22T11:31:12Z</time>
      </trkpt>
      <trkpt lat="46.97748" lon="4.73426">
        <ele>326.90991210938</ele>
        <time>2021-05-22T11:31:18Z</time>
      </trkpt>
      <trkpt lat="46.97754" lon="4.73432">
        <ele>326.91015625</ele>
        <time>2021-05-22T11:31:35Z</time>
      </trkpt>
      <trkpt lat="46.97768" lon="4.73436">
        <ele>325.91070556641</ele>
        <time>2021-05-22T11:31:39Z</time>
      </trkpt>
      <trkpt lat="46.97784" lon="4.7344">
        <ele>322.91137695312</ele>
        <time>2021-05-22T11:31:44Z</time>
      </trkpt>
      <trkpt lat="46.978" lon="4.73446">
        <ele>319.91201782227</ele>
        <time>2021-05-22T11:31:49Z</time>
      </trkpt>
      <trkpt lat="46.97808" lon="4.73448">
        <ele>317.91232299805</ele>
        <time>2021-05-22T11:31:55Z</time>
      </trkpt>
      <trkpt lat="46.97816" lon="4.73447">
        <ele>309.91262817383</ele>
        <time>2021-05-22T11:32:00Z</time>
      </trkpt>
      <trkpt lat="46.97828" lon="4.73447">
        <ele>295.9130859375</ele>
        <time>2021-05-22T11:32:05Z</time>
      </trkpt>
      <trkpt lat="46.97839" lon="4.73449">
        <ele>290.91354370117</ele>
        <time>2021-05-22T11:32:09Z</time>
      </trkpt>
      <trkpt lat="46.97859" lon="4.73452">
        <ele>290.91436767578</ele>
        <time>2021-05-22T11:32:14Z</time>
      </trkpt>
      <trkpt lat="46.97872" lon="4.73448">
        <ele>295.91485595703</ele>
        <time>2021-05-22T11:32:18Z</time>
      </trkpt>
      <trkpt lat="46.97872" lon="4.73435">
        <ele>307.91488647461</ele>
        <time>2021-05-22T11:32:50Z</time>
      </trkpt>
      <trkpt lat="46.97863" lon="4.73427">
        <ele>307.91455078125</ele>
        <time>2021-05-22T11:32:54Z</time>
      </trkpt>
      <trkpt lat="46.97855" lon="4.73423">
        <ele>308.91421508789</ele>
        <time>2021-05-22T11:32:59Z</time>
      </trkpt>
      <trkpt lat="46.97847" lon="4.73417">
        <ele>309.91387939453</ele>
        <time>2021-05-22T11:33:04Z</time>
      </trkpt>
      <trkpt lat="46.97841" lon="4.73409">
        <ele>307.91363525391</ele>
        <time>2021-05-22T11:33:08Z</time>
      </trkpt>
      <trkpt lat="46.97836" lon="4.73401">
        <ele>306.91342163086</ele>
        <time>2021-05-22T11:33:12Z</time>
      </trkpt>
      <trkpt lat="46.97831" lon="4.73391">
        <ele>307.91323852539</ele>
        <time>2021-05-22T11:33:17Z</time>
      </trkpt>
      <trkpt lat="46.97826" lon="4.73382">
        <ele>303.91302490234</ele>
        <time>2021-05-22T11:33:22Z</time>
      </trkpt>
      <trkpt lat="46.97824" lon="4.73369">
        <ele>299.91296386719</ele>
        <time>2021-05-22T11:33:27Z</time>
      </trkpt>
      <trkpt lat="46.97821" lon="4.73357">
        <ele>298.9128112793</ele>
        <time>2021-05-22T11:33:32Z</time>
      </trkpt>
      <trkpt lat="46.97815" lon="4.73348">
        <ele>296.91256713867</ele>
        <time>2021-05-22T11:33:37Z</time>
      </trkpt>
      <trkpt lat="46.97807" lon="4.73334">
        <ele>301.91229248047</ele>
        <time>2021-05-22T11:33:42Z</time>
      </trkpt>
      <trkpt lat="46.97799" lon="4.73318">
        <ele>305.91198730469</ele>
        <time>2021-05-22T11:33:47Z</time>
      </trkpt>
      <trkpt lat="46.97792" lon="4.73306">
        <ele>310.91168212891</ele>
        <time>2021-05-22T11:33:51Z</time>
      </trkpt>
      <trkpt lat="46.97784" lon="4.73295">
        <ele>314.91134643555</ele>
        <time>2021-05-22T11:33:55Z</time>
      </trkpt>
      <trkpt lat="46.97778" lon="4.73287">
        <ele>313.91110229492</ele>
        <time>2021-05-22T11:33:59Z</time>
      </trkpt>
      <trkpt lat="46.97774" lon="4.73274">
        <ele>309.91098022461</ele>
        <time>2021-05-22T11:34:04Z</time>
      </trkpt>
      <trkpt lat="46.9777" lon="4.73261">
        <ele>311.91082763672</ele>
        <time>2021-05-22T11:34:09Z</time>
      </trkpt>
      <trkpt lat="46.97768" lon="4.73248">
        <ele>313.91070556641</ele>
        <time>2021-05-22T11:34:14Z</time>
      </trkpt>
      <trkpt lat="46.97766" lon="4.73237">
        <ele>315.91061401367</ele>
        <time>2021-05-22T11:34:19Z</time>
      </trkpt>
      <trkpt lat="46.97765" lon="4.73224">
        <ele>318.91058349609</ele>
        <time>2021-05-22T11:34:23Z</time>
      </trkpt>
      <trkpt lat="46.97764" lon="4.73209">
        <ele>320.91055297852</ele>
        <time>2021-05-22T11:34:28Z</time>
      </trkpt>
      <trkpt lat="46.97762" lon="4.73197">
        <ele>323.91049194336</ele>
        <time>2021-05-22T11:34:32Z</time>
      </trkpt>
      <trkpt lat="46.9776" lon="4.73184">
        <ele>327.91040039062</ele>
        <time>2021-05-22T11:34:37Z</time>
      </trkpt>
      <trkpt lat="46.97758" lon="4.73172">
        <ele>327.91030883789</ele>
        <time>2021-05-22T11:34:42Z</time>
      </trkpt>
      <trkpt lat="46.97756" lon="4.7316">
        <ele>330.91024780273</ele>
        <time>2021-05-22T11:34:47Z</time>
      </trkpt>
      <trkpt lat="46.97754" lon="4.73147">
        <ele>330.91015625</ele>
        <time>2021-05-22T11:34:52Z</time>
      </trkpt>
      <trkpt lat="46.97753" lon="4.73135">
        <ele>331.91012573242</ele>
        <time>2021-05-22T11:34:57Z</time>
      </trkpt>
      <trkpt lat="46.9775" lon="4.73125">
        <ele>329.91000366211</ele>
        <time>2021-05-22T11:35:01Z</time>
      </trkpt>
      <trkpt lat="46.97746" lon="4.73115">
        <ele>329.90982055664</ele>
        <time>2021-05-22T11:35:05Z</time>
      </trkpt>
      <trkpt lat="46.9774" lon="4.73106">
        <ele>329.90960693359</ele>
        <time>2021-05-22T11:35:09Z</time>
      </trkpt>
      <trkpt lat="46.97736" lon="4.73093">
        <ele>331.90942382812</ele>
        <time>2021-05-22T11:35:14Z</time>
      </trkpt>
      <trkpt lat="46.97732" lon="4.73083">
        <ele>328.90930175781</ele>
        <time>2021-05-22T11:35:19Z</time>
      </trkpt>
      <trkpt lat="46.97728" lon="4.73072">
        <ele>326.90911865234</ele>
        <time>2021-05-22T11:35:24Z</time>
      </trkpt>
      <trkpt lat="46.97724" lon="4.73062">
        <ele>329.90896606445</ele>
        <time>2021-05-22T11:35:28Z</time>
      </trkpt>
      <trkpt lat="46.9772" lon="4.73052">
        <ele>330.90881347656</ele>
        <time>2021-05-22T11:35:32Z</time>
      </trkpt>
      <trkpt lat="46.97715" lon="4.73041">
        <ele>329.90863037109</ele>
        <time>2021-05-22T11:35:37Z</time>
      </trkpt>
      <trkpt lat="46.97709" lon="4.73034">
        <ele>331.90835571289</ele>
        <time>2021-05-22T11:35:42Z</time>
      </trkpt>
      <trkpt lat="46.97703" lon="4.73026">
        <ele>335.90811157227</ele>
        <time>2021-05-22T11:35:46Z</time>
      </trkpt>
      <trkpt lat="46.97696" lon="4.73014">
        <ele>337.90783691406</ele>
        <time>2021-05-22T11:35:51Z</time>
      </trkpt>
      <trkpt lat="46.97691" lon="4.73">
        <ele>340.90765380859</ele>
        <time>2021-05-22T11:35:56Z</time>
      </trkpt>
      <trkpt lat="46.97689" lon="4.72991">
        <ele>344.90753173828</ele>
        <time>2021-05-22T11:36:00Z</time>
      </trkpt>
      <trkpt lat="46.97684" lon="4.72975">
        <ele>348.90737915039</ele>
        <time>2021-05-22T11:36:05Z</time>
      </trkpt>
      <trkpt lat="46.97682" lon="4.72963">
        <ele>353.90728759766</ele>
        <time>2021-05-22T11:36:09Z</time>
      </trkpt>
      <trkpt lat="46.97677" lon="4.72952">
        <ele>354.90707397461</ele>
        <time>2021-05-22T11:36:13Z</time>
      </trkpt>
      <trkpt lat="46.97672" lon="4.72941">
        <ele>357.90686035156</ele>
        <time>2021-05-22T11:36:18Z</time>
      </trkpt>
      <trkpt lat="46.97667" lon="4.72932">
        <ele>358.90667724609</ele>
        <time>2021-05-22T11:36:22Z</time>
      </trkpt>
      <trkpt lat="46.97663" lon="4.72922">
        <ele>354.9065246582</ele>
        <time>2021-05-22T11:36:27Z</time>
      </trkpt>
      <trkpt lat="46.9766" lon="4.72911">
        <ele>351.90640258789</ele>
        <time>2021-05-22T11:36:32Z</time>
      </trkpt>
      <trkpt lat="46.97655" lon="4.72902">
        <ele>351.90621948242</ele>
        <time>2021-05-22T11:36:36Z</time>
      </trkpt>
      <trkpt lat="46.9765" lon="4.72895">
        <ele>352.90600585938</ele>
        <time>2021-05-22T11:36:40Z</time>
      </trkpt>
      <trkpt lat="46.97646" lon="4.72886">
        <ele>352.90582275391</ele>
        <time>2021-05-22T11:36:46Z</time>
      </trkpt>
      <trkpt lat="46.97642" lon="4.72875">
        <ele>349.90567016602</ele>
        <time>2021-05-22T11:36:51Z</time>
      </trkpt>
      <trkpt lat="46.97637" lon="4.72864">
        <ele>349.90548706055</ele>
        <time>2021-05-22T11:36:56Z</time>
      </trkpt>
      <trkpt lat="46.97632" lon="4.72854">
        <ele>346.9052734375</ele>
        <time>2021-05-22T11:37:00Z</time>
      </trkpt>
      <trkpt lat="46.97625" lon="4.72845">
        <ele>342.9049987793</ele>
        <time>2021-05-22T11:37:04Z</time>
      </trkpt>
      <trkpt lat="46.9762" lon="4.72837">
        <ele>342.90478515625</ele>
        <time>2021-05-22T11:37:09Z</time>
      </trkpt>
      <trkpt lat="46.97612" lon="4.72826">
        <ele>339.90447998047</ele>
        <time>2021-05-22T11:37:13Z</time>
      </trkpt>
      <trkpt lat="46.97607" lon="4.7281">
        <ele>340.904296875</ele>
        <time>2021-05-22T11:37:18Z</time>
      </trkpt>
      <trkpt lat="46.97605" lon="4.72797">
        <ele>338.90420532227</ele>
        <time>2021-05-22T11:37:22Z</time>
      </trkpt>
      <trkpt lat="46.97599" lon="4.72781">
        <ele>340.90396118164</ele>
        <time>2021-05-22T11:37:27Z</time>
      </trkpt>
      <trkpt lat="46.97587" lon="4.72772">
        <ele>339.90347290039</ele>
        <time>2021-05-22T11:37:32Z</time>
      </trkpt>
      <trkpt lat="46.97577" lon="4.72761">
        <ele>339.90307617188</ele>
        <time>2021-05-22T11:37:37Z</time>
      </trkpt>
      <trkpt lat="46.97571" lon="4.72747">
        <ele>341.90283203125</ele>
        <time>2021-05-22T11:37:42Z</time>
      </trkpt>
      <trkpt lat="46.97563" lon="4.72741">
        <ele>343.90252685547</ele>
        <time>2021-05-22T11:37:46Z</time>
      </trkpt>
      <trkpt lat="46.97557" lon="4.72732">
        <ele>345.90228271484</ele>
        <time>2021-05-22T11:37:50Z</time>
      </trkpt>
      <trkpt lat="46.97551" lon="4.72723">
        <ele>350.90203857422</ele>
        <time>2021-05-22T11:37:55Z</time>
      </trkpt>
      <trkpt lat="46.97544" lon="4.72717">
        <ele>353.90176391602</ele>
        <time>2021-05-22T11:37:59Z</time>
      </trkpt>
      <trkpt lat="46.97538" lon="4.72708">
        <ele>350.90151977539</ele>
        <time>2021-05-22T11:38:03Z</time>
      </trkpt>
      <trkpt lat="46.97534" lon="4.72697">
        <ele>350.9013671875</ele>
        <time>2021-05-22T11:38:07Z</time>
      </trkpt>
      <trkpt lat="46.97522" lon="4.72684">
        <ele>342.90084838867</ele>
        <time>2021-05-22T11:38:12Z</time>
      </trkpt>
      <trkpt lat="46.97514" lon="4.72674">
        <ele>344.90054321289</ele>
        <time>2021-05-22T11:38:16Z</time>
      </trkpt>
      <trkpt lat="46.97509" lon="4.72664">
        <ele>349.90032958984</ele>
        <time>2021-05-22T11:38:23Z</time>
      </trkpt>
      <trkpt lat="46.97508" lon="4.72651">
        <ele>363.90032958984</ele>
        <time>2021-05-22T11:38:35Z</time>
      </trkpt>
      <trkpt lat="46.97509" lon="4.72638">
        <ele>365.90032958984</ele>
        <time>2021-05-22T11:38:47Z</time>
      </trkpt>
      <trkpt lat="46.97514" lon="4.72629">
        <ele>370.90057373047</ele>
        <time>2021-05-22T11:38:59Z</time>
      </trkpt>
      <trkpt lat="46.9747" lon="4.72647">
        <ele>376.89880371094</ele>
        <time>2021-05-22T11:39:42Z</time>
      </trkpt>
      <trkpt lat="46.97484" lon="4.72643">
        <ele>374.89935302734</ele>
        <time>2021-05-22T11:39:46Z</time>
      </trkpt>
      <trkpt lat="46.97491" lon="4.72638">
        <ele>367.89965820312</ele>
        <time>2021-05-22T11:39:56Z</time>
      </trkpt>
      <trkpt lat="46.97277" lon="4.72259">
        <ele>413.89108276367</ele>
        <time>2021-05-22T11:42:52Z</time>
      </trkpt>
      <trkpt lat="46.97277" lon="4.72257">
        <ele>406.89105224609</ele>
        <time>2021-05-22T11:51:47Z</time>
      </trkpt>
      <trkpt lat="46.97282" lon="4.7225">
        <ele>416.89126586914</ele>
        <time>2021-05-22T11:52:15Z</time>
      </trkpt>
      <trkpt lat="46.97287" lon="4.72245">
        <ele>407.89147949219</ele>
        <time>2021-05-22T11:52:26Z</time>
      </trkpt>
      <trkpt lat="46.97294" lon="4.72226">
        <ele>407.89175415039</ele>
        <time>2021-05-22T11:52:30Z</time>
      </trkpt>
      <trkpt lat="46.973" lon="4.72208">
        <ele>408.89199829102</ele>
        <time>2021-05-22T11:52:35Z</time>
      </trkpt>
      <trkpt lat="46.97306" lon="4.72199">
        <ele>406.89227294922</ele>
        <time>2021-05-22T11:52:39Z</time>
      </trkpt>
      <trkpt lat="46.97309" lon="4.72188">
        <ele>411.89239501953</ele>
        <time>2021-05-22T11:52:44Z</time>
      </trkpt>
      <trkpt lat="46.97312" lon="4.72176">
        <ele>411.89248657227</ele>
        <time>2021-05-22T11:52:50Z</time>
      </trkpt>
      <trkpt lat="46.97309" lon="4.72165">
        <ele>411.89236450195</ele>
        <time>2021-05-22T11:52:56Z</time>
      </trkpt>
      <trkpt lat="46.97312" lon="4.72155">
        <ele>407.89245605469</ele>
        <time>2021-05-22T11:53:00Z</time>
      </trkpt>
      <trkpt lat="46.97316" lon="4.72145">
        <ele>409.89263916016</ele>
        <time>2021-05-22T11:53:04Z</time>
      </trkpt>
      <trkpt lat="46.97319" lon="4.72135">
        <ele>410.89276123047</ele>
        <time>2021-05-22T11:53:08Z</time>
      </trkpt>
      <trkpt lat="46.97324" lon="4.72126">
        <ele>410.89297485352</ele>
        <time>2021-05-22T11:53:13Z</time>
      </trkpt>
      <trkpt lat="46.97333" lon="4.72122">
        <ele>411.89331054688</ele>
        <time>2021-05-22T11:53:18Z</time>
      </trkpt>
      <trkpt lat="46.9734" lon="4.72118">
        <ele>413.89361572266</ele>
        <time>2021-05-22T11:53:23Z</time>
      </trkpt>
      <trkpt lat="46.97346" lon="4.72109">
        <ele>416.8938293457</ele>
        <time>2021-05-22T11:53:28Z</time>
      </trkpt>
      <trkpt lat="46.9735" lon="4.721">
        <ele>422.89401245117</ele>
        <time>2021-05-22T11:53:32Z</time>
      </trkpt>
      <trkpt lat="46.97356" lon="4.72094">
        <ele>423.89422607422</ele>
        <time>2021-05-22T11:53:36Z</time>
      </trkpt>
      <trkpt lat="46.97363" lon="4.72085">
        <ele>423.89450073242</ele>
        <time>2021-05-22T11:53:41Z</time>
      </trkpt>
      <trkpt lat="46.97367" lon="4.72076">
        <ele>425.89468383789</ele>
        <time>2021-05-22T11:53:45Z</time>
      </trkpt>
      <trkpt lat="46.97371" lon="4.72065">
        <ele>423.89483642578</ele>
        <time>2021-05-22T11:53:50Z</time>
      </trkpt>
      <trkpt lat="46.97377" lon="4.72055">
        <ele>424.89508056641</ele>
        <time>2021-05-22T11:53:55Z</time>
      </trkpt>
      <trkpt lat="46.97384" lon="4.72044">
        <ele>426.89535522461</ele>
        <time>2021-05-22T11:54:00Z</time>
      </trkpt>
      <trkpt lat="46.97388" lon="4.72033">
        <ele>428.89553833008</ele>
        <time>2021-05-22T11:54:04Z</time>
      </trkpt>
      <trkpt lat="46.97394" lon="4.72022">
        <ele>429.89575195312</ele>
        <time>2021-05-22T11:54:09Z</time>
      </trkpt>
      <trkpt lat="46.97399" lon="4.72012">
        <ele>431.89596557617</ele>
        <time>2021-05-22T11:54:13Z</time>
      </trkpt>
      <trkpt lat="46.97404" lon="4.72001">
        <ele>431.89617919922</ele>
        <time>2021-05-22T11:54:17Z</time>
      </trkpt>
      <trkpt lat="46.97409" lon="4.7199">
        <ele>430.89639282227</ele>
        <time>2021-05-22T11:54:21Z</time>
      </trkpt>
      <trkpt lat="46.97413" lon="4.71976">
        <ele>432.89651489258</ele>
        <time>2021-05-22T11:54:26Z</time>
      </trkpt>
      <trkpt lat="46.97417" lon="4.71964">
        <ele>431.89666748047</ele>
        <time>2021-05-22T11:54:30Z</time>
      </trkpt>
      <trkpt lat="46.97421" lon="4.71949">
        <ele>435.89685058594</ele>
        <time>2021-05-22T11:54:35Z</time>
      </trkpt>
      <trkpt lat="46.97425" lon="4.71937">
        <ele>434.89700317383</ele>
        <time>2021-05-22T11:54:39Z</time>
      </trkpt>
      <trkpt lat="46.97428" lon="4.71925">
        <ele>435.89712524414</ele>
        <time>2021-05-22T11:54:43Z</time>
      </trkpt>
      <trkpt lat="46.97435" lon="4.71913">
        <ele>434.89739990234</ele>
        <time>2021-05-22T11:54:48Z</time>
      </trkpt>
      <trkpt lat="46.97443" lon="4.71906">
        <ele>433.89770507812</ele>
        <time>2021-05-22T11:54:52Z</time>
      </trkpt>
      <trkpt lat="46.97452" lon="4.71898">
        <ele>429.89807128906</ele>
        <time>2021-05-22T11:54:57Z</time>
      </trkpt>
      <trkpt lat="46.97458" lon="4.71884">
        <ele>432.89831542969</ele>
        <time>2021-05-22T11:55:02Z</time>
      </trkpt>
      <trkpt lat="46.97459" lon="4.71873">
        <ele>434.89834594727</ele>
        <time>2021-05-22T11:55:06Z</time>
      </trkpt>
      <trkpt lat="46.97459" lon="4.71856">
        <ele>437.89837646484</ele>
        <time>2021-05-22T11:55:11Z</time>
      </trkpt>
      <trkpt lat="46.97461" lon="4.71842">
        <ele>435.89846801758</ele>
        <time>2021-05-22T11:55:16Z</time>
      </trkpt>
      <trkpt lat="46.97465" lon="4.71832">
        <ele>433.89862060547</ele>
        <time>2021-05-22T11:55:20Z</time>
      </trkpt>
      <trkpt lat="46.97469" lon="4.71822">
        <ele>433.89874267578</ele>
        <time>2021-05-22T11:55:24Z</time>
      </trkpt>
      <trkpt lat="46.97471" lon="4.71808">
        <ele>430.89883422852</ele>
        <time>2021-05-22T11:55:29Z</time>
      </trkpt>
      <trkpt lat="46.97473" lon="4.71795">
        <ele>429.89892578125</ele>
        <time>2021-05-22T11:55:34Z</time>
      </trkpt>
      <trkpt lat="46.97472" lon="4.71782">
        <ele>430.89889526367</ele>
        <time>2021-05-22T11:55:38Z</time>
      </trkpt>
      <trkpt lat="46.9747" lon="4.7177">
        <ele>431.89883422852</ele>
        <time>2021-05-22T11:55:43Z</time>
      </trkpt>
      <trkpt lat="46.97469" lon="4.71758">
        <ele>432.89877319336</ele>
        <time>2021-05-22T11:55:47Z</time>
      </trkpt>
      <trkpt lat="46.97471" lon="4.71744">
        <ele>433.89883422852</ele>
        <time>2021-05-22T11:55:52Z</time>
      </trkpt>
      <trkpt lat="46.97473" lon="4.71728">
        <ele>435.89892578125</ele>
        <time>2021-05-22T11:55:57Z</time>
      </trkpt>
      <trkpt lat="46.97476" lon="4.71712">
        <ele>434.89904785156</ele>
        <time>2021-05-22T11:56:02Z</time>
      </trkpt>
      <trkpt lat="46.97475" lon="4.71699">
        <ele>440.89898681641</ele>
        <time>2021-05-22T11:56:06Z</time>
      </trkpt>
      <trkpt lat="46.97478" lon="4.71687">
        <ele>437.89910888672</ele>
        <time>2021-05-22T11:56:12Z</time>
      </trkpt>
      <trkpt lat="46.97482" lon="4.71677">
        <ele>439.89926147461</ele>
        <time>2021-05-22T11:56:17Z</time>
      </trkpt>
      <trkpt lat="46.97488" lon="4.71665">
        <ele>439.89950561523</ele>
        <time>2021-05-22T11:56:21Z</time>
      </trkpt>
      <trkpt lat="46.97503" lon="4.71651">
        <ele>438.9001159668</ele>
        <time>2021-05-22T11:56:26Z</time>
      </trkpt>
      <trkpt lat="46.97522" lon="4.71639">
        <ele>442.90087890625</ele>
        <time>2021-05-22T11:56:31Z</time>
      </trkpt>
      <trkpt lat="46.97535" lon="4.71629">
        <ele>441.90142822266</ele>
        <time>2021-05-22T11:56:35Z</time>
      </trkpt>
      <trkpt lat="46.97552" lon="4.71619">
        <ele>441.9020690918</ele>
        <time>2021-05-22T11:56:40Z</time>
      </trkpt>
      <trkpt lat="46.97566" lon="4.71612">
        <ele>442.9026184082</ele>
        <time>2021-05-22T11:56:44Z</time>
      </trkpt>
      <trkpt lat="46.97583" lon="4.71606">
        <ele>442.9033203125</ele>
        <time>2021-05-22T11:56:49Z</time>
      </trkpt>
      <trkpt lat="46.97598" lon="4.71589">
        <ele>442.90390014648</ele>
        <time>2021-05-22T11:56:54Z</time>
      </trkpt>
      <trkpt lat="46.97607" lon="4.71571">
        <ele>441.90426635742</ele>
        <time>2021-05-22T11:56:58Z</time>
      </trkpt>
      <trkpt lat="46.97612" lon="4.71553">
        <ele>442.90451049805</ele>
        <time>2021-05-22T11:57:03Z</time>
      </trkpt>
      <trkpt lat="46.97618" lon="4.71542">
        <ele>447.90469360352</ele>
        <time>2021-05-22T11:58:18Z</time>
      </trkpt>
      <trkpt lat="46.97623" lon="4.71534">
        <ele>447.90493774414</ele>
        <time>2021-05-22T11:58:22Z</time>
      </trkpt>
      <trkpt lat="46.97638" lon="4.71533">
        <ele>443.90551757812</ele>
        <time>2021-05-22T11:58:26Z</time>
      </trkpt>
      <trkpt lat="46.97667" lon="4.71536">
        <ele>441.90667724609</ele>
        <time>2021-05-22T11:58:31Z</time>
      </trkpt>
      <trkpt lat="46.97692" lon="4.71542">
        <ele>439.90771484375</ele>
        <time>2021-05-22T11:58:36Z</time>
      </trkpt>
      <trkpt lat="46.97716" lon="4.71563">
        <ele>436.90863037109</ele>
        <time>2021-05-22T11:58:40Z</time>
      </trkpt>
      <trkpt lat="46.97737" lon="4.71583">
        <ele>433.90948486328</ele>
        <time>2021-05-22T11:58:44Z</time>
      </trkpt>
      <trkpt lat="46.9776" lon="4.71593">
        <ele>432.91040039062</ele>
        <time>2021-05-22T11:58:48Z</time>
      </trkpt>
      <trkpt lat="46.97782" lon="4.71598">
        <ele>431.91125488281</ele>
        <time>2021-05-22T11:58:52Z</time>
      </trkpt>
      <trkpt lat="46.97794" lon="4.716">
        <ele>431.91177368164</ele>
        <time>2021-05-22T11:58:55Z</time>
      </trkpt>
      <trkpt lat="46.97793" lon="4.71582">
        <ele>426.91171264648</ele>
        <time>2021-05-22T11:58:59Z</time>
      </trkpt>
      <trkpt lat="46.97784" lon="4.71544">
        <ele>419.91137695312</ele>
        <time>2021-05-22T11:59:04Z</time>
      </trkpt>
      <trkpt lat="46.97778" lon="4.71489">
        <ele>413.91110229492</ele>
        <time>2021-05-22T11:59:09Z</time>
      </trkpt>
      <trkpt lat="46.97775" lon="4.7142">
        <ele>407.91101074219</ele>
        <time>2021-05-22T11:59:14Z</time>
      </trkpt>
      <trkpt lat="46.97789" lon="4.71359">
        <ele>400.91156005859</ele>
        <time>2021-05-22T11:59:18Z</time>
      </trkpt>
      <trkpt lat="46.97813" lon="4.71295">
        <ele>393.91250610352</ele>
        <time>2021-05-22T11:59:23Z</time>
      </trkpt>
      <trkpt lat="46.97831" lon="4.71254">
        <ele>387.91323852539</ele>
        <time>2021-05-22T11:59:27Z</time>
      </trkpt>
      <trkpt lat="46.97832" lon="4.71208">
        <ele>385.91326904297</ele>
        <time>2021-05-22T11:59:31Z</time>
      </trkpt>
      <trkpt lat="46.97826" lon="4.71176">
        <ele>381.91302490234</ele>
        <time>2021-05-22T11:59:35Z</time>
      </trkpt>
      <trkpt lat="46.97836" lon="4.71171">
        <ele>379.91345214844</ele>
        <time>2021-05-22T11:59:39Z</time>
      </trkpt>
      <trkpt lat="46.97845" lon="4.71172">
        <ele>377.9137878418</ele>
        <time>2021-05-22T12:00:15Z</time>
      </trkpt>
      <trkpt lat="46.9785" lon="4.7118">
        <ele>382.91400146484</ele>
        <time>2021-05-22T12:00:49Z</time>
      </trkpt>
      <trkpt lat="46.97874" lon="4.71201">
        <ele>377.91494750977</ele>
        <time>2021-05-22T12:00:54Z</time>
      </trkpt>
      <trkpt lat="46.97901" lon="4.71224">
        <ele>368.91604614258</ele>
        <time>2021-05-22T12:00:58Z</time>
      </trkpt>
      <trkpt lat="46.97933" lon="4.71251">
        <ele>362.91732788086</ele>
        <time>2021-05-22T12:01:02Z</time>
      </trkpt>
      <trkpt lat="46.97967" lon="4.71276">
        <ele>358.91870117188</ele>
        <time>2021-05-22T12:01:06Z</time>
      </trkpt>
      <trkpt lat="46.97997" lon="4.71303">
        <ele>350.91986083984</ele>
        <time>2021-05-22T12:01:10Z</time>
      </trkpt>
      <trkpt lat="46.98042" lon="4.71319">
        <ele>345.92169189453</ele>
        <time>2021-05-22T12:01:15Z</time>
      </trkpt>
      <trkpt lat="46.98083" lon="4.71342">
        <ele>337.92333984375</ele>
        <time>2021-05-22T12:01:19Z</time>
      </trkpt>
      <trkpt lat="46.98102" lon="4.71347">
        <ele>325.92407226562</ele>
        <time>2021-05-22T12:01:24Z</time>
      </trkpt>
      <trkpt lat="46.98092" lon="4.71325">
        <ele>322.92367553711</ele>
        <time>2021-05-22T12:01:28Z</time>
      </trkpt>
      <trkpt lat="46.98088" lon="4.71299">
        <ele>318.92352294922</ele>
        <time>2021-05-22T12:01:33Z</time>
      </trkpt>
      <trkpt lat="46.98083" lon="4.71274">
        <ele>315.92330932617</ele>
        <time>2021-05-22T12:01:37Z</time>
      </trkpt>
      <trkpt lat="46.98079" lon="4.71235">
        <ele>310.92315673828</ele>
        <time>2021-05-22T12:01:42Z</time>
      </trkpt>
      <trkpt lat="46.98077" lon="4.71199">
        <ele>307.92309570312</ele>
        <time>2021-05-22T12:01:46Z</time>
      </trkpt>
      <trkpt lat="46.98076" lon="4.71164">
        <ele>304.92303466797</ele>
        <time>2021-05-22T12:01:50Z</time>
      </trkpt>
      <trkpt lat="46.98077" lon="4.71127">
        <ele>300.92309570312</ele>
        <time>2021-05-22T12:01:55Z</time>
      </trkpt>
      <trkpt lat="46.98068" lon="4.71096">
        <ele>298.92272949219</ele>
        <time>2021-05-22T12:02:00Z</time>
      </trkpt>
      <trkpt lat="46.98065" lon="4.71067">
        <ele>295.92260742188</ele>
        <time>2021-05-22T12:02:04Z</time>
      </trkpt>
      <trkpt lat="46.98066" lon="4.7104">
        <ele>296.92263793945</ele>
        <time>2021-05-22T12:02:08Z</time>
      </trkpt>
      <trkpt lat="46.98063" lon="4.7103">
        <ele>295.92251586914</ele>
        <time>2021-05-22T12:02:51Z</time>
      </trkpt>
      <trkpt lat="46.98059" lon="4.71015">
        <ele>295.92239379883</ele>
        <time>2021-05-22T12:02:56Z</time>
      </trkpt>
      <trkpt lat="46.98061" lon="4.71003">
        <ele>296.92242431641</ele>
        <time>2021-05-22T12:03:00Z</time>
      </trkpt>
      <trkpt lat="46.98064" lon="4.7099">
        <ele>295.9225769043</ele>
        <time>2021-05-22T12:03:04Z</time>
      </trkpt>
      <trkpt lat="46.98069" lon="4.70975">
        <ele>293.92276000977</ele>
        <time>2021-05-22T12:03:08Z</time>
      </trkpt>
      <trkpt lat="46.98075" lon="4.70958">
        <ele>293.92300415039</ele>
        <time>2021-05-22T12:03:13Z</time>
      </trkpt>
      <trkpt lat="46.98083" lon="4.70938">
        <ele>293.92330932617</ele>
        <time>2021-05-22T12:03:18Z</time>
      </trkpt>
      <trkpt lat="46.98088" lon="4.70921">
        <ele>296.92352294922</ele>
        <time>2021-05-22T12:03:22Z</time>
      </trkpt>
      <trkpt lat="46.98092" lon="4.70901">
        <ele>297.92367553711</ele>
        <time>2021-05-22T12:03:27Z</time>
      </trkpt>
      <trkpt lat="46.98091" lon="4.7089">
        <ele>298.92364501953</ele>
        <time>2021-05-22T12:03:31Z</time>
      </trkpt>
      <trkpt lat="46.98096" lon="4.70873">
        <ele>299.923828125</ele>
        <time>2021-05-22T12:03:35Z</time>
      </trkpt>
      <trkpt lat="46.981" lon="4.70853">
        <ele>296.92401123047</ele>
        <time>2021-05-22T12:03:40Z</time>
      </trkpt>
      <trkpt lat="46.98103" lon="4.70837">
        <ele>300.9241027832</ele>
        <time>2021-05-22T12:03:45Z</time>
      </trkpt>
      <trkpt lat="46.98103" lon="4.70823">
        <ele>302.92413330078</ele>
        <time>2021-05-22T12:03:49Z</time>
      </trkpt>
      <trkpt lat="46.98105" lon="4.70804">
        <ele>304.92419433594</ele>
        <time>2021-05-22T12:03:54Z</time>
      </trkpt>
      <trkpt lat="46.98109" lon="4.70787">
        <ele>304.92437744141</ele>
        <time>2021-05-22T12:03:58Z</time>
      </trkpt>
      <trkpt lat="46.98112" lon="4.7077">
        <ele>303.92449951172</ele>
        <time>2021-05-22T12:04:02Z</time>
      </trkpt>
      <trkpt lat="46.98112" lon="4.7075">
        <ele>305.92449951172</ele>
        <time>2021-05-22T12:04:07Z</time>
      </trkpt>
      <trkpt lat="46.98099" lon="4.7074">
        <ele>304.92398071289</ele>
        <time>2021-05-22T12:04:11Z</time>
      </trkpt>
      <trkpt lat="46.98082" lon="4.70735">
        <ele>302.92327880859</ele>
        <time>2021-05-22T12:04:15Z</time>
      </trkpt>
      <trkpt lat="46.98065" lon="4.70724">
        <ele>300.92260742188</ele>
        <time>2021-05-22T12:04:20Z</time>
      </trkpt>
      <trkpt lat="46.98052" lon="4.70715">
        <ele>300.92208862305</ele>
        <time>2021-05-22T12:04:24Z</time>
      </trkpt>
      <trkpt lat="46.98039" lon="4.70703">
        <ele>301.92156982422</ele>
        <time>2021-05-22T12:04:29Z</time>
      </trkpt>
      <trkpt lat="46.98026" lon="4.7069">
        <ele>298.92105102539</ele>
        <time>2021-05-22T12:04:34Z</time>
      </trkpt>
      <trkpt lat="46.98014" lon="4.70673">
        <ele>295.92056274414</ele>
        <time>2021-05-22T12:04:39Z</time>
      </trkpt>
      <trkpt lat="46.98007" lon="4.70658">
        <ele>297.92028808594</ele>
        <time>2021-05-22T12:04:43Z</time>
      </trkpt>
      <trkpt lat="46.98003" lon="4.70639">
        <ele>297.92013549805</ele>
        <time>2021-05-22T12:04:48Z</time>
      </trkpt>
      <trkpt lat="46.98" lon="4.7062">
        <ele>298.92001342773</ele>
        <time>2021-05-22T12:04:52Z</time>
      </trkpt>
      <trkpt lat="46.97996" lon="4.70602">
        <ele>298.91983032227</ele>
        <time>2021-05-22T12:04:56Z</time>
      </trkpt>
      <trkpt lat="46.97986" lon="4.70576">
        <ele>298.91943359375</ele>
        <time>2021-05-22T12:05:01Z</time>
      </trkpt>
      <trkpt lat="46.9798" lon="4.70554">
        <ele>296.9192199707</ele>
        <time>2021-05-22T12:05:05Z</time>
      </trkpt>
      <trkpt lat="46.9798" lon="4.70533">
        <ele>295.9192199707</ele>
        <time>2021-05-22T12:05:09Z</time>
      </trkpt>
      <trkpt lat="46.9798" lon="4.70511">
        <ele>297.91918945312</ele>
        <time>2021-05-22T12:05:13Z</time>
      </trkpt>
      <trkpt lat="46.97981" lon="4.70484">
        <ele>297.9192199707</ele>
        <time>2021-05-22T12:05:18Z</time>
      </trkpt>
      <trkpt lat="46.9798" lon="4.70464">
        <ele>299.91918945312</ele>
        <time>2021-05-22T12:05:22Z</time>
      </trkpt>
      <trkpt lat="46.97981" lon="4.70444">
        <ele>300.91925048828</ele>
        <time>2021-05-22T12:05:27Z</time>
      </trkpt>
      <trkpt lat="46.97984" lon="4.70421">
        <ele>301.91934204102</ele>
        <time>2021-05-22T12:05:32Z</time>
      </trkpt>
      <trkpt lat="46.97987" lon="4.70403">
        <ele>301.91946411133</ele>
        <time>2021-05-22T12:05:36Z</time>
      </trkpt>
      <trkpt lat="46.97989" lon="4.70382">
        <ele>301.91952514648</ele>
        <time>2021-05-22T12:05:41Z</time>
      </trkpt>
      <trkpt lat="46.97976" lon="4.7037">
        <ele>302.91900634766</ele>
        <time>2021-05-22T12:05:46Z</time>
      </trkpt>
      <trkpt lat="46.97964" lon="4.70361">
        <ele>302.91857910156</ele>
        <time>2021-05-22T12:05:50Z</time>
      </trkpt>
      <trkpt lat="46.9795" lon="4.70347">
        <ele>304.91799926758</ele>
        <time>2021-05-22T12:05:55Z</time>
      </trkpt>
      <trkpt lat="46.97939" lon="4.70335">
        <ele>305.91754150391</ele>
        <time>2021-05-22T12:05:59Z</time>
      </trkpt>
      <trkpt lat="46.97927" lon="4.70324">
        <ele>307.91708374023</ele>
        <time>2021-05-22T12:06:03Z</time>
      </trkpt>
      <trkpt lat="46.97915" lon="4.70308">
        <ele>308.91659545898</ele>
        <time>2021-05-22T12:06:08Z</time>
      </trkpt>
      <trkpt lat="46.97905" lon="4.703">
        <ele>306.91619873047</ele>
        <time>2021-05-22T12:06:12Z</time>
      </trkpt>
      <trkpt lat="46.97896" lon="4.7029">
        <ele>308.91583251953</ele>
        <time>2021-05-22T12:06:16Z</time>
      </trkpt>
      <trkpt lat="46.97887" lon="4.70281">
        <ele>306.91546630859</ele>
        <time>2021-05-22T12:06:20Z</time>
      </trkpt>
      <trkpt lat="46.97876" lon="4.70272">
        <ele>307.91506958008</ele>
        <time>2021-05-22T12:06:25Z</time>
      </trkpt>
      <trkpt lat="46.97863" lon="4.70268">
        <ele>307.91448974609</ele>
        <time>2021-05-22T12:06:29Z</time>
      </trkpt>
      <trkpt lat="46.97844" lon="4.70262">
        <ele>308.91375732422</ele>
        <time>2021-05-22T12:06:34Z</time>
      </trkpt>
      <trkpt lat="46.97829" lon="4.70255">
        <ele>309.91317749023</ele>
        <time>2021-05-22T12:06:38Z</time>
      </trkpt>
      <trkpt lat="46.97815" lon="4.70248">
        <ele>307.91259765625</ele>
        <time>2021-05-22T12:06:42Z</time>
      </trkpt>
      <trkpt lat="46.97802" lon="4.70242">
        <ele>305.91207885742</ele>
        <time>2021-05-22T12:06:46Z</time>
      </trkpt>
      <trkpt lat="46.97788" lon="4.70236">
        <ele>303.91152954102</ele>
        <time>2021-05-22T12:06:50Z</time>
      </trkpt>
      <trkpt lat="46.97779" lon="4.70233">
        <ele>303.9111328125</ele>
        <time>2021-05-22T12:06:54Z</time>
      </trkpt>
      <trkpt lat="46.97786" lon="4.70238">
        <ele>312.91143798828</ele>
        <time>2021-05-22T12:07:15Z</time>
      </trkpt>
      <trkpt lat="46.97795" lon="4.70238">
        <ele>317.91177368164</ele>
        <time>2021-05-22T12:16:17Z</time>
      </trkpt>
      <trkpt lat="46.97805" lon="4.70243">
        <ele>316.91217041016</ele>
        <time>2021-05-22T12:16:22Z</time>
      </trkpt>
      <trkpt lat="46.97817" lon="4.70249">
        <ele>318.91268920898</ele>
        <time>2021-05-22T12:16:27Z</time>
      </trkpt>
      <trkpt lat="46.97826" lon="4.70254">
        <ele>318.91305541992</ele>
        <time>2021-05-22T12:16:31Z</time>
      </trkpt>
      <trkpt lat="46.97838" lon="4.7026">
        <ele>317.91351318359</ele>
        <time>2021-05-22T12:16:36Z</time>
      </trkpt>
      <trkpt lat="46.97848" lon="4.70265">
        <ele>317.91390991211</ele>
        <time>2021-05-22T12:16:40Z</time>
      </trkpt>
      <trkpt lat="46.97858" lon="4.7027">
        <ele>316.91430664062</ele>
        <time>2021-05-22T12:16:44Z</time>
      </trkpt>
      <trkpt lat="46.97869" lon="4.70274">
        <ele>318.9147644043</ele>
        <time>2021-05-22T12:16:49Z</time>
      </trkpt>
      <trkpt lat="46.97877" lon="4.70278">
        <ele>317.91506958008</ele>
        <time>2021-05-22T12:16:54Z</time>
      </trkpt>
      <trkpt lat="46.97875" lon="4.70268">
        <ele>318.91500854492</ele>
        <time>2021-05-22T12:17:05Z</time>
      </trkpt>
      <trkpt lat="46.97863" lon="4.70259">
        <ele>319.91455078125</ele>
        <time>2021-05-22T12:17:10Z</time>
      </trkpt>
      <trkpt lat="46.97856" lon="4.70251">
        <ele>320.91421508789</ele>
        <time>2021-05-22T12:17:14Z</time>
      </trkpt>
      <trkpt lat="46.97849" lon="4.70241">
        <ele>321.91397094727</ele>
        <time>2021-05-22T12:17:18Z</time>
      </trkpt>
      <trkpt lat="46.97843" lon="4.70232">
        <ele>323.91369628906</ele>
        <time>2021-05-22T12:17:22Z</time>
      </trkpt>
      <trkpt lat="46.97834" lon="4.70221">
        <ele>324.91339111328</ele>
        <time>2021-05-22T12:17:27Z</time>
      </trkpt>
      <trkpt lat="46.97828" lon="4.70213">
        <ele>324.91311645508</ele>
        <time>2021-05-22T12:17:31Z</time>
      </trkpt>
      <trkpt lat="46.97823" lon="4.70205">
        <ele>326.91290283203</ele>
        <time>2021-05-22T12:17:35Z</time>
      </trkpt>
      <trkpt lat="46.97818" lon="4.70194">
        <ele>327.91275024414</ele>
        <time>2021-05-22T12:17:39Z</time>
      </trkpt>
      <trkpt lat="46.97813" lon="4.70181">
        <ele>328.91250610352</ele>
        <time>2021-05-22T12:17:44Z</time>
      </trkpt>
      <trkpt lat="46.97807" lon="4.70173">
        <ele>331.91226196289</ele>
        <time>2021-05-22T12:17:48Z</time>
      </trkpt>
      <trkpt lat="46.97801" lon="4.70165">
        <ele>331.91204833984</ele>
        <time>2021-05-22T12:17:52Z</time>
      </trkpt>
      <trkpt lat="46.97795" lon="4.70155">
        <ele>333.9118347168</ele>
        <time>2021-05-22T12:17:56Z</time>
      </trkpt>
      <trkpt lat="46.97793" lon="4.70142">
        <ele>335.91171264648</ele>
        <time>2021-05-22T12:18:01Z</time>
      </trkpt>
      <trkpt lat="46.97793" lon="4.7013">
        <ele>335.91171264648</ele>
        <time>2021-05-22T12:18:06Z</time>
      </trkpt>
      <trkpt lat="46.97791" lon="4.70118">
        <ele>335.91162109375</ele>
        <time>2021-05-22T12:18:11Z</time>
      </trkpt>
      <trkpt lat="46.97787" lon="4.70106">
        <ele>334.91146850586</ele>
        <time>2021-05-22T12:18:16Z</time>
      </trkpt>
      <trkpt lat="46.97781" lon="4.70097">
        <ele>337.91125488281</ele>
        <time>2021-05-22T12:18:21Z</time>
      </trkpt>
      <trkpt lat="46.97776" lon="4.7009">
        <ele>338.91104125977</ele>
        <time>2021-05-22T12:18:25Z</time>
      </trkpt>
      <trkpt lat="46.9777" lon="4.70082">
        <ele>339.91079711914</ele>
        <time>2021-05-22T12:18:29Z</time>
      </trkpt>
      <trkpt lat="46.97764" lon="4.70074">
        <ele>339.91058349609</ele>
        <time>2021-05-22T12:18:33Z</time>
      </trkpt>
      <trkpt lat="46.97757" lon="4.70065">
        <ele>340.91027832031</ele>
        <time>2021-05-22T12:18:38Z</time>
      </trkpt>
      <trkpt lat="46.9775" lon="4.70057">
        <ele>342.91003417969</ele>
        <time>2021-05-22T12:18:42Z</time>
      </trkpt>
      <trkpt lat="46.97745" lon="4.7005">
        <ele>343.90979003906</ele>
        <time>2021-05-22T12:18:46Z</time>
      </trkpt>
      <trkpt lat="46.97739" lon="4.70041">
        <ele>346.90954589844</ele>
        <time>2021-05-22T12:18:51Z</time>
      </trkpt>
      <trkpt lat="46.97731" lon="4.70035">
        <ele>345.90924072266</ele>
        <time>2021-05-22T12:18:58Z</time>
      </trkpt>
      <trkpt lat="46.97727" lon="4.70026">
        <ele>342.90908813477</ele>
        <time>2021-05-22T12:19:03Z</time>
      </trkpt>
      <trkpt lat="46.97725" lon="4.70015">
        <ele>344.90896606445</ele>
        <time>2021-05-22T12:19:07Z</time>
      </trkpt>
      <trkpt lat="46.9772" lon="4.70002">
        <ele>345.90881347656</ele>
        <time>2021-05-22T12:19:12Z</time>
      </trkpt>
      <trkpt lat="46.97715" lon="4.69993">
        <ele>348.90859985352</ele>
        <time>2021-05-22T12:19:17Z</time>
      </trkpt>
      <trkpt lat="46.97712" lon="4.69982">
        <ele>350.9084777832</ele>
        <time>2021-05-22T12:19:24Z</time>
      </trkpt>
      <trkpt lat="46.97708" lon="4.69972">
        <ele>351.90832519531</ele>
        <time>2021-05-22T12:19:29Z</time>
      </trkpt>
      <trkpt lat="46.97705" lon="4.6996">
        <ele>352.908203125</ele>
        <time>2021-05-22T12:19:35Z</time>
      </trkpt>
      <trkpt lat="46.97704" lon="4.69948">
        <ele>350.90817260742</ele>
        <time>2021-05-22T12:19:41Z</time>
      </trkpt>
      <trkpt lat="46.977" lon="4.69938">
        <ele>350.90798950195</ele>
        <time>2021-05-22T12:19:47Z</time>
      </trkpt>
      <trkpt lat="46.97696" lon="4.69927">
        <ele>353.90783691406</ele>
        <time>2021-05-22T12:19:52Z</time>
      </trkpt>
      <trkpt lat="46.97692" lon="4.69916">
        <ele>354.90768432617</ele>
        <time>2021-05-22T12:19:57Z</time>
      </trkpt>
      <trkpt lat="46.97689" lon="4.69905">
        <ele>357.90759277344</ele>
        <time>2021-05-22T12:20:02Z</time>
      </trkpt>
      <trkpt lat="46.97687" lon="4.69892">
        <ele>358.90747070312</ele>
        <time>2021-05-22T12:20:07Z</time>
      </trkpt>
      <trkpt lat="46.97684" lon="4.6988">
        <ele>360.90737915039</ele>
        <time>2021-05-22T12:20:12Z</time>
      </trkpt>
      <trkpt lat="46.97682" lon="4.69868">
        <ele>361.90728759766</ele>
        <time>2021-05-22T12:20:17Z</time>
      </trkpt>
      <trkpt lat="46.97678" lon="4.69858">
        <ele>361.90710449219</ele>
        <time>2021-05-22T12:20:22Z</time>
      </trkpt>
      <trkpt lat="46.97672" lon="4.69848">
        <ele>361.90686035156</ele>
        <time>2021-05-22T12:20:27Z</time>
      </trkpt>
      <trkpt lat="46.97666" lon="4.69841">
        <ele>362.90664672852</ele>
        <time>2021-05-22T12:20:31Z</time>
      </trkpt>
      <trkpt lat="46.97659" lon="4.69832">
        <ele>362.90634155273</ele>
        <time>2021-05-22T12:20:36Z</time>
      </trkpt>
      <trkpt lat="46.97652" lon="4.69823">
        <ele>363.90606689453</ele>
        <time>2021-05-22T12:20:41Z</time>
      </trkpt>
      <trkpt lat="46.97646" lon="4.69816">
        <ele>363.90582275391</ele>
        <time>2021-05-22T12:20:45Z</time>
      </trkpt>
      <trkpt lat="46.97638" lon="4.69808">
        <ele>364.90551757812</ele>
        <time>2021-05-22T12:20:50Z</time>
      </trkpt>
      <trkpt lat="46.97631" lon="4.69802">
        <ele>364.90524291992</ele>
        <time>2021-05-22T12:20:54Z</time>
      </trkpt>
      <trkpt lat="46.97622" lon="4.69795">
        <ele>365.90484619141</ele>
        <time>2021-05-22T12:20:59Z</time>
      </trkpt>
      <trkpt lat="46.97612" lon="4.69788">
        <ele>365.90447998047</ele>
        <time>2021-05-22T12:21:03Z</time>
      </trkpt>
      <trkpt lat="46.97602" lon="4.6978">
        <ele>366.90408325195</ele>
        <time>2021-05-22T12:21:08Z</time>
      </trkpt>
      <trkpt lat="46.97594" lon="4.69774">
        <ele>367.90377807617</ele>
        <time>2021-05-22T12:21:12Z</time>
      </trkpt>
      <trkpt lat="46.97587" lon="4.69768">
        <ele>368.90347290039</ele>
        <time>2021-05-22T12:21:16Z</time>
      </trkpt>
      <trkpt lat="46.9758" lon="4.69763">
        <ele>368.90319824219</ele>
        <time>2021-05-22T12:21:20Z</time>
      </trkpt>
      <trkpt lat="46.97572" lon="4.69752">
        <ele>369.90289306641</ele>
        <time>2021-05-22T12:21:25Z</time>
      </trkpt>
      <trkpt lat="46.97567" lon="4.69743">
        <ele>369.90267944336</ele>
        <time>2021-05-22T12:21:29Z</time>
      </trkpt>
      <trkpt lat="46.97562" lon="4.6973">
        <ele>369.90246582031</ele>
        <time>2021-05-22T12:21:34Z</time>
      </trkpt>
      <trkpt lat="46.97558" lon="4.6972">
        <ele>369.90231323242</ele>
        <time>2021-05-22T12:21:38Z</time>
      </trkpt>
      <trkpt lat="46.97554" lon="4.69707">
        <ele>370.90216064453</ele>
        <time>2021-05-22T12:21:43Z</time>
      </trkpt>
      <trkpt lat="46.97551" lon="4.69697">
        <ele>371.90200805664</ele>
        <time>2021-05-22T12:21:47Z</time>
      </trkpt>
      <trkpt lat="46.97547" lon="4.69687">
        <ele>371.90188598633</ele>
        <time>2021-05-22T12:21:51Z</time>
      </trkpt>
      <trkpt lat="46.97542" lon="4.69678">
        <ele>370.90170288086</ele>
        <time>2021-05-22T12:21:55Z</time>
      </trkpt>
      <trkpt lat="46.97535" lon="4.69665">
        <ele>370.90142822266</ele>
        <time>2021-05-22T12:22:00Z</time>
      </trkpt>
      <trkpt lat="46.97532" lon="4.69655">
        <ele>370.90127563477</ele>
        <time>2021-05-22T12:22:04Z</time>
      </trkpt>
      <trkpt lat="46.9753" lon="4.69639">
        <ele>371.90118408203</ele>
        <time>2021-05-22T12:22:09Z</time>
      </trkpt>
      <trkpt lat="46.9753" lon="4.69627">
        <ele>371.90118408203</ele>
        <time>2021-05-22T12:22:13Z</time>
      </trkpt>
      <trkpt lat="46.9753" lon="4.69616">
        <ele>372.90118408203</ele>
        <time>2021-05-22T12:22:17Z</time>
      </trkpt>
      <trkpt lat="46.9753" lon="4.69604">
        <ele>372.90121459961</ele>
        <time>2021-05-22T12:22:22Z</time>
      </trkpt>
      <trkpt lat="46.97529" lon="4.69592">
        <ele>372.90118408203</ele>
        <time>2021-05-22T12:22:27Z</time>
      </trkpt>
      <trkpt lat="46.97524" lon="4.69581">
        <ele>372.90097045898</ele>
        <time>2021-05-22T12:22:32Z</time>
      </trkpt>
      <trkpt lat="46.97518" lon="4.69572">
        <ele>372.90072631836</ele>
        <time>2021-05-22T12:22:36Z</time>
      </trkpt>
      <trkpt lat="46.9751" lon="4.69558">
        <ele>372.90042114258</ele>
        <time>2021-05-22T12:22:41Z</time>
      </trkpt>
      <trkpt lat="46.97504" lon="4.6955">
        <ele>374.90014648438</ele>
        <time>2021-05-22T12:22:45Z</time>
      </trkpt>
      <trkpt lat="46.97501" lon="4.69546">
        <ele>375.90005493164</ele>
        <time>2021-05-22T12:22:48Z</time>
      </trkpt>
      <trkpt lat="46.97493" lon="4.69532">
        <ele>375.89974975586</ele>
        <time>2021-05-22T12:22:53Z</time>
      </trkpt>
      <trkpt lat="46.97487" lon="4.69521">
        <ele>374.89950561523</ele>
        <time>2021-05-22T12:22:57Z</time>
      </trkpt>
      <trkpt lat="46.9748" lon="4.69507">
        <ele>373.89920043945</ele>
        <time>2021-05-22T12:23:01Z</time>
      </trkpt>
      <trkpt lat="46.97473" lon="4.69494">
        <ele>374.89892578125</ele>
        <time>2021-05-22T12:23:05Z</time>
      </trkpt>
      <trkpt lat="46.97466" lon="4.69482">
        <ele>374.89865112305</ele>
        <time>2021-05-22T12:23:09Z</time>
      </trkpt>
      <trkpt lat="46.97461" lon="4.6947">
        <ele>374.89840698242</ele>
        <time>2021-05-22T12:23:13Z</time>
      </trkpt>
      <trkpt lat="46.97454" lon="4.69462">
        <ele>374.8981628418</ele>
        <time>2021-05-22T12:23:18Z</time>
      </trkpt>
      <trkpt lat="46.97446" lon="4.69465">
        <ele>377.89782714844</ele>
        <time>2021-05-22T12:28:34Z</time>
      </trkpt>
      <trkpt lat="46.9744" lon="4.69472">
        <ele>375.89758300781</ele>
        <time>2021-05-22T12:28:40Z</time>
      </trkpt>
      <trkpt lat="46.97426" lon="4.69485">
        <ele>373.89703369141</ele>
        <time>2021-05-22T12:28:45Z</time>
      </trkpt>
      <trkpt lat="46.97407" lon="4.69503">
        <ele>370.89630126953</ele>
        <time>2021-05-22T12:28:49Z</time>
      </trkpt>
      <trkpt lat="46.97387" lon="4.69524">
        <ele>367.8955078125</ele>
        <time>2021-05-22T12:28:54Z</time>
      </trkpt>
      <trkpt lat="46.97369" lon="4.69522">
        <ele>365.89474487305</ele>
        <time>2021-05-22T12:28:59Z</time>
      </trkpt>
      <trkpt lat="46.9736" lon="4.69509">
        <ele>367.89437866211</ele>
        <time>2021-05-22T12:29:03Z</time>
      </trkpt>
      <trkpt lat="46.97351" lon="4.69497">
        <ele>366.89404296875</ele>
        <time>2021-05-22T12:29:07Z</time>
      </trkpt>
      <trkpt lat="46.97345" lon="4.69487">
        <ele>365.89376831055</ele>
        <time>2021-05-22T12:29:10Z</time>
      </trkpt>
      <trkpt lat="46.97335" lon="4.69471">
        <ele>366.89340209961</ele>
        <time>2021-05-22T12:29:15Z</time>
      </trkpt>
      <trkpt lat="46.97326" lon="4.69456">
        <ele>366.89303588867</ele>
        <time>2021-05-22T12:29:20Z</time>
      </trkpt>
      <trkpt lat="46.97316" lon="4.69444">
        <ele>368.89263916016</ele>
        <time>2021-05-22T12:29:25Z</time>
      </trkpt>
      <trkpt lat="46.97309" lon="4.69432">
        <ele>370.89239501953</ele>
        <time>2021-05-22T12:29:29Z</time>
      </trkpt>
      <trkpt lat="46.97302" lon="4.69418">
        <ele>372.89208984375</ele>
        <time>2021-05-22T12:29:34Z</time>
      </trkpt>
      <trkpt lat="46.97298" lon="4.69408">
        <ele>374.89193725586</ele>
        <time>2021-05-22T12:29:38Z</time>
      </trkpt>
      <trkpt lat="46.97299" lon="4.69395">
        <ele>371.89193725586</ele>
        <time>2021-05-22T12:29:44Z</time>
      </trkpt>
      <trkpt lat="46.97305" lon="4.69378">
        <ele>371.89221191406</ele>
        <time>2021-05-22T12:29:48Z</time>
      </trkpt>
      <trkpt lat="46.97314" lon="4.69364">
        <ele>371.89254760742</ele>
        <time>2021-05-22T12:29:52Z</time>
      </trkpt>
      <trkpt lat="46.97319" lon="4.6935">
        <ele>370.89273071289</ele>
        <time>2021-05-22T12:29:56Z</time>
      </trkpt>
      <trkpt lat="46.97324" lon="4.69336">
        <ele>371.89294433594</ele>
        <time>2021-05-22T12:30:00Z</time>
      </trkpt>
      <trkpt lat="46.9733" lon="4.69319">
        <ele>372.89321899414</ele>
        <time>2021-05-22T12:30:05Z</time>
      </trkpt>
      <trkpt lat="46.97335" lon="4.69308">
        <ele>372.89340209961</ele>
        <time>2021-05-22T12:30:09Z</time>
      </trkpt>
      <trkpt lat="46.9734" lon="4.69296">
        <ele>373.89361572266</ele>
        <time>2021-05-22T12:30:13Z</time>
      </trkpt>
      <trkpt lat="46.97341" lon="4.6928">
        <ele>373.89364624023</ele>
        <time>2021-05-22T12:30:18Z</time>
      </trkpt>
      <trkpt lat="46.97329" lon="4.69273">
        <ele>370.89318847656</ele>
        <time>2021-05-22T12:30:23Z</time>
      </trkpt>
      <trkpt lat="46.97308" lon="4.69268">
        <ele>367.89233398438</ele>
        <time>2021-05-22T12:30:28Z</time>
      </trkpt>
      <trkpt lat="46.97287" lon="4.69263">
        <ele>364.89151000977</ele>
        <time>2021-05-22T12:30:32Z</time>
      </trkpt>
      <trkpt lat="46.97262" lon="4.69253">
        <ele>362.89047241211</ele>
        <time>2021-05-22T12:30:37Z</time>
      </trkpt>
      <trkpt lat="46.97242" lon="4.69245">
        <ele>359.88967895508</ele>
        <time>2021-05-22T12:30:41Z</time>
      </trkpt>
      <trkpt lat="46.97219" lon="4.69236">
        <ele>354.88876342773</ele>
        <time>2021-05-22T12:30:46Z</time>
      </trkpt>
      <trkpt lat="46.97201" lon="4.69242">
        <ele>349.88803100586</ele>
        <time>2021-05-22T12:30:51Z</time>
      </trkpt>
      <trkpt lat="46.97195" lon="4.69267">
        <ele>350.88781738281</ele>
        <time>2021-05-22T12:30:56Z</time>
      </trkpt>
      <trkpt lat="46.97193" lon="4.69279">
        <ele>348.88772583008</ele>
        <time>2021-05-22T12:31:14Z</time>
      </trkpt>
      <trkpt lat="46.97175" lon="4.69295">
        <ele>347.8869934082</ele>
        <time>2021-05-22T12:31:18Z</time>
      </trkpt>
      <trkpt lat="46.97159" lon="4.69306">
        <ele>343.88638305664</ele>
        <time>2021-05-22T12:31:23Z</time>
      </trkpt>
      <trkpt lat="46.97157" lon="4.69292">
        <ele>344.88629150391</ele>
        <time>2021-05-22T12:31:27Z</time>
      </trkpt>
      <trkpt lat="46.97158" lon="4.69279">
        <ele>343.88632202148</ele>
        <time>2021-05-22T12:31:31Z</time>
      </trkpt>
      <trkpt lat="46.97161" lon="4.6926">
        <ele>342.8864440918</ele>
        <time>2021-05-22T12:31:36Z</time>
      </trkpt>
      <trkpt lat="46.9716" lon="4.6927">
        <ele>332.88641357422</ele>
        <time>2021-05-22T12:33:46Z</time>
      </trkpt>
      <trkpt lat="46.97155" lon="4.69285">
        <ele>331.88619995117</ele>
        <time>2021-05-22T12:33:50Z</time>
      </trkpt>
      <trkpt lat="46.97147" lon="4.69311">
        <ele>334.88589477539</ele>
        <time>2021-05-22T12:33:55Z</time>
      </trkpt>
      <trkpt lat="46.97139" lon="4.69338">
        <ele>333.88558959961</ele>
        <time>2021-05-22T12:34:00Z</time>
      </trkpt>
      <trkpt lat="46.97131" lon="4.69368">
        <ele>333.88525390625</ele>
        <time>2021-05-22T12:34:05Z</time>
      </trkpt>
      <trkpt lat="46.97123" lon="4.69391">
        <ele>334.88491821289</ele>
        <time>2021-05-22T12:34:09Z</time>
      </trkpt>
      <trkpt lat="46.9711" lon="4.69417">
        <ele>334.88439941406</ele>
        <time>2021-05-22T12:34:13Z</time>
      </trkpt>
      <trkpt lat="46.97091" lon="4.69449">
        <ele>332.88363647461</ele>
        <time>2021-05-22T12:34:18Z</time>
      </trkpt>
      <trkpt lat="46.9707" lon="4.6947">
        <ele>331.8828125</ele>
        <time>2021-05-22T12:34:22Z</time>
      </trkpt>
      <trkpt lat="46.97053" lon="4.69485">
        <ele>329.88214111328</ele>
        <time>2021-05-22T12:34:26Z</time>
      </trkpt>
      <trkpt lat="46.97047" lon="4.69491">
        <ele>327.88186645508</ele>
        <time>2021-05-22T12:34:30Z</time>
      </trkpt>
      <trkpt lat="46.97039" lon="4.69485">
        <ele>326.8815612793</ele>
        <time>2021-05-22T12:35:10Z</time>
      </trkpt>
      <trkpt lat="46.97039" lon="4.69471">
        <ele>323.8815612793</ele>
        <time>2021-05-22T12:35:14Z</time>
      </trkpt>
      <trkpt lat="46.97044" lon="4.69457">
        <ele>323.88174438477</ele>
        <time>2021-05-22T12:35:18Z</time>
      </trkpt>
      <trkpt lat="46.9704" lon="4.69437">
        <ele>324.88159179688</ele>
        <time>2021-05-22T12:35:23Z</time>
      </trkpt>
      <trkpt lat="46.97034" lon="4.69422">
        <ele>324.88134765625</ele>
        <time>2021-05-22T12:35:27Z</time>
      </trkpt>
      <trkpt lat="46.97031" lon="4.69403">
        <ele>319.88122558594</ele>
        <time>2021-05-22T12:35:32Z</time>
      </trkpt>
      <trkpt lat="46.9703" lon="4.6939">
        <ele>324.88119506836</ele>
        <time>2021-05-22T12:35:37Z</time>
      </trkpt>
      <trkpt lat="46.97035" lon="4.69373">
        <ele>329.88140869141</ele>
        <time>2021-05-22T12:35:42Z</time>
      </trkpt>
      <trkpt lat="46.97038" lon="4.69357">
        <ele>335.88150024414</ele>
        <time>2021-05-22T12:35:46Z</time>
      </trkpt>
      <trkpt lat="46.97041" lon="4.69341">
        <ele>334.88162231445</ele>
        <time>2021-05-22T12:35:50Z</time>
      </trkpt>
      <trkpt lat="46.97044" lon="4.69326">
        <ele>336.88177490234</ele>
        <time>2021-05-22T12:35:55Z</time>
      </trkpt>
      <trkpt lat="46.97047" lon="4.69314">
        <ele>338.88186645508</ele>
        <time>2021-05-22T12:35:59Z</time>
      </trkpt>
      <trkpt lat="46.97049" lon="4.69302">
        <ele>341.88192749023</ele>
        <time>2021-05-22T12:36:04Z</time>
      </trkpt>
      <trkpt lat="46.97047" lon="4.69289">
        <ele>343.88186645508</ele>
        <time>2021-05-22T12:36:09Z</time>
      </trkpt>
      <trkpt lat="46.97046" lon="4.69276">
        <ele>345.8818359375</ele>
        <time>2021-05-22T12:36:14Z</time>
      </trkpt>
      <trkpt lat="46.97046" lon="4.69262">
        <ele>346.8818359375</ele>
        <time>2021-05-22T12:36:18Z</time>
      </trkpt>
      <trkpt lat="46.97047" lon="4.69248">
        <ele>349.88189697266</ele>
        <time>2021-05-22T12:36:23Z</time>
      </trkpt>
      <trkpt lat="46.97049" lon="4.69235">
        <ele>351.88195800781</ele>
        <time>2021-05-22T12:36:27Z</time>
      </trkpt>
      <trkpt lat="46.97051" lon="4.69223">
        <ele>353.88204956055</ele>
        <time>2021-05-22T12:36:31Z</time>
      </trkpt>
      <trkpt lat="46.97052" lon="4.69211">
        <ele>354.88208007812</ele>
        <time>2021-05-22T12:36:35Z</time>
      </trkpt>
      <trkpt lat="46.97052" lon="4.69197">
        <ele>356.88204956055</ele>
        <time>2021-05-22T12:36:40Z</time>
      </trkpt>
      <trkpt lat="46.97051" lon="4.69184">
        <ele>357.88201904297</ele>
        <time>2021-05-22T12:36:44Z</time>
      </trkpt>
      <trkpt lat="46.97051" lon="4.69173">
        <ele>359.88201904297</ele>
        <time>2021-05-22T12:36:48Z</time>
      </trkpt>
      <trkpt lat="46.9705" lon="4.6916">
        <ele>359.88198852539</ele>
        <time>2021-05-22T12:36:53Z</time>
      </trkpt>
      <trkpt lat="46.97051" lon="4.69147">
        <ele>360.88201904297</ele>
        <time>2021-05-22T12:36:58Z</time>
      </trkpt>
      <trkpt lat="46.97052" lon="4.69136">
        <ele>361.88208007812</ele>
        <time>2021-05-22T12:37:02Z</time>
      </trkpt>
      <trkpt lat="46.97052" lon="4.69123">
        <ele>361.88208007812</ele>
        <time>2021-05-22T12:37:07Z</time>
      </trkpt>
      <trkpt lat="46.97053" lon="4.69111">
        <ele>364.8821105957</ele>
        <time>2021-05-22T12:37:12Z</time>
      </trkpt>
      <trkpt lat="46.9705" lon="4.69099">
        <ele>365.88201904297</ele>
        <time>2021-05-22T12:37:17Z</time>
      </trkpt>
      <trkpt lat="46.97048" lon="4.69088">
        <ele>368.88189697266</ele>
        <time>2021-05-22T12:37:22Z</time>
      </trkpt>
      <trkpt lat="46.97047" lon="4.69076">
        <ele>372.88186645508</ele>
        <time>2021-05-22T12:37:27Z</time>
      </trkpt>
      <trkpt lat="46.97044" lon="4.69066">
        <ele>375.88177490234</ele>
        <time>2021-05-22T12:37:31Z</time>
      </trkpt>
      <trkpt lat="46.97041" lon="4.69055">
        <ele>375.88165283203</ele>
        <time>2021-05-22T12:37:35Z</time>
      </trkpt>
      <trkpt lat="46.97041" lon="4.69041">
        <ele>374.88165283203</ele>
        <time>2021-05-22T12:37:39Z</time>
      </trkpt>
      <trkpt lat="46.97042" lon="4.69029">
        <ele>375.88168334961</ele>
        <time>2021-05-22T12:37:43Z</time>
      </trkpt>
      <trkpt lat="46.97044" lon="4.69018">
        <ele>377.88177490234</ele>
        <time>2021-05-22T12:37:47Z</time>
      </trkpt>
      <trkpt lat="46.97048" lon="4.69006">
        <ele>377.88192749023</ele>
        <time>2021-05-22T12:37:51Z</time>
      </trkpt>
      <trkpt lat="46.97052" lon="4.68996">
        <ele>377.8821105957</ele>
        <time>2021-05-22T12:37:55Z</time>
      </trkpt>
      <trkpt lat="46.97057" lon="4.68984">
        <ele>378.88226318359</ele>
        <time>2021-05-22T12:38:00Z</time>
      </trkpt>
      <trkpt lat="46.97059" lon="4.68974">
        <ele>379.88235473633</ele>
        <time>2021-05-22T12:38:04Z</time>
      </trkpt>
      <trkpt lat="46.9706" lon="4.68963">
        <ele>381.88241577148</ele>
        <time>2021-05-22T12:38:08Z</time>
      </trkpt>
      <trkpt lat="46.97062" lon="4.68951">
        <ele>382.88244628906</ele>
        <time>2021-05-22T12:38:12Z</time>
      </trkpt>
      <trkpt lat="46.97062" lon="4.6894">
        <ele>384.88247680664</ele>
        <time>2021-05-22T12:38:16Z</time>
      </trkpt>
      <trkpt lat="46.97063" lon="4.68926">
        <ele>385.8825378418</ele>
        <time>2021-05-22T12:38:21Z</time>
      </trkpt>
      <trkpt lat="46.97064" lon="4.68914">
        <ele>387.88256835938</ele>
        <time>2021-05-22T12:38:26Z</time>
      </trkpt>
      <trkpt lat="46.97064" lon="4.689">
        <ele>388.88256835938</ele>
        <time>2021-05-22T12:38:31Z</time>
      </trkpt>
      <trkpt lat="46.97061" lon="4.68889">
        <ele>390.88244628906</ele>
        <time>2021-05-22T12:38:35Z</time>
      </trkpt>
      <trkpt lat="46.97058" lon="4.68879">
        <ele>391.88232421875</ele>
        <time>2021-05-22T12:38:39Z</time>
      </trkpt>
      <trkpt lat="46.97054" lon="4.68865">
        <ele>392.88217163086</ele>
        <time>2021-05-22T12:38:44Z</time>
      </trkpt>
      <trkpt lat="46.9705" lon="4.68852">
        <ele>391.88201904297</ele>
        <time>2021-05-22T12:38:49Z</time>
      </trkpt>
      <trkpt lat="46.97049" lon="4.68841">
        <ele>392.88195800781</ele>
        <time>2021-05-22T12:38:53Z</time>
      </trkpt>
      <trkpt lat="46.97054" lon="4.6885">
        <ele>393.88217163086</ele>
        <time>2021-05-22T12:40:09Z</time>
      </trkpt>
      <trkpt lat="46.9706" lon="4.68871">
        <ele>393.88241577148</ele>
        <time>2021-05-22T12:40:14Z</time>
      </trkpt>
      <trkpt lat="46.97065" lon="4.68887">
        <ele>398.88262939453</ele>
        <time>2021-05-22T12:40:18Z</time>
      </trkpt>
      <trkpt lat="46.97068" lon="4.68903">
        <ele>400.88272094727</ele>
        <time>2021-05-22T12:40:22Z</time>
      </trkpt>
      <trkpt lat="46.97067" lon="4.68927">
        <ele>396.88269042969</ele>
        <time>2021-05-22T12:40:27Z</time>
      </trkpt>
      <trkpt lat="46.97061" lon="4.68971">
        <ele>394.88244628906</ele>
        <time>2021-05-22T12:40:31Z</time>
      </trkpt>
      <trkpt lat="46.97055" lon="4.68993">
        <ele>390.88217163086</ele>
        <time>2021-05-22T12:40:36Z</time>
      </trkpt>
      <trkpt lat="46.97051" lon="4.69003">
        <ele>387.88204956055</ele>
        <time>2021-05-22T12:40:40Z</time>
      </trkpt>
      <trkpt lat="46.97053" lon="4.68991">
        <ele>379.8821105957</ele>
        <time>2021-05-22T12:40:58Z</time>
      </trkpt>
      <trkpt lat="46.97055" lon="4.6898">
        <ele>382.88223266602</ele>
        <time>2021-05-22T12:41:03Z</time>
      </trkpt>
      <trkpt lat="46.97058" lon="4.68968">
        <ele>381.88235473633</ele>
        <time>2021-05-22T12:41:08Z</time>
      </trkpt>
      <trkpt lat="46.97061" lon="4.68955">
        <ele>383.88241577148</ele>
        <time>2021-05-22T12:41:13Z</time>
      </trkpt>
      <trkpt lat="46.97062" lon="4.68944">
        <ele>384.88244628906</ele>
        <time>2021-05-22T12:41:18Z</time>
      </trkpt>
      <trkpt lat="46.97062" lon="4.68932">
        <ele>385.88247680664</ele>
        <time>2021-05-22T12:41:26Z</time>
      </trkpt>
      <trkpt lat="46.97062" lon="4.68919">
        <ele>388.88247680664</ele>
        <time>2021-05-22T12:41:34Z</time>
      </trkpt>
      <trkpt lat="46.97062" lon="4.68908">
        <ele>389.88247680664</ele>
        <time>2021-05-22T12:41:40Z</time>
      </trkpt>
      <trkpt lat="46.97062" lon="4.68895">
        <ele>389.88247680664</ele>
        <time>2021-05-22T12:41:46Z</time>
      </trkpt>
      <trkpt lat="46.9706" lon="4.68884">
        <ele>389.88238525391</ele>
        <time>2021-05-22T12:41:52Z</time>
      </trkpt>
      <trkpt lat="46.97056" lon="4.68873">
        <ele>392.88226318359</ele>
        <time>2021-05-22T12:41:58Z</time>
      </trkpt>
      <trkpt lat="46.97052" lon="4.68862">
        <ele>394.88208007812</ele>
        <time>2021-05-22T12:42:05Z</time>
      </trkpt>
      <trkpt lat="46.97049" lon="4.6885">
        <ele>396.88195800781</ele>
        <time>2021-05-22T12:42:11Z</time>
      </trkpt>
      <trkpt lat="46.97047" lon="4.68839">
        <ele>396.88189697266</ele>
        <time>2021-05-22T12:42:16Z</time>
      </trkpt>
      <trkpt lat="46.97042" lon="4.68829">
        <ele>398.88168334961</ele>
        <time>2021-05-22T12:42:23Z</time>
      </trkpt>
      <trkpt lat="46.97034" lon="4.68828">
        <ele>398.88137817383</ele>
        <time>2021-05-22T12:43:04Z</time>
      </trkpt>
      <trkpt lat="46.97024" lon="4.68826">
        <ele>398.88095092773</ele>
        <time>2021-05-22T12:43:09Z</time>
      </trkpt>
      <trkpt lat="46.97017" lon="4.68827">
        <ele>399.88067626953</ele>
        <time>2021-05-22T12:43:13Z</time>
      </trkpt>
      <trkpt lat="46.97009" lon="4.68829">
        <ele>400.88037109375</ele>
        <time>2021-05-22T12:43:17Z</time>
      </trkpt>
      <trkpt lat="46.97002" lon="4.68829">
        <ele>402.88009643555</ele>
        <time>2021-05-22T12:43:21Z</time>
      </trkpt>
      <trkpt lat="46.96993" lon="4.68828">
        <ele>402.87973022461</ele>
        <time>2021-05-22T12:43:26Z</time>
      </trkpt>
      <trkpt lat="46.96985" lon="4.6883">
        <ele>402.87939453125</ele>
        <time>2021-05-22T12:43:31Z</time>
      </trkpt>
      <trkpt lat="46.9698" lon="4.68837">
        <ele>404.8791809082</ele>
        <time>2021-05-22T12:43:36Z</time>
      </trkpt>
      <trkpt lat="46.96974" lon="4.68846">
        <ele>407.87896728516</ele>
        <time>2021-05-22T12:43:41Z</time>
      </trkpt>
      <trkpt lat="46.96966" lon="4.68849">
        <ele>405.8786315918</ele>
        <time>2021-05-22T12:43:46Z</time>
      </trkpt>
      <trkpt lat="46.96959" lon="4.68847">
        <ele>405.87835693359</ele>
        <time>2021-05-22T12:43:51Z</time>
      </trkpt>
      <trkpt lat="46.96951" lon="4.68843">
        <ele>406.87805175781</ele>
        <time>2021-05-22T12:43:56Z</time>
      </trkpt>
      <trkpt lat="46.96943" lon="4.68842">
        <ele>406.87774658203</ele>
        <time>2021-05-22T12:44:01Z</time>
      </trkpt>
      <trkpt lat="46.96938" lon="4.68848">
        <ele>406.87750244141</ele>
        <time>2021-05-22T12:44:05Z</time>
      </trkpt>
      <trkpt lat="46.96928" lon="4.68857">
        <ele>404.87713623047</ele>
        <time>2021-05-22T12:44:09Z</time>
      </trkpt>
      <trkpt lat="46.96922" lon="4.68861">
        <ele>400.87689208984</ele>
        <time>2021-05-22T12:44:37Z</time>
      </trkpt>
      <trkpt lat="46.9691" lon="4.6888">
        <ele>403.87640380859</ele>
        <time>2021-05-22T12:44:42Z</time>
      </trkpt>
      <trkpt lat="46.96906" lon="4.68894">
        <ele>405.8762512207</ele>
        <time>2021-05-22T12:44:46Z</time>
      </trkpt>
      <trkpt lat="46.96894" lon="4.68906">
        <ele>404.87576293945</ele>
        <time>2021-05-22T12:44:50Z</time>
      </trkpt>
      <trkpt lat="46.9689" lon="4.68926">
        <ele>406.87561035156</ele>
        <time>2021-05-22T12:44:55Z</time>
      </trkpt>
      <trkpt lat="46.96888" lon="4.68948">
        <ele>403.87551879883</ele>
        <time>2021-05-22T12:45:00Z</time>
      </trkpt>
      <trkpt lat="46.96874" lon="4.68963">
        <ele>405.87496948242</ele>
        <time>2021-05-22T12:45:04Z</time>
      </trkpt>
      <trkpt lat="46.96865" lon="4.68972">
        <ele>404.87457275391</ele>
        <time>2021-05-22T12:45:08Z</time>
      </trkpt>
      <trkpt lat="46.96857" lon="4.68975">
        <ele>404.8742980957</ele>
        <time>2021-05-22T12:45:12Z</time>
      </trkpt>
      <trkpt lat="46.96849" lon="4.68975">
        <ele>406.87396240234</ele>
        <time>2021-05-22T12:45:55Z</time>
      </trkpt>
      <trkpt lat="46.96842" lon="4.6897">
        <ele>407.87368774414</ele>
        <time>2021-05-22T12:45:59Z</time>
      </trkpt>
      <trkpt lat="46.96832" lon="4.68958">
        <ele>408.87326049805</ele>
        <time>2021-05-22T12:46:04Z</time>
      </trkpt>
      <trkpt lat="46.9682" lon="4.68955">
        <ele>410.87283325195</ele>
        <time>2021-05-22T12:46:09Z</time>
      </trkpt>
      <trkpt lat="46.96812" lon="4.6895">
        <ele>413.87249755859</ele>
        <time>2021-05-22T12:46:13Z</time>
      </trkpt>
      <trkpt lat="46.96801" lon="4.68938">
        <ele>414.87203979492</ele>
        <time>2021-05-22T12:46:18Z</time>
      </trkpt>
      <trkpt lat="46.96792" lon="4.68928">
        <ele>414.87167358398</ele>
        <time>2021-05-22T12:46:22Z</time>
      </trkpt>
      <trkpt lat="46.9678" lon="4.68919">
        <ele>415.87121582031</ele>
        <time>2021-05-22T12:46:27Z</time>
      </trkpt>
      <trkpt lat="46.96773" lon="4.68907">
        <ele>415.87094116211</ele>
        <time>2021-05-22T12:46:31Z</time>
      </trkpt>
      <trkpt lat="46.96765" lon="4.689">
        <ele>417.87057495117</ele>
        <time>2021-05-22T12:46:35Z</time>
      </trkpt>
      <trkpt lat="46.96754" lon="4.6889">
        <ele>418.87014770508</ele>
        <time>2021-05-22T12:46:40Z</time>
      </trkpt>
      <trkpt lat="46.96745" lon="4.68882">
        <ele>418.86981201172</ele>
        <time>2021-05-22T12:46:44Z</time>
      </trkpt>
      <trkpt lat="46.96735" lon="4.68869">
        <ele>419.8694152832</ele>
        <time>2021-05-22T12:46:49Z</time>
      </trkpt>
      <trkpt lat="46.96728" lon="4.68858">
        <ele>419.86911010742</ele>
        <time>2021-05-22T12:46:53Z</time>
      </trkpt>
      <trkpt lat="46.96717" lon="4.68847">
        <ele>421.86868286133</ele>
        <time>2021-05-22T12:46:58Z</time>
      </trkpt>
      <trkpt lat="46.9671" lon="4.68833">
        <ele>421.86840820312</ele>
        <time>2021-05-22T12:47:03Z</time>
      </trkpt>
      <trkpt lat="46.96703" lon="4.68821">
        <ele>422.86813354492</ele>
        <time>2021-05-22T12:47:07Z</time>
      </trkpt>
      <trkpt lat="46.96696" lon="4.6881">
        <ele>423.86782836914</ele>
        <time>2021-05-22T12:47:11Z</time>
      </trkpt>
      <trkpt lat="46.96691" lon="4.68798">
        <ele>424.86761474609</ele>
        <time>2021-05-22T12:47:15Z</time>
      </trkpt>
      <trkpt lat="46.96683" lon="4.68784">
        <ele>424.86734008789</ele>
        <time>2021-05-22T12:47:20Z</time>
      </trkpt>
      <trkpt lat="46.96673" lon="4.68771">
        <ele>423.8669128418</ele>
        <time>2021-05-22T12:47:25Z</time>
      </trkpt>
      <trkpt lat="46.96666" lon="4.68757">
        <ele>425.86660766602</ele>
        <time>2021-05-22T12:47:30Z</time>
      </trkpt>
      <trkpt lat="46.9666" lon="4.68747">
        <ele>426.86639404297</ele>
        <time>2021-05-22T12:47:38Z</time>
      </trkpt>
      <trkpt lat="46.96659" lon="4.68736">
        <ele>429.86636352539</ele>
        <time>2021-05-22T12:47:43Z</time>
      </trkpt>
      <trkpt lat="46.96658" lon="4.68719">
        <ele>428.86633300781</ele>
        <time>2021-05-22T12:47:48Z</time>
      </trkpt>
      <trkpt lat="46.96662" lon="4.68708">
        <ele>428.86645507812</ele>
        <time>2021-05-22T12:47:56Z</time>
      </trkpt>
      <trkpt lat="46.96662" lon="4.68704">
        <ele>428.8664855957</ele>
        <time>2021-05-22T12:47:59Z</time>
      </trkpt>
      <trkpt lat="46.96626" lon="4.68678">
        <ele>433.86502075195</ele>
        <time>2021-05-22T12:48:04Z</time>
      </trkpt>
      <trkpt lat="46.96606" lon="4.68666">
        <ele>434.8642578125</ele>
        <time>2021-05-22T12:48:08Z</time>
      </trkpt>
      <trkpt lat="46.96596" lon="4.68663">
        <ele>434.86383056641</ele>
        <time>2021-05-22T12:48:13Z</time>
      </trkpt>
      <trkpt lat="46.96582" lon="4.6865">
        <ele>431.86328125</ele>
        <time>2021-05-22T12:48:17Z</time>
      </trkpt>
      <trkpt lat="46.96572" lon="4.68641">
        <ele>433.86288452148</ele>
        <time>2021-05-22T12:48:21Z</time>
      </trkpt>
      <trkpt lat="46.9656" lon="4.68629">
        <ele>433.86239624023</ele>
        <time>2021-05-22T12:48:26Z</time>
      </trkpt>
      <trkpt lat="46.9655" lon="4.68621">
        <ele>434.86199951172</ele>
        <time>2021-05-22T12:48:30Z</time>
      </trkpt>
      <trkpt lat="46.96537" lon="4.68611">
        <ele>434.86148071289</ele>
        <time>2021-05-22T12:48:35Z</time>
      </trkpt>
      <trkpt lat="46.96528" lon="4.68603">
        <ele>436.86111450195</ele>
        <time>2021-05-22T12:48:39Z</time>
      </trkpt>
      <trkpt lat="46.96518" lon="4.6859">
        <ele>438.86071777344</ele>
        <time>2021-05-22T12:48:44Z</time>
      </trkpt>
      <trkpt lat="46.9651" lon="4.68579">
        <ele>439.86041259766</ele>
        <time>2021-05-22T12:48:48Z</time>
      </trkpt>
      <trkpt lat="46.96502" lon="4.68569">
        <ele>439.8600769043</ele>
        <time>2021-05-22T12:48:52Z</time>
      </trkpt>
      <trkpt lat="46.96492" lon="4.68564">
        <ele>440.85968017578</ele>
        <time>2021-05-22T12:48:56Z</time>
      </trkpt>
      <trkpt lat="46.96483" lon="4.68552">
        <ele>441.85931396484</ele>
        <time>2021-05-22T12:49:01Z</time>
      </trkpt>
      <trkpt lat="46.96474" lon="4.68542">
        <ele>442.85897827148</ele>
        <time>2021-05-22T12:49:06Z</time>
      </trkpt>
      <trkpt lat="46.96467" lon="4.68537">
        <ele>444.8586730957</ele>
        <time>2021-05-22T12:49:10Z</time>
      </trkpt>
      <trkpt lat="46.9646" lon="4.6853">
        <ele>445.85836791992</ele>
        <time>2021-05-22T12:49:14Z</time>
      </trkpt>
      <trkpt lat="46.9645" lon="4.68524">
        <ele>446.85800170898</ele>
        <time>2021-05-22T12:49:19Z</time>
      </trkpt>
      <trkpt lat="46.96445" lon="4.68516">
        <ele>448.85778808594</ele>
        <time>2021-05-22T12:49:23Z</time>
      </trkpt>
      <trkpt lat="46.96439" lon="4.68506">
        <ele>449.85757446289</ele>
        <time>2021-05-22T12:49:27Z</time>
      </trkpt>
      <trkpt lat="46.96434" lon="4.68496">
        <ele>450.85739135742</ele>
        <time>2021-05-22T12:49:31Z</time>
      </trkpt>
      <trkpt lat="46.96428" lon="4.68485">
        <ele>451.85711669922</ele>
        <time>2021-05-22T12:49:36Z</time>
      </trkpt>
      <trkpt lat="46.96422" lon="4.68475">
        <ele>452.85687255859</ele>
        <time>2021-05-22T12:49:40Z</time>
      </trkpt>
      <trkpt lat="46.96417" lon="4.68469">
        <ele>453.85668945312</ele>
        <time>2021-05-22T12:49:43Z</time>
      </trkpt>
      <trkpt lat="46.96409" lon="4.68458">
        <ele>455.85635375977</ele>
        <time>2021-05-22T12:49:48Z</time>
      </trkpt>
      <trkpt lat="46.96399" lon="4.68451">
        <ele>456.85592651367</ele>
        <time>2021-05-22T12:49:53Z</time>
      </trkpt>
      <trkpt lat="46.96392" lon="4.68442">
        <ele>457.85568237305</ele>
        <time>2021-05-22T12:49:57Z</time>
      </trkpt>
      <trkpt lat="46.96387" lon="4.68437">
        <ele>458.85546875</ele>
        <time>2021-05-22T12:50:00Z</time>
      </trkpt>
      <trkpt lat="46.96379" lon="4.68429">
        <ele>459.85513305664</ele>
        <time>2021-05-22T12:50:05Z</time>
      </trkpt>
      <trkpt lat="46.9637" lon="4.68421">
        <ele>459.85482788086</ele>
        <time>2021-05-22T12:50:10Z</time>
      </trkpt>
      <trkpt lat="46.96365" lon="4.68414">
        <ele>461.85461425781</ele>
        <time>2021-05-22T12:50:14Z</time>
      </trkpt>
      <trkpt lat="46.96358" lon="4.68404">
        <ele>461.85433959961</ele>
        <time>2021-05-22T12:50:19Z</time>
      </trkpt>
      <trkpt lat="46.96353" lon="4.68393">
        <ele>462.85412597656</ele>
        <time>2021-05-22T12:50:24Z</time>
      </trkpt>
      <trkpt lat="46.96349" lon="4.68382">
        <ele>463.85397338867</ele>
        <time>2021-05-22T12:50:28Z</time>
      </trkpt>
      <trkpt lat="46.96346" lon="4.68371">
        <ele>464.85385131836</ele>
        <time>2021-05-22T12:50:32Z</time>
      </trkpt>
      <trkpt lat="46.96342" lon="4.6836">
        <ele>465.85369873047</ele>
        <time>2021-05-22T12:50:36Z</time>
      </trkpt>
      <trkpt lat="46.9634" lon="4.68349">
        <ele>466.85357666016</ele>
        <time>2021-05-22T12:50:40Z</time>
      </trkpt>
      <trkpt lat="46.96338" lon="4.68333">
        <ele>466.853515625</ele>
        <time>2021-05-22T12:50:45Z</time>
      </trkpt>
      <trkpt lat="46.96333" lon="4.68322">
        <ele>468.85333251953</ele>
        <time>2021-05-22T13:01:13Z</time>
      </trkpt>
      <trkpt lat="46.96322" lon="4.68312">
        <ele>468.85287475586</ele>
        <time>2021-05-22T13:01:17Z</time>
      </trkpt>
      <trkpt lat="46.96313" lon="4.68302">
        <ele>468.85250854492</ele>
        <time>2021-05-22T13:01:21Z</time>
      </trkpt>
      <trkpt lat="46.96302" lon="4.68292">
        <ele>469.85211181641</ele>
        <time>2021-05-22T13:01:25Z</time>
      </trkpt>
      <trkpt lat="46.96289" lon="4.68284">
        <ele>471.8515625</ele>
        <time>2021-05-22T13:01:30Z</time>
      </trkpt>
      <trkpt lat="46.96279" lon="4.68282">
        <ele>470.85116577148</ele>
        <time>2021-05-22T13:01:34Z</time>
      </trkpt>
      <trkpt lat="46.96269" lon="4.68277">
        <ele>473.85076904297</ele>
        <time>2021-05-22T13:01:38Z</time>
      </trkpt>
      <trkpt lat="46.9626" lon="4.6827">
        <ele>471.85037231445</ele>
        <time>2021-05-22T13:01:42Z</time>
      </trkpt>
      <trkpt lat="46.96248" lon="4.6826">
        <ele>473.84994506836</ele>
        <time>2021-05-22T13:01:47Z</time>
      </trkpt>
      <trkpt lat="46.96239" lon="4.68254">
        <ele>473.84954833984</ele>
        <time>2021-05-22T13:01:51Z</time>
      </trkpt>
      <trkpt lat="46.96228" lon="4.68249">
        <ele>478.84912109375</ele>
        <time>2021-05-22T13:01:55Z</time>
      </trkpt>
      <trkpt lat="46.96218" lon="4.68238">
        <ele>474.84875488281</ele>
        <time>2021-05-22T13:01:59Z</time>
      </trkpt>
      <trkpt lat="46.96202" lon="4.6823">
        <ele>471.84808349609</ele>
        <time>2021-05-22T13:02:03Z</time>
      </trkpt>
      <trkpt lat="46.96171" lon="4.68212">
        <ele>465.84683227539</ele>
        <time>2021-05-22T13:02:07Z</time>
      </trkpt>
      <trkpt lat="46.96144" lon="4.68205">
        <ele>464.84576416016</ele>
        <time>2021-05-22T13:02:11Z</time>
      </trkpt>
      <trkpt lat="46.96116" lon="4.68208">
        <ele>465.84466552734</ele>
        <time>2021-05-22T13:02:15Z</time>
      </trkpt>
      <trkpt lat="46.96083" lon="4.68223">
        <ele>461.84332275391</ele>
        <time>2021-05-22T13:02:19Z</time>
      </trkpt>
      <trkpt lat="46.96062" lon="4.68238">
        <ele>461.8424987793</ele>
        <time>2021-05-22T13:02:23Z</time>
      </trkpt>
      <trkpt lat="46.9603" lon="4.68248">
        <ele>456.84118652344</ele>
        <time>2021-05-22T13:02:27Z</time>
      </trkpt>
      <trkpt lat="46.95992" lon="4.68229">
        <ele>451.83969116211</ele>
        <time>2021-05-22T13:02:32Z</time>
      </trkpt>
      <trkpt lat="46.9599" lon="4.68188">
        <ele>451.8395690918</ele>
        <time>2021-05-22T13:02:36Z</time>
      </trkpt>
      <trkpt lat="46.95992" lon="4.68148">
        <ele>450.83969116211</ele>
        <time>2021-05-22T13:02:40Z</time>
      </trkpt>
      <trkpt lat="46.95994" lon="4.68119">
        <ele>448.83975219727</ele>
        <time>2021-05-22T13:02:45Z</time>
      </trkpt>
      <trkpt lat="46.95999" lon="4.6811">
        <ele>451.83996582031</ele>
        <time>2021-05-22T13:08:06Z</time>
      </trkpt>
      <trkpt lat="46.96014" lon="4.68105">
        <ele>450.8405456543</ele>
        <time>2021-05-22T13:08:11Z</time>
      </trkpt>
      <trkpt lat="46.96026" lon="4.68092">
        <ele>447.84103393555</ele>
        <time>2021-05-22T13:08:15Z</time>
      </trkpt>
      <trkpt lat="46.96045" lon="4.68067">
        <ele>442.84182739258</ele>
        <time>2021-05-22T13:08:20Z</time>
      </trkpt>
      <trkpt lat="46.9605" lon="4.68043">
        <ele>439.84201049805</ele>
        <time>2021-05-22T13:08:24Z</time>
      </trkpt>
      <trkpt lat="46.96046" lon="4.68033">
        <ele>438.84182739258</ele>
        <time>2021-05-22T13:08:28Z</time>
      </trkpt>
      <trkpt lat="46.96019" lon="4.68032">
        <ele>434.84075927734</ele>
        <time>2021-05-22T13:08:33Z</time>
      </trkpt>
      <trkpt lat="46.95987" lon="4.68028">
        <ele>427.83947753906</ele>
        <time>2021-05-22T13:08:38Z</time>
      </trkpt>
      <trkpt lat="46.95958" lon="4.68017">
        <ele>421.83831787109</ele>
        <time>2021-05-22T13:08:43Z</time>
      </trkpt>
      <trkpt lat="46.95921" lon="4.6799">
        <ele>419.83685302734</ele>
        <time>2021-05-22T13:08:48Z</time>
      </trkpt>
      <trkpt lat="46.9589" lon="4.6797">
        <ele>414.83560180664</ele>
        <time>2021-05-22T13:08:52Z</time>
      </trkpt>
      <trkpt lat="46.95862" lon="4.67951">
        <ele>415.83447265625</ele>
        <time>2021-05-22T13:08:56Z</time>
      </trkpt>
      <trkpt lat="46.95848" lon="4.67929">
        <ele>409.83392333984</ele>
        <time>2021-05-22T13:09:00Z</time>
      </trkpt>
      <trkpt lat="46.9583" lon="4.67909">
        <ele>410.83319091797</ele>
        <time>2021-05-22T13:09:05Z</time>
      </trkpt>
      <trkpt lat="46.95814" lon="4.67886">
        <ele>411.83255004883</ele>
        <time>2021-05-22T13:09:10Z</time>
      </trkpt>
      <trkpt lat="46.95812" lon="4.67873">
        <ele>410.83248901367</ele>
        <time>2021-05-22T13:09:14Z</time>
      </trkpt>
      <trkpt lat="46.95797" lon="4.67844">
        <ele>411.83184814453</ele>
        <time>2021-05-22T13:09:18Z</time>
      </trkpt>
      <trkpt lat="46.95784" lon="4.67818">
        <ele>408.83135986328</ele>
        <time>2021-05-22T13:09:23Z</time>
      </trkpt>
      <trkpt lat="46.95783" lon="4.6778">
        <ele>406.8313293457</ele>
        <time>2021-05-22T13:09:28Z</time>
      </trkpt>
      <trkpt lat="46.95766" lon="4.67757">
        <ele>408.83065795898</ele>
        <time>2021-05-22T13:09:32Z</time>
      </trkpt>
      <trkpt lat="46.95741" lon="4.67734">
        <ele>410.82965087891</ele>
        <time>2021-05-22T13:09:37Z</time>
      </trkpt>
      <trkpt lat="46.95717" lon="4.67706">
        <ele>406.82870483398</ele>
        <time>2021-05-22T13:09:42Z</time>
      </trkpt>
      <trkpt lat="46.95694" lon="4.67692">
        <ele>404.82775878906</ele>
        <time>2021-05-22T13:09:47Z</time>
      </trkpt>
      <trkpt lat="46.95678" lon="4.67678">
        <ele>406.82708740234</ele>
        <time>2021-05-22T13:09:52Z</time>
      </trkpt>
      <trkpt lat="46.95665" lon="4.67668">
        <ele>406.82659912109</ele>
        <time>2021-05-22T13:09:56Z</time>
      </trkpt>
      <trkpt lat="46.95645" lon="4.67652">
        <ele>407.82580566406</ele>
        <time>2021-05-22T13:10:01Z</time>
      </trkpt>
      <trkpt lat="46.95628" lon="4.67636">
        <ele>407.82513427734</ele>
        <time>2021-05-22T13:10:05Z</time>
      </trkpt>
      <trkpt lat="46.95615" lon="4.67622">
        <ele>408.82458496094</ele>
        <time>2021-05-22T13:10:09Z</time>
      </trkpt>
      <trkpt lat="46.95597" lon="4.67598">
        <ele>409.82385253906</ele>
        <time>2021-05-22T13:10:14Z</time>
      </trkpt>
      <trkpt lat="46.95583" lon="4.67583">
        <ele>409.82330322266</ele>
        <time>2021-05-22T13:10:18Z</time>
      </trkpt>
      <trkpt lat="46.95568" lon="4.67568">
        <ele>410.82272338867</ele>
        <time>2021-05-22T13:10:23Z</time>
      </trkpt>
      <trkpt lat="46.95554" lon="4.67551">
        <ele>410.82214355469</ele>
        <time>2021-05-22T13:10:28Z</time>
      </trkpt>
      <trkpt lat="46.95535" lon="4.67535">
        <ele>411.82138061523</ele>
        <time>2021-05-22T13:10:33Z</time>
      </trkpt>
      <trkpt lat="46.95519" lon="4.67539">
        <ele>414.82077026367</ele>
        <time>2021-05-22T13:10:38Z</time>
      </trkpt>
      <trkpt lat="46.95527" lon="4.67569">
        <ele>413.82107543945</ele>
        <time>2021-05-22T13:10:42Z</time>
      </trkpt>
      <trkpt lat="46.95536" lon="4.67607">
        <ele>413.82141113281</ele>
        <time>2021-05-22T13:10:47Z</time>
      </trkpt>
      <trkpt lat="46.95542" lon="4.67646">
        <ele>412.82168579102</ele>
        <time>2021-05-22T13:10:52Z</time>
      </trkpt>
      <trkpt lat="46.95546" lon="4.67677">
        <ele>411.82183837891</ele>
        <time>2021-05-22T13:10:56Z</time>
      </trkpt>
      <trkpt lat="46.95551" lon="4.67705">
        <ele>413.82202148438</ele>
        <time>2021-05-22T13:11:00Z</time>
      </trkpt>
      <trkpt lat="46.95557" lon="4.67734">
        <ele>411.822265625</ele>
        <time>2021-05-22T13:11:04Z</time>
      </trkpt>
      <trkpt lat="46.95563" lon="4.67767">
        <ele>412.82250976562</ele>
        <time>2021-05-22T13:11:09Z</time>
      </trkpt>
      <trkpt lat="46.95567" lon="4.67791">
        <ele>411.82266235352</ele>
        <time>2021-05-22T13:11:13Z</time>
      </trkpt>
      <trkpt lat="46.9557" lon="4.67821">
        <ele>413.82281494141</ele>
        <time>2021-05-22T13:11:18Z</time>
      </trkpt>
      <trkpt lat="46.95572" lon="4.67845">
        <ele>412.82287597656</ele>
        <time>2021-05-22T13:11:22Z</time>
      </trkpt>
      <trkpt lat="46.95573" lon="4.67867">
        <ele>415.82290649414</ele>
        <time>2021-05-22T13:11:26Z</time>
      </trkpt>
      <trkpt lat="46.95573" lon="4.67895">
        <ele>414.82293701172</ele>
        <time>2021-05-22T13:11:31Z</time>
      </trkpt>
      <trkpt lat="46.95573" lon="4.67919">
        <ele>414.82290649414</ele>
        <time>2021-05-22T13:11:36Z</time>
      </trkpt>
      <trkpt lat="46.95571" lon="4.67943">
        <ele>413.82281494141</ele>
        <time>2021-05-22T13:11:41Z</time>
      </trkpt>
      <trkpt lat="46.95556" lon="4.67952">
        <ele>418.82223510742</ele>
        <time>2021-05-22T13:11:46Z</time>
      </trkpt>
      <trkpt lat="46.95547" lon="4.67949">
        <ele>420.82186889648</ele>
        <time>2021-05-22T13:11:50Z</time>
      </trkpt>
      <trkpt lat="46.95537" lon="4.67947">
        <ele>424.82147216797</ele>
        <time>2021-05-22T13:11:55Z</time>
      </trkpt>
      <trkpt lat="46.95529" lon="4.67948">
        <ele>424.82116699219</ele>
        <time>2021-05-22T13:11:59Z</time>
      </trkpt>
      <trkpt lat="46.9552" lon="4.67946">
        <ele>424.82077026367</ele>
        <time>2021-05-22T13:12:04Z</time>
      </trkpt>
      <trkpt lat="46.95511" lon="4.67948">
        <ele>420.82043457031</ele>
        <time>2021-05-22T13:12:08Z</time>
      </trkpt>
      <trkpt lat="46.95504" lon="4.67947">
        <ele>421.82012939453</ele>
        <time>2021-05-22T13:12:12Z</time>
      </trkpt>
      <trkpt lat="46.95496" lon="4.67945">
        <ele>422.81985473633</ele>
        <time>2021-05-22T13:12:16Z</time>
      </trkpt>
      <trkpt lat="46.95494" lon="4.67946">
        <ele>424.81976318359</ele>
        <time>2021-05-22T13:12:18Z</time>
      </trkpt>
      <trkpt lat="46.95434" lon="4.6794">
        <ele>434.8173828125</ele>
        <time>2021-05-22T13:12:50Z</time>
      </trkpt>
      <trkpt lat="46.95427" lon="4.67934">
        <ele>435.81707763672</ele>
        <time>2021-05-22T13:12:54Z</time>
      </trkpt>
      <trkpt lat="46.95417" lon="4.67929">
        <ele>437.81665039062</ele>
        <time>2021-05-22T13:12:59Z</time>
      </trkpt>
      <trkpt lat="46.95407" lon="4.67928">
        <ele>437.81628417969</ele>
        <time>2021-05-22T13:13:03Z</time>
      </trkpt>
      <trkpt lat="46.95397" lon="4.67927">
        <ele>441.81588745117</ele>
        <time>2021-05-22T13:13:07Z</time>
      </trkpt>
      <trkpt lat="46.95389" lon="4.67925">
        <ele>443.81555175781</ele>
        <time>2021-05-22T13:13:11Z</time>
      </trkpt>
      <trkpt lat="46.9538" lon="4.67926">
        <ele>444.81518554688</ele>
        <time>2021-05-22T13:13:15Z</time>
      </trkpt>
      <trkpt lat="46.95371" lon="4.67926">
        <ele>445.81481933594</ele>
        <time>2021-05-22T13:13:19Z</time>
      </trkpt>
      <trkpt lat="46.95361" lon="4.67925">
        <ele>446.81442260742</ele>
        <time>2021-05-22T13:13:23Z</time>
      </trkpt>
      <trkpt lat="46.95349" lon="4.67925">
        <ele>448.81396484375</ele>
        <time>2021-05-22T13:13:28Z</time>
      </trkpt>
      <trkpt lat="46.95338" lon="4.67923">
        <ele>449.81353759766</ele>
        <time>2021-05-22T13:13:33Z</time>
      </trkpt>
      <trkpt lat="46.9533" lon="4.6792">
        <ele>451.81323242188</ele>
        <time>2021-05-22T13:13:37Z</time>
      </trkpt>
      <trkpt lat="46.95321" lon="4.67918">
        <ele>452.81283569336</ele>
        <time>2021-05-22T13:13:41Z</time>
      </trkpt>
      <trkpt lat="46.95312" lon="4.67915">
        <ele>455.8125</ele>
        <time>2021-05-22T13:13:45Z</time>
      </trkpt>
      <trkpt lat="46.95301" lon="4.67912">
        <ele>455.81201171875</ele>
        <time>2021-05-22T13:13:50Z</time>
      </trkpt>
      <trkpt lat="46.9529" lon="4.6791">
        <ele>457.81161499023</ele>
        <time>2021-05-22T13:13:54Z</time>
      </trkpt>
      <trkpt lat="46.95278" lon="4.67909">
        <ele>458.81109619141</ele>
        <time>2021-05-22T13:13:59Z</time>
      </trkpt>
      <trkpt lat="46.95267" lon="4.67908">
        <ele>457.81066894531</ele>
        <time>2021-05-22T13:14:03Z</time>
      </trkpt>
      <trkpt lat="46.95255" lon="4.67903">
        <ele>460.81018066406</ele>
        <time>2021-05-22T13:14:08Z</time>
      </trkpt>
      <trkpt lat="46.95242" lon="4.67901">
        <ele>462.80966186523</ele>
        <time>2021-05-22T13:14:13Z</time>
      </trkpt>
      <trkpt lat="46.95232" lon="4.679">
        <ele>463.8092956543</ele>
        <time>2021-05-22T13:14:17Z</time>
      </trkpt>
      <trkpt lat="46.95222" lon="4.67899">
        <ele>465.80889892578</ele>
        <time>2021-05-22T13:14:21Z</time>
      </trkpt>
      <trkpt lat="46.95214" lon="4.67896">
        <ele>465.80856323242</ele>
        <time>2021-05-22T13:14:25Z</time>
      </trkpt>
      <trkpt lat="46.95205" lon="4.6789">
        <ele>466.80819702148</ele>
        <time>2021-05-22T13:14:30Z</time>
      </trkpt>
      <trkpt lat="46.95197" lon="4.67883">
        <ele>465.80786132812</ele>
        <time>2021-05-22T13:14:34Z</time>
      </trkpt>
      <trkpt lat="46.95184" lon="4.67881">
        <ele>466.80737304688</ele>
        <time>2021-05-22T13:14:39Z</time>
      </trkpt>
      <trkpt lat="46.95176" lon="4.67878">
        <ele>467.80700683594</ele>
        <time>2021-05-22T13:14:43Z</time>
      </trkpt>
      <trkpt lat="46.95184" lon="4.67879">
        <ele>466.80737304688</ele>
        <time>2021-05-22T13:18:25Z</time>
      </trkpt>
      <trkpt lat="46.95195" lon="4.67882">
        <ele>468.80776977539</ele>
        <time>2021-05-22T13:18:30Z</time>
      </trkpt>
      <trkpt lat="46.95202" lon="4.67887">
        <ele>467.80810546875</ele>
        <time>2021-05-22T13:18:35Z</time>
      </trkpt>
      <trkpt lat="46.95195" lon="4.67882">
        <ele>467.80780029297</ele>
        <time>2021-05-22T13:18:48Z</time>
      </trkpt>
      <trkpt lat="46.95186" lon="4.6788">
        <ele>463.80743408203</ele>
        <time>2021-05-22T13:18:53Z</time>
      </trkpt>
      <trkpt lat="46.95178" lon="4.6788">
        <ele>466.80712890625</ele>
        <time>2021-05-22T13:21:49Z</time>
      </trkpt>
      <trkpt lat="46.9517" lon="4.67876">
        <ele>467.80679321289</ele>
        <time>2021-05-22T13:21:54Z</time>
      </trkpt>
      <trkpt lat="46.95162" lon="4.67871">
        <ele>469.80648803711</ele>
        <time>2021-05-22T13:21:58Z</time>
      </trkpt>
      <trkpt lat="46.9515" lon="4.67864">
        <ele>470.80599975586</ele>
        <time>2021-05-22T13:22:03Z</time>
      </trkpt>
      <trkpt lat="46.95143" lon="4.6786">
        <ele>470.80572509766</ele>
        <time>2021-05-22T13:22:06Z</time>
      </trkpt>
      <trkpt lat="46.95133" lon="4.67854">
        <ele>470.80532836914</ele>
        <time>2021-05-22T13:22:11Z</time>
      </trkpt>
      <trkpt lat="46.95126" lon="4.67849">
        <ele>468.80505371094</ele>
        <time>2021-05-22T13:22:15Z</time>
      </trkpt>
      <trkpt lat="46.95118" lon="4.67846">
        <ele>469.80471801758</ele>
        <time>2021-05-22T13:22:19Z</time>
      </trkpt>
      <trkpt lat="46.9511" lon="4.67849">
        <ele>467.80438232422</ele>
        <time>2021-05-22T13:22:23Z</time>
      </trkpt>
      <trkpt lat="46.95101" lon="4.67855">
        <ele>467.80401611328</ele>
        <time>2021-05-22T13:22:27Z</time>
      </trkpt>
      <trkpt lat="46.95088" lon="4.67865">
        <ele>467.80352783203</ele>
        <time>2021-05-22T13:22:32Z</time>
      </trkpt>
      <trkpt lat="46.95074" lon="4.67869">
        <ele>468.80297851562</ele>
        <time>2021-05-22T13:22:37Z</time>
      </trkpt>
      <trkpt lat="46.95063" lon="4.67871">
        <ele>467.80252075195</ele>
        <time>2021-05-22T13:22:41Z</time>
      </trkpt>
      <trkpt lat="46.95052" lon="4.67874">
        <ele>468.80206298828</ele>
        <time>2021-05-22T13:22:45Z</time>
      </trkpt>
      <trkpt lat="46.95041" lon="4.67874">
        <ele>469.80163574219</ele>
        <time>2021-05-22T13:22:49Z</time>
      </trkpt>
      <trkpt lat="46.95029" lon="4.6787">
        <ele>468.80117797852</ele>
        <time>2021-05-22T13:22:53Z</time>
      </trkpt>
      <trkpt lat="46.95015" lon="4.67867">
        <ele>469.80059814453</ele>
        <time>2021-05-22T13:22:58Z</time>
      </trkpt>
      <trkpt lat="46.95003" lon="4.67865">
        <ele>469.80010986328</ele>
        <time>2021-05-22T13:23:02Z</time>
      </trkpt>
      <trkpt lat="46.9499" lon="4.67862">
        <ele>470.79959106445</ele>
        <time>2021-05-22T13:23:06Z</time>
      </trkpt>
      <trkpt lat="46.94978" lon="4.67859">
        <ele>470.7991027832</ele>
        <time>2021-05-22T13:23:10Z</time>
      </trkpt>
      <trkpt lat="46.94965" lon="4.67855">
        <ele>470.79861450195</ele>
        <time>2021-05-22T13:23:14Z</time>
      </trkpt>
      <trkpt lat="46.9495" lon="4.6785">
        <ele>470.79800415039</ele>
        <time>2021-05-22T13:23:19Z</time>
      </trkpt>
      <trkpt lat="46.94938" lon="4.67846">
        <ele>471.79748535156</ele>
        <time>2021-05-22T13:23:23Z</time>
      </trkpt>
      <trkpt lat="46.94921" lon="4.6784">
        <ele>471.79684448242</ele>
        <time>2021-05-22T13:23:28Z</time>
      </trkpt>
      <trkpt lat="46.94906" lon="4.67835">
        <ele>472.79623413086</ele>
        <time>2021-05-22T13:23:33Z</time>
      </trkpt>
      <trkpt lat="46.94894" lon="4.6783">
        <ele>472.79577636719</ele>
        <time>2021-05-22T13:23:37Z</time>
      </trkpt>
      <trkpt lat="46.94882" lon="4.67826">
        <ele>473.79525756836</ele>
        <time>2021-05-22T13:23:41Z</time>
      </trkpt>
      <trkpt lat="46.9487" lon="4.67821">
        <ele>473.79479980469</ele>
        <time>2021-05-22T13:23:45Z</time>
      </trkpt>
      <trkpt lat="46.94858" lon="4.67814">
        <ele>473.79434204102</ele>
        <time>2021-05-22T13:23:49Z</time>
      </trkpt>
      <trkpt lat="46.9485" lon="4.67809">
        <ele>474.79400634766</ele>
        <time>2021-05-22T13:23:52Z</time>
      </trkpt>
      <trkpt lat="46.94836" lon="4.678">
        <ele>473.79342651367</ele>
        <time>2021-05-22T13:23:57Z</time>
      </trkpt>
      <trkpt lat="46.94822" lon="4.67794">
        <ele>474.79284667969</ele>
        <time>2021-05-22T13:24:02Z</time>
      </trkpt>
      <trkpt lat="46.94808" lon="4.67791">
        <ele>475.79229736328</ele>
        <time>2021-05-22T13:24:07Z</time>
      </trkpt>
      <trkpt lat="46.94801" lon="4.67794">
        <ele>472.79205322266</ele>
        <time>2021-05-22T13:24:38Z</time>
      </trkpt>
      <trkpt lat="46.94782" lon="4.67789">
        <ele>476.7912902832</ele>
        <time>2021-05-22T13:24:42Z</time>
      </trkpt>
      <trkpt lat="46.9477" lon="4.67778">
        <ele>476.79077148438</ele>
        <time>2021-05-22T13:24:47Z</time>
      </trkpt>
      <trkpt lat="46.94757" lon="4.67768">
        <ele>476.79028320312</ele>
        <time>2021-05-22T13:24:51Z</time>
      </trkpt>
      <trkpt lat="46.9474" lon="4.67754">
        <ele>476.78958129883</ele>
        <time>2021-05-22T13:24:55Z</time>
      </trkpt>
      <trkpt lat="46.94724" lon="4.67742">
        <ele>475.78894042969</ele>
        <time>2021-05-22T13:24:58Z</time>
      </trkpt>
      <trkpt lat="46.94684" lon="4.67722">
        <ele>468.78735351562</ele>
        <time>2021-05-22T13:25:07Z</time>
      </trkpt>
      <trkpt lat="46.94664" lon="4.67718">
        <ele>469.78656005859</ele>
        <time>2021-05-22T13:25:11Z</time>
      </trkpt>
      <trkpt lat="46.9464" lon="4.67711">
        <ele>471.78558349609</ele>
        <time>2021-05-22T13:25:16Z</time>
      </trkpt>
      <trkpt lat="46.94618" lon="4.67703">
        <ele>475.78472900391</ele>
        <time>2021-05-22T13:25:20Z</time>
      </trkpt>
      <trkpt lat="46.94589" lon="4.677">
        <ele>474.78353881836</ele>
        <time>2021-05-22T13:25:25Z</time>
      </trkpt>
      <trkpt lat="46.94558" lon="4.67688">
        <ele>472.78231811523</ele>
        <time>2021-05-22T13:25:30Z</time>
      </trkpt>
      <trkpt lat="46.9453" lon="4.67669">
        <ele>472.78121948242</ele>
        <time>2021-05-22T13:25:35Z</time>
      </trkpt>
      <trkpt lat="46.94509" lon="4.67653">
        <ele>474.78036499023</ele>
        <time>2021-05-22T13:25:39Z</time>
      </trkpt>
      <trkpt lat="46.94481" lon="4.67634">
        <ele>472.77926635742</ele>
        <time>2021-05-22T13:25:44Z</time>
      </trkpt>
      <trkpt lat="46.94452" lon="4.67619">
        <ele>474.77807617188</ele>
        <time>2021-05-22T13:25:49Z</time>
      </trkpt>
      <trkpt lat="46.94441" lon="4.67613">
        <ele>474.77764892578</ele>
        <time>2021-05-22T13:25:53Z</time>
      </trkpt>
      <trkpt lat="46.94435" lon="4.67616">
        <ele>474.77740478516</ele>
        <time>2021-05-22T13:26:27Z</time>
      </trkpt>
      <trkpt lat="46.94424" lon="4.67618">
        <ele>473.77697753906</ele>
        <time>2021-05-22T13:26:31Z</time>
      </trkpt>
      <trkpt lat="46.94404" lon="4.67634">
        <ele>472.77618408203</ele>
        <time>2021-05-22T13:26:36Z</time>
      </trkpt>
      <trkpt lat="46.9437" lon="4.6763">
        <ele>466.77481079102</ele>
        <time>2021-05-22T13:26:41Z</time>
      </trkpt>
      <trkpt lat="46.94339" lon="4.67637">
        <ele>462.77355957031</ele>
        <time>2021-05-22T13:26:45Z</time>
      </trkpt>
      <trkpt lat="46.9431" lon="4.67643">
        <ele>462.77236938477</ele>
        <time>2021-05-22T13:26:49Z</time>
      </trkpt>
      <trkpt lat="46.94284" lon="4.67628">
        <ele>462.77139282227</ele>
        <time>2021-05-22T13:26:53Z</time>
      </trkpt>
      <trkpt lat="46.94265" lon="4.67615">
        <ele>462.77062988281</ele>
        <time>2021-05-22T13:26:57Z</time>
      </trkpt>
      <trkpt lat="46.94246" lon="4.67599">
        <ele>461.7698059082</ele>
        <time>2021-05-22T13:27:01Z</time>
      </trkpt>
      <trkpt lat="46.94225" lon="4.67583">
        <ele>461.76898193359</ele>
        <time>2021-05-22T13:27:05Z</time>
      </trkpt>
      <trkpt lat="46.94204" lon="4.67564">
        <ele>461.76815795898</ele>
        <time>2021-05-22T13:27:09Z</time>
      </trkpt>
      <trkpt lat="46.94178" lon="4.67541">
        <ele>460.76708984375</ele>
        <time>2021-05-22T13:27:14Z</time>
      </trkpt>
      <trkpt lat="46.94152" lon="4.67516">
        <ele>460.76608276367</ele>
        <time>2021-05-22T13:27:19Z</time>
      </trkpt>
      <trkpt lat="46.94133" lon="4.67495">
        <ele>459.76531982422</ele>
        <time>2021-05-22T13:27:23Z</time>
      </trkpt>
      <trkpt lat="46.9411" lon="4.67469">
        <ele>459.76440429688</ele>
        <time>2021-05-22T13:27:28Z</time>
      </trkpt>
      <trkpt lat="46.94087" lon="4.67443">
        <ele>458.76345825195</ele>
        <time>2021-05-22T13:27:33Z</time>
      </trkpt>
      <trkpt lat="46.94069" lon="4.67423">
        <ele>457.76278686523</ele>
        <time>2021-05-22T13:27:37Z</time>
      </trkpt>
      <trkpt lat="46.94044" lon="4.67404">
        <ele>455.76177978516</ele>
        <time>2021-05-22T13:27:42Z</time>
      </trkpt>
      <trkpt lat="46.94014" lon="4.67385">
        <ele>453.76055908203</ele>
        <time>2021-05-22T13:27:47Z</time>
      </trkpt>
      <trkpt lat="46.93985" lon="4.67374">
        <ele>451.75942993164</ele>
        <time>2021-05-22T13:27:51Z</time>
      </trkpt>
      <trkpt lat="46.93953" lon="4.67375">
        <ele>449.75811767578</ele>
        <time>2021-05-22T13:27:55Z</time>
      </trkpt>
      <trkpt lat="46.93919" lon="4.6737">
        <ele>446.75674438477</ele>
        <time>2021-05-22T13:27:59Z</time>
      </trkpt>
      <trkpt lat="46.9388" lon="4.67347">
        <ele>444.75521850586</ele>
        <time>2021-05-22T13:28:04Z</time>
      </trkpt>
      <trkpt lat="46.93864" lon="4.67312">
        <ele>445.75457763672</ele>
        <time>2021-05-22T13:28:08Z</time>
      </trkpt>
      <trkpt lat="46.93857" lon="4.6728">
        <ele>444.75427246094</ele>
        <time>2021-05-22T13:28:12Z</time>
      </trkpt>
      <trkpt lat="46.93853" lon="4.6725">
        <ele>444.75411987305</ele>
        <time>2021-05-22T13:28:17Z</time>
      </trkpt>
      <trkpt lat="46.93849" lon="4.67242">
        <ele>446.75396728516</ele>
        <time>2021-05-22T13:28:42Z</time>
      </trkpt>
      <trkpt lat="46.93835" lon="4.67231">
        <ele>441.75338745117</ele>
        <time>2021-05-22T13:28:46Z</time>
      </trkpt>
      <trkpt lat="46.93816" lon="4.67214">
        <ele>440.75262451172</ele>
        <time>2021-05-22T13:28:51Z</time>
      </trkpt>
      <trkpt lat="46.9379" lon="4.67197">
        <ele>435.75161743164</ele>
        <time>2021-05-22T13:28:55Z</time>
      </trkpt>
      <trkpt lat="46.93768" lon="4.67176">
        <ele>435.75073242188</ele>
        <time>2021-05-22T13:28:59Z</time>
      </trkpt>
      <trkpt lat="46.93747" lon="4.6714">
        <ele>434.74987792969</ele>
        <time>2021-05-22T13:29:03Z</time>
      </trkpt>
      <trkpt lat="46.93724" lon="4.67094">
        <ele>433.74893188477</ele>
        <time>2021-05-22T13:29:07Z</time>
      </trkpt>
      <trkpt lat="46.93694" lon="4.67045">
        <ele>433.7477722168</ele>
        <time>2021-05-22T13:29:12Z</time>
      </trkpt>
      <trkpt lat="46.93668" lon="4.6698">
        <ele>431.74673461914</ele>
        <time>2021-05-22T13:29:17Z</time>
      </trkpt>
      <trkpt lat="46.93641" lon="4.66934">
        <ele>432.74563598633</ele>
        <time>2021-05-22T13:29:21Z</time>
      </trkpt>
      <trkpt lat="46.93605" lon="4.66908">
        <ele>426.74420166016</ele>
        <time>2021-05-22T13:29:25Z</time>
      </trkpt>
      <trkpt lat="46.93567" lon="4.66908">
        <ele>421.74267578125</ele>
        <time>2021-05-22T13:29:29Z</time>
      </trkpt>
      <trkpt lat="46.93545" lon="4.66904">
        <ele>421.74182128906</ele>
        <time>2021-05-22T13:29:34Z</time>
      </trkpt>
      <trkpt lat="46.93529" lon="4.66907">
        <ele>419.74114990234</ele>
        <time>2021-05-22T13:29:38Z</time>
      </trkpt>
      <trkpt lat="46.93512" lon="4.66902">
        <ele>413.74047851562</ele>
        <time>2021-05-22T13:29:42Z</time>
      </trkpt>
      <trkpt lat="46.93498" lon="4.669">
        <ele>411.73989868164</ele>
        <time>2021-05-22T13:29:46Z</time>
      </trkpt>
      <trkpt lat="46.93486" lon="4.66897">
        <ele>413.73941040039</ele>
        <time>2021-05-22T13:29:50Z</time>
      </trkpt>
      <trkpt lat="46.93475" lon="4.66892">
        <ele>415.73901367188</ele>
        <time>2021-05-22T13:29:55Z</time>
      </trkpt>
      <trkpt lat="46.93467" lon="4.66882">
        <ele>413.73870849609</ele>
        <time>2021-05-22T13:30:00Z</time>
      </trkpt>
      <trkpt lat="46.9346" lon="4.66872">
        <ele>412.73843383789</ele>
        <time>2021-05-22T13:30:04Z</time>
      </trkpt>
      <trkpt lat="46.93451" lon="4.66863">
        <ele>413.73806762695</ele>
        <time>2021-05-22T13:30:08Z</time>
      </trkpt>
      <trkpt lat="46.93439" lon="4.6685">
        <ele>415.73754882812</ele>
        <time>2021-05-22T13:30:13Z</time>
      </trkpt>
      <trkpt lat="46.93429" lon="4.66841">
        <ele>415.73715209961</ele>
        <time>2021-05-22T13:30:17Z</time>
      </trkpt>
      <trkpt lat="46.9342" lon="4.66832">
        <ele>415.73678588867</ele>
        <time>2021-05-22T13:30:21Z</time>
      </trkpt>
      <trkpt lat="46.93408" lon="4.66821">
        <ele>416.73629760742</ele>
        <time>2021-05-22T13:30:26Z</time>
      </trkpt>
      <trkpt lat="46.93397" lon="4.66813">
        <ele>411.73587036133</ele>
        <time>2021-05-22T13:30:31Z</time>
      </trkpt>
      <trkpt lat="46.9339" lon="4.66805">
        <ele>412.73559570312</ele>
        <time>2021-05-22T13:30:35Z</time>
      </trkpt>
      <trkpt lat="46.93379" lon="4.66797">
        <ele>413.73516845703</ele>
        <time>2021-05-22T13:30:40Z</time>
      </trkpt>
      <trkpt lat="46.93371" lon="4.66789">
        <ele>416.73486328125</ele>
        <time>2021-05-22T13:30:44Z</time>
      </trkpt>
      <trkpt lat="46.93362" lon="4.6678">
        <ele>416.73446655273</ele>
        <time>2021-05-22T13:30:48Z</time>
      </trkpt>
      <trkpt lat="46.93352" lon="4.66771">
        <ele>417.73406982422</ele>
        <time>2021-05-22T13:30:52Z</time>
      </trkpt>
      <trkpt lat="46.93344" lon="4.66761">
        <ele>419.73373413086</ele>
        <time>2021-05-22T13:30:56Z</time>
      </trkpt>
      <trkpt lat="46.93336" lon="4.6675">
        <ele>418.73345947266</ele>
        <time>2021-05-22T13:31:00Z</time>
      </trkpt>
      <trkpt lat="46.9333" lon="4.66737">
        <ele>419.73318481445</ele>
        <time>2021-05-22T13:31:04Z</time>
      </trkpt>
      <trkpt lat="46.93325" lon="4.66726">
        <ele>420.73303222656</ele>
        <time>2021-05-22T13:31:08Z</time>
      </trkpt>
      <trkpt lat="46.93319" lon="4.66717">
        <ele>421.73278808594</ele>
        <time>2021-05-22T13:31:13Z</time>
      </trkpt>
      <trkpt lat="46.93312" lon="4.66706">
        <ele>421.73251342773</ele>
        <time>2021-05-22T13:31:17Z</time>
      </trkpt>
      <trkpt lat="46.93306" lon="4.66692">
        <ele>422.73220825195</ele>
        <time>2021-05-22T13:31:21Z</time>
      </trkpt>
      <trkpt lat="46.93297" lon="4.66678">
        <ele>423.73187255859</ele>
        <time>2021-05-22T13:31:25Z</time>
      </trkpt>
      <trkpt lat="46.93285" lon="4.66662">
        <ele>425.73141479492</ele>
        <time>2021-05-22T13:31:29Z</time>
      </trkpt>
      <trkpt lat="46.93276" lon="4.66648">
        <ele>426.73104858398</ele>
        <time>2021-05-22T13:31:33Z</time>
      </trkpt>
      <trkpt lat="46.93267" lon="4.66635">
        <ele>427.73068237305</ele>
        <time>2021-05-22T13:31:37Z</time>
      </trkpt>
      <trkpt lat="46.93256" lon="4.66623">
        <ele>429.73022460938</ele>
        <time>2021-05-22T13:31:42Z</time>
      </trkpt>
      <trkpt lat="46.93245" lon="4.66617">
        <ele>432.72979736328</ele>
        <time>2021-05-22T13:31:46Z</time>
      </trkpt>
      <trkpt lat="46.93231" lon="4.66618">
        <ele>435.72924804688</ele>
        <time>2021-05-22T13:31:51Z</time>
      </trkpt>
      <trkpt lat="46.93221" lon="4.66614">
        <ele>435.72885131836</ele>
        <time>2021-05-22T13:31:55Z</time>
      </trkpt>
      <trkpt lat="46.93214" lon="4.66605">
        <ele>436.72857666016</ele>
        <time>2021-05-22T13:31:59Z</time>
      </trkpt>
      <trkpt lat="46.93219" lon="4.66613">
        <ele>441.72875976562</ele>
        <time>2021-05-22T13:33:29Z</time>
      </trkpt>
      <trkpt lat="46.93224" lon="4.66623">
        <ele>439.72897338867</ele>
        <time>2021-05-22T13:33:34Z</time>
      </trkpt>
      <trkpt lat="46.9322" lon="4.66611">
        <ele>439.7287902832</ele>
        <time>2021-05-22T13:33:43Z</time>
      </trkpt>
      <trkpt lat="46.93214" lon="4.66604">
        <ele>441.72857666016</ele>
        <time>2021-05-22T13:33:48Z</time>
      </trkpt>
      <trkpt lat="46.9321" lon="4.66593">
        <ele>441.72839355469</ele>
        <time>2021-05-22T13:33:52Z</time>
      </trkpt>
      <trkpt lat="46.93207" lon="4.66581">
        <ele>442.72827148438</ele>
        <time>2021-05-22T13:33:57Z</time>
      </trkpt>
      <trkpt lat="46.93211" lon="4.66562">
        <ele>441.72842407227</ele>
        <time>2021-05-22T13:34:02Z</time>
      </trkpt>
      <trkpt lat="46.93217" lon="4.66552">
        <ele>439.72866821289</ele>
        <time>2021-05-22T13:34:06Z</time>
      </trkpt>
      <trkpt lat="46.93219" lon="4.66541">
        <ele>439.72875976562</ele>
        <time>2021-05-22T13:34:25Z</time>
      </trkpt>
      <trkpt lat="46.9321" lon="4.66536">
        <ele>440.72842407227</ele>
        <time>2021-05-22T13:34:30Z</time>
      </trkpt>
      <trkpt lat="46.93195" lon="4.66531">
        <ele>440.7278137207</ele>
        <time>2021-05-22T13:34:35Z</time>
      </trkpt>
      <trkpt lat="46.93182" lon="4.66527">
        <ele>442.72729492188</ele>
        <time>2021-05-22T13:34:39Z</time>
      </trkpt>
      <trkpt lat="46.9317" lon="4.66525">
        <ele>443.72677612305</ele>
        <time>2021-05-22T13:34:43Z</time>
      </trkpt>
      <trkpt lat="46.93155" lon="4.66522">
        <ele>443.72619628906</ele>
        <time>2021-05-22T13:34:48Z</time>
      </trkpt>
      <trkpt lat="46.9314" lon="4.66519">
        <ele>445.7255859375</ele>
        <time>2021-05-22T13:34:53Z</time>
      </trkpt>
      <trkpt lat="46.93128" lon="4.66517">
        <ele>445.72512817383</ele>
        <time>2021-05-22T13:34:57Z</time>
      </trkpt>
      <trkpt lat="46.93116" lon="4.66515">
        <ele>446.72463989258</ele>
        <time>2021-05-22T13:35:01Z</time>
      </trkpt>
      <trkpt lat="46.93104" lon="4.66513">
        <ele>446.72415161133</ele>
        <time>2021-05-22T13:35:05Z</time>
      </trkpt>
      <trkpt lat="46.93092" lon="4.66511">
        <ele>447.72366333008</ele>
        <time>2021-05-22T13:35:09Z</time>
      </trkpt>
      <trkpt lat="46.93079" lon="4.66508">
        <ele>449.72317504883</ele>
        <time>2021-05-22T13:35:13Z</time>
      </trkpt>
      <trkpt lat="46.93066" lon="4.66506">
        <ele>452.72262573242</ele>
        <time>2021-05-22T13:35:17Z</time>
      </trkpt>
      <trkpt lat="46.93053" lon="4.66504">
        <ele>453.72213745117</ele>
        <time>2021-05-22T13:35:21Z</time>
      </trkpt>
      <trkpt lat="46.9304" lon="4.66502">
        <ele>454.72158813477</ele>
        <time>2021-05-22T13:35:25Z</time>
      </trkpt>
      <trkpt lat="46.93027" lon="4.665">
        <ele>455.72106933594</ele>
        <time>2021-05-22T13:35:29Z</time>
      </trkpt>
      <trkpt lat="46.9301" lon="4.66499">
        <ele>458.7204284668</ele>
        <time>2021-05-22T13:35:34Z</time>
      </trkpt>
      <trkpt lat="46.92995" lon="4.66501">
        <ele>458.71978759766</ele>
        <time>2021-05-22T13:35:39Z</time>
      </trkpt>
      <trkpt lat="46.92982" lon="4.66505">
        <ele>459.71926879883</ele>
        <time>2021-05-22T13:35:43Z</time>
      </trkpt>
      <trkpt lat="46.92969" lon="4.66511">
        <ele>459.71875</ele>
        <time>2021-05-22T13:35:47Z</time>
      </trkpt>
      <trkpt lat="46.92956" lon="4.66519">
        <ele>460.71823120117</ele>
        <time>2021-05-22T13:35:51Z</time>
      </trkpt>
      <trkpt lat="46.92943" lon="4.66525">
        <ele>460.71771240234</ele>
        <time>2021-05-22T13:35:55Z</time>
      </trkpt>
      <trkpt lat="46.92932" lon="4.66525">
        <ele>461.71725463867</ele>
        <time>2021-05-22T13:35:59Z</time>
      </trkpt>
      <trkpt lat="46.92934" lon="4.66514">
        <ele>456.71737670898</ele>
        <time>2021-05-22T13:38:19Z</time>
      </trkpt>
      <trkpt lat="46.9294" lon="4.66504">
        <ele>455.71759033203</ele>
        <time>2021-05-22T13:38:24Z</time>
      </trkpt>
      <trkpt lat="46.92945" lon="4.66495">
        <ele>453.71780395508</ele>
        <time>2021-05-22T13:38:28Z</time>
      </trkpt>
      <trkpt lat="46.92951" lon="4.66487">
        <ele>453.71801757812</ele>
        <time>2021-05-22T13:38:32Z</time>
      </trkpt>
      <trkpt lat="46.92957" lon="4.6648">
        <ele>454.71829223633</ele>
        <time>2021-05-22T13:38:36Z</time>
      </trkpt>
      <trkpt lat="46.92962" lon="4.66474">
        <ele>453.7184753418</ele>
        <time>2021-05-22T13:38:39Z</time>
      </trkpt>
      <trkpt lat="46.92973" lon="4.6646">
        <ele>454.71890258789</ele>
        <time>2021-05-22T13:38:44Z</time>
      </trkpt>
      <trkpt lat="46.9298" lon="4.66451">
        <ele>455.71920776367</ele>
        <time>2021-05-22T13:38:48Z</time>
      </trkpt>
      <trkpt lat="46.92989" lon="4.66445">
        <ele>454.71954345703</ele>
        <time>2021-05-22T13:38:52Z</time>
      </trkpt>
      <trkpt lat="46.93003" lon="4.66436">
        <ele>453.72012329102</ele>
        <time>2021-05-22T13:38:57Z</time>
      </trkpt>
      <trkpt lat="46.93023" lon="4.66425">
        <ele>452.72091674805</ele>
        <time>2021-05-22T13:39:02Z</time>
      </trkpt>
      <trkpt lat="46.93038" lon="4.66413">
        <ele>451.72152709961</ele>
        <time>2021-05-22T13:39:06Z</time>
      </trkpt>
      <trkpt lat="46.93055" lon="4.664">
        <ele>452.72219848633</ele>
        <time>2021-05-22T13:39:10Z</time>
      </trkpt>
      <trkpt lat="46.93074" lon="4.66381">
        <ele>450.7229309082</ele>
        <time>2021-05-22T13:39:15Z</time>
      </trkpt>
      <trkpt lat="46.93089" lon="4.66366">
        <ele>452.72354125977</ele>
        <time>2021-05-22T13:39:19Z</time>
      </trkpt>
      <trkpt lat="46.93102" lon="4.6635">
        <ele>453.72409057617</ele>
        <time>2021-05-22T13:39:23Z</time>
      </trkpt>
      <trkpt lat="46.93114" lon="4.66334">
        <ele>454.72457885742</ele>
        <time>2021-05-22T13:39:27Z</time>
      </trkpt>
      <trkpt lat="46.93127" lon="4.66314">
        <ele>455.72509765625</ele>
        <time>2021-05-22T13:39:32Z</time>
      </trkpt>
      <trkpt lat="46.93139" lon="4.66298">
        <ele>457.72555541992</ele>
        <time>2021-05-22T13:39:36Z</time>
      </trkpt>
      <trkpt lat="46.93153" lon="4.6628">
        <ele>457.72610473633</ele>
        <time>2021-05-22T13:39:41Z</time>
      </trkpt>
      <trkpt lat="46.93163" lon="4.66267">
        <ele>458.72653198242</ele>
        <time>2021-05-22T13:39:45Z</time>
      </trkpt>
      <trkpt lat="46.93176" lon="4.66246">
        <ele>457.72702026367</ele>
        <time>2021-05-22T13:39:50Z</time>
      </trkpt>
      <trkpt lat="46.93184" lon="4.66226">
        <ele>457.72735595703</ele>
        <time>2021-05-22T13:39:54Z</time>
      </trkpt>
      <trkpt lat="46.93191" lon="4.66208">
        <ele>457.72763061523</ele>
        <time>2021-05-22T13:39:58Z</time>
      </trkpt>
      <trkpt lat="46.93196" lon="4.66188">
        <ele>457.72784423828</ele>
        <time>2021-05-22T13:40:03Z</time>
      </trkpt>
      <trkpt lat="46.93195" lon="4.66176">
        <ele>457.7278137207</ele>
        <time>2021-05-22T13:40:07Z</time>
      </trkpt>
      <trkpt lat="46.93196" lon="4.66154">
        <ele>457.72784423828</ele>
        <time>2021-05-22T13:40:12Z</time>
      </trkpt>
      <trkpt lat="46.93195" lon="4.66131">
        <ele>457.7278137207</ele>
        <time>2021-05-22T13:40:17Z</time>
      </trkpt>
      <trkpt lat="46.93196" lon="4.6612">
        <ele>460.72784423828</ele>
        <time>2021-05-22T13:41:45Z</time>
      </trkpt>
      <trkpt lat="46.93193" lon="4.66086">
        <ele>454.72772216797</ele>
        <time>2021-05-22T13:41:49Z</time>
      </trkpt>
      <trkpt lat="46.93185" lon="4.66041">
        <ele>450.72741699219</ele>
        <time>2021-05-22T13:41:54Z</time>
      </trkpt>
      <trkpt lat="46.93176" lon="4.66018">
        <ele>446.72702026367</ele>
        <time>2021-05-22T13:41:58Z</time>
      </trkpt>
      <trkpt lat="46.93172" lon="4.66006">
        <ele>446.72689819336</ele>
        <time>2021-05-22T13:42:02Z</time>
      </trkpt>
      <trkpt lat="46.93167" lon="4.65987">
        <ele>442.72668457031</ele>
        <time>2021-05-22T13:42:06Z</time>
      </trkpt>
      <trkpt lat="46.93167" lon="4.65965">
        <ele>438.72668457031</ele>
        <time>2021-05-22T13:42:10Z</time>
      </trkpt>
      <trkpt lat="46.93175" lon="4.65959">
        <ele>436.72698974609</ele>
        <time>2021-05-22T13:42:15Z</time>
      </trkpt>
      <trkpt lat="46.93181" lon="4.65938">
        <ele>432.72723388672</ele>
        <time>2021-05-22T13:42:20Z</time>
      </trkpt>
      <trkpt lat="46.9318" lon="4.65927">
        <ele>429.72720336914</ele>
        <time>2021-05-22T13:42:26Z</time>
      </trkpt>
      <trkpt lat="46.93182" lon="4.65914">
        <ele>425.7272644043</ele>
        <time>2021-05-22T13:42:40Z</time>
      </trkpt>
      <trkpt lat="46.93185" lon="4.65898">
        <ele>425.72741699219</ele>
        <time>2021-05-22T13:42:44Z</time>
      </trkpt>
      <trkpt lat="46.93187" lon="4.65874">
        <ele>422.72747802734</ele>
        <time>2021-05-22T13:42:48Z</time>
      </trkpt>
      <trkpt lat="46.93187" lon="4.6585">
        <ele>421.72747802734</ele>
        <time>2021-05-22T13:42:52Z</time>
      </trkpt>
      <trkpt lat="46.93202" lon="4.65831">
        <ele>419.72808837891</ele>
        <time>2021-05-22T13:42:56Z</time>
      </trkpt>
      <trkpt lat="46.93222" lon="4.6581">
        <ele>419.72888183594</ele>
        <time>2021-05-22T13:43:00Z</time>
      </trkpt>
      <trkpt lat="46.93237" lon="4.65773">
        <ele>419.72946166992</ele>
        <time>2021-05-22T13:43:05Z</time>
      </trkpt>
      <trkpt lat="46.93247" lon="4.65741">
        <ele>416.72988891602</ele>
        <time>2021-05-22T13:43:09Z</time>
      </trkpt>
      <trkpt lat="46.93255" lon="4.65707">
        <ele>413.7301940918</ele>
        <time>2021-05-22T13:43:13Z</time>
      </trkpt>
      <trkpt lat="46.93261" lon="4.65686">
        <ele>412.73043823242</ele>
        <time>2021-05-22T13:43:17Z</time>
      </trkpt>
      <trkpt lat="46.93267" lon="4.65657">
        <ele>411.73065185547</ele>
        <time>2021-05-22T13:43:22Z</time>
      </trkpt>
      <trkpt lat="46.9327" lon="4.65633">
        <ele>405.73080444336</ele>
        <time>2021-05-22T13:43:26Z</time>
      </trkpt>
      <trkpt lat="46.93277" lon="4.65605">
        <ele>401.73107910156</ele>
        <time>2021-05-22T13:43:31Z</time>
      </trkpt>
      <trkpt lat="46.93284" lon="4.65581">
        <ele>400.73135375977</ele>
        <time>2021-05-22T13:43:35Z</time>
      </trkpt>
      <trkpt lat="46.93293" lon="4.65542">
        <ele>397.7317199707</ele>
        <time>2021-05-22T13:43:40Z</time>
      </trkpt>
      <trkpt lat="46.933" lon="4.65508">
        <ele>395.73202514648</ele>
        <time>2021-05-22T13:43:44Z</time>
      </trkpt>
      <trkpt lat="46.93308" lon="4.65479">
        <ele>395.73233032227</ele>
        <time>2021-05-22T13:43:48Z</time>
      </trkpt>
      <trkpt lat="46.93311" lon="4.65463">
        <ele>393.732421875</ele>
        <time>2021-05-22T13:43:52Z</time>
      </trkpt>
      <trkpt lat="46.93315" lon="4.65435">
        <ele>393.73260498047</ele>
        <time>2021-05-22T13:43:57Z</time>
      </trkpt>
      <trkpt lat="46.93319" lon="4.65412">
        <ele>392.73275756836</ele>
        <time>2021-05-22T13:44:01Z</time>
      </trkpt>
      <trkpt lat="46.93315" lon="4.65402">
        <ele>390.73257446289</ele>
        <time>2021-05-22T13:44:16Z</time>
      </trkpt>
      <trkpt lat="46.93307" lon="4.65397">
        <ele>391.73229980469</ele>
        <time>2021-05-22T13:44:20Z</time>
      </trkpt>
      <trkpt lat="46.93294" lon="4.65388">
        <ele>391.73175048828</ele>
        <time>2021-05-22T13:44:25Z</time>
      </trkpt>
      <trkpt lat="46.93282" lon="4.65383">
        <ele>392.73126220703</ele>
        <time>2021-05-22T13:44:29Z</time>
      </trkpt>
      <trkpt lat="46.9327" lon="4.65378">
        <ele>393.73080444336</ele>
        <time>2021-05-22T13:44:33Z</time>
      </trkpt>
      <trkpt lat="46.93259" lon="4.65374">
        <ele>392.73037719727</ele>
        <time>2021-05-22T13:44:37Z</time>
      </trkpt>
      <trkpt lat="46.9325" lon="4.65369">
        <ele>390.72998046875</ele>
        <time>2021-05-22T13:44:41Z</time>
      </trkpt>
      <trkpt lat="46.93243" lon="4.6537">
        <ele>392.79998779297</ele>
        <time>2021-05-22T13:45:04Z</time>
      </trkpt>
      <trkpt lat="46.93224" lon="4.65363">
        <ele>393.20001220703</ele>
        <time>2021-05-22T13:45:15Z</time>
      </trkpt>
      <trkpt lat="46.93205" lon="4.65357">
        <ele>393.79998779297</ele>
        <time>2021-05-22T13:45:24Z</time>
      </trkpt>
      <trkpt lat="46.93198" lon="4.65354">
        <ele>393.60000610352</ele>
        <time>2021-05-22T13:45:31Z</time>
      </trkpt>
      <trkpt lat="46.93198" lon="4.65355">
        <ele>393.60000610352</ele>
        <time>2021-05-22T13:45:58Z</time>
      </trkpt>
      <trkpt lat="46.93198" lon="4.65355">
        <ele>393.60000610352</ele>
        <time>2021-05-22T13:47:05Z</time>
      </trkpt>
      <trkpt lat="46.93198" lon="4.65355">
        <ele>393.60000610352</ele>
        <time>2021-05-22T13:47:06Z</time>
      </trkpt>
      <trkpt lat="46.93198" lon="4.65355">
        <ele>393.60000610352</ele>
        <time>2021-05-22T13:47:07Z</time>
      </trkpt>
      <trkpt lat="46.93198" lon="4.65355">
        <ele>393.60000610352</ele>
        <time>2021-05-22T13:47:08Z</time>
      </trkpt>
      <trkpt lat="46.93198" lon="4.65355">
        <ele>393.60000610352</ele>
        <time>2021-05-22T13:47:10Z</time>
      </trkpt>
      <trkpt lat="46.93198" lon="4.65355">
        <ele>393.60000610352</ele>
        <time>2021-05-22T13:47:11Z</time>
      </trkpt>
      <trkpt lat="46.93198" lon="4.65355">
        <ele>393.60000610352</ele>
        <time>2021-05-22T13:47:31Z</time>
      </trkpt>
      <trkpt lat="46.93198" lon="4.65355">
        <ele>393.60000610352</ele>
        <time>2021-05-22T13:47:34Z</time>
      </trkpt>
      <trkpt lat="46.93198" lon="4.65355">
        <ele>393.60000610352</ele>
        <time>2021-05-22T13:47:37Z</time>
      </trkpt>
      <trkpt lat="46.93198" lon="4.65355">
        <ele>393.60000610352</ele>
        <time>2021-05-22T13:47:40Z</time>
      </trkpt>
      <trkpt lat="46.93198" lon="4.65355">
        <ele>393.60000610352</ele>
        <time>2021-05-22T13:47:44Z</time>
      </trkpt>
      <trkpt lat="46.93198" lon="4.65355">
        <ele>393.60000610352</ele>
        <time>2021-05-22T13:47:49Z</time>
      </trkpt>
      <trkpt lat="46.93198" lon="4.65355">
        <ele>393.60000610352</ele>
        <time>2021-05-22T13:47:56Z</time>
      </trkpt>
      <trkpt lat="46.93198" lon="4.65355">
        <ele>393.60000610352</ele>
        <time>2021-05-22T13:48:00Z</time>
      </trkpt>
      <trkpt lat="46.93198" lon="4.65355">
        <ele>393.60000610352</ele>
        <time>2021-05-22T13:48:09Z</time>
      </trkpt>
      <trkpt lat="46.93198" lon="4.65355">
        <ele>393.60000610352</ele>
        <time>2021-05-22T13:48:10Z</time>
      </trkpt>
      <trkpt lat="46.93198" lon="4.65355">
        <ele>393.60000610352</ele>
        <time>2021-05-22T13:48:14Z</time>
      </trkpt>
      <trkpt lat="46.93198" lon="4.65355">
        <ele>393.60000610352</ele>
        <time>2021-05-22T13:48:15Z</time>
      </trkpt>
      <trkpt lat="46.93198" lon="4.65355">
        <ele>393.60000610352</ele>
        <time>2021-05-22T13:48:16Z</time>
      </trkpt>
      <trkpt lat="46.93198" lon="4.65355">
        <ele>393.60000610352</ele>
        <time>2021-05-22T13:48:17Z</time>
      </trkpt>
      <trkpt lat="46.93198" lon="4.65355">
        <ele>393.60000610352</ele>
        <time>2021-05-22T13:48:45Z</time>
      </trkpt>
      <trkpt lat="46.93198" lon="4.65355">
        <ele>393.60000610352</ele>
        <time>2021-05-22T13:48:49Z</time>
      </trkpt>
      <trkpt lat="46.93198" lon="4.65355">
        <ele>393.60000610352</ele>
        <time>2021-05-22T13:49:08Z</time>
      </trkpt>
      <trkpt lat="46.93199" lon="4.65354">
        <ele>393.60000610352</ele>
        <time>2021-05-22T13:49:33Z</time>
      </trkpt>
      <trkpt lat="46.93208" lon="4.65347">
        <ele>393.20001220703</ele>
        <time>2021-05-22T13:51:01Z</time>
      </trkpt>
      <trkpt lat="46.93212" lon="4.65317">
        <ele>392</ele>
        <time>2021-05-22T13:51:09Z</time>
      </trkpt>
      <trkpt lat="46.93215" lon="4.65289">
        <ele>391.20001220703</ele>
        <time>2021-05-22T13:51:15Z</time>
      </trkpt>
      <trkpt lat="46.93217" lon="4.6526">
        <ele>390.20001220703</ele>
        <time>2021-05-22T13:51:23Z</time>
      </trkpt>
      <trkpt lat="46.93221" lon="4.65231">
        <ele>389.60000610352</ele>
        <time>2021-05-22T13:51:29Z</time>
      </trkpt>
      <trkpt lat="46.93223" lon="4.65216">
        <ele>389.60000610352</ele>
        <time>2021-05-22T13:51:32Z</time>
      </trkpt>
      <trkpt lat="46.93226" lon="4.65186">
        <ele>388.60000610352</ele>
        <time>2021-05-22T13:51:38Z</time>
      </trkpt>
      <trkpt lat="46.9323" lon="4.65156">
        <ele>387.39999389648</ele>
        <time>2021-05-22T13:51:44Z</time>
      </trkpt>
      <trkpt lat="46.93233" lon="4.65126">
        <ele>386.39999389648</ele>
        <time>2021-05-22T13:51:50Z</time>
      </trkpt>
      <trkpt lat="46.93236" lon="4.65098">
        <ele>386</ele>
        <time>2021-05-22T13:51:55Z</time>
      </trkpt>
      <trkpt lat="46.93239" lon="4.65067">
        <ele>386.20001220703</ele>
        <time>2021-05-22T13:52:01Z</time>
      </trkpt>
      <trkpt lat="46.93242" lon="4.65036">
        <ele>385.39999389648</ele>
        <time>2021-05-22T13:52:07Z</time>
      </trkpt>
      <trkpt lat="46.93245" lon="4.65006">
        <ele>384</ele>
        <time>2021-05-22T13:52:13Z</time>
      </trkpt>
      <trkpt lat="46.93247" lon="4.64976">
        <ele>382.60000610352</ele>
        <time>2021-05-22T13:52:19Z</time>
      </trkpt>
      <trkpt lat="46.93249" lon="4.64945">
        <ele>382.39999389648</ele>
        <time>2021-05-22T13:52:25Z</time>
      </trkpt>
      <trkpt lat="46.93251" lon="4.64915">
        <ele>381.39999389648</ele>
        <time>2021-05-22T13:52:31Z</time>
      </trkpt>
      <trkpt lat="46.93252" lon="4.64883">
        <ele>380</ele>
        <time>2021-05-22T13:52:37Z</time>
      </trkpt>
      <trkpt lat="46.93253" lon="4.64856">
        <ele>379.60000610352</ele>
        <time>2021-05-22T13:52:42Z</time>
      </trkpt>
      <trkpt lat="46.93255" lon="4.64829">
        <ele>378.79998779297</ele>
        <time>2021-05-22T13:52:47Z</time>
      </trkpt>
      <trkpt lat="46.93259" lon="4.64799">
        <ele>378.60000610352</ele>
        <time>2021-05-22T13:52:53Z</time>
      </trkpt>
      <trkpt lat="46.93264" lon="4.64769">
        <ele>377</ele>
        <time>2021-05-22T13:52:59Z</time>
      </trkpt>
      <trkpt lat="46.9327" lon="4.6474">
        <ele>376</ele>
        <time>2021-05-22T13:53:05Z</time>
      </trkpt>
      <trkpt lat="46.93276" lon="4.64712">
        <ele>376</ele>
        <time>2021-05-22T13:53:11Z</time>
      </trkpt>
      <trkpt lat="46.93282" lon="4.64686">
        <ele>376.20001220703</ele>
        <time>2021-05-22T13:53:16Z</time>
      </trkpt>
      <trkpt lat="46.93288" lon="4.6466">
        <ele>376.39999389648</ele>
        <time>2021-05-22T13:53:21Z</time>
      </trkpt>
      <trkpt lat="46.93295" lon="4.64634">
        <ele>376.60000610352</ele>
        <time>2021-05-22T13:53:26Z</time>
      </trkpt>
      <trkpt lat="46.93301" lon="4.64608">
        <ele>375.60000610352</ele>
        <time>2021-05-22T13:53:31Z</time>
      </trkpt>
      <trkpt lat="46.93307" lon="4.64583">
        <ele>375</ele>
        <time>2021-05-22T13:53:36Z</time>
      </trkpt>
      <trkpt lat="46.93311" lon="4.64557">
        <ele>373.79998779297</ele>
        <time>2021-05-22T13:53:41Z</time>
      </trkpt>
      <trkpt lat="46.93316" lon="4.64527">
        <ele>372.79998779297</ele>
        <time>2021-05-22T13:53:46Z</time>
      </trkpt>
      <trkpt lat="46.9332" lon="4.645">
        <ele>372</ele>
        <time>2021-05-22T13:53:50Z</time>
      </trkpt>
      <trkpt lat="46.93323" lon="4.64473">
        <ele>371</ele>
        <time>2021-05-22T13:53:54Z</time>
      </trkpt>
      <trkpt lat="46.93326" lon="4.64446">
        <ele>370.39999389648</ele>
        <time>2021-05-22T13:53:58Z</time>
      </trkpt>
      <trkpt lat="46.93328" lon="4.64418">
        <ele>369.79998779297</ele>
        <time>2021-05-22T13:54:02Z</time>
      </trkpt>
      <trkpt lat="46.93331" lon="4.6439">
        <ele>369.39999389648</ele>
        <time>2021-05-22T13:54:06Z</time>
      </trkpt>
      <trkpt lat="46.93332" lon="4.64361">
        <ele>368.79998779297</ele>
        <time>2021-05-22T13:54:10Z</time>
      </trkpt>
      <trkpt lat="46.93333" lon="4.64347">
        <ele>368.39999389648</ele>
        <time>2021-05-22T13:54:12Z</time>
      </trkpt>
      <trkpt lat="46.93333" lon="4.6434">
        <ele>368</ele>
        <time>2021-05-22T13:54:13Z</time>
      </trkpt>
      <trkpt lat="46.93333" lon="4.64326">
        <ele>367.60000610352</ele>
        <time>2021-05-22T13:54:15Z</time>
      </trkpt>
      <trkpt lat="46.93333" lon="4.64319">
        <ele>367.39999389648</ele>
        <time>2021-05-22T13:54:16Z</time>
      </trkpt>
      <trkpt lat="46.93333" lon="4.64306">
        <ele>366.79998779297</ele>
        <time>2021-05-22T13:54:18Z</time>
      </trkpt>
      <trkpt lat="46.93333" lon="4.64275">
        <ele>365.79998779297</ele>
        <time>2021-05-22T13:54:23Z</time>
      </trkpt>
      <trkpt lat="46.93333" lon="4.64249">
        <ele>365.39999389648</ele>
        <time>2021-05-22T13:54:27Z</time>
      </trkpt>
      <trkpt lat="46.93332" lon="4.64218">
        <ele>363.79998779297</ele>
        <time>2021-05-22T13:54:31Z</time>
      </trkpt>
      <trkpt lat="46.93332" lon="4.64196">
        <ele>363</ele>
        <time>2021-05-22T13:54:34Z</time>
      </trkpt>
      <trkpt lat="46.93331" lon="4.64175">
        <ele>362.20001220703</ele>
        <time>2021-05-22T13:54:37Z</time>
      </trkpt>
      <trkpt lat="46.93332" lon="4.64147">
        <ele>360.79998779297</ele>
        <time>2021-05-22T13:54:41Z</time>
      </trkpt>
      <trkpt lat="46.93332" lon="4.64117">
        <ele>359.60000610352</ele>
        <time>2021-05-22T13:54:45Z</time>
      </trkpt>
      <trkpt lat="46.93332" lon="4.64101">
        <ele>358.39999389648</ele>
        <time>2021-05-22T13:54:47Z</time>
      </trkpt>
      <trkpt lat="46.93327" lon="4.64067">
        <ele>357.20001220703</ele>
        <time>2021-05-22T13:54:51Z</time>
      </trkpt>
      <trkpt lat="46.93323" lon="4.64041">
        <ele>357</ele>
        <time>2021-05-22T13:54:54Z</time>
      </trkpt>
      <trkpt lat="46.93319" lon="4.64015">
        <ele>357</ele>
        <time>2021-05-22T13:54:57Z</time>
      </trkpt>
      <trkpt lat="46.93315" lon="4.63988">
        <ele>356.39999389648</ele>
        <time>2021-05-22T13:55:00Z</time>
      </trkpt>
      <trkpt lat="46.93311" lon="4.63955">
        <ele>355</ele>
        <time>2021-05-22T13:55:04Z</time>
      </trkpt>
      <trkpt lat="46.93306" lon="4.63921">
        <ele>354</ele>
        <time>2021-05-22T13:55:08Z</time>
      </trkpt>
      <trkpt lat="46.933" lon="4.63897">
        <ele>353.20001220703</ele>
        <time>2021-05-22T13:55:11Z</time>
      </trkpt>
      <trkpt lat="46.9329" lon="4.63866">
        <ele>352</ele>
        <time>2021-05-22T13:55:15Z</time>
      </trkpt>
      <trkpt lat="46.93281" lon="4.63837">
        <ele>350.60000610352</ele>
        <time>2021-05-22T13:55:19Z</time>
      </trkpt>
      <trkpt lat="46.93275" lon="4.63815">
        <ele>349.39999389648</ele>
        <time>2021-05-22T13:55:22Z</time>
      </trkpt>
      <trkpt lat="46.93274" lon="4.63808">
        <ele>349</ele>
        <time>2021-05-22T13:55:23Z</time>
      </trkpt>
      <trkpt lat="46.93272" lon="4.63801">
        <ele>348.79998779297</ele>
        <time>2021-05-22T13:55:24Z</time>
      </trkpt>
      <trkpt lat="46.93264" lon="4.63774">
        <ele>348</ele>
        <time>2021-05-22T13:55:28Z</time>
      </trkpt>
      <trkpt lat="46.93258" lon="4.63754">
        <ele>348</ele>
        <time>2021-05-22T13:55:31Z</time>
      </trkpt>
      <trkpt lat="46.93256" lon="4.63747">
        <ele>348</ele>
        <time>2021-05-22T13:55:32Z</time>
      </trkpt>
      <trkpt lat="46.93254" lon="4.6374">
        <ele>347.79998779297</ele>
        <time>2021-05-22T13:55:33Z</time>
      </trkpt>
      <trkpt lat="46.9325" lon="4.6372">
        <ele>347.20001220703</ele>
        <time>2021-05-22T13:55:36Z</time>
      </trkpt>
      <trkpt lat="46.93243" lon="4.63692">
        <ele>346.79998779297</ele>
        <time>2021-05-22T13:55:40Z</time>
      </trkpt>
      <trkpt lat="46.93236" lon="4.63666">
        <ele>346</ele>
        <time>2021-05-22T13:55:44Z</time>
      </trkpt>
      <trkpt lat="46.93225" lon="4.63641">
        <ele>344.39999389648</ele>
        <time>2021-05-22T13:55:48Z</time>
      </trkpt>
      <trkpt lat="46.93212" lon="4.63619">
        <ele>342.60000610352</ele>
        <time>2021-05-22T13:55:52Z</time>
      </trkpt>
      <trkpt lat="46.93194" lon="4.636">
        <ele>341</ele>
        <time>2021-05-22T13:55:56Z</time>
      </trkpt>
      <trkpt lat="46.93174" lon="4.63583">
        <ele>339.20001220703</ele>
        <time>2021-05-22T13:56:00Z</time>
      </trkpt>
      <trkpt lat="46.93171" lon="4.63579">
        <ele>338.60000610352</ele>
        <time>2021-05-22T13:56:01Z</time>
      </trkpt>
      <trkpt lat="46.93164" lon="4.63572">
        <ele>337.39999389648</ele>
        <time>2021-05-22T13:56:03Z</time>
      </trkpt>
      <trkpt lat="46.93148" lon="4.63559">
        <ele>334.79998779297</ele>
        <time>2021-05-22T13:56:08Z</time>
      </trkpt>
      <trkpt lat="46.93129" lon="4.63552">
        <ele>332.39999389648</ele>
        <time>2021-05-22T13:56:13Z</time>
      </trkpt>
      <trkpt lat="46.93107" lon="4.63548">
        <ele>329.39999389648</ele>
        <time>2021-05-22T13:56:17Z</time>
      </trkpt>
      <trkpt lat="46.93085" lon="4.63558">
        <ele>327.79998779297</ele>
        <time>2021-05-22T13:56:21Z</time>
      </trkpt>
      <trkpt lat="46.93079" lon="4.63562">
        <ele>327.60000610352</ele>
        <time>2021-05-22T13:56:22Z</time>
      </trkpt>
      <trkpt lat="46.93074" lon="4.63565">
        <ele>327.20001220703</ele>
        <time>2021-05-22T13:56:23Z</time>
      </trkpt>
      <trkpt lat="46.93068" lon="4.63568">
        <ele>326.60000610352</ele>
        <time>2021-05-22T13:56:24Z</time>
      </trkpt>
      <trkpt lat="46.93049" lon="4.63577">
        <ele>325.20001220703</ele>
        <time>2021-05-22T13:56:27Z</time>
      </trkpt>
      <trkpt lat="46.9303" lon="4.6358">
        <ele>323</ele>
        <time>2021-05-22T13:56:31Z</time>
      </trkpt>
      <trkpt lat="46.93017" lon="4.6357">
        <ele>320.20001220703</ele>
        <time>2021-05-22T13:56:35Z</time>
      </trkpt>
      <trkpt lat="46.93016" lon="4.63552">
        <ele>319.20001220703</ele>
        <time>2021-05-22T13:56:40Z</time>
      </trkpt>
      <trkpt lat="46.93012" lon="4.63551">
        <ele>318.60000610352</ele>
        <time>2021-05-22T13:56:42Z</time>
      </trkpt>
      <trkpt lat="46.93008" lon="4.63556">
        <ele>318.39999389648</ele>
        <time>2021-05-22T13:56:46Z</time>
      </trkpt>
      <trkpt lat="46.93008" lon="4.63556">
        <ele>318.39999389648</ele>
        <time>2021-05-22T13:56:51Z</time>
      </trkpt>
      <trkpt lat="46.93008" lon="4.63556">
        <ele>318.39999389648</ele>
        <time>2021-05-22T13:56:56Z</time>
      </trkpt>
      <trkpt lat="46.93008" lon="4.63556">
        <ele>318.39999389648</ele>
        <time>2021-05-22T13:57:18Z</time>
      </trkpt>
      <trkpt lat="46.93008" lon="4.63556">
        <ele>318.39999389648</ele>
        <time>2021-05-22T13:58:24Z</time>
      </trkpt>
      <trkpt lat="46.93008" lon="4.63556">
        <ele>318.39999389648</ele>
        <time>2021-05-22T13:58:36Z</time>
      </trkpt>
      <trkpt lat="46.93008" lon="4.63556">
        <ele>318.39999389648</ele>
        <time>2021-05-22T13:58:38Z</time>
      </trkpt>
      <trkpt lat="46.93008" lon="4.63556">
        <ele>318.39999389648</ele>
        <time>2021-05-22T13:58:39Z</time>
      </trkpt>
      <trkpt lat="46.93008" lon="4.63556">
        <ele>318.39999389648</ele>
        <time>2021-05-22T13:58:44Z</time>
      </trkpt>
      <trkpt lat="46.93008" lon="4.63557">
        <ele>318.39999389648</ele>
        <time>2021-05-22T13:58:46Z</time>
      </trkpt>
      <trkpt lat="46.93008" lon="4.63557">
        <ele>318.39999389648</ele>
        <time>2021-05-22T13:58:49Z</time>
      </trkpt>
      <trkpt lat="46.93008" lon="4.63557">
        <ele>318.39999389648</ele>
        <time>2021-05-22T13:58:51Z</time>
      </trkpt>
      <trkpt lat="46.92991" lon="4.63569">
        <ele>317.20001220703</ele>
        <time>2021-05-22T13:58:59Z</time>
      </trkpt>
      <trkpt lat="46.92981" lon="4.63575">
        <ele>316.79998779297</ele>
        <time>2021-05-22T13:59:01Z</time>
      </trkpt>
      <trkpt lat="46.9297" lon="4.63578">
        <ele>316.39999389648</ele>
        <time>2021-05-22T13:59:03Z</time>
      </trkpt>
      <trkpt lat="46.9295" lon="4.6358">
        <ele>315</ele>
        <time>2021-05-22T13:59:06Z</time>
      </trkpt>
      <trkpt lat="46.92928" lon="4.63581">
        <ele>314.39999389648</ele>
        <time>2021-05-22T13:59:09Z</time>
      </trkpt>
      <trkpt lat="46.92908" lon="4.63582">
        <ele>313.79998779297</ele>
        <time>2021-05-22T13:59:12Z</time>
      </trkpt>
      <trkpt lat="46.9289" lon="4.63581">
        <ele>313.60000610352</ele>
        <time>2021-05-22T13:59:15Z</time>
      </trkpt>
      <trkpt lat="46.92871" lon="4.6358">
        <ele>313.60000610352</ele>
        <time>2021-05-22T13:59:18Z</time>
      </trkpt>
      <trkpt lat="46.92847" lon="4.63577">
        <ele>313.60000610352</ele>
        <time>2021-05-22T13:59:22Z</time>
      </trkpt>
      <trkpt lat="46.92825" lon="4.63574">
        <ele>313</ele>
        <time>2021-05-22T13:59:26Z</time>
      </trkpt>
      <trkpt lat="46.92802" lon="4.63572">
        <ele>313</ele>
        <time>2021-05-22T13:59:30Z</time>
      </trkpt>
      <trkpt lat="46.92784" lon="4.63572">
        <ele>313.39999389648</ele>
        <time>2021-05-22T13:59:33Z</time>
      </trkpt>
      <trkpt lat="46.92765" lon="4.63571">
        <ele>313.20001220703</ele>
        <time>2021-05-22T13:59:36Z</time>
      </trkpt>
      <trkpt lat="46.92747" lon="4.63569">
        <ele>312.60000610352</ele>
        <time>2021-05-22T13:59:39Z</time>
      </trkpt>
      <trkpt lat="46.92728" lon="4.63567">
        <ele>311.60000610352</ele>
        <time>2021-05-22T13:59:42Z</time>
      </trkpt>
      <trkpt lat="46.92709" lon="4.63564">
        <ele>310.60000610352</ele>
        <time>2021-05-22T13:59:45Z</time>
      </trkpt>
      <trkpt lat="46.92691" lon="4.63563">
        <ele>310</ele>
        <time>2021-05-22T13:59:48Z</time>
      </trkpt>
      <trkpt lat="46.92672" lon="4.63565">
        <ele>309.60000610352</ele>
        <time>2021-05-22T13:59:51Z</time>
      </trkpt>
      <trkpt lat="46.92653" lon="4.63566">
        <ele>309.79998779297</ele>
        <time>2021-05-22T13:59:54Z</time>
      </trkpt>
      <trkpt lat="46.92633" lon="4.63569">
        <ele>310</ele>
        <time>2021-05-22T13:59:57Z</time>
      </trkpt>
      <trkpt lat="46.92613" lon="4.63572">
        <ele>308.79998779297</ele>
        <time>2021-05-22T14:00:00Z</time>
      </trkpt>
      <trkpt lat="46.92593" lon="4.63578">
        <ele>308</ele>
        <time>2021-05-22T14:00:03Z</time>
      </trkpt>
      <trkpt lat="46.9258" lon="4.63583">
        <ele>308</ele>
        <time>2021-05-22T14:00:05Z</time>
      </trkpt>
      <trkpt lat="46.92561" lon="4.63591">
        <ele>307.79998779297</ele>
        <time>2021-05-22T14:00:08Z</time>
      </trkpt>
      <trkpt lat="46.92542" lon="4.63598">
        <ele>307</ele>
        <time>2021-05-22T14:00:11Z</time>
      </trkpt>
      <trkpt lat="46.92523" lon="4.63606">
        <ele>305.60000610352</ele>
        <time>2021-05-22T14:00:14Z</time>
      </trkpt>
      <trkpt lat="46.92503" lon="4.63613">
        <ele>305.39999389648</ele>
        <time>2021-05-22T14:00:17Z</time>
      </trkpt>
      <trkpt lat="46.92482" lon="4.63621">
        <ele>305.79998779297</ele>
        <time>2021-05-22T14:00:20Z</time>
      </trkpt>
      <trkpt lat="46.92463" lon="4.63629">
        <ele>306.20001220703</ele>
        <time>2021-05-22T14:00:23Z</time>
      </trkpt>
      <trkpt lat="46.92442" lon="4.63638">
        <ele>306.39999389648</ele>
        <time>2021-05-22T14:00:26Z</time>
      </trkpt>
      <trkpt lat="46.92422" lon="4.63647">
        <ele>306</ele>
        <time>2021-05-22T14:00:29Z</time>
      </trkpt>
      <trkpt lat="46.92403" lon="4.63655">
        <ele>305.39999389648</ele>
        <time>2021-05-22T14:00:32Z</time>
      </trkpt>
      <trkpt lat="46.92384" lon="4.63663">
        <ele>305.60000610352</ele>
        <time>2021-05-22T14:00:35Z</time>
      </trkpt>
      <trkpt lat="46.92365" lon="4.6367">
        <ele>305.60000610352</ele>
        <time>2021-05-22T14:00:38Z</time>
      </trkpt>
      <trkpt lat="46.92345" lon="4.63678">
        <ele>305.79998779297</ele>
        <time>2021-05-22T14:00:41Z</time>
      </trkpt>
      <trkpt lat="46.92325" lon="4.63685">
        <ele>305.39999389648</ele>
        <time>2021-05-22T14:00:44Z</time>
      </trkpt>
      <trkpt lat="46.92306" lon="4.63691">
        <ele>305.79998779297</ele>
        <time>2021-05-22T14:00:47Z</time>
      </trkpt>
      <trkpt lat="46.92287" lon="4.63697">
        <ele>306.79998779297</ele>
        <time>2021-05-22T14:00:50Z</time>
      </trkpt>
      <trkpt lat="46.92266" lon="4.63702">
        <ele>308.39999389648</ele>
        <time>2021-05-22T14:00:53Z</time>
      </trkpt>
      <trkpt lat="46.92245" lon="4.63708">
        <ele>309.20001220703</ele>
        <time>2021-05-22T14:00:56Z</time>
      </trkpt>
      <trkpt lat="46.92224" lon="4.63713">
        <ele>308.79998779297</ele>
        <time>2021-05-22T14:00:59Z</time>
      </trkpt>
      <trkpt lat="46.92203" lon="4.63716">
        <ele>307</ele>
        <time>2021-05-22T14:01:02Z</time>
      </trkpt>
      <trkpt lat="46.92182" lon="4.6372">
        <ele>305.60000610352</ele>
        <time>2021-05-22T14:01:05Z</time>
      </trkpt>
      <trkpt lat="46.92161" lon="4.63726">
        <ele>304.20001220703</ele>
        <time>2021-05-22T14:01:08Z</time>
      </trkpt>
      <trkpt lat="46.9214" lon="4.63732">
        <ele>302.20001220703</ele>
        <time>2021-05-22T14:01:11Z</time>
      </trkpt>
      <trkpt lat="46.92118" lon="4.63739">
        <ele>300</ele>
        <time>2021-05-22T14:01:14Z</time>
      </trkpt>
      <trkpt lat="46.92097" lon="4.63745">
        <ele>298</ele>
        <time>2021-05-22T14:01:17Z</time>
      </trkpt>
      <trkpt lat="46.92076" lon="4.63751">
        <ele>297.20001220703</ele>
        <time>2021-05-22T14:01:20Z</time>
      </trkpt>
      <trkpt lat="46.92056" lon="4.63756">
        <ele>297</ele>
        <time>2021-05-22T14:01:23Z</time>
      </trkpt>
      <trkpt lat="46.92035" lon="4.63761">
        <ele>296.79998779297</ele>
        <time>2021-05-22T14:01:26Z</time>
      </trkpt>
      <trkpt lat="46.92015" lon="4.63764">
        <ele>296.20001220703</ele>
        <time>2021-05-22T14:01:29Z</time>
      </trkpt>
      <trkpt lat="46.91996" lon="4.63767">
        <ele>294.79998779297</ele>
        <time>2021-05-22T14:01:32Z</time>
      </trkpt>
      <trkpt lat="46.91976" lon="4.6377">
        <ele>293.39999389648</ele>
        <time>2021-05-22T14:01:35Z</time>
      </trkpt>
      <trkpt lat="46.91956" lon="4.63772">
        <ele>292.60000610352</ele>
        <time>2021-05-22T14:01:38Z</time>
      </trkpt>
      <trkpt lat="46.91935" lon="4.63775">
        <ele>292</ele>
        <time>2021-05-22T14:01:41Z</time>
      </trkpt>
      <trkpt lat="46.91916" lon="4.63779">
        <ele>292.79998779297</ele>
        <time>2021-05-22T14:01:44Z</time>
      </trkpt>
      <trkpt lat="46.91896" lon="4.63785">
        <ele>294.39999389648</ele>
        <time>2021-05-22T14:01:47Z</time>
      </trkpt>
      <trkpt lat="46.91876" lon="4.6379">
        <ele>296.20001220703</ele>
        <time>2021-05-22T14:01:50Z</time>
      </trkpt>
      <trkpt lat="46.91858" lon="4.63794">
        <ele>297.39999389648</ele>
        <time>2021-05-22T14:01:53Z</time>
      </trkpt>
      <trkpt lat="46.91837" lon="4.63798">
        <ele>298.20001220703</ele>
        <time>2021-05-22T14:01:57Z</time>
      </trkpt>
      <trkpt lat="46.91815" lon="4.63804">
        <ele>297.60000610352</ele>
        <time>2021-05-22T14:02:01Z</time>
      </trkpt>
      <trkpt lat="46.91795" lon="4.6381">
        <ele>297.20001220703</ele>
        <time>2021-05-22T14:02:05Z</time>
      </trkpt>
      <trkpt lat="46.91773" lon="4.63816">
        <ele>296.20001220703</ele>
        <time>2021-05-22T14:02:09Z</time>
      </trkpt>
      <trkpt lat="46.9175" lon="4.63824">
        <ele>295.60000610352</ele>
        <time>2021-05-22T14:02:13Z</time>
      </trkpt>
      <trkpt lat="46.91732" lon="4.6383">
        <ele>295.39999389648</ele>
        <time>2021-05-22T14:02:16Z</time>
      </trkpt>
      <trkpt lat="46.91709" lon="4.6384">
        <ele>295.39999389648</ele>
        <time>2021-05-22T14:02:20Z</time>
      </trkpt>
      <trkpt lat="46.91703" lon="4.63842">
        <ele>295.39999389648</ele>
        <time>2021-05-22T14:02:21Z</time>
      </trkpt>
      <trkpt lat="46.91686" lon="4.6385">
        <ele>295</ele>
        <time>2021-05-22T14:02:24Z</time>
      </trkpt>
      <trkpt lat="46.91669" lon="4.63858">
        <ele>294.20001220703</ele>
        <time>2021-05-22T14:02:27Z</time>
      </trkpt>
      <trkpt lat="46.91646" lon="4.6387">
        <ele>294</ele>
        <time>2021-05-22T14:02:31Z</time>
      </trkpt>
      <trkpt lat="46.91629" lon="4.63881">
        <ele>292.60000610352</ele>
        <time>2021-05-22T14:02:34Z</time>
      </trkpt>
      <trkpt lat="46.91613" lon="4.63892">
        <ele>291.20001220703</ele>
        <time>2021-05-22T14:02:37Z</time>
      </trkpt>
      <trkpt lat="46.91595" lon="4.63902">
        <ele>289.20001220703</ele>
        <time>2021-05-22T14:02:40Z</time>
      </trkpt>
      <trkpt lat="46.91578" lon="4.63915">
        <ele>288.60000610352</ele>
        <time>2021-05-22T14:02:43Z</time>
      </trkpt>
      <trkpt lat="46.91561" lon="4.63927">
        <ele>288</ele>
        <time>2021-05-22T14:02:46Z</time>
      </trkpt>
      <trkpt lat="46.91544" lon="4.6394">
        <ele>288.20001220703</ele>
        <time>2021-05-22T14:02:49Z</time>
      </trkpt>
      <trkpt lat="46.91527" lon="4.63953">
        <ele>288.39999389648</ele>
        <time>2021-05-22T14:02:52Z</time>
      </trkpt>
      <trkpt lat="46.91512" lon="4.63968">
        <ele>288.20001220703</ele>
        <time>2021-05-22T14:02:55Z</time>
      </trkpt>
      <trkpt lat="46.91492" lon="4.63986">
        <ele>287.60000610352</ele>
        <time>2021-05-22T14:02:59Z</time>
      </trkpt>
      <trkpt lat="46.91473" lon="4.64002">
        <ele>287.60000610352</ele>
        <time>2021-05-22T14:03:03Z</time>
      </trkpt>
      <trkpt lat="46.91457" lon="4.64015">
        <ele>287.79998779297</ele>
        <time>2021-05-22T14:03:07Z</time>
      </trkpt>
      <trkpt lat="46.91442" lon="4.64027">
        <ele>288.60000610352</ele>
        <time>2021-05-22T14:03:11Z</time>
      </trkpt>
      <trkpt lat="46.91432" lon="4.64035">
        <ele>288.79998779297</ele>
        <time>2021-05-22T14:03:14Z</time>
      </trkpt>
      <trkpt lat="46.91414" lon="4.64049">
        <ele>289.60000610352</ele>
        <time>2021-05-22T14:03:20Z</time>
      </trkpt>
      <trkpt lat="46.91397" lon="4.64059">
        <ele>289.39999389648</ele>
        <time>2021-05-22T14:03:25Z</time>
      </trkpt>
      <trkpt lat="46.91393" lon="4.64062">
        <ele>289.20001220703</ele>
        <time>2021-05-22T14:03:26Z</time>
      </trkpt>
      <trkpt lat="46.91378" lon="4.64078">
        <ele>289</ele>
        <time>2021-05-22T14:03:30Z</time>
      </trkpt>
      <trkpt lat="46.91361" lon="4.64091">
        <ele>288.20001220703</ele>
        <time>2021-05-22T14:03:35Z</time>
      </trkpt>
      <trkpt lat="46.91358" lon="4.64094">
        <ele>288.20001220703</ele>
        <time>2021-05-22T14:03:36Z</time>
      </trkpt>
      <trkpt lat="46.91344" lon="4.64109">
        <ele>287.60000610352</ele>
        <time>2021-05-22T14:03:42Z</time>
      </trkpt>
      <trkpt lat="46.91347" lon="4.64137">
        <ele>289.79998779297</ele>
        <time>2021-05-22T14:03:49Z</time>
      </trkpt>
      <trkpt lat="46.91352" lon="4.64162">
        <ele>293</ele>
        <time>2021-05-22T14:03:55Z</time>
      </trkpt>
      <trkpt lat="46.91355" lon="4.64167">
        <ele>293.79998779297</ele>
        <time>2021-05-22T14:03:59Z</time>
      </trkpt>
      <trkpt lat="46.91356" lon="4.64167">
        <ele>293.79998779297</ele>
        <time>2021-05-22T14:04:06Z</time>
      </trkpt>
      <trkpt lat="46.91354" lon="4.64171">
        <ele>294</ele>
        <time>2021-05-22T14:04:21Z</time>
      </trkpt>
      <trkpt lat="46.91339" lon="4.64187">
        <ele>294.39999389648</ele>
        <time>2021-05-22T14:04:29Z</time>
      </trkpt>
      <trkpt lat="46.91325" lon="4.64205">
        <ele>295.20001220703</ele>
        <time>2021-05-22T14:04:34Z</time>
      </trkpt>
      <trkpt lat="46.91308" lon="4.64226">
        <ele>295.39999389648</ele>
        <time>2021-05-22T14:04:39Z</time>
      </trkpt>
      <trkpt lat="46.91291" lon="4.64246">
        <ele>293.79998779297</ele>
        <time>2021-05-22T14:04:44Z</time>
      </trkpt>
      <trkpt lat="46.91275" lon="4.64265">
        <ele>292.39999389648</ele>
        <time>2021-05-22T14:04:49Z</time>
      </trkpt>
      <trkpt lat="46.91258" lon="4.64282">
        <ele>290.79998779297</ele>
        <time>2021-05-22T14:04:54Z</time>
      </trkpt>
      <trkpt lat="46.91243" lon="4.64301">
        <ele>289.60000610352</ele>
        <time>2021-05-22T14:04:58Z</time>
      </trkpt>
      <trkpt lat="46.91227" lon="4.64318">
        <ele>288.39999389648</ele>
        <time>2021-05-22T14:05:03Z</time>
      </trkpt>
      <trkpt lat="46.91212" lon="4.64328">
        <ele>287.20001220703</ele>
        <time>2021-05-22T14:05:12Z</time>
      </trkpt>
      <trkpt lat="46.91196" lon="4.64313">
        <ele>285.20001220703</ele>
        <time>2021-05-22T14:05:21Z</time>
      </trkpt>
      <trkpt lat="46.91181" lon="4.64291">
        <ele>282.60000610352</ele>
        <time>2021-05-22T14:05:26Z</time>
      </trkpt>
      <trkpt lat="46.91165" lon="4.6427">
        <ele>280.20001220703</ele>
        <time>2021-05-22T14:05:31Z</time>
      </trkpt>
      <trkpt lat="46.91161" lon="4.64267">
        <ele>279.60000610352</ele>
        <time>2021-05-22T14:05:32Z</time>
      </trkpt>
      <trkpt lat="46.91154" lon="4.64262">
        <ele>278.60000610352</ele>
        <time>2021-05-22T14:05:34Z</time>
      </trkpt>
      <trkpt lat="46.91133" lon="4.64269">
        <ele>276.60000610352</ele>
        <time>2021-05-22T14:05:38Z</time>
      </trkpt>
      <trkpt lat="46.91114" lon="4.64281">
        <ele>274.20001220703</ele>
        <time>2021-05-22T14:05:41Z</time>
      </trkpt>
      <trkpt lat="46.91093" lon="4.64295">
        <ele>272.39999389648</ele>
        <time>2021-05-22T14:05:44Z</time>
      </trkpt>
      <trkpt lat="46.91071" lon="4.64315">
        <ele>270</ele>
        <time>2021-05-22T14:05:47Z</time>
      </trkpt>
      <trkpt lat="46.91056" lon="4.6433">
        <ele>269.39999389648</ele>
        <time>2021-05-22T14:05:49Z</time>
      </trkpt>
      <trkpt lat="46.91042" lon="4.64349">
        <ele>270</ele>
        <time>2021-05-22T14:05:51Z</time>
      </trkpt>
      <trkpt lat="46.91029" lon="4.64368">
        <ele>271.20001220703</ele>
        <time>2021-05-22T14:05:53Z</time>
      </trkpt>
      <trkpt lat="46.91016" lon="4.64386">
        <ele>272.60000610352</ele>
        <time>2021-05-22T14:05:55Z</time>
      </trkpt>
      <trkpt lat="46.91008" lon="4.64394">
        <ele>273.20001220703</ele>
        <time>2021-05-22T14:05:56Z</time>
      </trkpt>
      <trkpt lat="46.9099" lon="4.64404">
        <ele>274.39999389648</ele>
        <time>2021-05-22T14:05:58Z</time>
      </trkpt>
      <trkpt lat="46.90981" lon="4.64405">
        <ele>274.20001220703</ele>
        <time>2021-05-22T14:05:59Z</time>
      </trkpt>
      <trkpt lat="46.90973" lon="4.64403">
        <ele>273.60000610352</ele>
        <time>2021-05-22T14:06:00Z</time>
      </trkpt>
      <trkpt lat="46.90947" lon="4.64397">
        <ele>272.39999389648</ele>
        <time>2021-05-22T14:06:03Z</time>
      </trkpt>
      <trkpt lat="46.9092" lon="4.64391">
        <ele>270.60000610352</ele>
        <time>2021-05-22T14:06:06Z</time>
      </trkpt>
      <trkpt lat="46.90894" lon="4.64383">
        <ele>269.60000610352</ele>
        <time>2021-05-22T14:06:09Z</time>
      </trkpt>
      <trkpt lat="46.90869" lon="4.64376">
        <ele>270.20001220703</ele>
        <time>2021-05-22T14:06:12Z</time>
      </trkpt>
      <trkpt lat="46.90854" lon="4.64376">
        <ele>271.20001220703</ele>
        <time>2021-05-22T14:06:14Z</time>
      </trkpt>
      <trkpt lat="46.90833" lon="4.64384">
        <ele>271.39999389648</ele>
        <time>2021-05-22T14:06:17Z</time>
      </trkpt>
      <trkpt lat="46.90812" lon="4.64395">
        <ele>270.79998779297</ele>
        <time>2021-05-22T14:06:20Z</time>
      </trkpt>
      <trkpt lat="46.90791" lon="4.64401">
        <ele>270</ele>
        <time>2021-05-22T14:06:23Z</time>
      </trkpt>
      <trkpt lat="46.90772" lon="4.64409">
        <ele>267.39999389648</ele>
        <time>2021-05-22T14:06:26Z</time>
      </trkpt>
      <trkpt lat="46.90761" lon="4.64417">
        <ele>265.20001220703</ele>
        <time>2021-05-22T14:06:28Z</time>
      </trkpt>
      <trkpt lat="46.90757" lon="4.64432">
        <ele>263.79998779297</ele>
        <time>2021-05-22T14:06:30Z</time>
      </trkpt>
      <trkpt lat="46.90754" lon="4.64464">
        <ele>261.39999389648</ele>
        <time>2021-05-22T14:06:33Z</time>
      </trkpt>
      <trkpt lat="46.90751" lon="4.64475">
        <ele>260.39999389648</ele>
        <time>2021-05-22T14:06:34Z</time>
      </trkpt>
      <trkpt lat="46.90744" lon="4.64506">
        <ele>259.39999389648</ele>
        <time>2021-05-22T14:06:37Z</time>
      </trkpt>
      <trkpt lat="46.90746" lon="4.64538">
        <ele>258.60000610352</ele>
        <time>2021-05-22T14:06:40Z</time>
      </trkpt>
      <trkpt lat="46.90746" lon="4.64574">
        <ele>259.20001220703</ele>
        <time>2021-05-22T14:06:43Z</time>
      </trkpt>
      <trkpt lat="46.90743" lon="4.64611">
        <ele>258</ele>
        <time>2021-05-22T14:06:46Z</time>
      </trkpt>
      <trkpt lat="46.90738" lon="4.64648">
        <ele>257.60000610352</ele>
        <time>2021-05-22T14:06:49Z</time>
      </trkpt>
      <trkpt lat="46.90728" lon="4.64682">
        <ele>257.79998779297</ele>
        <time>2021-05-22T14:06:52Z</time>
      </trkpt>
      <trkpt lat="46.90715" lon="4.64715">
        <ele>256.20001220703</ele>
        <time>2021-05-22T14:06:55Z</time>
      </trkpt>
      <trkpt lat="46.90705" lon="4.64737">
        <ele>255.39999389648</ele>
        <time>2021-05-22T14:06:57Z</time>
      </trkpt>
      <trkpt lat="46.90692" lon="4.6477">
        <ele>256</ele>
        <time>2021-05-22T14:07:00Z</time>
      </trkpt>
      <trkpt lat="46.90684" lon="4.64801">
        <ele>255.80000305176</ele>
        <time>2021-05-22T14:07:03Z</time>
      </trkpt>
      <trkpt lat="46.9068" lon="4.64832">
        <ele>255.39999389648</ele>
        <time>2021-05-22T14:07:06Z</time>
      </trkpt>
      <trkpt lat="46.90677" lon="4.64864">
        <ele>255</ele>
        <time>2021-05-22T14:07:09Z</time>
      </trkpt>
      <trkpt lat="46.90679" lon="4.64898">
        <ele>253.80000305176</ele>
        <time>2021-05-22T14:07:12Z</time>
      </trkpt>
      <trkpt lat="46.90683" lon="4.6493">
        <ele>252.19999694824</ele>
        <time>2021-05-22T14:07:15Z</time>
      </trkpt>
      <trkpt lat="46.90688" lon="4.6496">
        <ele>250.19999694824</ele>
        <time>2021-05-22T14:07:18Z</time>
      </trkpt>
      <trkpt lat="46.90691" lon="4.64988">
        <ele>248</ele>
        <time>2021-05-22T14:07:21Z</time>
      </trkpt>
      <trkpt lat="46.90691" lon="4.65015">
        <ele>246.80000305176</ele>
        <time>2021-05-22T14:07:24Z</time>
      </trkpt>
      <trkpt lat="46.90689" lon="4.65045">
        <ele>246</ele>
        <time>2021-05-22T14:07:27Z</time>
      </trkpt>
      <trkpt lat="46.90685" lon="4.65066">
        <ele>245.80000305176</ele>
        <time>2021-05-22T14:07:29Z</time>
      </trkpt>
      <trkpt lat="46.90676" lon="4.65098">
        <ele>244.19999694824</ele>
        <time>2021-05-22T14:07:32Z</time>
      </trkpt>
      <trkpt lat="46.90665" lon="4.65129">
        <ele>245</ele>
        <time>2021-05-22T14:07:35Z</time>
      </trkpt>
      <trkpt lat="46.90653" lon="4.65158">
        <ele>243.60000610352</ele>
        <time>2021-05-22T14:07:38Z</time>
      </trkpt>
      <trkpt lat="46.90641" lon="4.65184">
        <ele>241.80000305176</ele>
        <time>2021-05-22T14:07:41Z</time>
      </trkpt>
      <trkpt lat="46.90629" lon="4.65208">
        <ele>241.39999389648</ele>
        <time>2021-05-22T14:07:44Z</time>
      </trkpt>
      <trkpt lat="46.90619" lon="4.65231">
        <ele>241.19999694824</ele>
        <time>2021-05-22T14:07:47Z</time>
      </trkpt>
      <trkpt lat="46.90609" lon="4.65256">
        <ele>242</ele>
        <time>2021-05-22T14:07:51Z</time>
      </trkpt>
      <trkpt lat="46.90606" lon="4.65284">
        <ele>242.39999389648</ele>
        <time>2021-05-22T14:07:56Z</time>
      </trkpt>
      <trkpt lat="46.90604" lon="4.65313">
        <ele>241.60000610352</ele>
        <time>2021-05-22T14:08:01Z</time>
      </trkpt>
      <trkpt lat="46.90601" lon="4.65331">
        <ele>241.39999389648</ele>
        <time>2021-05-22T14:08:04Z</time>
      </trkpt>
      <trkpt lat="46.90596" lon="4.65361">
        <ele>240.39999389648</ele>
        <time>2021-05-22T14:08:09Z</time>
      </trkpt>
      <trkpt lat="46.90604" lon="4.6539">
        <ele>240.60000610352</ele>
        <time>2021-05-22T14:08:14Z</time>
      </trkpt>
      <trkpt lat="46.90615" lon="4.65417">
        <ele>240.60000610352</ele>
        <time>2021-05-22T14:08:18Z</time>
      </trkpt>
      <trkpt lat="46.90619" lon="4.65444">
        <ele>240</ele>
        <time>2021-05-22T14:08:21Z</time>
      </trkpt>
      <trkpt lat="46.90617" lon="4.65472">
        <ele>239.60000610352</ele>
        <time>2021-05-22T14:08:24Z</time>
      </trkpt>
      <trkpt lat="46.90609" lon="4.65498">
        <ele>238.80000305176</ele>
        <time>2021-05-22T14:08:27Z</time>
      </trkpt>
      <trkpt lat="46.90598" lon="4.65522">
        <ele>236.80000305176</ele>
        <time>2021-05-22T14:08:30Z</time>
      </trkpt>
      <trkpt lat="46.90588" lon="4.65545">
        <ele>235.39999389648</ele>
        <time>2021-05-22T14:08:33Z</time>
      </trkpt>
      <trkpt lat="46.90578" lon="4.65567">
        <ele>233.80000305176</ele>
        <time>2021-05-22T14:08:36Z</time>
      </trkpt>
      <trkpt lat="46.90569" lon="4.65589">
        <ele>232.19999694824</ele>
        <time>2021-05-22T14:08:39Z</time>
      </trkpt>
      <trkpt lat="46.90556" lon="4.65619">
        <ele>233.19999694824</ele>
        <time>2021-05-22T14:08:43Z</time>
      </trkpt>
      <trkpt lat="46.90548" lon="4.65642">
        <ele>234.19999694824</ele>
        <time>2021-05-22T14:08:46Z</time>
      </trkpt>
      <trkpt lat="46.90537" lon="4.65673">
        <ele>235</ele>
        <time>2021-05-22T14:08:50Z</time>
      </trkpt>
      <trkpt lat="46.90532" lon="4.65687">
        <ele>235</ele>
        <time>2021-05-22T14:08:52Z</time>
      </trkpt>
      <trkpt lat="46.90524" lon="4.65696">
        <ele>235</ele>
        <time>2021-05-22T14:08:54Z</time>
      </trkpt>
      <trkpt lat="46.90516" lon="4.65694">
        <ele>235</ele>
        <time>2021-05-22T14:08:56Z</time>
      </trkpt>
      <trkpt lat="46.90508" lon="4.65689">
        <ele>234.80000305176</ele>
        <time>2021-05-22T14:08:58Z</time>
      </trkpt>
      <trkpt lat="46.90499" lon="4.65688">
        <ele>234.60000610352</ele>
        <time>2021-05-22T14:09:00Z</time>
      </trkpt>
      <trkpt lat="46.90483" lon="4.65693">
        <ele>234</ele>
        <time>2021-05-22T14:09:03Z</time>
      </trkpt>
      <trkpt lat="46.90462" lon="4.65705">
        <ele>234</ele>
        <time>2021-05-22T14:09:07Z</time>
      </trkpt>
      <trkpt lat="46.90441" lon="4.6572">
        <ele>235</ele>
        <time>2021-05-22T14:09:11Z</time>
      </trkpt>
      <trkpt lat="46.90424" lon="4.65732">
        <ele>235.39999389648</ele>
        <time>2021-05-22T14:09:14Z</time>
      </trkpt>
      <trkpt lat="46.90407" lon="4.65744">
        <ele>235.60000610352</ele>
        <time>2021-05-22T14:09:17Z</time>
      </trkpt>
      <trkpt lat="46.90391" lon="4.65756">
        <ele>235</ele>
        <time>2021-05-22T14:09:20Z</time>
      </trkpt>
      <trkpt lat="46.90375" lon="4.65768">
        <ele>234.60000610352</ele>
        <time>2021-05-22T14:09:23Z</time>
      </trkpt>
      <trkpt lat="46.90353" lon="4.65782">
        <ele>234</ele>
        <time>2021-05-22T14:09:27Z</time>
      </trkpt>
      <trkpt lat="46.90332" lon="4.65797">
        <ele>233.60000610352</ele>
        <time>2021-05-22T14:09:31Z</time>
      </trkpt>
      <trkpt lat="46.9031" lon="4.6581">
        <ele>233.19999694824</ele>
        <time>2021-05-22T14:09:35Z</time>
      </trkpt>
      <trkpt lat="46.90289" lon="4.65824">
        <ele>234</ele>
        <time>2021-05-22T14:09:39Z</time>
      </trkpt>
      <trkpt lat="46.90269" lon="4.65837">
        <ele>234.80000305176</ele>
        <time>2021-05-22T14:09:43Z</time>
      </trkpt>
      <trkpt lat="46.90248" lon="4.65851">
        <ele>234.60000610352</ele>
        <time>2021-05-22T14:09:47Z</time>
      </trkpt>
      <trkpt lat="46.90227" lon="4.65865">
        <ele>234.19999694824</ele>
        <time>2021-05-22T14:09:51Z</time>
      </trkpt>
      <trkpt lat="46.90222" lon="4.6587">
        <ele>234.19999694824</ele>
        <time>2021-05-22T14:09:52Z</time>
      </trkpt>
      <trkpt lat="46.90207" lon="4.65885">
        <ele>234.19999694824</ele>
        <time>2021-05-22T14:09:55Z</time>
      </trkpt>
      <trkpt lat="46.90193" lon="4.65903">
        <ele>233.60000610352</ele>
        <time>2021-05-22T14:09:58Z</time>
      </trkpt>
      <trkpt lat="46.90177" lon="4.65928">
        <ele>234</ele>
        <time>2021-05-22T14:10:02Z</time>
      </trkpt>
      <trkpt lat="46.90163" lon="4.65956">
        <ele>234</ele>
        <time>2021-05-22T14:10:06Z</time>
      </trkpt>
      <trkpt lat="46.90153" lon="4.65978">
        <ele>234</ele>
        <time>2021-05-22T14:10:09Z</time>
      </trkpt>
      <trkpt lat="46.90143" lon="4.66001">
        <ele>234</ele>
        <time>2021-05-22T14:10:12Z</time>
      </trkpt>
      <trkpt lat="46.90134" lon="4.66024">
        <ele>233.60000610352</ele>
        <time>2021-05-22T14:10:15Z</time>
      </trkpt>
      <trkpt lat="46.90125" lon="4.66047">
        <ele>234</ele>
        <time>2021-05-22T14:10:18Z</time>
      </trkpt>
      <trkpt lat="46.90115" lon="4.6607">
        <ele>233.60000610352</ele>
        <time>2021-05-22T14:10:21Z</time>
      </trkpt>
      <trkpt lat="46.90101" lon="4.66098">
        <ele>233.80000305176</ele>
        <time>2021-05-22T14:10:25Z</time>
      </trkpt>
      <trkpt lat="46.90098" lon="4.66106">
        <ele>233.80000305176</ele>
        <time>2021-05-22T14:10:26Z</time>
      </trkpt>
      <trkpt lat="46.90091" lon="4.66119">
        <ele>233.80000305176</ele>
        <time>2021-05-22T14:10:28Z</time>
      </trkpt>
      <trkpt lat="46.90084" lon="4.66133">
        <ele>233.39999389648</ele>
        <time>2021-05-22T14:10:30Z</time>
      </trkpt>
      <trkpt lat="46.90081" lon="4.6614">
        <ele>233.39999389648</ele>
        <time>2021-05-22T14:10:31Z</time>
      </trkpt>
      <trkpt lat="46.90078" lon="4.66146">
        <ele>233.60000610352</ele>
        <time>2021-05-22T14:10:32Z</time>
      </trkpt>
      <trkpt lat="46.90074" lon="4.66153">
        <ele>233.60000610352</ele>
        <time>2021-05-22T14:10:33Z</time>
      </trkpt>
      <trkpt lat="46.90071" lon="4.66159">
        <ele>233.39999389648</ele>
        <time>2021-05-22T14:10:34Z</time>
      </trkpt>
      <trkpt lat="46.90068" lon="4.66166">
        <ele>233.19999694824</ele>
        <time>2021-05-22T14:10:35Z</time>
      </trkpt>
      <trkpt lat="46.90061" lon="4.66178">
        <ele>233.19999694824</ele>
        <time>2021-05-22T14:10:37Z</time>
      </trkpt>
      <trkpt lat="46.90058" lon="4.66185">
        <ele>233.39999389648</ele>
        <time>2021-05-22T14:10:38Z</time>
      </trkpt>
      <trkpt lat="46.90054" lon="4.66191">
        <ele>233.19999694824</ele>
        <time>2021-05-22T14:10:39Z</time>
      </trkpt>
      <trkpt lat="46.90051" lon="4.66198">
        <ele>233</ele>
        <time>2021-05-22T14:10:40Z</time>
      </trkpt>
      <trkpt lat="46.90048" lon="4.66204">
        <ele>232.60000610352</ele>
        <time>2021-05-22T14:10:41Z</time>
      </trkpt>
      <trkpt lat="46.90045" lon="4.66211">
        <ele>232.39999389648</ele>
        <time>2021-05-22T14:10:42Z</time>
      </trkpt>
      <trkpt lat="46.9003" lon="4.66237">
        <ele>231.60000610352</ele>
        <time>2021-05-22T14:10:46Z</time>
      </trkpt>
      <trkpt lat="46.90018" lon="4.66255">
        <ele>231.80000305176</ele>
        <time>2021-05-22T14:10:49Z</time>
      </trkpt>
      <trkpt lat="46.90013" lon="4.66261">
        <ele>231.60000610352</ele>
        <time>2021-05-22T14:10:50Z</time>
      </trkpt>
      <trkpt lat="46.90009" lon="4.66266">
        <ele>231.60000610352</ele>
        <time>2021-05-22T14:10:51Z</time>
      </trkpt>
      <trkpt lat="46.90004" lon="4.66272">
        <ele>231.39999389648</ele>
        <time>2021-05-22T14:10:52Z</time>
      </trkpt>
      <trkpt lat="46.89985" lon="4.66292">
        <ele>232</ele>
        <time>2021-05-22T14:10:56Z</time>
      </trkpt>
      <trkpt lat="46.89981" lon="4.66298">
        <ele>232.19999694824</ele>
        <time>2021-05-22T14:10:57Z</time>
      </trkpt>
      <trkpt lat="46.89968" lon="4.66314">
        <ele>232.39999389648</ele>
        <time>2021-05-22T14:11:00Z</time>
      </trkpt>
      <trkpt lat="46.89963" lon="4.6632">
        <ele>232.39999389648</ele>
        <time>2021-05-22T14:11:01Z</time>
      </trkpt>
      <trkpt lat="46.89949" lon="4.66336">
        <ele>231.39999389648</ele>
        <time>2021-05-22T14:11:04Z</time>
      </trkpt>
      <trkpt lat="46.89944" lon="4.66341">
        <ele>231.19999694824</ele>
        <time>2021-05-22T14:11:05Z</time>
      </trkpt>
      <trkpt lat="46.8994" lon="4.66346">
        <ele>231.19999694824</ele>
        <time>2021-05-22T14:11:06Z</time>
      </trkpt>
      <trkpt lat="46.89935" lon="4.66351">
        <ele>231.19999694824</ele>
        <time>2021-05-22T14:11:07Z</time>
      </trkpt>
      <trkpt lat="46.89917" lon="4.66373">
        <ele>232</ele>
        <time>2021-05-22T14:11:11Z</time>
      </trkpt>
      <trkpt lat="46.89898" lon="4.66394">
        <ele>233.19999694824</ele>
        <time>2021-05-22T14:11:15Z</time>
      </trkpt>
      <trkpt lat="46.8988" lon="4.66415">
        <ele>233.80000305176</ele>
        <time>2021-05-22T14:11:19Z</time>
      </trkpt>
      <trkpt lat="46.89866" lon="4.66433">
        <ele>234</ele>
        <time>2021-05-22T14:11:22Z</time>
      </trkpt>
      <trkpt lat="46.89854" lon="4.66453">
        <ele>234.39999389648</ele>
        <time>2021-05-22T14:11:25Z</time>
      </trkpt>
      <trkpt lat="46.89842" lon="4.66475">
        <ele>233.19999694824</ele>
        <time>2021-05-22T14:11:28Z</time>
      </trkpt>
      <trkpt lat="46.89832" lon="4.665">
        <ele>232.19999694824</ele>
        <time>2021-05-22T14:11:31Z</time>
      </trkpt>
      <trkpt lat="46.89821" lon="4.66525">
        <ele>231.39999389648</ele>
        <time>2021-05-22T14:11:34Z</time>
      </trkpt>
      <trkpt lat="46.89811" lon="4.66551">
        <ele>230.60000610352</ele>
        <time>2021-05-22T14:11:37Z</time>
      </trkpt>
      <trkpt lat="46.89799" lon="4.66577">
        <ele>230.19999694824</ele>
        <time>2021-05-22T14:11:40Z</time>
      </trkpt>
      <trkpt lat="46.89789" lon="4.66603">
        <ele>230.39999389648</ele>
        <time>2021-05-22T14:11:43Z</time>
      </trkpt>
      <trkpt lat="46.89779" lon="4.66629">
        <ele>229</ele>
        <time>2021-05-22T14:11:46Z</time>
      </trkpt>
      <trkpt lat="46.89769" lon="4.66653">
        <ele>228.39999389648</ele>
        <time>2021-05-22T14:11:49Z</time>
      </trkpt>
      <trkpt lat="46.89759" lon="4.66678">
        <ele>227.60000610352</ele>
        <time>2021-05-22T14:11:52Z</time>
      </trkpt>
      <trkpt lat="46.89748" lon="4.66703">
        <ele>227.19999694824</ele>
        <time>2021-05-22T14:11:55Z</time>
      </trkpt>
      <trkpt lat="46.89738" lon="4.66726">
        <ele>227.19999694824</ele>
        <time>2021-05-22T14:11:58Z</time>
      </trkpt>
      <trkpt lat="46.89725" lon="4.66755">
        <ele>228</ele>
        <time>2021-05-22T14:12:02Z</time>
      </trkpt>
      <trkpt lat="46.89714" lon="4.66786">
        <ele>227.80000305176</ele>
        <time>2021-05-22T14:12:06Z</time>
      </trkpt>
      <trkpt lat="46.89703" lon="4.66809">
        <ele>227</ele>
        <time>2021-05-22T14:12:09Z</time>
      </trkpt>
      <trkpt lat="46.89691" lon="4.66829">
        <ele>227</ele>
        <time>2021-05-22T14:12:12Z</time>
      </trkpt>
      <trkpt lat="46.89681" lon="4.66853">
        <ele>227</ele>
        <time>2021-05-22T14:12:17Z</time>
      </trkpt>
      <trkpt lat="46.89677" lon="4.66881">
        <ele>227.19999694824</ele>
        <time>2021-05-22T14:12:23Z</time>
      </trkpt>
      <trkpt lat="46.89668" lon="4.66909">
        <ele>227.60000610352</ele>
        <time>2021-05-22T14:12:27Z</time>
      </trkpt>
      <trkpt lat="46.89661" lon="4.66943">
        <ele>227.60000610352</ele>
        <time>2021-05-22T14:12:31Z</time>
      </trkpt>
      <trkpt lat="46.8966" lon="4.66971">
        <ele>227.19999694824</ele>
        <time>2021-05-22T14:12:34Z</time>
      </trkpt>
      <trkpt lat="46.89659" lon="4.66999">
        <ele>227</ele>
        <time>2021-05-22T14:12:37Z</time>
      </trkpt>
      <trkpt lat="46.89655" lon="4.67027">
        <ele>226.19999694824</ele>
        <time>2021-05-22T14:12:40Z</time>
      </trkpt>
      <trkpt lat="46.89649" lon="4.67054">
        <ele>226</ele>
        <time>2021-05-22T14:12:43Z</time>
      </trkpt>
      <trkpt lat="46.89646" lon="4.67063">
        <ele>226.19999694824</ele>
        <time>2021-05-22T14:12:44Z</time>
      </trkpt>
      <trkpt lat="46.89636" lon="4.67087">
        <ele>226</ele>
        <time>2021-05-22T14:12:47Z</time>
      </trkpt>
      <trkpt lat="46.89624" lon="4.6711">
        <ele>226</ele>
        <time>2021-05-22T14:12:50Z</time>
      </trkpt>
      <trkpt lat="46.89612" lon="4.67133">
        <ele>226.60000610352</ele>
        <time>2021-05-22T14:12:53Z</time>
      </trkpt>
      <trkpt lat="46.896" lon="4.67154">
        <ele>226.39999389648</ele>
        <time>2021-05-22T14:12:56Z</time>
      </trkpt>
      <trkpt lat="46.89584" lon="4.6718">
        <ele>226.60000610352</ele>
        <time>2021-05-22T14:13:00Z</time>
      </trkpt>
      <trkpt lat="46.89571" lon="4.67201">
        <ele>225.19999694824</ele>
        <time>2021-05-22T14:13:03Z</time>
      </trkpt>
      <trkpt lat="46.89558" lon="4.67221">
        <ele>224.19999694824</ele>
        <time>2021-05-22T14:13:06Z</time>
      </trkpt>
      <trkpt lat="46.89544" lon="4.67239">
        <ele>224</ele>
        <time>2021-05-22T14:13:09Z</time>
      </trkpt>
      <trkpt lat="46.8954" lon="4.67244">
        <ele>224</ele>
        <time>2021-05-22T14:13:10Z</time>
      </trkpt>
      <trkpt lat="46.89532" lon="4.67255">
        <ele>224.19999694824</ele>
        <time>2021-05-22T14:13:12Z</time>
      </trkpt>
      <trkpt lat="46.8952" lon="4.67275">
        <ele>224.39999389648</ele>
        <time>2021-05-22T14:13:15Z</time>
      </trkpt>
      <trkpt lat="46.89507" lon="4.67294">
        <ele>224.80000305176</ele>
        <time>2021-05-22T14:13:18Z</time>
      </trkpt>
      <trkpt lat="46.89491" lon="4.67319">
        <ele>224.39999389648</ele>
        <time>2021-05-22T14:13:22Z</time>
      </trkpt>
      <trkpt lat="46.89473" lon="4.67343">
        <ele>224.60000610352</ele>
        <time>2021-05-22T14:13:26Z</time>
      </trkpt>
      <trkpt lat="46.89456" lon="4.67366">
        <ele>225</ele>
        <time>2021-05-22T14:13:30Z</time>
      </trkpt>
      <trkpt lat="46.89445" lon="4.67383">
        <ele>225.19999694824</ele>
        <time>2021-05-22T14:13:33Z</time>
      </trkpt>
      <trkpt lat="46.89433" lon="4.67405">
        <ele>225.39999389648</ele>
        <time>2021-05-22T14:13:37Z</time>
      </trkpt>
      <trkpt lat="46.89421" lon="4.67428">
        <ele>225</ele>
        <time>2021-05-22T14:13:41Z</time>
      </trkpt>
      <trkpt lat="46.89408" lon="4.67455">
        <ele>224.39999389648</ele>
        <time>2021-05-22T14:13:45Z</time>
      </trkpt>
      <trkpt lat="46.89397" lon="4.67477">
        <ele>223.19999694824</ele>
        <time>2021-05-22T14:13:48Z</time>
      </trkpt>
      <trkpt lat="46.89387" lon="4.67499">
        <ele>223.19999694824</ele>
        <time>2021-05-22T14:13:51Z</time>
      </trkpt>
      <trkpt lat="46.89374" lon="4.67519">
        <ele>223.39999389648</ele>
        <time>2021-05-22T14:13:54Z</time>
      </trkpt>
      <trkpt lat="46.89361" lon="4.6754">
        <ele>223.39999389648</ele>
        <time>2021-05-22T14:13:57Z</time>
      </trkpt>
      <trkpt lat="46.89349" lon="4.6756">
        <ele>223</ele>
        <time>2021-05-22T14:14:00Z</time>
      </trkpt>
      <trkpt lat="46.89335" lon="4.67581">
        <ele>223</ele>
        <time>2021-05-22T14:14:03Z</time>
      </trkpt>
      <trkpt lat="46.89319" lon="4.67605">
        <ele>223</ele>
        <time>2021-05-22T14:14:07Z</time>
      </trkpt>
      <trkpt lat="46.89305" lon="4.67626">
        <ele>223.39999389648</ele>
        <time>2021-05-22T14:14:11Z</time>
      </trkpt>
      <trkpt lat="46.89292" lon="4.67645">
        <ele>223</ele>
        <time>2021-05-22T14:14:15Z</time>
      </trkpt>
      <trkpt lat="46.89276" lon="4.67667">
        <ele>222.19999694824</ele>
        <time>2021-05-22T14:14:20Z</time>
      </trkpt>
      <trkpt lat="46.89262" lon="4.67685">
        <ele>221.60000610352</ele>
        <time>2021-05-22T14:14:23Z</time>
      </trkpt>
      <trkpt lat="46.89248" lon="4.67704">
        <ele>220.19999694824</ele>
        <time>2021-05-22T14:14:26Z</time>
      </trkpt>
      <trkpt lat="46.89233" lon="4.67724">
        <ele>219.19999694824</ele>
        <time>2021-05-22T14:14:29Z</time>
      </trkpt>
      <trkpt lat="46.89218" lon="4.67744">
        <ele>219.39999389648</ele>
        <time>2021-05-22T14:14:32Z</time>
      </trkpt>
      <trkpt lat="46.89204" lon="4.67763">
        <ele>219.39999389648</ele>
        <time>2021-05-22T14:14:35Z</time>
      </trkpt>
      <trkpt lat="46.89192" lon="4.67783">
        <ele>219.60000610352</ele>
        <time>2021-05-22T14:14:38Z</time>
      </trkpt>
      <trkpt lat="46.89186" lon="4.67798">
        <ele>219.60000610352</ele>
        <time>2021-05-22T14:14:40Z</time>
      </trkpt>
      <trkpt lat="46.89177" lon="4.67822">
        <ele>220.39999389648</ele>
        <time>2021-05-22T14:14:43Z</time>
      </trkpt>
      <trkpt lat="46.89167" lon="4.67846">
        <ele>221.60000610352</ele>
        <time>2021-05-22T14:14:46Z</time>
      </trkpt>
      <trkpt lat="46.89159" lon="4.67869">
        <ele>223</ele>
        <time>2021-05-22T14:14:49Z</time>
      </trkpt>
      <trkpt lat="46.89148" lon="4.679">
        <ele>223</ele>
        <time>2021-05-22T14:14:53Z</time>
      </trkpt>
      <trkpt lat="46.89139" lon="4.67931">
        <ele>222.19999694824</ele>
        <time>2021-05-22T14:14:57Z</time>
      </trkpt>
      <trkpt lat="46.89133" lon="4.67956">
        <ele>222</ele>
        <time>2021-05-22T14:15:00Z</time>
      </trkpt>
      <trkpt lat="46.89127" lon="4.67985">
        <ele>222</ele>
        <time>2021-05-22T14:15:04Z</time>
      </trkpt>
      <trkpt lat="46.89122" lon="4.68">
        <ele>222</ele>
        <time>2021-05-22T14:15:07Z</time>
      </trkpt>
      <trkpt lat="46.89111" lon="4.68024">
        <ele>222.39999389648</ele>
        <time>2021-05-22T14:15:12Z</time>
      </trkpt>
      <trkpt lat="46.89106" lon="4.68051">
        <ele>223.39999389648</ele>
        <time>2021-05-22T14:15:17Z</time>
      </trkpt>
      <trkpt lat="46.8911" lon="4.68075">
        <ele>224.80000305176</ele>
        <time>2021-05-22T14:15:23Z</time>
      </trkpt>
      <trkpt lat="46.89106" lon="4.68074">
        <ele>225</ele>
        <time>2021-05-22T14:15:25Z</time>
      </trkpt>
      <trkpt lat="46.89093" lon="4.68051">
        <ele>224.39999389648</ele>
        <time>2021-05-22T14:15:31Z</time>
      </trkpt>
      <trkpt lat="46.8908" lon="4.68033">
        <ele>224.39999389648</ele>
        <time>2021-05-22T14:15:36Z</time>
      </trkpt>
      <trkpt lat="46.89068" lon="4.68012">
        <ele>225</ele>
        <time>2021-05-22T14:15:41Z</time>
      </trkpt>
      <trkpt lat="46.89056" lon="4.67991">
        <ele>225.19999694824</ele>
        <time>2021-05-22T14:15:45Z</time>
      </trkpt>
      <trkpt lat="46.89043" lon="4.6797">
        <ele>225.39999389648</ele>
        <time>2021-05-22T14:15:49Z</time>
      </trkpt>
      <trkpt lat="46.8903" lon="4.67948">
        <ele>225.60000610352</ele>
        <time>2021-05-22T14:15:53Z</time>
      </trkpt>
      <trkpt lat="46.89019" lon="4.67928">
        <ele>226.39999389648</ele>
        <time>2021-05-22T14:15:57Z</time>
      </trkpt>
      <trkpt lat="46.89008" lon="4.67907">
        <ele>227.19999694824</ele>
        <time>2021-05-22T14:16:01Z</time>
      </trkpt>
      <trkpt lat="46.88999" lon="4.6789">
        <ele>227.39999389648</ele>
        <time>2021-05-22T14:16:04Z</time>
      </trkpt>
      <trkpt lat="46.88989" lon="4.67868">
        <ele>227.80000305176</ele>
        <time>2021-05-22T14:16:08Z</time>
      </trkpt>
      <trkpt lat="46.88981" lon="4.67841">
        <ele>228.19999694824</ele>
        <time>2021-05-22T14:16:12Z</time>
      </trkpt>
      <trkpt lat="46.88975" lon="4.67811">
        <ele>228.19999694824</ele>
        <time>2021-05-22T14:16:16Z</time>
      </trkpt>
      <trkpt lat="46.88973" lon="4.67795">
        <ele>227.80000305176</ele>
        <time>2021-05-22T14:16:18Z</time>
      </trkpt>
      <trkpt lat="46.88973" lon="4.67761">
        <ele>227.39999389648</ele>
        <time>2021-05-22T14:16:22Z</time>
      </trkpt>
      <trkpt lat="46.88972" lon="4.67728">
        <ele>227.39999389648</ele>
        <time>2021-05-22T14:16:26Z</time>
      </trkpt>
      <trkpt lat="46.88968" lon="4.67696">
        <ele>227.60000610352</ele>
        <time>2021-05-22T14:16:30Z</time>
      </trkpt>
      <trkpt lat="46.88961" lon="4.67666">
        <ele>227.80000305176</ele>
        <time>2021-05-22T14:16:34Z</time>
      </trkpt>
      <trkpt lat="46.88951" lon="4.67635">
        <ele>227.80000305176</ele>
        <time>2021-05-22T14:16:38Z</time>
      </trkpt>
      <trkpt lat="46.88943" lon="4.67606">
        <ele>227</ele>
        <time>2021-05-22T14:16:42Z</time>
      </trkpt>
      <trkpt lat="46.88934" lon="4.67576">
        <ele>226.80000305176</ele>
        <time>2021-05-22T14:16:46Z</time>
      </trkpt>
      <trkpt lat="46.88925" lon="4.67546">
        <ele>227</ele>
        <time>2021-05-22T14:16:50Z</time>
      </trkpt>
      <trkpt lat="46.88916" lon="4.67516">
        <ele>227.19999694824</ele>
        <time>2021-05-22T14:16:54Z</time>
      </trkpt>
      <trkpt lat="46.88905" lon="4.67486">
        <ele>227</ele>
        <time>2021-05-22T14:16:58Z</time>
      </trkpt>
      <trkpt lat="46.88893" lon="4.67457">
        <ele>226.80000305176</ele>
        <time>2021-05-22T14:17:02Z</time>
      </trkpt>
      <trkpt lat="46.88878" lon="4.6743">
        <ele>226.80000305176</ele>
        <time>2021-05-22T14:17:06Z</time>
      </trkpt>
      <trkpt lat="46.88862" lon="4.67406">
        <ele>226.19999694824</ele>
        <time>2021-05-22T14:17:10Z</time>
      </trkpt>
      <trkpt lat="46.88846" lon="4.67382">
        <ele>225.60000610352</ele>
        <time>2021-05-22T14:17:14Z</time>
      </trkpt>
      <trkpt lat="46.88834" lon="4.67362">
        <ele>225.39999389648</ele>
        <time>2021-05-22T14:17:17Z</time>
      </trkpt>
      <trkpt lat="46.88818" lon="4.67338">
        <ele>226</ele>
        <time>2021-05-22T14:17:21Z</time>
      </trkpt>
      <trkpt lat="46.88801" lon="4.67313">
        <ele>225.60000610352</ele>
        <time>2021-05-22T14:17:25Z</time>
      </trkpt>
      <trkpt lat="46.88784" lon="4.67289">
        <ele>225.39999389648</ele>
        <time>2021-05-22T14:17:29Z</time>
      </trkpt>
      <trkpt lat="46.88768" lon="4.67264">
        <ele>225</ele>
        <time>2021-05-22T14:17:33Z</time>
      </trkpt>
      <trkpt lat="46.88752" lon="4.67238">
        <ele>224.39999389648</ele>
        <time>2021-05-22T14:17:37Z</time>
      </trkpt>
      <trkpt lat="46.88739" lon="4.67218">
        <ele>224</ele>
        <time>2021-05-22T14:17:40Z</time>
      </trkpt>
      <trkpt lat="46.88726" lon="4.67198">
        <ele>223.60000610352</ele>
        <time>2021-05-22T14:17:43Z</time>
      </trkpt>
      <trkpt lat="46.88715" lon="4.67176">
        <ele>223.60000610352</ele>
        <time>2021-05-22T14:17:46Z</time>
      </trkpt>
      <trkpt lat="46.88706" lon="4.67152">
        <ele>223.19999694824</ele>
        <time>2021-05-22T14:17:49Z</time>
      </trkpt>
      <trkpt lat="46.88698" lon="4.67128">
        <ele>223.19999694824</ele>
        <time>2021-05-22T14:17:52Z</time>
      </trkpt>
      <trkpt lat="46.88691" lon="4.67104">
        <ele>223.60000610352</ele>
        <time>2021-05-22T14:17:55Z</time>
      </trkpt>
      <trkpt lat="46.88681" lon="4.67073">
        <ele>223.39999389648</ele>
        <time>2021-05-22T14:17:59Z</time>
      </trkpt>
      <trkpt lat="46.88668" lon="4.67043">
        <ele>223.39999389648</ele>
        <time>2021-05-22T14:18:03Z</time>
      </trkpt>
      <trkpt lat="46.88655" lon="4.67014">
        <ele>223.19999694824</ele>
        <time>2021-05-22T14:18:07Z</time>
      </trkpt>
      <trkpt lat="46.88643" lon="4.66986">
        <ele>223.60000610352</ele>
        <time>2021-05-22T14:18:11Z</time>
      </trkpt>
      <trkpt lat="46.8863" lon="4.66958">
        <ele>223.80000305176</ele>
        <time>2021-05-22T14:18:15Z</time>
      </trkpt>
      <trkpt lat="46.88617" lon="4.6693">
        <ele>223.60000610352</ele>
        <time>2021-05-22T14:18:19Z</time>
      </trkpt>
      <trkpt lat="46.88604" lon="4.66903">
        <ele>223</ele>
        <time>2021-05-22T14:18:23Z</time>
      </trkpt>
      <trkpt lat="46.88589" lon="4.66876">
        <ele>223.19999694824</ele>
        <time>2021-05-22T14:18:27Z</time>
      </trkpt>
      <trkpt lat="46.88579" lon="4.66854">
        <ele>224.39999389648</ele>
        <time>2021-05-22T14:18:30Z</time>
      </trkpt>
      <trkpt lat="46.88565" lon="4.66826">
        <ele>226.39999389648</ele>
        <time>2021-05-22T14:18:34Z</time>
      </trkpt>
      <trkpt lat="46.88548" lon="4.66801">
        <ele>227.60000610352</ele>
        <time>2021-05-22T14:18:38Z</time>
      </trkpt>
      <trkpt lat="46.88544" lon="4.66796">
        <ele>227.80000305176</ele>
        <time>2021-05-22T14:18:39Z</time>
      </trkpt>
      <trkpt lat="46.88534" lon="4.66787">
        <ele>227.80000305176</ele>
        <time>2021-05-22T14:18:41Z</time>
      </trkpt>
      <trkpt lat="46.88512" lon="4.66774">
        <ele>226.39999389648</ele>
        <time>2021-05-22T14:18:45Z</time>
      </trkpt>
      <trkpt lat="46.88491" lon="4.66766">
        <ele>224.39999389648</ele>
        <time>2021-05-22T14:18:49Z</time>
      </trkpt>
      <trkpt lat="46.88473" lon="4.6676">
        <ele>223.39999389648</ele>
        <time>2021-05-22T14:18:52Z</time>
      </trkpt>
      <trkpt lat="46.88456" lon="4.66753">
        <ele>223</ele>
        <time>2021-05-22T14:18:55Z</time>
      </trkpt>
      <trkpt lat="46.88438" lon="4.66745">
        <ele>223.60000610352</ele>
        <time>2021-05-22T14:18:58Z</time>
      </trkpt>
      <trkpt lat="46.88421" lon="4.66736">
        <ele>224</ele>
        <time>2021-05-22T14:19:01Z</time>
      </trkpt>
      <trkpt lat="46.88399" lon="4.66722">
        <ele>223.80000305176</ele>
        <time>2021-05-22T14:19:05Z</time>
      </trkpt>
      <trkpt lat="46.88382" lon="4.66711">
        <ele>224</ele>
        <time>2021-05-22T14:19:08Z</time>
      </trkpt>
      <trkpt lat="46.88361" lon="4.66696">
        <ele>224.60000610352</ele>
        <time>2021-05-22T14:19:12Z</time>
      </trkpt>
      <trkpt lat="46.8834" lon="4.6668">
        <ele>225.39999389648</ele>
        <time>2021-05-22T14:19:16Z</time>
      </trkpt>
      <trkpt lat="46.88319" lon="4.66665">
        <ele>225.60000610352</ele>
        <time>2021-05-22T14:19:20Z</time>
      </trkpt>
      <trkpt lat="46.88297" lon="4.6665">
        <ele>226</ele>
        <time>2021-05-22T14:19:24Z</time>
      </trkpt>
      <trkpt lat="46.88281" lon="4.66638">
        <ele>226</ele>
        <time>2021-05-22T14:19:27Z</time>
      </trkpt>
      <trkpt lat="46.88264" lon="4.66626">
        <ele>226.19999694824</ele>
        <time>2021-05-22T14:19:30Z</time>
      </trkpt>
      <trkpt lat="46.88247" lon="4.66614">
        <ele>225.39999389648</ele>
        <time>2021-05-22T14:19:33Z</time>
      </trkpt>
      <trkpt lat="46.8823" lon="4.66603">
        <ele>224.60000610352</ele>
        <time>2021-05-22T14:19:36Z</time>
      </trkpt>
      <trkpt lat="46.88213" lon="4.66592">
        <ele>224.19999694824</ele>
        <time>2021-05-22T14:19:39Z</time>
      </trkpt>
      <trkpt lat="46.88196" lon="4.6658">
        <ele>224.39999389648</ele>
        <time>2021-05-22T14:19:42Z</time>
      </trkpt>
      <trkpt lat="46.88179" lon="4.66569">
        <ele>225</ele>
        <time>2021-05-22T14:19:45Z</time>
      </trkpt>
      <trkpt lat="46.88163" lon="4.66557">
        <ele>225</ele>
        <time>2021-05-22T14:19:48Z</time>
      </trkpt>
      <trkpt lat="46.88147" lon="4.66546">
        <ele>224.39999389648</ele>
        <time>2021-05-22T14:19:51Z</time>
      </trkpt>
      <trkpt lat="46.88131" lon="4.66535">
        <ele>223.39999389648</ele>
        <time>2021-05-22T14:19:54Z</time>
      </trkpt>
      <trkpt lat="46.8811" lon="4.66521">
        <ele>222.60000610352</ele>
        <time>2021-05-22T14:19:58Z</time>
      </trkpt>
      <trkpt lat="46.88094" lon="4.66508">
        <ele>222.19999694824</ele>
        <time>2021-05-22T14:20:01Z</time>
      </trkpt>
      <trkpt lat="46.88077" lon="4.66497">
        <ele>223.19999694824</ele>
        <time>2021-05-22T14:20:04Z</time>
      </trkpt>
      <trkpt lat="46.88062" lon="4.66484">
        <ele>224</ele>
        <time>2021-05-22T14:20:07Z</time>
      </trkpt>
      <trkpt lat="46.88046" lon="4.66469">
        <ele>225</ele>
        <time>2021-05-22T14:20:10Z</time>
      </trkpt>
      <trkpt lat="46.88041" lon="4.66464">
        <ele>225.19999694824</ele>
        <time>2021-05-22T14:20:11Z</time>
      </trkpt>
      <trkpt lat="46.88032" lon="4.66451">
        <ele>225.60000610352</ele>
        <time>2021-05-22T14:20:13Z</time>
      </trkpt>
      <trkpt lat="46.88019" lon="4.6643">
        <ele>225.60000610352</ele>
        <time>2021-05-22T14:20:16Z</time>
      </trkpt>
      <trkpt lat="46.88008" lon="4.66408">
        <ele>225.60000610352</ele>
        <time>2021-05-22T14:20:19Z</time>
      </trkpt>
      <trkpt lat="46.87997" lon="4.66381">
        <ele>225</ele>
        <time>2021-05-22T14:20:23Z</time>
      </trkpt>
      <trkpt lat="46.87986" lon="4.66354">
        <ele>225</ele>
        <time>2021-05-22T14:20:27Z</time>
      </trkpt>
      <trkpt lat="46.87976" lon="4.66334">
        <ele>225.39999389648</ele>
        <time>2021-05-22T14:20:30Z</time>
      </trkpt>
      <trkpt lat="46.87963" lon="4.66309">
        <ele>225.80000305176</ele>
        <time>2021-05-22T14:20:34Z</time>
      </trkpt>
      <trkpt lat="46.87946" lon="4.66285">
        <ele>226</ele>
        <time>2021-05-22T14:20:38Z</time>
      </trkpt>
      <trkpt lat="46.87934" lon="4.66266">
        <ele>225.39999389648</ele>
        <time>2021-05-22T14:20:41Z</time>
      </trkpt>
      <trkpt lat="46.87923" lon="4.66235">
        <ele>224.39999389648</ele>
        <time>2021-05-22T14:20:45Z</time>
      </trkpt>
      <trkpt lat="46.87914" lon="4.66204">
        <ele>224</ele>
        <time>2021-05-22T14:20:49Z</time>
      </trkpt>
      <trkpt lat="46.879" lon="4.66176">
        <ele>224</ele>
        <time>2021-05-22T14:20:53Z</time>
      </trkpt>
      <trkpt lat="46.87886" lon="4.66157">
        <ele>224.60000610352</ele>
        <time>2021-05-22T14:20:56Z</time>
      </trkpt>
      <trkpt lat="46.87871" lon="4.66137">
        <ele>225.19999694824</ele>
        <time>2021-05-22T14:20:59Z</time>
      </trkpt>
      <trkpt lat="46.87855" lon="4.66118">
        <ele>225.39999389648</ele>
        <time>2021-05-22T14:21:02Z</time>
      </trkpt>
      <trkpt lat="46.87844" lon="4.66105">
        <ele>225</ele>
        <time>2021-05-22T14:21:04Z</time>
      </trkpt>
      <trkpt lat="46.87827" lon="4.66088">
        <ele>224.39999389648</ele>
        <time>2021-05-22T14:21:07Z</time>
      </trkpt>
      <trkpt lat="46.87822" lon="4.66083">
        <ele>224.19999694824</ele>
        <time>2021-05-22T14:21:08Z</time>
      </trkpt>
      <trkpt lat="46.87804" lon="4.66071">
        <ele>224</ele>
        <time>2021-05-22T14:21:11Z</time>
      </trkpt>
      <trkpt lat="46.87783" lon="4.66057">
        <ele>224.19999694824</ele>
        <time>2021-05-22T14:21:15Z</time>
      </trkpt>
      <trkpt lat="46.87761" lon="4.66043">
        <ele>225</ele>
        <time>2021-05-22T14:21:19Z</time>
      </trkpt>
      <trkpt lat="46.8774" lon="4.66029">
        <ele>225.60000610352</ele>
        <time>2021-05-22T14:21:23Z</time>
      </trkpt>
      <trkpt lat="46.87718" lon="4.66014">
        <ele>225.80000305176</ele>
        <time>2021-05-22T14:21:27Z</time>
      </trkpt>
      <trkpt lat="46.87697" lon="4.66">
        <ele>225.80000305176</ele>
        <time>2021-05-22T14:21:31Z</time>
      </trkpt>
      <trkpt lat="46.87676" lon="4.65988">
        <ele>225.39999389648</ele>
        <time>2021-05-22T14:21:35Z</time>
      </trkpt>
      <trkpt lat="46.87654" lon="4.65974">
        <ele>225</ele>
        <time>2021-05-22T14:21:39Z</time>
      </trkpt>
      <trkpt lat="46.87633" lon="4.6596">
        <ele>225</ele>
        <time>2021-05-22T14:21:43Z</time>
      </trkpt>
      <trkpt lat="46.8761" lon="4.65947">
        <ele>225</ele>
        <time>2021-05-22T14:21:47Z</time>
      </trkpt>
      <trkpt lat="46.87594" lon="4.65936">
        <ele>224.60000610352</ele>
        <time>2021-05-22T14:21:50Z</time>
      </trkpt>
      <trkpt lat="46.87577" lon="4.65923">
        <ele>224</ele>
        <time>2021-05-22T14:21:53Z</time>
      </trkpt>
      <trkpt lat="46.87561" lon="4.6591">
        <ele>224</ele>
        <time>2021-05-22T14:21:56Z</time>
      </trkpt>
      <trkpt lat="46.87545" lon="4.65897">
        <ele>224</ele>
        <time>2021-05-22T14:21:59Z</time>
      </trkpt>
      <trkpt lat="46.87529" lon="4.65884">
        <ele>224</ele>
        <time>2021-05-22T14:22:02Z</time>
      </trkpt>
      <trkpt lat="46.8751" lon="4.65866">
        <ele>224</ele>
        <time>2021-05-22T14:22:06Z</time>
      </trkpt>
      <trkpt lat="46.8749" lon="4.65847">
        <ele>225.39999389648</ele>
        <time>2021-05-22T14:22:10Z</time>
      </trkpt>
      <trkpt lat="46.87472" lon="4.65828">
        <ele>226.39999389648</ele>
        <time>2021-05-22T14:22:14Z</time>
      </trkpt>
      <trkpt lat="46.87455" lon="4.65809">
        <ele>227</ele>
        <time>2021-05-22T14:22:18Z</time>
      </trkpt>
      <trkpt lat="46.87436" lon="4.6579">
        <ele>226.19999694824</ele>
        <time>2021-05-22T14:22:22Z</time>
      </trkpt>
      <trkpt lat="46.87416" lon="4.6577">
        <ele>226</ele>
        <time>2021-05-22T14:22:26Z</time>
      </trkpt>
      <trkpt lat="46.87397" lon="4.65752">
        <ele>226.19999694824</ele>
        <time>2021-05-22T14:22:30Z</time>
      </trkpt>
      <trkpt lat="46.87381" lon="4.65736">
        <ele>227.39999389648</ele>
        <time>2021-05-22T14:22:33Z</time>
      </trkpt>
      <trkpt lat="46.87365" lon="4.65722">
        <ele>228</ele>
        <time>2021-05-22T14:22:36Z</time>
      </trkpt>
      <trkpt lat="46.8735" lon="4.65705">
        <ele>227.19999694824</ele>
        <time>2021-05-22T14:22:39Z</time>
      </trkpt>
      <trkpt lat="46.87335" lon="4.65689">
        <ele>227.19999694824</ele>
        <time>2021-05-22T14:22:42Z</time>
      </trkpt>
      <trkpt lat="46.87321" lon="4.6567">
        <ele>227.60000610352</ele>
        <time>2021-05-22T14:22:45Z</time>
      </trkpt>
      <trkpt lat="46.87307" lon="4.6565">
        <ele>228.60000610352</ele>
        <time>2021-05-22T14:22:48Z</time>
      </trkpt>
      <trkpt lat="46.87295" lon="4.65628">
        <ele>229</ele>
        <time>2021-05-22T14:22:51Z</time>
      </trkpt>
      <trkpt lat="46.87285" lon="4.65604">
        <ele>228.80000305176</ele>
        <time>2021-05-22T14:22:54Z</time>
      </trkpt>
      <trkpt lat="46.87276" lon="4.65582">
        <ele>228.19999694824</ele>
        <time>2021-05-22T14:22:57Z</time>
      </trkpt>
      <trkpt lat="46.87265" lon="4.65561">
        <ele>227.80000305176</ele>
        <time>2021-05-22T14:23:00Z</time>
      </trkpt>
      <trkpt lat="46.87251" lon="4.65541">
        <ele>227.60000610352</ele>
        <time>2021-05-22T14:23:03Z</time>
      </trkpt>
      <trkpt lat="46.87237" lon="4.65522">
        <ele>227.60000610352</ele>
        <time>2021-05-22T14:23:06Z</time>
      </trkpt>
      <trkpt lat="46.87218" lon="4.655">
        <ele>227.39999389648</ele>
        <time>2021-05-22T14:23:10Z</time>
      </trkpt>
      <trkpt lat="46.87205" lon="4.65482">
        <ele>227.19999694824</ele>
        <time>2021-05-22T14:23:13Z</time>
      </trkpt>
      <trkpt lat="46.87197" lon="4.65472">
        <ele>227.60000610352</ele>
        <time>2021-05-22T14:23:15Z</time>
      </trkpt>
      <trkpt lat="46.87181" lon="4.65454">
        <ele>228.80000305176</ele>
        <time>2021-05-22T14:23:19Z</time>
      </trkpt>
      <trkpt lat="46.87173" lon="4.65443">
        <ele>229.19999694824</ele>
        <time>2021-05-22T14:23:21Z</time>
      </trkpt>
      <trkpt lat="46.87165" lon="4.65432">
        <ele>229.39999389648</ele>
        <time>2021-05-22T14:23:23Z</time>
      </trkpt>
      <trkpt lat="46.87148" lon="4.65408">
        <ele>230</ele>
        <time>2021-05-22T14:23:27Z</time>
      </trkpt>
      <trkpt lat="46.87139" lon="4.65396">
        <ele>230</ele>
        <time>2021-05-22T14:23:29Z</time>
      </trkpt>
      <trkpt lat="46.87125" lon="4.65377">
        <ele>229.39999389648</ele>
        <time>2021-05-22T14:23:32Z</time>
      </trkpt>
      <trkpt lat="46.87111" lon="4.65359">
        <ele>228.80000305176</ele>
        <time>2021-05-22T14:23:35Z</time>
      </trkpt>
      <trkpt lat="46.87096" lon="4.65341">
        <ele>228.19999694824</ele>
        <time>2021-05-22T14:23:38Z</time>
      </trkpt>
      <trkpt lat="46.87091" lon="4.65335">
        <ele>228.19999694824</ele>
        <time>2021-05-22T14:23:39Z</time>
      </trkpt>
      <trkpt lat="46.87076" lon="4.65317">
        <ele>229.19999694824</ele>
        <time>2021-05-22T14:23:42Z</time>
      </trkpt>
      <trkpt lat="46.87062" lon="4.65299">
        <ele>229.60000610352</ele>
        <time>2021-05-22T14:23:45Z</time>
      </trkpt>
      <trkpt lat="46.87049" lon="4.65279">
        <ele>229.80000305176</ele>
        <time>2021-05-22T14:23:48Z</time>
      </trkpt>
      <trkpt lat="46.87037" lon="4.6526">
        <ele>230.19999694824</ele>
        <time>2021-05-22T14:23:51Z</time>
      </trkpt>
      <trkpt lat="46.87025" lon="4.65238">
        <ele>229.80000305176</ele>
        <time>2021-05-22T14:23:54Z</time>
      </trkpt>
      <trkpt lat="46.87015" lon="4.65215">
        <ele>229.39999389648</ele>
        <time>2021-05-22T14:23:57Z</time>
      </trkpt>
      <trkpt lat="46.87004" lon="4.65193">
        <ele>229.19999694824</ele>
        <time>2021-05-22T14:24:00Z</time>
      </trkpt>
      <trkpt lat="46.86992" lon="4.65166">
        <ele>229.19999694824</ele>
        <time>2021-05-22T14:24:04Z</time>
      </trkpt>
      <trkpt lat="46.86978" lon="4.65138">
        <ele>229</ele>
        <time>2021-05-22T14:24:08Z</time>
      </trkpt>
      <trkpt lat="46.86963" lon="4.65113">
        <ele>228.39999389648</ele>
        <time>2021-05-22T14:24:12Z</time>
      </trkpt>
      <trkpt lat="46.86947" lon="4.65088">
        <ele>228.60000610352</ele>
        <time>2021-05-22T14:24:16Z</time>
      </trkpt>
      <trkpt lat="46.86932" lon="4.65062">
        <ele>229.60000610352</ele>
        <time>2021-05-22T14:24:20Z</time>
      </trkpt>
      <trkpt lat="46.86928" lon="4.65055">
        <ele>229.60000610352</ele>
        <time>2021-05-22T14:24:21Z</time>
      </trkpt>
      <trkpt lat="46.86918" lon="4.65033">
        <ele>229.60000610352</ele>
        <time>2021-05-22T14:24:24Z</time>
      </trkpt>
      <trkpt lat="46.86909" lon="4.6501">
        <ele>230.19999694824</ele>
        <time>2021-05-22T14:24:27Z</time>
      </trkpt>
      <trkpt lat="46.869" lon="4.64978">
        <ele>230</ele>
        <time>2021-05-22T14:24:31Z</time>
      </trkpt>
      <trkpt lat="46.86892" lon="4.64946">
        <ele>230</ele>
        <time>2021-05-22T14:24:35Z</time>
      </trkpt>
      <trkpt lat="46.86884" lon="4.64914">
        <ele>229.60000610352</ele>
        <time>2021-05-22T14:24:39Z</time>
      </trkpt>
      <trkpt lat="46.86875" lon="4.64883">
        <ele>229.80000305176</ele>
        <time>2021-05-22T14:24:43Z</time>
      </trkpt>
      <trkpt lat="46.86866" lon="4.64852">
        <ele>230.19999694824</ele>
        <time>2021-05-22T14:24:47Z</time>
      </trkpt>
      <trkpt lat="46.86856" lon="4.64823">
        <ele>230.39999389648</ele>
        <time>2021-05-22T14:24:51Z</time>
      </trkpt>
      <trkpt lat="46.86848" lon="4.64791">
        <ele>230</ele>
        <time>2021-05-22T14:24:55Z</time>
      </trkpt>
      <trkpt lat="46.86837" lon="4.64761">
        <ele>229.39999389648</ele>
        <time>2021-05-22T14:24:59Z</time>
      </trkpt>
      <trkpt lat="46.86826" lon="4.6474">
        <ele>229.19999694824</ele>
        <time>2021-05-22T14:25:02Z</time>
      </trkpt>
      <trkpt lat="46.86813" lon="4.64721">
        <ele>229</ele>
        <time>2021-05-22T14:25:05Z</time>
      </trkpt>
      <trkpt lat="46.86798" lon="4.64703">
        <ele>228.80000305176</ele>
        <time>2021-05-22T14:25:08Z</time>
      </trkpt>
      <trkpt lat="46.86784" lon="4.64686">
        <ele>228.80000305176</ele>
        <time>2021-05-22T14:25:11Z</time>
      </trkpt>
      <trkpt lat="46.86769" lon="4.64669">
        <ele>228.60000610352</ele>
        <time>2021-05-22T14:25:14Z</time>
      </trkpt>
      <trkpt lat="46.86755" lon="4.64652">
        <ele>229</ele>
        <time>2021-05-22T14:25:17Z</time>
      </trkpt>
      <trkpt lat="46.86741" lon="4.64635">
        <ele>228.80000305176</ele>
        <time>2021-05-22T14:25:20Z</time>
      </trkpt>
      <trkpt lat="46.86722" lon="4.64615">
        <ele>228.39999389648</ele>
        <time>2021-05-22T14:25:24Z</time>
      </trkpt>
      <trkpt lat="46.86702" lon="4.64601">
        <ele>229.19999694824</ele>
        <time>2021-05-22T14:25:28Z</time>
      </trkpt>
      <trkpt lat="46.86681" lon="4.64593">
        <ele>230.60000610352</ele>
        <time>2021-05-22T14:25:32Z</time>
      </trkpt>
      <trkpt lat="46.86662" lon="4.64591">
        <ele>232</ele>
        <time>2021-05-22T14:25:36Z</time>
      </trkpt>
      <trkpt lat="46.86645" lon="4.64593">
        <ele>232.80000305176</ele>
        <time>2021-05-22T14:25:43Z</time>
      </trkpt>
      <trkpt lat="46.86642" lon="4.64604">
        <ele>232.80000305176</ele>
        <time>2021-05-22T14:25:58Z</time>
      </trkpt>
      <trkpt lat="46.86644" lon="4.64631">
        <ele>232.19999694824</ele>
        <time>2021-05-22T14:26:03Z</time>
      </trkpt>
      <trkpt lat="46.86641" lon="4.64666">
        <ele>232.60000610352</ele>
        <time>2021-05-22T14:26:07Z</time>
      </trkpt>
      <trkpt lat="46.86638" lon="4.64694">
        <ele>233.39999389648</ele>
        <time>2021-05-22T14:26:10Z</time>
      </trkpt>
      <trkpt lat="46.86634" lon="4.64719">
        <ele>234.39999389648</ele>
        <time>2021-05-22T14:26:13Z</time>
      </trkpt>
      <trkpt lat="46.86629" lon="4.64751">
        <ele>236</ele>
        <time>2021-05-22T14:26:17Z</time>
      </trkpt>
      <trkpt lat="46.86624" lon="4.6478">
        <ele>236.80000305176</ele>
        <time>2021-05-22T14:26:21Z</time>
      </trkpt>
      <trkpt lat="46.86621" lon="4.64806">
        <ele>237</ele>
        <time>2021-05-22T14:26:25Z</time>
      </trkpt>
      <trkpt lat="46.86617" lon="4.64832">
        <ele>238.19999694824</ele>
        <time>2021-05-22T14:26:29Z</time>
      </trkpt>
      <trkpt lat="46.86615" lon="4.64844">
        <ele>238.39999389648</ele>
        <time>2021-05-22T14:26:31Z</time>
      </trkpt>
      <trkpt lat="46.86615" lon="4.6485">
        <ele>238.60000610352</ele>
        <time>2021-05-22T14:26:32Z</time>
      </trkpt>
      <trkpt lat="46.86616" lon="4.64859">
        <ele>239</ele>
        <time>2021-05-22T14:26:34Z</time>
      </trkpt>
      <trkpt lat="46.86618" lon="4.64863">
        <ele>239</ele>
        <time>2021-05-22T14:26:35Z</time>
      </trkpt>
      <trkpt lat="46.86621" lon="4.64865">
        <ele>239</ele>
        <time>2021-05-22T14:26:36Z</time>
      </trkpt>
      <trkpt lat="46.86637" lon="4.64889">
        <ele>239.19999694824</ele>
        <time>2021-05-22T14:26:41Z</time>
      </trkpt>
      <trkpt lat="46.86645" lon="4.64916">
        <ele>240</ele>
        <time>2021-05-22T14:26:45Z</time>
      </trkpt>
      <trkpt lat="46.86651" lon="4.64941">
        <ele>240</ele>
        <time>2021-05-22T14:26:49Z</time>
      </trkpt>
      <trkpt lat="46.8666" lon="4.6497">
        <ele>240.39999389648</ele>
        <time>2021-05-22T14:26:54Z</time>
      </trkpt>
      <trkpt lat="46.86666" lon="4.6498">
        <ele>240.60000610352</ele>
        <time>2021-05-22T14:26:56Z</time>
      </trkpt>
      <trkpt lat="46.86684" lon="4.65">
        <ele>240.60000610352</ele>
        <time>2021-05-22T14:27:00Z</time>
      </trkpt>
      <trkpt lat="46.86702" lon="4.65015">
        <ele>240.80000305176</ele>
        <time>2021-05-22T14:27:03Z</time>
      </trkpt>
      <trkpt lat="46.8672" lon="4.65028">
        <ele>240.19999694824</ele>
        <time>2021-05-22T14:27:06Z</time>
      </trkpt>
      <trkpt lat="46.86737" lon="4.65038">
        <ele>238.80000305176</ele>
        <time>2021-05-22T14:27:09Z</time>
      </trkpt>
      <trkpt lat="46.86757" lon="4.65046">
        <ele>236.80000305176</ele>
        <time>2021-05-22T14:27:12Z</time>
      </trkpt>
      <trkpt lat="46.86774" lon="4.65056">
        <ele>236.39999389648</ele>
        <time>2021-05-22T14:27:15Z</time>
      </trkpt>
      <trkpt lat="46.86781" lon="4.65061">
        <ele>236.19999694824</ele>
        <time>2021-05-22T14:27:17Z</time>
      </trkpt>
      <trkpt lat="46.86786" lon="4.65063">
        <ele>236.19999694824</ele>
        <time>2021-05-22T14:27:21Z</time>
      </trkpt>
      <trkpt lat="46.86784" lon="4.65062">
        <ele>236.19999694824</ele>
        <time>2021-05-22T14:28:11Z</time>
      </trkpt>
    </trkseg>
  </trk>
</gpx>